<?xml version="1.0" encoding="UTF-8" standalone="no" ?>
<gpx xmlns="http://www.topografix.com/GPX/1/1" xmlns:xsi="http://www.w3.org/2001/XMLSchema-instance" xsi:schemaLocation="http://www.topografix.com/GPX/1/1 http://www.topografix.com/GPX/1/1/gpx.xsd" version="1.1" creator="VisuGPX - https://www.visugpx.com">
  <metadata>
    <name>collienes et bosses de greasque</name>
    <desc><![CDATA[trace de la rando prévu le 14/06/2015
partie 23 km]]></desc>
  </metadata>
  <trk>
    <name><![CDATA[ 22]]></name>
    <trkseg>
      <trkpt lat="43.43212" lon="5.54657">
        <ele>317</ele>
        <time>2015-01-16T08:13:30Z</time>
      </trkpt>
      <trkpt lat="43.43212" lon="5.54657">
        <ele>317</ele>
        <time>2015-01-16T08:14:00Z</time>
      </trkpt>
      <trkpt lat="43.43211" lon="5.54666">
        <ele>316</ele>
        <time>2015-01-16T08:14:19Z</time>
      </trkpt>
      <trkpt lat="43.43212" lon="5.54675">
        <ele>316</ele>
        <time>2015-01-16T08:14:21Z</time>
      </trkpt>
      <trkpt lat="43.43211" lon="5.54685">
        <ele>316</ele>
        <time>2015-01-16T08:14:23Z</time>
      </trkpt>
      <trkpt lat="43.43212" lon="5.54695">
        <ele>316</ele>
        <time>2015-01-16T08:14:25Z</time>
      </trkpt>
      <trkpt lat="43.43213" lon="5.54709">
        <ele>316</ele>
        <time>2015-01-16T08:14:27Z</time>
      </trkpt>
      <trkpt lat="43.43213" lon="5.54715">
        <ele>316</ele>
        <time>2015-01-16T08:14:28Z</time>
      </trkpt>
      <trkpt lat="43.43213" lon="5.54722">
        <ele>316</ele>
        <time>2015-01-16T08:14:29Z</time>
      </trkpt>
      <trkpt lat="43.43212" lon="5.5473">
        <ele>317</ele>
        <time>2015-01-16T08:14:31Z</time>
      </trkpt>
      <trkpt lat="43.43211" lon="5.54737">
        <ele>317</ele>
        <time>2015-01-16T08:14:34Z</time>
      </trkpt>
      <trkpt lat="43.43214" lon="5.54742">
        <ele>317</ele>
        <time>2015-01-16T08:14:36Z</time>
      </trkpt>
      <trkpt lat="43.4322" lon="5.54747">
        <ele>317</ele>
        <time>2015-01-16T08:14:38Z</time>
      </trkpt>
      <trkpt lat="43.43225" lon="5.54746">
        <ele>318</ele>
        <time>2015-01-16T08:14:42Z</time>
      </trkpt>
      <trkpt lat="43.4323" lon="5.54744">
        <ele>318</ele>
        <time>2015-01-16T08:14:48Z</time>
      </trkpt>
      <trkpt lat="43.43229" lon="5.54738">
        <ele>318</ele>
        <time>2015-01-16T08:15:06Z</time>
      </trkpt>
      <trkpt lat="43.43233" lon="5.54732">
        <ele>316</ele>
        <time>2015-01-16T08:15:29Z</time>
      </trkpt>
      <trkpt lat="43.43239" lon="5.54732">
        <ele>315</ele>
        <time>2015-01-16T08:15:31Z</time>
      </trkpt>
      <trkpt lat="43.43247" lon="5.5473">
        <ele>311</ele>
        <time>2015-01-16T08:15:33Z</time>
      </trkpt>
      <trkpt lat="43.43256" lon="5.54725">
        <ele>309</ele>
        <time>2015-01-16T08:15:35Z</time>
      </trkpt>
      <trkpt lat="43.43262" lon="5.54721">
        <ele>309</ele>
        <time>2015-01-16T08:15:36Z</time>
      </trkpt>
      <trkpt lat="43.43269" lon="5.54719">
        <ele>309</ele>
        <time>2015-01-16T08:15:37Z</time>
      </trkpt>
      <trkpt lat="43.43275" lon="5.54717">
        <ele>310</ele>
        <time>2015-01-16T08:15:38Z</time>
      </trkpt>
      <trkpt lat="43.43281" lon="5.54717">
        <ele>310</ele>
        <time>2015-01-16T08:15:39Z</time>
      </trkpt>
      <trkpt lat="43.43287" lon="5.54717">
        <ele>311</ele>
        <time>2015-01-16T08:15:40Z</time>
      </trkpt>
      <trkpt lat="43.43292" lon="5.54718">
        <ele>311</ele>
        <time>2015-01-16T08:15:41Z</time>
      </trkpt>
      <trkpt lat="43.43299" lon="5.54719">
        <ele>312</ele>
        <time>2015-01-16T08:15:42Z</time>
      </trkpt>
      <trkpt lat="43.43306" lon="5.54719">
        <ele>312</ele>
        <time>2015-01-16T08:15:43Z</time>
      </trkpt>
      <trkpt lat="43.43314" lon="5.54721">
        <ele>312</ele>
        <time>2015-01-16T08:15:44Z</time>
      </trkpt>
      <trkpt lat="43.43322" lon="5.54722">
        <ele>311</ele>
        <time>2015-01-16T08:15:45Z</time>
      </trkpt>
      <trkpt lat="43.4333" lon="5.54724">
        <ele>311</ele>
        <time>2015-01-16T08:15:46Z</time>
      </trkpt>
      <trkpt lat="43.43338" lon="5.54725">
        <ele>310</ele>
        <time>2015-01-16T08:15:47Z</time>
      </trkpt>
      <trkpt lat="43.43346" lon="5.54726">
        <ele>309</ele>
        <time>2015-01-16T08:15:48Z</time>
      </trkpt>
      <trkpt lat="43.43353" lon="5.5473">
        <ele>308</ele>
        <time>2015-01-16T08:15:49Z</time>
      </trkpt>
      <trkpt lat="43.43361" lon="5.54735">
        <ele>307</ele>
        <time>2015-01-16T08:15:50Z</time>
      </trkpt>
      <trkpt lat="43.43367" lon="5.5474">
        <ele>306</ele>
        <time>2015-01-16T08:15:51Z</time>
      </trkpt>
      <trkpt lat="43.43373" lon="5.54745">
        <ele>305</ele>
        <time>2015-01-16T08:15:52Z</time>
      </trkpt>
      <trkpt lat="43.43378" lon="5.54749">
        <ele>304</ele>
        <time>2015-01-16T08:15:53Z</time>
      </trkpt>
      <trkpt lat="43.43382" lon="5.54754">
        <ele>304</ele>
        <time>2015-01-16T08:15:54Z</time>
      </trkpt>
      <trkpt lat="43.43385" lon="5.54759">
        <ele>304</ele>
        <time>2015-01-16T08:15:56Z</time>
      </trkpt>
      <trkpt lat="43.43389" lon="5.54768">
        <ele>303</ele>
        <time>2015-01-16T08:15:58Z</time>
      </trkpt>
      <trkpt lat="43.43393" lon="5.54772">
        <ele>303</ele>
        <time>2015-01-16T08:15:59Z</time>
      </trkpt>
      <trkpt lat="43.43397" lon="5.54777">
        <ele>303</ele>
        <time>2015-01-16T08:16:00Z</time>
      </trkpt>
      <trkpt lat="43.43401" lon="5.54781">
        <ele>303</ele>
        <time>2015-01-16T08:16:01Z</time>
      </trkpt>
      <trkpt lat="43.43403" lon="5.54786">
        <ele>302</ele>
        <time>2015-01-16T08:16:02Z</time>
      </trkpt>
      <trkpt lat="43.43406" lon="5.54792">
        <ele>301</ele>
        <time>2015-01-16T08:16:03Z</time>
      </trkpt>
      <trkpt lat="43.4341" lon="5.54799">
        <ele>300</ele>
        <time>2015-01-16T08:16:04Z</time>
      </trkpt>
      <trkpt lat="43.43414" lon="5.54807">
        <ele>300</ele>
        <time>2015-01-16T08:16:05Z</time>
      </trkpt>
      <trkpt lat="43.43419" lon="5.54816">
        <ele>300</ele>
        <time>2015-01-16T08:16:06Z</time>
      </trkpt>
      <trkpt lat="43.43423" lon="5.54825">
        <ele>299</ele>
        <time>2015-01-16T08:16:07Z</time>
      </trkpt>
      <trkpt lat="43.43427" lon="5.54835">
        <ele>298</ele>
        <time>2015-01-16T08:16:08Z</time>
      </trkpt>
      <trkpt lat="43.43431" lon="5.54847">
        <ele>298</ele>
        <time>2015-01-16T08:16:09Z</time>
      </trkpt>
      <trkpt lat="43.43433" lon="5.54856">
        <ele>297</ele>
        <time>2015-01-16T08:16:10Z</time>
      </trkpt>
      <trkpt lat="43.43435" lon="5.54863">
        <ele>296</ele>
        <time>2015-01-16T08:16:11Z</time>
      </trkpt>
      <trkpt lat="43.43437" lon="5.5487">
        <ele>296</ele>
        <time>2015-01-16T08:16:12Z</time>
      </trkpt>
      <trkpt lat="43.43441" lon="5.54878">
        <ele>296</ele>
        <time>2015-01-16T08:16:13Z</time>
      </trkpt>
      <trkpt lat="43.43444" lon="5.54884">
        <ele>295</ele>
        <time>2015-01-16T08:16:14Z</time>
      </trkpt>
      <trkpt lat="43.43448" lon="5.54888">
        <ele>295</ele>
        <time>2015-01-16T08:16:15Z</time>
      </trkpt>
      <trkpt lat="43.43453" lon="5.54893">
        <ele>294</ele>
        <time>2015-01-16T08:16:16Z</time>
      </trkpt>
      <trkpt lat="43.43457" lon="5.54898">
        <ele>294</ele>
        <time>2015-01-16T08:16:17Z</time>
      </trkpt>
      <trkpt lat="43.43461" lon="5.54903">
        <ele>294</ele>
        <time>2015-01-16T08:16:18Z</time>
      </trkpt>
      <trkpt lat="43.43467" lon="5.54909">
        <ele>294</ele>
        <time>2015-01-16T08:16:19Z</time>
      </trkpt>
      <trkpt lat="43.43471" lon="5.54914">
        <ele>294</ele>
        <time>2015-01-16T08:16:20Z</time>
      </trkpt>
      <trkpt lat="43.43475" lon="5.5492">
        <ele>294</ele>
        <time>2015-01-16T08:16:21Z</time>
      </trkpt>
      <trkpt lat="43.43479" lon="5.54926">
        <ele>294</ele>
        <time>2015-01-16T08:16:22Z</time>
      </trkpt>
      <trkpt lat="43.43483" lon="5.5493">
        <ele>294</ele>
        <time>2015-01-16T08:16:23Z</time>
      </trkpt>
      <trkpt lat="43.43493" lon="5.54937">
        <ele>294</ele>
        <time>2015-01-16T08:16:25Z</time>
      </trkpt>
      <trkpt lat="43.435" lon="5.54943">
        <ele>293</ele>
        <time>2015-01-16T08:16:26Z</time>
      </trkpt>
      <trkpt lat="43.43507" lon="5.54949">
        <ele>292</ele>
        <time>2015-01-16T08:16:27Z</time>
      </trkpt>
      <trkpt lat="43.43512" lon="5.54957">
        <ele>291</ele>
        <time>2015-01-16T08:16:28Z</time>
      </trkpt>
      <trkpt lat="43.43515" lon="5.54963">
        <ele>290</ele>
        <time>2015-01-16T08:16:29Z</time>
      </trkpt>
      <trkpt lat="43.43518" lon="5.5497">
        <ele>289</ele>
        <time>2015-01-16T08:16:30Z</time>
      </trkpt>
      <trkpt lat="43.4352" lon="5.54976">
        <ele>289</ele>
        <time>2015-01-16T08:16:31Z</time>
      </trkpt>
      <trkpt lat="43.43525" lon="5.54981">
        <ele>289</ele>
        <time>2015-01-16T08:16:32Z</time>
      </trkpt>
      <trkpt lat="43.4353" lon="5.54987">
        <ele>288</ele>
        <time>2015-01-16T08:16:33Z</time>
      </trkpt>
      <trkpt lat="43.43534" lon="5.54994">
        <ele>287</ele>
        <time>2015-01-16T08:16:34Z</time>
      </trkpt>
      <trkpt lat="43.43536" lon="5.55">
        <ele>287</ele>
        <time>2015-01-16T08:16:35Z</time>
      </trkpt>
      <trkpt lat="43.43541" lon="5.5501">
        <ele>287</ele>
        <time>2015-01-16T08:16:37Z</time>
      </trkpt>
      <trkpt lat="43.43544" lon="5.55019">
        <ele>287</ele>
        <time>2015-01-16T08:16:39Z</time>
      </trkpt>
      <trkpt lat="43.4355" lon="5.55028">
        <ele>287</ele>
        <time>2015-01-16T08:16:41Z</time>
      </trkpt>
      <trkpt lat="43.43554" lon="5.55031">
        <ele>287</ele>
        <time>2015-01-16T08:16:42Z</time>
      </trkpt>
      <trkpt lat="43.4356" lon="5.55038">
        <ele>287</ele>
        <time>2015-01-16T08:16:44Z</time>
      </trkpt>
      <trkpt lat="43.43566" lon="5.55043">
        <ele>287</ele>
        <time>2015-01-16T08:16:46Z</time>
      </trkpt>
      <trkpt lat="43.43574" lon="5.55047">
        <ele>287</ele>
        <time>2015-01-16T08:16:48Z</time>
      </trkpt>
      <trkpt lat="43.43582" lon="5.5505">
        <ele>288</ele>
        <time>2015-01-16T08:16:50Z</time>
      </trkpt>
      <trkpt lat="43.43587" lon="5.55052">
        <ele>288</ele>
        <time>2015-01-16T08:16:51Z</time>
      </trkpt>
      <trkpt lat="43.43591" lon="5.55055">
        <ele>288</ele>
        <time>2015-01-16T08:16:52Z</time>
      </trkpt>
      <trkpt lat="43.43593" lon="5.55063">
        <ele>287</ele>
        <time>2015-01-16T08:16:55Z</time>
      </trkpt>
      <trkpt lat="43.43594" lon="5.55069">
        <ele>287</ele>
        <time>2015-01-16T08:16:57Z</time>
      </trkpt>
      <trkpt lat="43.43596" lon="5.55077">
        <ele>287</ele>
        <time>2015-01-16T08:16:59Z</time>
      </trkpt>
      <trkpt lat="43.43597" lon="5.55085">
        <ele>287</ele>
        <time>2015-01-16T08:17:01Z</time>
      </trkpt>
      <trkpt lat="43.43598" lon="5.55094">
        <ele>287</ele>
        <time>2015-01-16T08:17:03Z</time>
      </trkpt>
      <trkpt lat="43.43601" lon="5.55102">
        <ele>287</ele>
        <time>2015-01-16T08:17:05Z</time>
      </trkpt>
      <trkpt lat="43.43607" lon="5.55109">
        <ele>287</ele>
        <time>2015-01-16T08:17:07Z</time>
      </trkpt>
      <trkpt lat="43.43612" lon="5.55118">
        <ele>287</ele>
        <time>2015-01-16T08:17:09Z</time>
      </trkpt>
      <trkpt lat="43.43616" lon="5.55124">
        <ele>287</ele>
        <time>2015-01-16T08:17:11Z</time>
      </trkpt>
      <trkpt lat="43.43619" lon="5.55131">
        <ele>287</ele>
        <time>2015-01-16T08:17:13Z</time>
      </trkpt>
      <trkpt lat="43.43623" lon="5.55135">
        <ele>287</ele>
        <time>2015-01-16T08:17:15Z</time>
      </trkpt>
      <trkpt lat="43.43628" lon="5.55141">
        <ele>287</ele>
        <time>2015-01-16T08:17:17Z</time>
      </trkpt>
      <trkpt lat="43.43633" lon="5.55145">
        <ele>287</ele>
        <time>2015-01-16T08:17:19Z</time>
      </trkpt>
      <trkpt lat="43.43638" lon="5.55151">
        <ele>288</ele>
        <time>2015-01-16T08:17:21Z</time>
      </trkpt>
      <trkpt lat="43.43642" lon="5.55158">
        <ele>288</ele>
        <time>2015-01-16T08:17:23Z</time>
      </trkpt>
      <trkpt lat="43.43647" lon="5.55164">
        <ele>288</ele>
        <time>2015-01-16T08:17:25Z</time>
      </trkpt>
      <trkpt lat="43.43654" lon="5.55169">
        <ele>288</ele>
        <time>2015-01-16T08:17:27Z</time>
      </trkpt>
      <trkpt lat="43.4366" lon="5.55175">
        <ele>288</ele>
        <time>2015-01-16T08:17:29Z</time>
      </trkpt>
      <trkpt lat="43.43665" lon="5.5518">
        <ele>288</ele>
        <time>2015-01-16T08:17:31Z</time>
      </trkpt>
      <trkpt lat="43.4367" lon="5.55183">
        <ele>289</ele>
        <time>2015-01-16T08:17:33Z</time>
      </trkpt>
      <trkpt lat="43.43676" lon="5.55188">
        <ele>289</ele>
        <time>2015-01-16T08:17:35Z</time>
      </trkpt>
      <trkpt lat="43.43684" lon="5.55191">
        <ele>289</ele>
        <time>2015-01-16T08:17:37Z</time>
      </trkpt>
      <trkpt lat="43.43691" lon="5.55195">
        <ele>289</ele>
        <time>2015-01-16T08:17:39Z</time>
      </trkpt>
      <trkpt lat="43.43697" lon="5.55198">
        <ele>289</ele>
        <time>2015-01-16T08:17:41Z</time>
      </trkpt>
      <trkpt lat="43.43704" lon="5.55201">
        <ele>289</ele>
        <time>2015-01-16T08:17:43Z</time>
      </trkpt>
      <trkpt lat="43.43712" lon="5.55203">
        <ele>289</ele>
        <time>2015-01-16T08:17:45Z</time>
      </trkpt>
      <trkpt lat="43.43718" lon="5.55204">
        <ele>289</ele>
        <time>2015-01-16T08:17:47Z</time>
      </trkpt>
      <trkpt lat="43.43727" lon="5.55203">
        <ele>289</ele>
        <time>2015-01-16T08:17:49Z</time>
      </trkpt>
      <trkpt lat="43.43736" lon="5.55201">
        <ele>290</ele>
        <time>2015-01-16T08:17:51Z</time>
      </trkpt>
      <trkpt lat="43.43742" lon="5.552">
        <ele>290</ele>
        <time>2015-01-16T08:17:52Z</time>
      </trkpt>
      <trkpt lat="43.43747" lon="5.55199">
        <ele>290</ele>
        <time>2015-01-16T08:17:53Z</time>
      </trkpt>
      <trkpt lat="43.43752" lon="5.55198">
        <ele>290</ele>
        <time>2015-01-16T08:17:54Z</time>
      </trkpt>
      <trkpt lat="43.43761" lon="5.55197">
        <ele>290</ele>
        <time>2015-01-16T08:17:56Z</time>
      </trkpt>
      <trkpt lat="43.43766" lon="5.55197">
        <ele>290</ele>
        <time>2015-01-16T08:17:57Z</time>
      </trkpt>
      <trkpt lat="43.43774" lon="5.55197">
        <ele>290</ele>
        <time>2015-01-16T08:17:59Z</time>
      </trkpt>
      <trkpt lat="43.43781" lon="5.55198">
        <ele>290</ele>
        <time>2015-01-16T08:18:01Z</time>
      </trkpt>
      <trkpt lat="43.43787" lon="5.55199">
        <ele>290</ele>
        <time>2015-01-16T08:18:03Z</time>
      </trkpt>
      <trkpt lat="43.43794" lon="5.55202">
        <ele>290</ele>
        <time>2015-01-16T08:18:05Z</time>
      </trkpt>
      <trkpt lat="43.438" lon="5.55203">
        <ele>290</ele>
        <time>2015-01-16T08:18:07Z</time>
      </trkpt>
      <trkpt lat="43.43807" lon="5.55203">
        <ele>289</ele>
        <time>2015-01-16T08:18:09Z</time>
      </trkpt>
      <trkpt lat="43.43812" lon="5.55206">
        <ele>289</ele>
        <time>2015-01-16T08:18:11Z</time>
      </trkpt>
      <trkpt lat="43.43809" lon="5.55211">
        <ele>289</ele>
        <time>2015-01-16T08:18:17Z</time>
      </trkpt>
      <trkpt lat="43.43805" lon="5.55214">
        <ele>289</ele>
        <time>2015-01-16T08:18:19Z</time>
      </trkpt>
      <trkpt lat="43.438" lon="5.55218">
        <ele>289</ele>
        <time>2015-01-16T08:18:22Z</time>
      </trkpt>
      <trkpt lat="43.43797" lon="5.55225">
        <ele>289</ele>
        <time>2015-01-16T08:18:24Z</time>
      </trkpt>
      <trkpt lat="43.43795" lon="5.55231">
        <ele>289</ele>
        <time>2015-01-16T08:18:26Z</time>
      </trkpt>
      <trkpt lat="43.43795" lon="5.55239">
        <ele>289</ele>
        <time>2015-01-16T08:18:28Z</time>
      </trkpt>
      <trkpt lat="43.43795" lon="5.55246">
        <ele>289</ele>
        <time>2015-01-16T08:18:30Z</time>
      </trkpt>
      <trkpt lat="43.43794" lon="5.55254">
        <ele>290</ele>
        <time>2015-01-16T08:18:33Z</time>
      </trkpt>
      <trkpt lat="43.43792" lon="5.55261">
        <ele>290</ele>
        <time>2015-01-16T08:18:36Z</time>
      </trkpt>
      <trkpt lat="43.43792" lon="5.55268">
        <ele>290</ele>
        <time>2015-01-16T08:18:38Z</time>
      </trkpt>
      <trkpt lat="43.4379" lon="5.55274">
        <ele>291</ele>
        <time>2015-01-16T08:18:40Z</time>
      </trkpt>
      <trkpt lat="43.43789" lon="5.55282">
        <ele>291</ele>
        <time>2015-01-16T08:18:43Z</time>
      </trkpt>
      <trkpt lat="43.43785" lon="5.55289">
        <ele>291</ele>
        <time>2015-01-16T08:18:46Z</time>
      </trkpt>
      <trkpt lat="43.43782" lon="5.55297">
        <ele>292</ele>
        <time>2015-01-16T08:18:49Z</time>
      </trkpt>
      <trkpt lat="43.4378" lon="5.55303">
        <ele>292</ele>
        <time>2015-01-16T08:18:51Z</time>
      </trkpt>
      <trkpt lat="43.43778" lon="5.5531">
        <ele>292</ele>
        <time>2015-01-16T08:18:54Z</time>
      </trkpt>
      <trkpt lat="43.43776" lon="5.55317">
        <ele>293</ele>
        <time>2015-01-16T08:18:57Z</time>
      </trkpt>
      <trkpt lat="43.43777" lon="5.55324">
        <ele>293</ele>
        <time>2015-01-16T08:18:59Z</time>
      </trkpt>
      <trkpt lat="43.43773" lon="5.55331">
        <ele>293</ele>
        <time>2015-01-16T08:19:02Z</time>
      </trkpt>
      <trkpt lat="43.43769" lon="5.55337">
        <ele>294</ele>
        <time>2015-01-16T08:19:04Z</time>
      </trkpt>
      <trkpt lat="43.43766" lon="5.55342">
        <ele>294</ele>
        <time>2015-01-16T08:19:05Z</time>
      </trkpt>
      <trkpt lat="43.43763" lon="5.55349">
        <ele>294</ele>
        <time>2015-01-16T08:19:06Z</time>
      </trkpt>
      <trkpt lat="43.4376" lon="5.55357">
        <ele>295</ele>
        <time>2015-01-16T08:19:07Z</time>
      </trkpt>
      <trkpt lat="43.43758" lon="5.55364">
        <ele>296</ele>
        <time>2015-01-16T08:19:08Z</time>
      </trkpt>
      <trkpt lat="43.43755" lon="5.55376">
        <ele>296</ele>
        <time>2015-01-16T08:19:10Z</time>
      </trkpt>
      <trkpt lat="43.43752" lon="5.55387">
        <ele>297</ele>
        <time>2015-01-16T08:19:12Z</time>
      </trkpt>
      <trkpt lat="43.4375" lon="5.55396">
        <ele>297</ele>
        <time>2015-01-16T08:19:14Z</time>
      </trkpt>
      <trkpt lat="43.43749" lon="5.55402">
        <ele>297</ele>
        <time>2015-01-16T08:19:16Z</time>
      </trkpt>
      <trkpt lat="43.43746" lon="5.55408">
        <ele>298</ele>
        <time>2015-01-16T08:19:20Z</time>
      </trkpt>
      <trkpt lat="43.43741" lon="5.55411">
        <ele>298</ele>
        <time>2015-01-16T08:19:23Z</time>
      </trkpt>
      <trkpt lat="43.43736" lon="5.55413">
        <ele>298</ele>
        <time>2015-01-16T08:19:27Z</time>
      </trkpt>
      <trkpt lat="43.43731" lon="5.5542">
        <ele>298</ele>
        <time>2015-01-16T08:19:40Z</time>
      </trkpt>
      <trkpt lat="43.43728" lon="5.55423">
        <ele>298</ele>
        <time>2015-01-16T08:19:42Z</time>
      </trkpt>
      <trkpt lat="43.43722" lon="5.55428">
        <ele>298</ele>
        <time>2015-01-16T08:19:45Z</time>
      </trkpt>
      <trkpt lat="43.43717" lon="5.55431">
        <ele>299</ele>
        <time>2015-01-16T08:19:48Z</time>
      </trkpt>
      <trkpt lat="43.43712" lon="5.55431">
        <ele>299</ele>
        <time>2015-01-16T08:19:50Z</time>
      </trkpt>
      <trkpt lat="43.43707" lon="5.55432">
        <ele>299</ele>
        <time>2015-01-16T08:19:53Z</time>
      </trkpt>
      <trkpt lat="43.43701" lon="5.55434">
        <ele>299</ele>
        <time>2015-01-16T08:19:56Z</time>
      </trkpt>
      <trkpt lat="43.43697" lon="5.55436">
        <ele>299</ele>
        <time>2015-01-16T08:20:00Z</time>
      </trkpt>
      <trkpt lat="43.43692" lon="5.55438">
        <ele>299</ele>
        <time>2015-01-16T08:20:03Z</time>
      </trkpt>
      <trkpt lat="43.43687" lon="5.55439">
        <ele>299</ele>
        <time>2015-01-16T08:20:06Z</time>
      </trkpt>
      <trkpt lat="43.43681" lon="5.55441">
        <ele>299</ele>
        <time>2015-01-16T08:20:09Z</time>
      </trkpt>
      <trkpt lat="43.43675" lon="5.55443">
        <ele>300</ele>
        <time>2015-01-16T08:20:13Z</time>
      </trkpt>
      <trkpt lat="43.4367" lon="5.55444">
        <ele>300</ele>
        <time>2015-01-16T08:20:16Z</time>
      </trkpt>
      <trkpt lat="43.43665" lon="5.55445">
        <ele>300</ele>
        <time>2015-01-16T08:20:19Z</time>
      </trkpt>
      <trkpt lat="43.43659" lon="5.55446">
        <ele>301</ele>
        <time>2015-01-16T08:20:23Z</time>
      </trkpt>
      <trkpt lat="43.43655" lon="5.55449">
        <ele>302</ele>
        <time>2015-01-16T08:20:27Z</time>
      </trkpt>
      <trkpt lat="43.4365" lon="5.55448">
        <ele>303</ele>
        <time>2015-01-16T08:20:31Z</time>
      </trkpt>
      <trkpt lat="43.43646" lon="5.55447">
        <ele>303</ele>
        <time>2015-01-16T08:20:34Z</time>
      </trkpt>
      <trkpt lat="43.43639" lon="5.55447">
        <ele>304</ele>
        <time>2015-01-16T08:20:38Z</time>
      </trkpt>
      <trkpt lat="43.43634" lon="5.55447">
        <ele>304</ele>
        <time>2015-01-16T08:20:41Z</time>
      </trkpt>
      <trkpt lat="43.43629" lon="5.55445">
        <ele>304</ele>
        <time>2015-01-16T08:20:44Z</time>
      </trkpt>
      <trkpt lat="43.43623" lon="5.55445">
        <ele>305</ele>
        <time>2015-01-16T08:20:47Z</time>
      </trkpt>
      <trkpt lat="43.43618" lon="5.55443">
        <ele>305</ele>
        <time>2015-01-16T08:20:49Z</time>
      </trkpt>
      <trkpt lat="43.43612" lon="5.5544">
        <ele>306</ele>
        <time>2015-01-16T08:20:52Z</time>
      </trkpt>
      <trkpt lat="43.43608" lon="5.55436">
        <ele>306</ele>
        <time>2015-01-16T08:20:55Z</time>
      </trkpt>
      <trkpt lat="43.43602" lon="5.55433">
        <ele>307</ele>
        <time>2015-01-16T08:20:59Z</time>
      </trkpt>
      <trkpt lat="43.43597" lon="5.55434">
        <ele>308</ele>
        <time>2015-01-16T08:21:01Z</time>
      </trkpt>
      <trkpt lat="43.43591" lon="5.55438">
        <ele>309</ele>
        <time>2015-01-16T08:21:04Z</time>
      </trkpt>
      <trkpt lat="43.43587" lon="5.55441">
        <ele>309</ele>
        <time>2015-01-16T08:21:06Z</time>
      </trkpt>
      <trkpt lat="43.43582" lon="5.55445">
        <ele>310</ele>
        <time>2015-01-16T08:21:08Z</time>
      </trkpt>
      <trkpt lat="43.43577" lon="5.55447">
        <ele>310</ele>
        <time>2015-01-16T08:21:10Z</time>
      </trkpt>
      <trkpt lat="43.43572" lon="5.55448">
        <ele>310</ele>
        <time>2015-01-16T08:21:12Z</time>
      </trkpt>
      <trkpt lat="43.43567" lon="5.5545">
        <ele>311</ele>
        <time>2015-01-16T08:21:14Z</time>
      </trkpt>
      <trkpt lat="43.43562" lon="5.55453">
        <ele>311</ele>
        <time>2015-01-16T08:21:17Z</time>
      </trkpt>
      <trkpt lat="43.43556" lon="5.55457">
        <ele>312</ele>
        <time>2015-01-16T08:21:20Z</time>
      </trkpt>
      <trkpt lat="43.43551" lon="5.5546">
        <ele>313</ele>
        <time>2015-01-16T08:21:23Z</time>
      </trkpt>
      <trkpt lat="43.43545" lon="5.55462">
        <ele>313</ele>
        <time>2015-01-16T08:21:26Z</time>
      </trkpt>
      <trkpt lat="43.43539" lon="5.55464">
        <ele>314</ele>
        <time>2015-01-16T08:21:29Z</time>
      </trkpt>
      <trkpt lat="43.43534" lon="5.55466">
        <ele>314</ele>
        <time>2015-01-16T08:21:32Z</time>
      </trkpt>
      <trkpt lat="43.43529" lon="5.55467">
        <ele>315</ele>
        <time>2015-01-16T08:21:34Z</time>
      </trkpt>
      <trkpt lat="43.43525" lon="5.55469">
        <ele>315</ele>
        <time>2015-01-16T08:21:36Z</time>
      </trkpt>
      <trkpt lat="43.4352" lon="5.55469">
        <ele>315</ele>
        <time>2015-01-16T08:21:38Z</time>
      </trkpt>
      <trkpt lat="43.43515" lon="5.55469">
        <ele>316</ele>
        <time>2015-01-16T08:21:40Z</time>
      </trkpt>
      <trkpt lat="43.4351" lon="5.55468">
        <ele>316</ele>
        <time>2015-01-16T08:21:43Z</time>
      </trkpt>
      <trkpt lat="43.43505" lon="5.55467">
        <ele>316</ele>
        <time>2015-01-16T08:21:46Z</time>
      </trkpt>
      <trkpt lat="43.43499" lon="5.55466">
        <ele>317</ele>
        <time>2015-01-16T08:21:49Z</time>
      </trkpt>
      <trkpt lat="43.43495" lon="5.55465">
        <ele>317</ele>
        <time>2015-01-16T08:21:52Z</time>
      </trkpt>
      <trkpt lat="43.4349" lon="5.55464">
        <ele>317</ele>
        <time>2015-01-16T08:21:55Z</time>
      </trkpt>
      <trkpt lat="43.43485" lon="5.55467">
        <ele>318</ele>
        <time>2015-01-16T08:21:57Z</time>
      </trkpt>
      <trkpt lat="43.43481" lon="5.55471">
        <ele>318</ele>
        <time>2015-01-16T08:21:59Z</time>
      </trkpt>
      <trkpt lat="43.43477" lon="5.55474">
        <ele>318</ele>
        <time>2015-01-16T08:22:02Z</time>
      </trkpt>
      <trkpt lat="43.43473" lon="5.55479">
        <ele>318</ele>
        <time>2015-01-16T08:22:05Z</time>
      </trkpt>
      <trkpt lat="43.43469" lon="5.55485">
        <ele>319</ele>
        <time>2015-01-16T08:22:08Z</time>
      </trkpt>
      <trkpt lat="43.43465" lon="5.55491">
        <ele>319</ele>
        <time>2015-01-16T08:22:10Z</time>
      </trkpt>
      <trkpt lat="43.4346" lon="5.55494">
        <ele>319</ele>
        <time>2015-01-16T08:22:12Z</time>
      </trkpt>
      <trkpt lat="43.43455" lon="5.55498">
        <ele>319</ele>
        <time>2015-01-16T08:22:14Z</time>
      </trkpt>
      <trkpt lat="43.4345" lon="5.55501">
        <ele>319</ele>
        <time>2015-01-16T08:22:16Z</time>
      </trkpt>
      <trkpt lat="43.43445" lon="5.55501">
        <ele>319</ele>
        <time>2015-01-16T08:22:18Z</time>
      </trkpt>
      <trkpt lat="43.43438" lon="5.55504">
        <ele>319</ele>
        <time>2015-01-16T08:22:21Z</time>
      </trkpt>
      <trkpt lat="43.43434" lon="5.55507">
        <ele>319</ele>
        <time>2015-01-16T08:22:23Z</time>
      </trkpt>
      <trkpt lat="43.4343" lon="5.5551">
        <ele>320</ele>
        <time>2015-01-16T08:22:25Z</time>
      </trkpt>
      <trkpt lat="43.43425" lon="5.55512">
        <ele>320</ele>
        <time>2015-01-16T08:22:27Z</time>
      </trkpt>
      <trkpt lat="43.43421" lon="5.55515">
        <ele>320</ele>
        <time>2015-01-16T08:22:29Z</time>
      </trkpt>
      <trkpt lat="43.43416" lon="5.55519">
        <ele>320</ele>
        <time>2015-01-16T08:22:32Z</time>
      </trkpt>
      <trkpt lat="43.43411" lon="5.55523">
        <ele>321</ele>
        <time>2015-01-16T08:22:35Z</time>
      </trkpt>
      <trkpt lat="43.43406" lon="5.55528">
        <ele>321</ele>
        <time>2015-01-16T08:22:38Z</time>
      </trkpt>
      <trkpt lat="43.43402" lon="5.55531">
        <ele>321</ele>
        <time>2015-01-16T08:22:41Z</time>
      </trkpt>
      <trkpt lat="43.43397" lon="5.55535">
        <ele>321</ele>
        <time>2015-01-16T08:22:44Z</time>
      </trkpt>
      <trkpt lat="43.43392" lon="5.55537">
        <ele>322</ele>
        <time>2015-01-16T08:22:47Z</time>
      </trkpt>
      <trkpt lat="43.43388" lon="5.5554">
        <ele>322</ele>
        <time>2015-01-16T08:22:50Z</time>
      </trkpt>
      <trkpt lat="43.43382" lon="5.55541">
        <ele>322</ele>
        <time>2015-01-16T08:22:53Z</time>
      </trkpt>
      <trkpt lat="43.43377" lon="5.55541">
        <ele>323</ele>
        <time>2015-01-16T08:22:56Z</time>
      </trkpt>
      <trkpt lat="43.43372" lon="5.55543">
        <ele>323</ele>
        <time>2015-01-16T08:22:59Z</time>
      </trkpt>
      <trkpt lat="43.43368" lon="5.55546">
        <ele>323</ele>
        <time>2015-01-16T08:23:02Z</time>
      </trkpt>
      <trkpt lat="43.43363" lon="5.55551">
        <ele>323</ele>
        <time>2015-01-16T08:23:05Z</time>
      </trkpt>
      <trkpt lat="43.43359" lon="5.55557">
        <ele>324</ele>
        <time>2015-01-16T08:23:07Z</time>
      </trkpt>
      <trkpt lat="43.43356" lon="5.55563">
        <ele>324</ele>
        <time>2015-01-16T08:23:09Z</time>
      </trkpt>
      <trkpt lat="43.43352" lon="5.55569">
        <ele>324</ele>
        <time>2015-01-16T08:23:11Z</time>
      </trkpt>
      <trkpt lat="43.43347" lon="5.55576">
        <ele>324</ele>
        <time>2015-01-16T08:23:13Z</time>
      </trkpt>
      <trkpt lat="43.43344" lon="5.55581">
        <ele>325</ele>
        <time>2015-01-16T08:23:15Z</time>
      </trkpt>
      <trkpt lat="43.43339" lon="5.55587">
        <ele>326</ele>
        <time>2015-01-16T08:23:18Z</time>
      </trkpt>
      <trkpt lat="43.43335" lon="5.55592">
        <ele>326</ele>
        <time>2015-01-16T08:23:20Z</time>
      </trkpt>
      <trkpt lat="43.43332" lon="5.55596">
        <ele>327</ele>
        <time>2015-01-16T08:23:22Z</time>
      </trkpt>
      <trkpt lat="43.43329" lon="5.55603">
        <ele>327</ele>
        <time>2015-01-16T08:23:24Z</time>
      </trkpt>
      <trkpt lat="43.43325" lon="5.55608">
        <ele>327</ele>
        <time>2015-01-16T08:23:26Z</time>
      </trkpt>
      <trkpt lat="43.43321" lon="5.55612">
        <ele>327</ele>
        <time>2015-01-16T08:23:28Z</time>
      </trkpt>
      <trkpt lat="43.43316" lon="5.55617">
        <ele>328</ele>
        <time>2015-01-16T08:23:30Z</time>
      </trkpt>
      <trkpt lat="43.43311" lon="5.55623">
        <ele>328</ele>
        <time>2015-01-16T08:23:32Z</time>
      </trkpt>
      <trkpt lat="43.43306" lon="5.55629">
        <ele>328</ele>
        <time>2015-01-16T08:23:34Z</time>
      </trkpt>
      <trkpt lat="43.43303" lon="5.55634">
        <ele>328</ele>
        <time>2015-01-16T08:23:36Z</time>
      </trkpt>
      <trkpt lat="43.43299" lon="5.5564">
        <ele>327</ele>
        <time>2015-01-16T08:23:38Z</time>
      </trkpt>
      <trkpt lat="43.43295" lon="5.55645">
        <ele>327</ele>
        <time>2015-01-16T08:23:40Z</time>
      </trkpt>
      <trkpt lat="43.43291" lon="5.55649">
        <ele>327</ele>
        <time>2015-01-16T08:23:42Z</time>
      </trkpt>
      <trkpt lat="43.43287" lon="5.55654">
        <ele>327</ele>
        <time>2015-01-16T08:23:44Z</time>
      </trkpt>
      <trkpt lat="43.43283" lon="5.5566">
        <ele>327</ele>
        <time>2015-01-16T08:23:46Z</time>
      </trkpt>
      <trkpt lat="43.43279" lon="5.55666">
        <ele>328</ele>
        <time>2015-01-16T08:23:48Z</time>
      </trkpt>
      <trkpt lat="43.43275" lon="5.55671">
        <ele>328</ele>
        <time>2015-01-16T08:23:50Z</time>
      </trkpt>
      <trkpt lat="43.43269" lon="5.55676">
        <ele>328</ele>
        <time>2015-01-16T08:23:53Z</time>
      </trkpt>
      <trkpt lat="43.43265" lon="5.5568">
        <ele>328</ele>
        <time>2015-01-16T08:23:55Z</time>
      </trkpt>
      <trkpt lat="43.4326" lon="5.55685">
        <ele>328</ele>
        <time>2015-01-16T08:23:57Z</time>
      </trkpt>
      <trkpt lat="43.43256" lon="5.55689">
        <ele>329</ele>
        <time>2015-01-16T08:23:59Z</time>
      </trkpt>
      <trkpt lat="43.43252" lon="5.55694">
        <ele>329</ele>
        <time>2015-01-16T08:24:01Z</time>
      </trkpt>
      <trkpt lat="43.43248" lon="5.55698">
        <ele>329</ele>
        <time>2015-01-16T08:24:03Z</time>
      </trkpt>
      <trkpt lat="43.43243" lon="5.55701">
        <ele>329</ele>
        <time>2015-01-16T08:24:05Z</time>
      </trkpt>
      <trkpt lat="43.43238" lon="5.55705">
        <ele>329</ele>
        <time>2015-01-16T08:24:07Z</time>
      </trkpt>
      <trkpt lat="43.43232" lon="5.55708">
        <ele>329</ele>
        <time>2015-01-16T08:24:10Z</time>
      </trkpt>
      <trkpt lat="43.43227" lon="5.55709">
        <ele>329</ele>
        <time>2015-01-16T08:24:13Z</time>
      </trkpt>
      <trkpt lat="43.4322" lon="5.55712">
        <ele>329</ele>
        <time>2015-01-16T08:24:16Z</time>
      </trkpt>
      <trkpt lat="43.43215" lon="5.55717">
        <ele>329</ele>
        <time>2015-01-16T08:24:18Z</time>
      </trkpt>
      <trkpt lat="43.43208" lon="5.5572">
        <ele>329</ele>
        <time>2015-01-16T08:24:20Z</time>
      </trkpt>
      <trkpt lat="43.43202" lon="5.55722">
        <ele>329</ele>
        <time>2015-01-16T08:24:22Z</time>
      </trkpt>
      <trkpt lat="43.43197" lon="5.55725">
        <ele>329</ele>
        <time>2015-01-16T08:24:24Z</time>
      </trkpt>
      <trkpt lat="43.43192" lon="5.55727">
        <ele>329</ele>
        <time>2015-01-16T08:24:26Z</time>
      </trkpt>
      <trkpt lat="43.43186" lon="5.55728">
        <ele>329</ele>
        <time>2015-01-16T08:24:29Z</time>
      </trkpt>
      <trkpt lat="43.4318" lon="5.5573">
        <ele>329</ele>
        <time>2015-01-16T08:24:32Z</time>
      </trkpt>
      <trkpt lat="43.43175" lon="5.55731">
        <ele>329</ele>
        <time>2015-01-16T08:24:34Z</time>
      </trkpt>
      <trkpt lat="43.43169" lon="5.55732">
        <ele>329</ele>
        <time>2015-01-16T08:24:36Z</time>
      </trkpt>
      <trkpt lat="43.43163" lon="5.55732">
        <ele>330</ele>
        <time>2015-01-16T08:24:38Z</time>
      </trkpt>
      <trkpt lat="43.43158" lon="5.55734">
        <ele>330</ele>
        <time>2015-01-16T08:24:40Z</time>
      </trkpt>
      <trkpt lat="43.43152" lon="5.55734">
        <ele>331</ele>
        <time>2015-01-16T08:24:43Z</time>
      </trkpt>
      <trkpt lat="43.43147" lon="5.55736">
        <ele>332</ele>
        <time>2015-01-16T08:24:45Z</time>
      </trkpt>
      <trkpt lat="43.43142" lon="5.55739">
        <ele>332</ele>
        <time>2015-01-16T08:24:48Z</time>
      </trkpt>
      <trkpt lat="43.43137" lon="5.55743">
        <ele>334</ele>
        <time>2015-01-16T08:24:52Z</time>
      </trkpt>
      <trkpt lat="43.43131" lon="5.55747">
        <ele>334</ele>
        <time>2015-01-16T08:24:55Z</time>
      </trkpt>
      <trkpt lat="43.43126" lon="5.5575">
        <ele>335</ele>
        <time>2015-01-16T08:24:57Z</time>
      </trkpt>
      <trkpt lat="43.43119" lon="5.55754">
        <ele>336</ele>
        <time>2015-01-16T08:25:00Z</time>
      </trkpt>
      <trkpt lat="43.43114" lon="5.55761">
        <ele>336</ele>
        <time>2015-01-16T08:25:02Z</time>
      </trkpt>
      <trkpt lat="43.4311" lon="5.55765">
        <ele>336</ele>
        <time>2015-01-16T08:25:04Z</time>
      </trkpt>
      <trkpt lat="43.43106" lon="5.55772">
        <ele>337</ele>
        <time>2015-01-16T08:25:07Z</time>
      </trkpt>
      <trkpt lat="43.43101" lon="5.55777">
        <ele>337</ele>
        <time>2015-01-16T08:25:10Z</time>
      </trkpt>
      <trkpt lat="43.43096" lon="5.55781">
        <ele>338</ele>
        <time>2015-01-16T08:25:13Z</time>
      </trkpt>
      <trkpt lat="43.43091" lon="5.55785">
        <ele>339</ele>
        <time>2015-01-16T08:25:16Z</time>
      </trkpt>
      <trkpt lat="43.43086" lon="5.55785">
        <ele>339</ele>
        <time>2015-01-16T08:25:19Z</time>
      </trkpt>
      <trkpt lat="43.43081" lon="5.55784">
        <ele>340</ele>
        <time>2015-01-16T08:25:22Z</time>
      </trkpt>
      <trkpt lat="43.43076" lon="5.55782">
        <ele>340</ele>
        <time>2015-01-16T08:25:24Z</time>
      </trkpt>
      <trkpt lat="43.4307" lon="5.55781">
        <ele>341</ele>
        <time>2015-01-16T08:25:27Z</time>
      </trkpt>
      <trkpt lat="43.43065" lon="5.55781">
        <ele>342</ele>
        <time>2015-01-16T08:25:30Z</time>
      </trkpt>
      <trkpt lat="43.4306" lon="5.55782">
        <ele>342</ele>
        <time>2015-01-16T08:25:33Z</time>
      </trkpt>
      <trkpt lat="43.43054" lon="5.55783">
        <ele>343</ele>
        <time>2015-01-16T08:25:36Z</time>
      </trkpt>
      <trkpt lat="43.43049" lon="5.55784">
        <ele>343</ele>
        <time>2015-01-16T08:25:38Z</time>
      </trkpt>
      <trkpt lat="43.43044" lon="5.55786">
        <ele>344</ele>
        <time>2015-01-16T08:25:41Z</time>
      </trkpt>
      <trkpt lat="43.43039" lon="5.55788">
        <ele>345</ele>
        <time>2015-01-16T08:25:47Z</time>
      </trkpt>
      <trkpt lat="43.43037" lon="5.55782">
        <ele>347</ele>
        <time>2015-01-16T08:26:13Z</time>
      </trkpt>
      <trkpt lat="43.43035" lon="5.55775">
        <ele>347</ele>
        <time>2015-01-16T08:26:15Z</time>
      </trkpt>
      <trkpt lat="43.43037" lon="5.55768">
        <ele>348</ele>
        <time>2015-01-16T08:26:18Z</time>
      </trkpt>
      <trkpt lat="43.43042" lon="5.55768">
        <ele>348</ele>
        <time>2015-01-16T08:26:33Z</time>
      </trkpt>
      <trkpt lat="43.43046" lon="5.55774">
        <ele>348</ele>
        <time>2015-01-16T08:26:35Z</time>
      </trkpt>
      <trkpt lat="43.43047" lon="5.55781">
        <ele>348</ele>
        <time>2015-01-16T08:26:37Z</time>
      </trkpt>
      <trkpt lat="43.43043" lon="5.55784">
        <ele>347</ele>
        <time>2015-01-16T08:27:00Z</time>
      </trkpt>
      <trkpt lat="43.43043" lon="5.55784">
        <ele>347</ele>
        <time>2015-01-16T08:27:15Z</time>
      </trkpt>
      <trkpt lat="43.43044" lon="5.55781">
        <ele>347</ele>
        <time>2015-01-16T08:27:30Z</time>
      </trkpt>
      <trkpt lat="43.43046" lon="5.55783">
        <ele>348</ele>
        <time>2015-01-16T08:27:45Z</time>
      </trkpt>
      <trkpt lat="43.43037" lon="5.55785">
        <ele>348</ele>
        <time>2015-01-16T08:27:49Z</time>
      </trkpt>
      <trkpt lat="43.43037" lon="5.55777">
        <ele>348</ele>
        <time>2015-01-16T08:27:53Z</time>
      </trkpt>
      <trkpt lat="43.43037" lon="5.55768">
        <ele>348</ele>
        <time>2015-01-16T08:27:56Z</time>
      </trkpt>
      <trkpt lat="43.43038" lon="5.5576">
        <ele>348</ele>
        <time>2015-01-16T08:27:58Z</time>
      </trkpt>
      <trkpt lat="43.43039" lon="5.55748">
        <ele>349</ele>
        <time>2015-01-16T08:28:00Z</time>
      </trkpt>
      <trkpt lat="43.4304" lon="5.55737">
        <ele>349</ele>
        <time>2015-01-16T08:28:02Z</time>
      </trkpt>
      <trkpt lat="43.43042" lon="5.55723">
        <ele>351</ele>
        <time>2015-01-16T08:28:04Z</time>
      </trkpt>
      <trkpt lat="43.43044" lon="5.55715">
        <ele>351</ele>
        <time>2015-01-16T08:28:05Z</time>
      </trkpt>
      <trkpt lat="43.43045" lon="5.55708">
        <ele>351</ele>
        <time>2015-01-16T08:28:06Z</time>
      </trkpt>
      <trkpt lat="43.43045" lon="5.557">
        <ele>352</ele>
        <time>2015-01-16T08:28:07Z</time>
      </trkpt>
      <trkpt lat="43.43045" lon="5.55692">
        <ele>352</ele>
        <time>2015-01-16T08:28:08Z</time>
      </trkpt>
      <trkpt lat="43.43046" lon="5.55684">
        <ele>353</ele>
        <time>2015-01-16T08:28:09Z</time>
      </trkpt>
      <trkpt lat="43.43049" lon="5.55675">
        <ele>354</ele>
        <time>2015-01-16T08:28:10Z</time>
      </trkpt>
      <trkpt lat="43.43052" lon="5.55666">
        <ele>354</ele>
        <time>2015-01-16T08:28:11Z</time>
      </trkpt>
      <trkpt lat="43.43054" lon="5.55658">
        <ele>353</ele>
        <time>2015-01-16T08:28:12Z</time>
      </trkpt>
      <trkpt lat="43.43057" lon="5.55649">
        <ele>353</ele>
        <time>2015-01-16T08:28:13Z</time>
      </trkpt>
      <trkpt lat="43.4306" lon="5.5564">
        <ele>352</ele>
        <time>2015-01-16T08:28:14Z</time>
      </trkpt>
      <trkpt lat="43.43063" lon="5.55632">
        <ele>351</ele>
        <time>2015-01-16T08:28:15Z</time>
      </trkpt>
      <trkpt lat="43.43065" lon="5.55626">
        <ele>350</ele>
        <time>2015-01-16T08:28:16Z</time>
      </trkpt>
      <trkpt lat="43.43067" lon="5.5562">
        <ele>350</ele>
        <time>2015-01-16T08:28:17Z</time>
      </trkpt>
      <trkpt lat="43.43068" lon="5.55613">
        <ele>349</ele>
        <time>2015-01-16T08:28:18Z</time>
      </trkpt>
      <trkpt lat="43.4307" lon="5.55606">
        <ele>348</ele>
        <time>2015-01-16T08:28:19Z</time>
      </trkpt>
      <trkpt lat="43.43071" lon="5.55599">
        <ele>347</ele>
        <time>2015-01-16T08:28:20Z</time>
      </trkpt>
      <trkpt lat="43.43072" lon="5.55593">
        <ele>347</ele>
        <time>2015-01-16T08:28:21Z</time>
      </trkpt>
      <trkpt lat="43.43074" lon="5.55583">
        <ele>347</ele>
        <time>2015-01-16T08:28:23Z</time>
      </trkpt>
      <trkpt lat="43.43076" lon="5.55577">
        <ele>347</ele>
        <time>2015-01-16T08:28:24Z</time>
      </trkpt>
      <trkpt lat="43.43078" lon="5.5557">
        <ele>347</ele>
        <time>2015-01-16T08:28:25Z</time>
      </trkpt>
      <trkpt lat="43.43079" lon="5.55563">
        <ele>347</ele>
        <time>2015-01-16T08:28:26Z</time>
      </trkpt>
      <trkpt lat="43.43079" lon="5.55556">
        <ele>346</ele>
        <time>2015-01-16T08:28:27Z</time>
      </trkpt>
      <trkpt lat="43.4308" lon="5.55549">
        <ele>344</ele>
        <time>2015-01-16T08:28:28Z</time>
      </trkpt>
      <trkpt lat="43.43083" lon="5.55539">
        <ele>344</ele>
        <time>2015-01-16T08:28:30Z</time>
      </trkpt>
      <trkpt lat="43.43087" lon="5.55528">
        <ele>344</ele>
        <time>2015-01-16T08:28:32Z</time>
      </trkpt>
      <trkpt lat="43.43088" lon="5.55517">
        <ele>343</ele>
        <time>2015-01-16T08:28:34Z</time>
      </trkpt>
      <trkpt lat="43.43089" lon="5.55508">
        <ele>342</ele>
        <time>2015-01-16T08:28:36Z</time>
      </trkpt>
      <trkpt lat="43.43091" lon="5.55499">
        <ele>342</ele>
        <time>2015-01-16T08:28:38Z</time>
      </trkpt>
      <trkpt lat="43.43092" lon="5.55488">
        <ele>342</ele>
        <time>2015-01-16T08:28:40Z</time>
      </trkpt>
      <trkpt lat="43.43093" lon="5.55482">
        <ele>342</ele>
        <time>2015-01-16T08:28:41Z</time>
      </trkpt>
      <trkpt lat="43.43093" lon="5.55475">
        <ele>341</ele>
        <time>2015-01-16T08:28:42Z</time>
      </trkpt>
      <trkpt lat="43.43092" lon="5.55463">
        <ele>341</ele>
        <time>2015-01-16T08:28:44Z</time>
      </trkpt>
      <trkpt lat="43.43093" lon="5.55453">
        <ele>341</ele>
        <time>2015-01-16T08:28:46Z</time>
      </trkpt>
      <trkpt lat="43.43097" lon="5.55441">
        <ele>339</ele>
        <time>2015-01-16T08:28:48Z</time>
      </trkpt>
      <trkpt lat="43.43098" lon="5.55436">
        <ele>339</ele>
        <time>2015-01-16T08:28:49Z</time>
      </trkpt>
      <trkpt lat="43.43102" lon="5.55427">
        <ele>338</ele>
        <time>2015-01-16T08:28:51Z</time>
      </trkpt>
      <trkpt lat="43.43103" lon="5.55416">
        <ele>338</ele>
        <time>2015-01-16T08:28:53Z</time>
      </trkpt>
      <trkpt lat="43.43104" lon="5.55405">
        <ele>338</ele>
        <time>2015-01-16T08:28:55Z</time>
      </trkpt>
      <trkpt lat="43.43105" lon="5.55394">
        <ele>338</ele>
        <time>2015-01-16T08:28:57Z</time>
      </trkpt>
      <trkpt lat="43.43107" lon="5.55385">
        <ele>338</ele>
        <time>2015-01-16T08:28:59Z</time>
      </trkpt>
      <trkpt lat="43.4311" lon="5.55375">
        <ele>337</ele>
        <time>2015-01-16T08:29:01Z</time>
      </trkpt>
      <trkpt lat="43.4311" lon="5.55365">
        <ele>336</ele>
        <time>2015-01-16T08:29:03Z</time>
      </trkpt>
      <trkpt lat="43.43111" lon="5.55356">
        <ele>336</ele>
        <time>2015-01-16T08:29:05Z</time>
      </trkpt>
      <trkpt lat="43.43111" lon="5.55345">
        <ele>336</ele>
        <time>2015-01-16T08:29:07Z</time>
      </trkpt>
      <trkpt lat="43.43113" lon="5.55336">
        <ele>336</ele>
        <time>2015-01-16T08:29:09Z</time>
      </trkpt>
      <trkpt lat="43.43115" lon="5.55327">
        <ele>335</ele>
        <time>2015-01-16T08:29:11Z</time>
      </trkpt>
      <trkpt lat="43.43118" lon="5.5532">
        <ele>335</ele>
        <time>2015-01-16T08:29:13Z</time>
      </trkpt>
      <trkpt lat="43.43122" lon="5.55309">
        <ele>333</ele>
        <time>2015-01-16T08:29:15Z</time>
      </trkpt>
      <trkpt lat="43.43126" lon="5.553">
        <ele>333</ele>
        <time>2015-01-16T08:29:17Z</time>
      </trkpt>
      <trkpt lat="43.43129" lon="5.55292">
        <ele>333</ele>
        <time>2015-01-16T08:29:19Z</time>
      </trkpt>
      <trkpt lat="43.43132" lon="5.55282">
        <ele>331</ele>
        <time>2015-01-16T08:29:21Z</time>
      </trkpt>
      <trkpt lat="43.43134" lon="5.55275">
        <ele>331</ele>
        <time>2015-01-16T08:29:23Z</time>
      </trkpt>
      <trkpt lat="43.43137" lon="5.55269">
        <ele>330</ele>
        <time>2015-01-16T08:29:25Z</time>
      </trkpt>
      <trkpt lat="43.4314" lon="5.55263">
        <ele>329</ele>
        <time>2015-01-16T08:29:27Z</time>
      </trkpt>
      <trkpt lat="43.43144" lon="5.55257">
        <ele>329</ele>
        <time>2015-01-16T08:29:29Z</time>
      </trkpt>
      <trkpt lat="43.43148" lon="5.5525">
        <ele>328</ele>
        <time>2015-01-16T08:29:31Z</time>
      </trkpt>
      <trkpt lat="43.43151" lon="5.55242">
        <ele>328</ele>
        <time>2015-01-16T08:29:33Z</time>
      </trkpt>
      <trkpt lat="43.43155" lon="5.55235">
        <ele>327</ele>
        <time>2015-01-16T08:29:35Z</time>
      </trkpt>
      <trkpt lat="43.4316" lon="5.55229">
        <ele>326</ele>
        <time>2015-01-16T08:29:37Z</time>
      </trkpt>
      <trkpt lat="43.43164" lon="5.5522">
        <ele>325</ele>
        <time>2015-01-16T08:29:39Z</time>
      </trkpt>
      <trkpt lat="43.43167" lon="5.5521">
        <ele>325</ele>
        <time>2015-01-16T08:29:41Z</time>
      </trkpt>
      <trkpt lat="43.43172" lon="5.552">
        <ele>324</ele>
        <time>2015-01-16T08:29:43Z</time>
      </trkpt>
      <trkpt lat="43.43177" lon="5.55191">
        <ele>323</ele>
        <time>2015-01-16T08:29:45Z</time>
      </trkpt>
      <trkpt lat="43.43183" lon="5.55188">
        <ele>319</ele>
        <time>2015-01-16T08:29:47Z</time>
      </trkpt>
      <trkpt lat="43.4319" lon="5.55185">
        <ele>317</ele>
        <time>2015-01-16T08:29:49Z</time>
      </trkpt>
      <trkpt lat="43.43197" lon="5.55182">
        <ele>316</ele>
        <time>2015-01-16T08:29:51Z</time>
      </trkpt>
      <trkpt lat="43.43204" lon="5.55187">
        <ele>311</ele>
        <time>2015-01-16T08:29:53Z</time>
      </trkpt>
      <trkpt lat="43.43209" lon="5.55189">
        <ele>309</ele>
        <time>2015-01-16T08:29:54Z</time>
      </trkpt>
      <trkpt lat="43.43214" lon="5.5519">
        <ele>309</ele>
        <time>2015-01-16T08:29:55Z</time>
      </trkpt>
      <trkpt lat="43.43218" lon="5.55189">
        <ele>308</ele>
        <time>2015-01-16T08:29:56Z</time>
      </trkpt>
      <trkpt lat="43.43226" lon="5.55189">
        <ele>308</ele>
        <time>2015-01-16T08:29:58Z</time>
      </trkpt>
      <trkpt lat="43.4323" lon="5.5519">
        <ele>308</ele>
        <time>2015-01-16T08:29:59Z</time>
      </trkpt>
      <trkpt lat="43.43238" lon="5.55192">
        <ele>308</ele>
        <time>2015-01-16T08:30:01Z</time>
      </trkpt>
      <trkpt lat="43.43242" lon="5.55194">
        <ele>308</ele>
        <time>2015-01-16T08:30:02Z</time>
      </trkpt>
      <trkpt lat="43.43249" lon="5.55198">
        <ele>307</ele>
        <time>2015-01-16T08:30:04Z</time>
      </trkpt>
      <trkpt lat="43.43255" lon="5.55199">
        <ele>307</ele>
        <time>2015-01-16T08:30:06Z</time>
      </trkpt>
      <trkpt lat="43.4326" lon="5.55191">
        <ele>304</ele>
        <time>2015-01-16T08:30:08Z</time>
      </trkpt>
      <trkpt lat="43.43261" lon="5.55181">
        <ele>303</ele>
        <time>2015-01-16T08:30:10Z</time>
      </trkpt>
      <trkpt lat="43.43259" lon="5.55171">
        <ele>302</ele>
        <time>2015-01-16T08:30:12Z</time>
      </trkpt>
      <trkpt lat="43.43256" lon="5.55161">
        <ele>302</ele>
        <time>2015-01-16T08:30:14Z</time>
      </trkpt>
      <trkpt lat="43.43256" lon="5.55153">
        <ele>302</ele>
        <time>2015-01-16T08:30:16Z</time>
      </trkpt>
      <trkpt lat="43.43256" lon="5.55143">
        <ele>301</ele>
        <time>2015-01-16T08:30:18Z</time>
      </trkpt>
      <trkpt lat="43.43255" lon="5.55132">
        <ele>301</ele>
        <time>2015-01-16T08:30:20Z</time>
      </trkpt>
      <trkpt lat="43.43254" lon="5.55126">
        <ele>299</ele>
        <time>2015-01-16T08:30:21Z</time>
      </trkpt>
      <trkpt lat="43.43251" lon="5.55114">
        <ele>297</ele>
        <time>2015-01-16T08:30:23Z</time>
      </trkpt>
      <trkpt lat="43.43248" lon="5.55109">
        <ele>297</ele>
        <time>2015-01-16T08:30:24Z</time>
      </trkpt>
      <trkpt lat="43.43242" lon="5.55101">
        <ele>295</ele>
        <time>2015-01-16T08:30:26Z</time>
      </trkpt>
      <trkpt lat="43.43238" lon="5.55096">
        <ele>292</ele>
        <time>2015-01-16T08:30:28Z</time>
      </trkpt>
      <trkpt lat="43.43232" lon="5.55087">
        <ele>291</ele>
        <time>2015-01-16T08:30:30Z</time>
      </trkpt>
      <trkpt lat="43.43229" lon="5.55083">
        <ele>291</ele>
        <time>2015-01-16T08:30:31Z</time>
      </trkpt>
      <trkpt lat="43.43221" lon="5.55077">
        <ele>291</ele>
        <time>2015-01-16T08:30:33Z</time>
      </trkpt>
      <trkpt lat="43.43213" lon="5.55079">
        <ele>291</ele>
        <time>2015-01-16T08:30:35Z</time>
      </trkpt>
      <trkpt lat="43.43206" lon="5.55084">
        <ele>291</ele>
        <time>2015-01-16T08:30:37Z</time>
      </trkpt>
      <trkpt lat="43.43201" lon="5.55089">
        <ele>291</ele>
        <time>2015-01-16T08:30:39Z</time>
      </trkpt>
      <trkpt lat="43.43197" lon="5.55095">
        <ele>291</ele>
        <time>2015-01-16T08:30:41Z</time>
      </trkpt>
      <trkpt lat="43.43193" lon="5.55101">
        <ele>291</ele>
        <time>2015-01-16T08:30:43Z</time>
      </trkpt>
      <trkpt lat="43.43189" lon="5.55107">
        <ele>291</ele>
        <time>2015-01-16T08:30:45Z</time>
      </trkpt>
      <trkpt lat="43.43185" lon="5.55114">
        <ele>291</ele>
        <time>2015-01-16T08:30:47Z</time>
      </trkpt>
      <trkpt lat="43.4318" lon="5.55121">
        <ele>291</ele>
        <time>2015-01-16T08:30:49Z</time>
      </trkpt>
      <trkpt lat="43.43175" lon="5.55127">
        <ele>291</ele>
        <time>2015-01-16T08:30:51Z</time>
      </trkpt>
      <trkpt lat="43.4317" lon="5.55132">
        <ele>291</ele>
        <time>2015-01-16T08:30:53Z</time>
      </trkpt>
      <trkpt lat="43.43165" lon="5.55139">
        <ele>291</ele>
        <time>2015-01-16T08:30:55Z</time>
      </trkpt>
      <trkpt lat="43.4316" lon="5.55145">
        <ele>291</ele>
        <time>2015-01-16T08:30:57Z</time>
      </trkpt>
      <trkpt lat="43.43155" lon="5.55148">
        <ele>292</ele>
        <time>2015-01-16T08:30:59Z</time>
      </trkpt>
      <trkpt lat="43.4315" lon="5.55151">
        <ele>292</ele>
        <time>2015-01-16T08:31:01Z</time>
      </trkpt>
      <trkpt lat="43.43146" lon="5.55154">
        <ele>292</ele>
        <time>2015-01-16T08:31:03Z</time>
      </trkpt>
      <trkpt lat="43.43141" lon="5.55157">
        <ele>292</ele>
        <time>2015-01-16T08:31:05Z</time>
      </trkpt>
      <trkpt lat="43.43135" lon="5.55161">
        <ele>293</ele>
        <time>2015-01-16T08:31:07Z</time>
      </trkpt>
      <trkpt lat="43.43129" lon="5.55166">
        <ele>293</ele>
        <time>2015-01-16T08:31:09Z</time>
      </trkpt>
      <trkpt lat="43.43123" lon="5.55172">
        <ele>293</ele>
        <time>2015-01-16T08:31:11Z</time>
      </trkpt>
      <trkpt lat="43.43117" lon="5.55178">
        <ele>294</ele>
        <time>2015-01-16T08:31:13Z</time>
      </trkpt>
      <trkpt lat="43.43111" lon="5.55182">
        <ele>294</ele>
        <time>2015-01-16T08:31:15Z</time>
      </trkpt>
      <trkpt lat="43.43107" lon="5.55188">
        <ele>294</ele>
        <time>2015-01-16T08:31:17Z</time>
      </trkpt>
      <trkpt lat="43.43101" lon="5.55194">
        <ele>294</ele>
        <time>2015-01-16T08:31:19Z</time>
      </trkpt>
      <trkpt lat="43.43096" lon="5.55202">
        <ele>294</ele>
        <time>2015-01-16T08:31:21Z</time>
      </trkpt>
      <trkpt lat="43.43092" lon="5.55208">
        <ele>295</ele>
        <time>2015-01-16T08:31:23Z</time>
      </trkpt>
      <trkpt lat="43.43088" lon="5.55215">
        <ele>295</ele>
        <time>2015-01-16T08:31:26Z</time>
      </trkpt>
      <trkpt lat="43.43085" lon="5.55221">
        <ele>295</ele>
        <time>2015-01-16T08:31:28Z</time>
      </trkpt>
      <trkpt lat="43.43082" lon="5.55228">
        <ele>296</ele>
        <time>2015-01-16T08:31:30Z</time>
      </trkpt>
      <trkpt lat="43.4308" lon="5.55233">
        <ele>296</ele>
        <time>2015-01-16T08:31:32Z</time>
      </trkpt>
      <trkpt lat="43.43077" lon="5.5524">
        <ele>296</ele>
        <time>2015-01-16T08:31:34Z</time>
      </trkpt>
      <trkpt lat="43.43074" lon="5.55248">
        <ele>296</ele>
        <time>2015-01-16T08:31:36Z</time>
      </trkpt>
      <trkpt lat="43.43071" lon="5.55255">
        <ele>297</ele>
        <time>2015-01-16T08:31:38Z</time>
      </trkpt>
      <trkpt lat="43.43068" lon="5.55261">
        <ele>297</ele>
        <time>2015-01-16T08:31:40Z</time>
      </trkpt>
      <trkpt lat="43.43065" lon="5.55266">
        <ele>297</ele>
        <time>2015-01-16T08:31:42Z</time>
      </trkpt>
      <trkpt lat="43.43063" lon="5.55273">
        <ele>298</ele>
        <time>2015-01-16T08:31:44Z</time>
      </trkpt>
      <trkpt lat="43.43058" lon="5.55277">
        <ele>298</ele>
        <time>2015-01-16T08:31:46Z</time>
      </trkpt>
      <trkpt lat="43.43055" lon="5.55283">
        <ele>298</ele>
        <time>2015-01-16T08:31:48Z</time>
      </trkpt>
      <trkpt lat="43.43052" lon="5.55288">
        <ele>299</ele>
        <time>2015-01-16T08:31:50Z</time>
      </trkpt>
      <trkpt lat="43.43047" lon="5.55293">
        <ele>299</ele>
        <time>2015-01-16T08:31:52Z</time>
      </trkpt>
      <trkpt lat="43.43044" lon="5.55298">
        <ele>299</ele>
        <time>2015-01-16T08:31:54Z</time>
      </trkpt>
      <trkpt lat="43.43039" lon="5.55304">
        <ele>299</ele>
        <time>2015-01-16T08:31:57Z</time>
      </trkpt>
      <trkpt lat="43.43035" lon="5.55312">
        <ele>300</ele>
        <time>2015-01-16T08:32:00Z</time>
      </trkpt>
      <trkpt lat="43.43032" lon="5.55317">
        <ele>300</ele>
        <time>2015-01-16T08:32:02Z</time>
      </trkpt>
      <trkpt lat="43.43029" lon="5.55324">
        <ele>300</ele>
        <time>2015-01-16T08:32:05Z</time>
      </trkpt>
      <trkpt lat="43.43024" lon="5.55329">
        <ele>301</ele>
        <time>2015-01-16T08:32:08Z</time>
      </trkpt>
      <trkpt lat="43.43022" lon="5.55337">
        <ele>301</ele>
        <time>2015-01-16T08:32:11Z</time>
      </trkpt>
      <trkpt lat="43.4302" lon="5.55346">
        <ele>302</ele>
        <time>2015-01-16T08:32:14Z</time>
      </trkpt>
      <trkpt lat="43.43021" lon="5.55355">
        <ele>302</ele>
        <time>2015-01-16T08:32:17Z</time>
      </trkpt>
      <trkpt lat="43.4302" lon="5.55364">
        <ele>303</ele>
        <time>2015-01-16T08:32:20Z</time>
      </trkpt>
      <trkpt lat="43.4302" lon="5.5537">
        <ele>304</ele>
        <time>2015-01-16T08:32:23Z</time>
      </trkpt>
      <trkpt lat="43.43019" lon="5.55378">
        <ele>305</ele>
        <time>2015-01-16T08:32:26Z</time>
      </trkpt>
      <trkpt lat="43.43018" lon="5.55387">
        <ele>305</ele>
        <time>2015-01-16T08:32:29Z</time>
      </trkpt>
      <trkpt lat="43.43016" lon="5.55394">
        <ele>306</ele>
        <time>2015-01-16T08:32:32Z</time>
      </trkpt>
      <trkpt lat="43.43015" lon="5.554">
        <ele>306</ele>
        <time>2015-01-16T08:32:35Z</time>
      </trkpt>
      <trkpt lat="43.43013" lon="5.55407">
        <ele>307</ele>
        <time>2015-01-16T08:32:38Z</time>
      </trkpt>
      <trkpt lat="43.43011" lon="5.55415">
        <ele>307</ele>
        <time>2015-01-16T08:32:41Z</time>
      </trkpt>
      <trkpt lat="43.43008" lon="5.55422">
        <ele>308</ele>
        <time>2015-01-16T08:32:44Z</time>
      </trkpt>
      <trkpt lat="43.43007" lon="5.55429">
        <ele>308</ele>
        <time>2015-01-16T08:32:48Z</time>
      </trkpt>
      <trkpt lat="43.43005" lon="5.55436">
        <ele>309</ele>
        <time>2015-01-16T08:32:51Z</time>
      </trkpt>
      <trkpt lat="43.43004" lon="5.55443">
        <ele>309</ele>
        <time>2015-01-16T08:32:54Z</time>
      </trkpt>
      <trkpt lat="43.43001" lon="5.5545">
        <ele>310</ele>
        <time>2015-01-16T08:32:57Z</time>
      </trkpt>
      <trkpt lat="43.42998" lon="5.55455">
        <ele>310</ele>
        <time>2015-01-16T08:32:59Z</time>
      </trkpt>
      <trkpt lat="43.42995" lon="5.5546">
        <ele>310</ele>
        <time>2015-01-16T08:33:02Z</time>
      </trkpt>
      <trkpt lat="43.42994" lon="5.55467">
        <ele>311</ele>
        <time>2015-01-16T08:33:06Z</time>
      </trkpt>
      <trkpt lat="43.42991" lon="5.55474">
        <ele>312</ele>
        <time>2015-01-16T08:33:09Z</time>
      </trkpt>
      <trkpt lat="43.42988" lon="5.5548">
        <ele>313</ele>
        <time>2015-01-16T08:33:12Z</time>
      </trkpt>
      <trkpt lat="43.42986" lon="5.55487">
        <ele>313</ele>
        <time>2015-01-16T08:33:15Z</time>
      </trkpt>
      <trkpt lat="43.42984" lon="5.55495">
        <ele>313</ele>
        <time>2015-01-16T08:33:18Z</time>
      </trkpt>
      <trkpt lat="43.42982" lon="5.55502">
        <ele>314</ele>
        <time>2015-01-16T08:33:21Z</time>
      </trkpt>
      <trkpt lat="43.4298" lon="5.5551">
        <ele>314</ele>
        <time>2015-01-16T08:33:24Z</time>
      </trkpt>
      <trkpt lat="43.42979" lon="5.55518">
        <ele>315</ele>
        <time>2015-01-16T08:33:27Z</time>
      </trkpt>
      <trkpt lat="43.42979" lon="5.55527">
        <ele>315</ele>
        <time>2015-01-16T08:33:30Z</time>
      </trkpt>
      <trkpt lat="43.42979" lon="5.55535">
        <ele>316</ele>
        <time>2015-01-16T08:33:33Z</time>
      </trkpt>
      <trkpt lat="43.42978" lon="5.55541">
        <ele>316</ele>
        <time>2015-01-16T08:33:36Z</time>
      </trkpt>
      <trkpt lat="43.42978" lon="5.55549">
        <ele>316</ele>
        <time>2015-01-16T08:33:39Z</time>
      </trkpt>
      <trkpt lat="43.42978" lon="5.55555">
        <ele>316</ele>
        <time>2015-01-16T08:33:42Z</time>
      </trkpt>
      <trkpt lat="43.42977" lon="5.55563">
        <ele>317</ele>
        <time>2015-01-16T08:33:45Z</time>
      </trkpt>
      <trkpt lat="43.42977" lon="5.5557">
        <ele>318</ele>
        <time>2015-01-16T08:33:49Z</time>
      </trkpt>
      <trkpt lat="43.42974" lon="5.55575">
        <ele>318</ele>
        <time>2015-01-16T08:33:51Z</time>
      </trkpt>
      <trkpt lat="43.42972" lon="5.55582">
        <ele>318</ele>
        <time>2015-01-16T08:33:54Z</time>
      </trkpt>
      <trkpt lat="43.4297" lon="5.55588">
        <ele>319</ele>
        <time>2015-01-16T08:33:57Z</time>
      </trkpt>
      <trkpt lat="43.42968" lon="5.55594">
        <ele>319</ele>
        <time>2015-01-16T08:34:00Z</time>
      </trkpt>
      <trkpt lat="43.42967" lon="5.556">
        <ele>320</ele>
        <time>2015-01-16T08:34:02Z</time>
      </trkpt>
      <trkpt lat="43.42965" lon="5.55608">
        <ele>320</ele>
        <time>2015-01-16T08:34:05Z</time>
      </trkpt>
      <trkpt lat="43.42963" lon="5.55615">
        <ele>321</ele>
        <time>2015-01-16T08:34:08Z</time>
      </trkpt>
      <trkpt lat="43.42962" lon="5.55621">
        <ele>321</ele>
        <time>2015-01-16T08:34:10Z</time>
      </trkpt>
      <trkpt lat="43.4296" lon="5.55628">
        <ele>322</ele>
        <time>2015-01-16T08:34:13Z</time>
      </trkpt>
      <trkpt lat="43.42958" lon="5.55633">
        <ele>322</ele>
        <time>2015-01-16T08:34:16Z</time>
      </trkpt>
      <trkpt lat="43.42955" lon="5.5564">
        <ele>323</ele>
        <time>2015-01-16T08:34:19Z</time>
      </trkpt>
      <trkpt lat="43.42953" lon="5.55646">
        <ele>324</ele>
        <time>2015-01-16T08:34:24Z</time>
      </trkpt>
      <trkpt lat="43.42949" lon="5.5565">
        <ele>325</ele>
        <time>2015-01-16T08:34:30Z</time>
      </trkpt>
      <trkpt lat="43.42945" lon="5.55657">
        <ele>326</ele>
        <time>2015-01-16T08:34:33Z</time>
      </trkpt>
      <trkpt lat="43.42942" lon="5.55663">
        <ele>326</ele>
        <time>2015-01-16T08:34:35Z</time>
      </trkpt>
      <trkpt lat="43.42939" lon="5.5567">
        <ele>326</ele>
        <time>2015-01-16T08:34:39Z</time>
      </trkpt>
      <trkpt lat="43.42936" lon="5.55676">
        <ele>327</ele>
        <time>2015-01-16T08:34:42Z</time>
      </trkpt>
      <trkpt lat="43.42931" lon="5.55681">
        <ele>327</ele>
        <time>2015-01-16T08:34:46Z</time>
      </trkpt>
      <trkpt lat="43.42928" lon="5.55686">
        <ele>328</ele>
        <time>2015-01-16T08:34:49Z</time>
      </trkpt>
      <trkpt lat="43.42923" lon="5.55687">
        <ele>328</ele>
        <time>2015-01-16T08:34:54Z</time>
      </trkpt>
      <trkpt lat="43.42917" lon="5.55685">
        <ele>328</ele>
        <time>2015-01-16T08:34:57Z</time>
      </trkpt>
      <trkpt lat="43.4291" lon="5.55682">
        <ele>328</ele>
        <time>2015-01-16T08:35:00Z</time>
      </trkpt>
      <trkpt lat="43.42905" lon="5.55677">
        <ele>329</ele>
        <time>2015-01-16T08:35:03Z</time>
      </trkpt>
      <trkpt lat="43.42902" lon="5.55672">
        <ele>329</ele>
        <time>2015-01-16T08:35:06Z</time>
      </trkpt>
      <trkpt lat="43.42899" lon="5.55666">
        <ele>329</ele>
        <time>2015-01-16T08:35:09Z</time>
      </trkpt>
      <trkpt lat="43.42894" lon="5.5566">
        <ele>330</ele>
        <time>2015-01-16T08:35:12Z</time>
      </trkpt>
      <trkpt lat="43.42889" lon="5.55657">
        <ele>330</ele>
        <time>2015-01-16T08:35:15Z</time>
      </trkpt>
      <trkpt lat="43.42884" lon="5.5566">
        <ele>330</ele>
        <time>2015-01-16T08:35:18Z</time>
      </trkpt>
      <trkpt lat="43.4288" lon="5.55663">
        <ele>331</ele>
        <time>2015-01-16T08:35:23Z</time>
      </trkpt>
      <trkpt lat="43.42883" lon="5.55668">
        <ele>331</ele>
        <time>2015-01-16T08:35:46Z</time>
      </trkpt>
      <trkpt lat="43.42881" lon="5.5567">
        <ele>331</ele>
        <time>2015-01-16T08:35:51Z</time>
      </trkpt>
      <trkpt lat="43.42878" lon="5.55672">
        <ele>332</ele>
        <time>2015-01-16T08:36:16Z</time>
      </trkpt>
      <trkpt lat="43.42879" lon="5.55677">
        <ele>332</ele>
        <time>2015-01-16T08:36:39Z</time>
      </trkpt>
      <trkpt lat="43.42877" lon="5.55683">
        <ele>332</ele>
        <time>2015-01-16T08:36:45Z</time>
      </trkpt>
      <trkpt lat="43.42875" lon="5.55688">
        <ele>332</ele>
        <time>2015-01-16T08:36:48Z</time>
      </trkpt>
      <trkpt lat="43.42869" lon="5.55694">
        <ele>332</ele>
        <time>2015-01-16T08:36:53Z</time>
      </trkpt>
      <trkpt lat="43.42865" lon="5.557">
        <ele>333</ele>
        <time>2015-01-16T08:36:56Z</time>
      </trkpt>
      <trkpt lat="43.42862" lon="5.55704">
        <ele>333</ele>
        <time>2015-01-16T08:36:58Z</time>
      </trkpt>
      <trkpt lat="43.42858" lon="5.55709">
        <ele>333</ele>
        <time>2015-01-16T08:37:01Z</time>
      </trkpt>
      <trkpt lat="43.42854" lon="5.55715">
        <ele>334</ele>
        <time>2015-01-16T08:37:04Z</time>
      </trkpt>
      <trkpt lat="43.42852" lon="5.55722">
        <ele>334</ele>
        <time>2015-01-16T08:37:07Z</time>
      </trkpt>
      <trkpt lat="43.4285" lon="5.55729">
        <ele>335</ele>
        <time>2015-01-16T08:37:10Z</time>
      </trkpt>
      <trkpt lat="43.42848" lon="5.55735">
        <ele>335</ele>
        <time>2015-01-16T08:37:15Z</time>
      </trkpt>
      <trkpt lat="43.42844" lon="5.55742">
        <ele>335</ele>
        <time>2015-01-16T08:37:19Z</time>
      </trkpt>
      <trkpt lat="43.4284" lon="5.55749">
        <ele>335</ele>
        <time>2015-01-16T08:37:22Z</time>
      </trkpt>
      <trkpt lat="43.42838" lon="5.55755">
        <ele>336</ele>
        <time>2015-01-16T08:37:25Z</time>
      </trkpt>
      <trkpt lat="43.42835" lon="5.55763">
        <ele>336</ele>
        <time>2015-01-16T08:37:28Z</time>
      </trkpt>
      <trkpt lat="43.42834" lon="5.55769">
        <ele>337</ele>
        <time>2015-01-16T08:37:31Z</time>
      </trkpt>
      <trkpt lat="43.42831" lon="5.55776">
        <ele>337</ele>
        <time>2015-01-16T08:37:34Z</time>
      </trkpt>
      <trkpt lat="43.42828" lon="5.55782">
        <ele>338</ele>
        <time>2015-01-16T08:37:38Z</time>
      </trkpt>
      <trkpt lat="43.42825" lon="5.55788">
        <ele>338</ele>
        <time>2015-01-16T08:37:42Z</time>
      </trkpt>
      <trkpt lat="43.42821" lon="5.55792">
        <ele>338</ele>
        <time>2015-01-16T08:37:46Z</time>
      </trkpt>
      <trkpt lat="43.42817" lon="5.55796">
        <ele>339</ele>
        <time>2015-01-16T08:37:49Z</time>
      </trkpt>
      <trkpt lat="43.42812" lon="5.55801">
        <ele>340</ele>
        <time>2015-01-16T08:37:52Z</time>
      </trkpt>
      <trkpt lat="43.42807" lon="5.55804">
        <ele>340</ele>
        <time>2015-01-16T08:37:55Z</time>
      </trkpt>
      <trkpt lat="43.42803" lon="5.55808">
        <ele>341</ele>
        <time>2015-01-16T08:37:58Z</time>
      </trkpt>
      <trkpt lat="43.42799" lon="5.55813">
        <ele>341</ele>
        <time>2015-01-16T08:38:01Z</time>
      </trkpt>
      <trkpt lat="43.42796" lon="5.55817">
        <ele>342</ele>
        <time>2015-01-16T08:38:04Z</time>
      </trkpt>
      <trkpt lat="43.42793" lon="5.55822">
        <ele>345</ele>
        <time>2015-01-16T08:38:31Z</time>
      </trkpt>
      <trkpt lat="43.42792" lon="5.55823">
        <ele>345</ele>
        <time>2015-01-16T08:38:33Z</time>
      </trkpt>
      <trkpt lat="43.4279" lon="5.55829">
        <ele>346</ele>
        <time>2015-01-16T08:38:38Z</time>
      </trkpt>
      <trkpt lat="43.42785" lon="5.55833">
        <ele>346</ele>
        <time>2015-01-16T08:38:42Z</time>
      </trkpt>
      <trkpt lat="43.42781" lon="5.55838">
        <ele>346</ele>
        <time>2015-01-16T08:38:44Z</time>
      </trkpt>
      <trkpt lat="43.42777" lon="5.55842">
        <ele>346</ele>
        <time>2015-01-16T08:38:46Z</time>
      </trkpt>
      <trkpt lat="43.42773" lon="5.55846">
        <ele>346</ele>
        <time>2015-01-16T08:38:48Z</time>
      </trkpt>
      <trkpt lat="43.42769" lon="5.55851">
        <ele>346</ele>
        <time>2015-01-16T08:38:51Z</time>
      </trkpt>
      <trkpt lat="43.42764" lon="5.55857">
        <ele>347</ele>
        <time>2015-01-16T08:38:54Z</time>
      </trkpt>
      <trkpt lat="43.42762" lon="5.55862">
        <ele>347</ele>
        <time>2015-01-16T08:38:56Z</time>
      </trkpt>
      <trkpt lat="43.42759" lon="5.55869">
        <ele>347</ele>
        <time>2015-01-16T08:38:59Z</time>
      </trkpt>
      <trkpt lat="43.42756" lon="5.55875">
        <ele>347</ele>
        <time>2015-01-16T08:39:02Z</time>
      </trkpt>
      <trkpt lat="43.42751" lon="5.55881">
        <ele>347</ele>
        <time>2015-01-16T08:39:05Z</time>
      </trkpt>
      <trkpt lat="43.42746" lon="5.55886">
        <ele>348</ele>
        <time>2015-01-16T08:39:08Z</time>
      </trkpt>
      <trkpt lat="43.42743" lon="5.55891">
        <ele>348</ele>
        <time>2015-01-16T08:39:10Z</time>
      </trkpt>
      <trkpt lat="43.42739" lon="5.55898">
        <ele>348</ele>
        <time>2015-01-16T08:39:13Z</time>
      </trkpt>
      <trkpt lat="43.42736" lon="5.55905">
        <ele>348</ele>
        <time>2015-01-16T08:39:15Z</time>
      </trkpt>
      <trkpt lat="43.42733" lon="5.5591">
        <ele>348</ele>
        <time>2015-01-16T08:39:17Z</time>
      </trkpt>
      <trkpt lat="43.4273" lon="5.55915">
        <ele>348</ele>
        <time>2015-01-16T08:39:19Z</time>
      </trkpt>
      <trkpt lat="43.42725" lon="5.55922">
        <ele>348</ele>
        <time>2015-01-16T08:39:22Z</time>
      </trkpt>
      <trkpt lat="43.42722" lon="5.5593">
        <ele>348</ele>
        <time>2015-01-16T08:39:25Z</time>
      </trkpt>
      <trkpt lat="43.42721" lon="5.55936">
        <ele>349</ele>
        <time>2015-01-16T08:39:27Z</time>
      </trkpt>
      <trkpt lat="43.42719" lon="5.55943">
        <ele>349</ele>
        <time>2015-01-16T08:39:29Z</time>
      </trkpt>
      <trkpt lat="43.42717" lon="5.55949">
        <ele>349</ele>
        <time>2015-01-16T08:39:31Z</time>
      </trkpt>
      <trkpt lat="43.42715" lon="5.55955">
        <ele>350</ele>
        <time>2015-01-16T08:39:33Z</time>
      </trkpt>
      <trkpt lat="43.42713" lon="5.55962">
        <ele>350</ele>
        <time>2015-01-16T08:39:36Z</time>
      </trkpt>
      <trkpt lat="43.42711" lon="5.55971">
        <ele>350</ele>
        <time>2015-01-16T08:39:39Z</time>
      </trkpt>
      <trkpt lat="43.4271" lon="5.55978">
        <ele>350</ele>
        <time>2015-01-16T08:39:41Z</time>
      </trkpt>
      <trkpt lat="43.42707" lon="5.55983">
        <ele>350</ele>
        <time>2015-01-16T08:39:43Z</time>
      </trkpt>
      <trkpt lat="43.42705" lon="5.55991">
        <ele>351</ele>
        <time>2015-01-16T08:39:45Z</time>
      </trkpt>
      <trkpt lat="43.42704" lon="5.55998">
        <ele>351</ele>
        <time>2015-01-16T08:39:47Z</time>
      </trkpt>
      <trkpt lat="43.427" lon="5.56006">
        <ele>351</ele>
        <time>2015-01-16T08:39:50Z</time>
      </trkpt>
      <trkpt lat="43.42697" lon="5.56012">
        <ele>352</ele>
        <time>2015-01-16T08:39:52Z</time>
      </trkpt>
      <trkpt lat="43.42693" lon="5.56019">
        <ele>353</ele>
        <time>2015-01-16T08:39:55Z</time>
      </trkpt>
      <trkpt lat="43.4269" lon="5.56024">
        <ele>353</ele>
        <time>2015-01-16T08:39:59Z</time>
      </trkpt>
      <trkpt lat="43.42686" lon="5.56028">
        <ele>354</ele>
        <time>2015-01-16T08:40:02Z</time>
      </trkpt>
      <trkpt lat="43.42682" lon="5.56036">
        <ele>354</ele>
        <time>2015-01-16T08:40:05Z</time>
      </trkpt>
      <trkpt lat="43.42679" lon="5.56042">
        <ele>355</ele>
        <time>2015-01-16T08:40:07Z</time>
      </trkpt>
      <trkpt lat="43.42676" lon="5.56048">
        <ele>355</ele>
        <time>2015-01-16T08:40:09Z</time>
      </trkpt>
      <trkpt lat="43.42674" lon="5.56056">
        <ele>356</ele>
        <time>2015-01-16T08:40:12Z</time>
      </trkpt>
      <trkpt lat="43.42672" lon="5.56062">
        <ele>356</ele>
        <time>2015-01-16T08:40:14Z</time>
      </trkpt>
      <trkpt lat="43.4267" lon="5.56068">
        <ele>357</ele>
        <time>2015-01-16T08:40:16Z</time>
      </trkpt>
      <trkpt lat="43.42668" lon="5.56074">
        <ele>357</ele>
        <time>2015-01-16T08:40:18Z</time>
      </trkpt>
      <trkpt lat="43.42665" lon="5.5608">
        <ele>357</ele>
        <time>2015-01-16T08:40:21Z</time>
      </trkpt>
      <trkpt lat="43.42661" lon="5.56086">
        <ele>357</ele>
        <time>2015-01-16T08:40:24Z</time>
      </trkpt>
      <trkpt lat="43.42658" lon="5.56092">
        <ele>358</ele>
        <time>2015-01-16T08:40:27Z</time>
      </trkpt>
      <trkpt lat="43.42654" lon="5.56096">
        <ele>358</ele>
        <time>2015-01-16T08:40:30Z</time>
      </trkpt>
      <trkpt lat="43.42651" lon="5.56102">
        <ele>358</ele>
        <time>2015-01-16T08:40:33Z</time>
      </trkpt>
      <trkpt lat="43.42645" lon="5.56108">
        <ele>358</ele>
        <time>2015-01-16T08:40:36Z</time>
      </trkpt>
      <trkpt lat="43.42641" lon="5.56113">
        <ele>359</ele>
        <time>2015-01-16T08:40:39Z</time>
      </trkpt>
      <trkpt lat="43.42637" lon="5.56119">
        <ele>359</ele>
        <time>2015-01-16T08:40:41Z</time>
      </trkpt>
      <trkpt lat="43.42631" lon="5.56128">
        <ele>359</ele>
        <time>2015-01-16T08:40:43Z</time>
      </trkpt>
      <trkpt lat="43.42627" lon="5.56136">
        <ele>359</ele>
        <time>2015-01-16T08:40:45Z</time>
      </trkpt>
      <trkpt lat="43.42623" lon="5.56142">
        <ele>359</ele>
        <time>2015-01-16T08:40:47Z</time>
      </trkpt>
      <trkpt lat="43.42618" lon="5.56149">
        <ele>360</ele>
        <time>2015-01-16T08:40:49Z</time>
      </trkpt>
      <trkpt lat="43.42614" lon="5.56152">
        <ele>360</ele>
        <time>2015-01-16T08:40:51Z</time>
      </trkpt>
      <trkpt lat="43.4261" lon="5.56156">
        <ele>360</ele>
        <time>2015-01-16T08:40:53Z</time>
      </trkpt>
      <trkpt lat="43.42604" lon="5.5616">
        <ele>360</ele>
        <time>2015-01-16T08:40:55Z</time>
      </trkpt>
      <trkpt lat="43.42599" lon="5.56166">
        <ele>360</ele>
        <time>2015-01-16T08:40:57Z</time>
      </trkpt>
      <trkpt lat="43.42595" lon="5.5617">
        <ele>361</ele>
        <time>2015-01-16T08:40:59Z</time>
      </trkpt>
      <trkpt lat="43.4259" lon="5.56174">
        <ele>361</ele>
        <time>2015-01-16T08:41:01Z</time>
      </trkpt>
      <trkpt lat="43.42585" lon="5.56178">
        <ele>361</ele>
        <time>2015-01-16T08:41:03Z</time>
      </trkpt>
      <trkpt lat="43.4258" lon="5.56182">
        <ele>361</ele>
        <time>2015-01-16T08:41:05Z</time>
      </trkpt>
      <trkpt lat="43.42575" lon="5.56184">
        <ele>361</ele>
        <time>2015-01-16T08:41:07Z</time>
      </trkpt>
      <trkpt lat="43.4257" lon="5.56184">
        <ele>361</ele>
        <time>2015-01-16T08:41:09Z</time>
      </trkpt>
      <trkpt lat="43.42566" lon="5.56186">
        <ele>361</ele>
        <time>2015-01-16T08:41:11Z</time>
      </trkpt>
      <trkpt lat="43.42561" lon="5.56187">
        <ele>361</ele>
        <time>2015-01-16T08:41:13Z</time>
      </trkpt>
      <trkpt lat="43.42556" lon="5.56187">
        <ele>361</ele>
        <time>2015-01-16T08:41:15Z</time>
      </trkpt>
      <trkpt lat="43.42551" lon="5.56184">
        <ele>361</ele>
        <time>2015-01-16T08:41:23Z</time>
      </trkpt>
      <trkpt lat="43.42548" lon="5.56182">
        <ele>362</ele>
        <time>2015-01-16T08:41:44Z</time>
      </trkpt>
      <trkpt lat="43.42547" lon="5.56174">
        <ele>363</ele>
        <time>2015-01-16T08:42:01Z</time>
      </trkpt>
      <trkpt lat="43.42544" lon="5.56166">
        <ele>363</ele>
        <time>2015-01-16T08:42:03Z</time>
      </trkpt>
      <trkpt lat="43.42541" lon="5.56155">
        <ele>361</ele>
        <time>2015-01-16T08:42:05Z</time>
      </trkpt>
      <trkpt lat="43.42538" lon="5.56149">
        <ele>361</ele>
        <time>2015-01-16T08:42:06Z</time>
      </trkpt>
      <trkpt lat="43.42535" lon="5.56141">
        <ele>361</ele>
        <time>2015-01-16T08:42:07Z</time>
      </trkpt>
      <trkpt lat="43.42532" lon="5.56134">
        <ele>360</ele>
        <time>2015-01-16T08:42:08Z</time>
      </trkpt>
      <trkpt lat="43.42529" lon="5.56127">
        <ele>359</ele>
        <time>2015-01-16T08:42:09Z</time>
      </trkpt>
      <trkpt lat="43.42527" lon="5.5612">
        <ele>358</ele>
        <time>2015-01-16T08:42:10Z</time>
      </trkpt>
      <trkpt lat="43.42525" lon="5.56113">
        <ele>357</ele>
        <time>2015-01-16T08:42:11Z</time>
      </trkpt>
      <trkpt lat="43.42522" lon="5.56107">
        <ele>357</ele>
        <time>2015-01-16T08:42:12Z</time>
      </trkpt>
      <trkpt lat="43.4252" lon="5.56101">
        <ele>356</ele>
        <time>2015-01-16T08:42:13Z</time>
      </trkpt>
      <trkpt lat="43.42516" lon="5.56094">
        <ele>356</ele>
        <time>2015-01-16T08:42:15Z</time>
      </trkpt>
      <trkpt lat="43.4251" lon="5.56086">
        <ele>357</ele>
        <time>2015-01-16T08:42:17Z</time>
      </trkpt>
      <trkpt lat="43.42505" lon="5.56082">
        <ele>357</ele>
        <time>2015-01-16T08:42:20Z</time>
      </trkpt>
      <trkpt lat="43.42502" lon="5.56077">
        <ele>357</ele>
        <time>2015-01-16T08:42:22Z</time>
      </trkpt>
      <trkpt lat="43.42501" lon="5.56069">
        <ele>358</ele>
        <time>2015-01-16T08:42:24Z</time>
      </trkpt>
      <trkpt lat="43.42497" lon="5.56062">
        <ele>358</ele>
        <time>2015-01-16T08:42:27Z</time>
      </trkpt>
      <trkpt lat="43.42495" lon="5.56054">
        <ele>358</ele>
        <time>2015-01-16T08:42:30Z</time>
      </trkpt>
      <trkpt lat="43.42493" lon="5.56047">
        <ele>358</ele>
        <time>2015-01-16T08:42:32Z</time>
      </trkpt>
      <trkpt lat="43.4249" lon="5.56039">
        <ele>358</ele>
        <time>2015-01-16T08:42:34Z</time>
      </trkpt>
      <trkpt lat="43.42487" lon="5.56031">
        <ele>359</ele>
        <time>2015-01-16T08:42:35Z</time>
      </trkpt>
      <trkpt lat="43.42483" lon="5.56025">
        <ele>360</ele>
        <time>2015-01-16T08:42:36Z</time>
      </trkpt>
      <trkpt lat="43.4248" lon="5.56018">
        <ele>360</ele>
        <time>2015-01-16T08:42:37Z</time>
      </trkpt>
      <trkpt lat="43.42477" lon="5.5601">
        <ele>361</ele>
        <time>2015-01-16T08:42:38Z</time>
      </trkpt>
      <trkpt lat="43.42473" lon="5.56002">
        <ele>361</ele>
        <time>2015-01-16T08:42:39Z</time>
      </trkpt>
      <trkpt lat="43.4247" lon="5.55996">
        <ele>361</ele>
        <time>2015-01-16T08:42:40Z</time>
      </trkpt>
      <trkpt lat="43.42468" lon="5.5599">
        <ele>361</ele>
        <time>2015-01-16T08:42:41Z</time>
      </trkpt>
      <trkpt lat="43.42464" lon="5.55984">
        <ele>360</ele>
        <time>2015-01-16T08:42:42Z</time>
      </trkpt>
      <trkpt lat="43.42462" lon="5.55978">
        <ele>359</ele>
        <time>2015-01-16T08:42:43Z</time>
      </trkpt>
      <trkpt lat="43.4246" lon="5.55973">
        <ele>359</ele>
        <time>2015-01-16T08:42:44Z</time>
      </trkpt>
      <trkpt lat="43.42458" lon="5.55967">
        <ele>359</ele>
        <time>2015-01-16T08:42:45Z</time>
      </trkpt>
      <trkpt lat="43.42453" lon="5.55958">
        <ele>359</ele>
        <time>2015-01-16T08:42:47Z</time>
      </trkpt>
      <trkpt lat="43.4245" lon="5.55952">
        <ele>359</ele>
        <time>2015-01-16T08:42:48Z</time>
      </trkpt>
      <trkpt lat="43.42445" lon="5.55942">
        <ele>359</ele>
        <time>2015-01-16T08:42:50Z</time>
      </trkpt>
      <trkpt lat="43.42442" lon="5.55932">
        <ele>357</ele>
        <time>2015-01-16T08:42:52Z</time>
      </trkpt>
      <trkpt lat="43.4244" lon="5.55926">
        <ele>355</ele>
        <time>2015-01-16T08:42:53Z</time>
      </trkpt>
      <trkpt lat="43.42435" lon="5.55917">
        <ele>355</ele>
        <time>2015-01-16T08:42:55Z</time>
      </trkpt>
      <trkpt lat="43.42429" lon="5.55916">
        <ele>354</ele>
        <time>2015-01-16T08:42:57Z</time>
      </trkpt>
      <trkpt lat="43.42424" lon="5.55916">
        <ele>354</ele>
        <time>2015-01-16T08:42:59Z</time>
      </trkpt>
      <trkpt lat="43.42419" lon="5.55919">
        <ele>354</ele>
        <time>2015-01-16T08:43:02Z</time>
      </trkpt>
      <trkpt lat="43.42415" lon="5.55924">
        <ele>353</ele>
        <time>2015-01-16T08:43:04Z</time>
      </trkpt>
      <trkpt lat="43.42411" lon="5.55927">
        <ele>353</ele>
        <time>2015-01-16T08:43:06Z</time>
      </trkpt>
      <trkpt lat="43.42406" lon="5.55932">
        <ele>352</ele>
        <time>2015-01-16T08:43:09Z</time>
      </trkpt>
      <trkpt lat="43.42402" lon="5.55936">
        <ele>352</ele>
        <time>2015-01-16T08:43:11Z</time>
      </trkpt>
      <trkpt lat="43.42397" lon="5.55938">
        <ele>351</ele>
        <time>2015-01-16T08:43:14Z</time>
      </trkpt>
      <trkpt lat="43.42392" lon="5.55942">
        <ele>351</ele>
        <time>2015-01-16T08:43:17Z</time>
      </trkpt>
      <trkpt lat="43.42387" lon="5.55947">
        <ele>350</ele>
        <time>2015-01-16T08:43:20Z</time>
      </trkpt>
      <trkpt lat="43.42382" lon="5.55953">
        <ele>349</ele>
        <time>2015-01-16T08:43:23Z</time>
      </trkpt>
      <trkpt lat="43.42378" lon="5.55958">
        <ele>349</ele>
        <time>2015-01-16T08:43:26Z</time>
      </trkpt>
      <trkpt lat="43.42373" lon="5.55963">
        <ele>349</ele>
        <time>2015-01-16T08:43:29Z</time>
      </trkpt>
      <trkpt lat="43.42368" lon="5.55968">
        <ele>349</ele>
        <time>2015-01-16T08:43:32Z</time>
      </trkpt>
      <trkpt lat="43.42365" lon="5.55972">
        <ele>348</ele>
        <time>2015-01-16T08:43:34Z</time>
      </trkpt>
      <trkpt lat="43.42361" lon="5.55976">
        <ele>349</ele>
        <time>2015-01-16T08:43:36Z</time>
      </trkpt>
      <trkpt lat="43.42357" lon="5.55979">
        <ele>348</ele>
        <time>2015-01-16T08:43:38Z</time>
      </trkpt>
      <trkpt lat="43.42353" lon="5.55983">
        <ele>348</ele>
        <time>2015-01-16T08:43:40Z</time>
      </trkpt>
      <trkpt lat="43.42348" lon="5.55989">
        <ele>348</ele>
        <time>2015-01-16T08:43:43Z</time>
      </trkpt>
      <trkpt lat="43.42344" lon="5.55994">
        <ele>348</ele>
        <time>2015-01-16T08:43:46Z</time>
      </trkpt>
      <trkpt lat="43.42339" lon="5.56">
        <ele>348</ele>
        <time>2015-01-16T08:43:49Z</time>
      </trkpt>
      <trkpt lat="43.42335" lon="5.56005">
        <ele>348</ele>
        <time>2015-01-16T08:43:51Z</time>
      </trkpt>
      <trkpt lat="43.4233" lon="5.5601">
        <ele>348</ele>
        <time>2015-01-16T08:43:54Z</time>
      </trkpt>
      <trkpt lat="43.42326" lon="5.56014">
        <ele>348</ele>
        <time>2015-01-16T08:43:56Z</time>
      </trkpt>
      <trkpt lat="43.42323" lon="5.56018">
        <ele>348</ele>
        <time>2015-01-16T08:43:58Z</time>
      </trkpt>
      <trkpt lat="43.4232" lon="5.56022">
        <ele>348</ele>
        <time>2015-01-16T08:44:00Z</time>
      </trkpt>
      <trkpt lat="43.42315" lon="5.56028">
        <ele>348</ele>
        <time>2015-01-16T08:44:03Z</time>
      </trkpt>
      <trkpt lat="43.4231" lon="5.56033">
        <ele>348</ele>
        <time>2015-01-16T08:44:06Z</time>
      </trkpt>
      <trkpt lat="43.42306" lon="5.56038">
        <ele>348</ele>
        <time>2015-01-16T08:44:08Z</time>
      </trkpt>
      <trkpt lat="43.42302" lon="5.56045">
        <ele>348</ele>
        <time>2015-01-16T08:44:11Z</time>
      </trkpt>
      <trkpt lat="43.423" lon="5.56051">
        <ele>348</ele>
        <time>2015-01-16T08:44:13Z</time>
      </trkpt>
      <trkpt lat="43.42297" lon="5.56057">
        <ele>348</ele>
        <time>2015-01-16T08:44:15Z</time>
      </trkpt>
      <trkpt lat="43.42293" lon="5.56065">
        <ele>348</ele>
        <time>2015-01-16T08:44:18Z</time>
      </trkpt>
      <trkpt lat="43.42289" lon="5.56072">
        <ele>348</ele>
        <time>2015-01-16T08:44:20Z</time>
      </trkpt>
      <trkpt lat="43.42286" lon="5.56077">
        <ele>349</ele>
        <time>2015-01-16T08:44:22Z</time>
      </trkpt>
      <trkpt lat="43.42283" lon="5.56082">
        <ele>349</ele>
        <time>2015-01-16T08:44:24Z</time>
      </trkpt>
      <trkpt lat="43.4228" lon="5.56086">
        <ele>349</ele>
        <time>2015-01-16T08:44:26Z</time>
      </trkpt>
      <trkpt lat="43.42276" lon="5.56092">
        <ele>349</ele>
        <time>2015-01-16T08:44:28Z</time>
      </trkpt>
      <trkpt lat="43.42273" lon="5.561">
        <ele>349</ele>
        <time>2015-01-16T08:44:31Z</time>
      </trkpt>
      <trkpt lat="43.4227" lon="5.56107">
        <ele>349</ele>
        <time>2015-01-16T08:44:34Z</time>
      </trkpt>
      <trkpt lat="43.42266" lon="5.56114">
        <ele>349</ele>
        <time>2015-01-16T08:44:37Z</time>
      </trkpt>
      <trkpt lat="43.42263" lon="5.5612">
        <ele>350</ele>
        <time>2015-01-16T08:44:40Z</time>
      </trkpt>
      <trkpt lat="43.4226" lon="5.56127">
        <ele>350</ele>
        <time>2015-01-16T08:44:43Z</time>
      </trkpt>
      <trkpt lat="43.42257" lon="5.56133">
        <ele>350</ele>
        <time>2015-01-16T08:44:45Z</time>
      </trkpt>
      <trkpt lat="43.42254" lon="5.56139">
        <ele>350</ele>
        <time>2015-01-16T08:44:47Z</time>
      </trkpt>
      <trkpt lat="43.42249" lon="5.56144">
        <ele>350</ele>
        <time>2015-01-16T08:44:50Z</time>
      </trkpt>
      <trkpt lat="43.42244" lon="5.56149">
        <ele>350</ele>
        <time>2015-01-16T08:44:53Z</time>
      </trkpt>
      <trkpt lat="43.42241" lon="5.56153">
        <ele>351</ele>
        <time>2015-01-16T08:44:55Z</time>
      </trkpt>
      <trkpt lat="43.42236" lon="5.56157">
        <ele>351</ele>
        <time>2015-01-16T08:44:58Z</time>
      </trkpt>
      <trkpt lat="43.42231" lon="5.56162">
        <ele>352</ele>
        <time>2015-01-16T08:45:01Z</time>
      </trkpt>
      <trkpt lat="43.42227" lon="5.56166">
        <ele>352</ele>
        <time>2015-01-16T08:45:04Z</time>
      </trkpt>
      <trkpt lat="43.42222" lon="5.56171">
        <ele>352</ele>
        <time>2015-01-16T08:45:07Z</time>
      </trkpt>
      <trkpt lat="43.42218" lon="5.56177">
        <ele>352</ele>
        <time>2015-01-16T08:45:10Z</time>
      </trkpt>
      <trkpt lat="43.42214" lon="5.56183">
        <ele>353</ele>
        <time>2015-01-16T08:45:13Z</time>
      </trkpt>
      <trkpt lat="43.4221" lon="5.56189">
        <ele>353</ele>
        <time>2015-01-16T08:45:16Z</time>
      </trkpt>
      <trkpt lat="43.42206" lon="5.56194">
        <ele>353</ele>
        <time>2015-01-16T08:45:19Z</time>
      </trkpt>
      <trkpt lat="43.42202" lon="5.56199">
        <ele>354</ele>
        <time>2015-01-16T08:45:22Z</time>
      </trkpt>
      <trkpt lat="43.42199" lon="5.56206">
        <ele>354</ele>
        <time>2015-01-16T08:45:25Z</time>
      </trkpt>
      <trkpt lat="43.42196" lon="5.56211">
        <ele>354</ele>
        <time>2015-01-16T08:45:28Z</time>
      </trkpt>
      <trkpt lat="43.42192" lon="5.56217">
        <ele>355</ele>
        <time>2015-01-16T08:45:31Z</time>
      </trkpt>
      <trkpt lat="43.42188" lon="5.56223">
        <ele>355</ele>
        <time>2015-01-16T08:45:34Z</time>
      </trkpt>
      <trkpt lat="43.42185" lon="5.56231">
        <ele>356</ele>
        <time>2015-01-16T08:45:37Z</time>
      </trkpt>
      <trkpt lat="43.42182" lon="5.56238">
        <ele>356</ele>
        <time>2015-01-16T08:45:40Z</time>
      </trkpt>
      <trkpt lat="43.42179" lon="5.56244">
        <ele>356</ele>
        <time>2015-01-16T08:45:43Z</time>
      </trkpt>
      <trkpt lat="43.42175" lon="5.5625">
        <ele>357</ele>
        <time>2015-01-16T08:45:46Z</time>
      </trkpt>
      <trkpt lat="43.42172" lon="5.56255">
        <ele>357</ele>
        <time>2015-01-16T08:45:49Z</time>
      </trkpt>
      <trkpt lat="43.42168" lon="5.56261">
        <ele>358</ele>
        <time>2015-01-16T08:45:53Z</time>
      </trkpt>
      <trkpt lat="43.42165" lon="5.56266">
        <ele>359</ele>
        <time>2015-01-16T08:45:56Z</time>
      </trkpt>
      <trkpt lat="43.42161" lon="5.56271">
        <ele>359</ele>
        <time>2015-01-16T08:45:59Z</time>
      </trkpt>
      <trkpt lat="43.42157" lon="5.56278">
        <ele>359</ele>
        <time>2015-01-16T08:46:02Z</time>
      </trkpt>
      <trkpt lat="43.42154" lon="5.56283">
        <ele>360</ele>
        <time>2015-01-16T08:46:05Z</time>
      </trkpt>
      <trkpt lat="43.4215" lon="5.56287">
        <ele>360</ele>
        <time>2015-01-16T08:46:08Z</time>
      </trkpt>
      <trkpt lat="43.42147" lon="5.56294">
        <ele>361</ele>
        <time>2015-01-16T08:46:11Z</time>
      </trkpt>
      <trkpt lat="43.42144" lon="5.56301">
        <ele>362</ele>
        <time>2015-01-16T08:46:14Z</time>
      </trkpt>
      <trkpt lat="43.4214" lon="5.56308">
        <ele>363</ele>
        <time>2015-01-16T08:46:17Z</time>
      </trkpt>
      <trkpt lat="43.42137" lon="5.56315">
        <ele>363</ele>
        <time>2015-01-16T08:46:20Z</time>
      </trkpt>
      <trkpt lat="43.42134" lon="5.56321">
        <ele>364</ele>
        <time>2015-01-16T08:46:23Z</time>
      </trkpt>
      <trkpt lat="43.42131" lon="5.56327">
        <ele>364</ele>
        <time>2015-01-16T08:46:26Z</time>
      </trkpt>
      <trkpt lat="43.42128" lon="5.56332">
        <ele>364</ele>
        <time>2015-01-16T08:46:28Z</time>
      </trkpt>
      <trkpt lat="43.42124" lon="5.56339">
        <ele>365</ele>
        <time>2015-01-16T08:46:31Z</time>
      </trkpt>
      <trkpt lat="43.4212" lon="5.56344">
        <ele>365</ele>
        <time>2015-01-16T08:46:34Z</time>
      </trkpt>
      <trkpt lat="43.42115" lon="5.56348">
        <ele>365</ele>
        <time>2015-01-16T08:46:37Z</time>
      </trkpt>
      <trkpt lat="43.4211" lon="5.56353">
        <ele>366</ele>
        <time>2015-01-16T08:46:40Z</time>
      </trkpt>
      <trkpt lat="43.42105" lon="5.56359">
        <ele>366</ele>
        <time>2015-01-16T08:46:43Z</time>
      </trkpt>
      <trkpt lat="43.42101" lon="5.56364">
        <ele>367</ele>
        <time>2015-01-16T08:46:47Z</time>
      </trkpt>
      <trkpt lat="43.42096" lon="5.5637">
        <ele>367</ele>
        <time>2015-01-16T08:46:50Z</time>
      </trkpt>
      <trkpt lat="43.42093" lon="5.56376">
        <ele>368</ele>
        <time>2015-01-16T08:46:54Z</time>
      </trkpt>
      <trkpt lat="43.4209" lon="5.56381">
        <ele>368</ele>
        <time>2015-01-16T08:46:57Z</time>
      </trkpt>
      <trkpt lat="43.42085" lon="5.56386">
        <ele>368</ele>
        <time>2015-01-16T08:47:01Z</time>
      </trkpt>
      <trkpt lat="43.42082" lon="5.56392">
        <ele>369</ele>
        <time>2015-01-16T08:47:04Z</time>
      </trkpt>
      <trkpt lat="43.42078" lon="5.56396">
        <ele>369</ele>
        <time>2015-01-16T08:47:07Z</time>
      </trkpt>
      <trkpt lat="43.42073" lon="5.564">
        <ele>369</ele>
        <time>2015-01-16T08:47:10Z</time>
      </trkpt>
      <trkpt lat="43.42068" lon="5.56405">
        <ele>370</ele>
        <time>2015-01-16T08:47:13Z</time>
      </trkpt>
      <trkpt lat="43.42065" lon="5.5641">
        <ele>371</ele>
        <time>2015-01-16T08:47:15Z</time>
      </trkpt>
      <trkpt lat="43.42061" lon="5.56415">
        <ele>371</ele>
        <time>2015-01-16T08:47:18Z</time>
      </trkpt>
      <trkpt lat="43.42058" lon="5.5642">
        <ele>371</ele>
        <time>2015-01-16T08:47:20Z</time>
      </trkpt>
      <trkpt lat="43.42053" lon="5.56426">
        <ele>371</ele>
        <time>2015-01-16T08:47:23Z</time>
      </trkpt>
      <trkpt lat="43.42049" lon="5.56432">
        <ele>372</ele>
        <time>2015-01-16T08:47:26Z</time>
      </trkpt>
      <trkpt lat="43.42046" lon="5.56437">
        <ele>372</ele>
        <time>2015-01-16T08:47:30Z</time>
      </trkpt>
      <trkpt lat="43.42043" lon="5.56445">
        <ele>372</ele>
        <time>2015-01-16T08:47:34Z</time>
      </trkpt>
      <trkpt lat="43.42041" lon="5.56451">
        <ele>373</ele>
        <time>2015-01-16T08:47:37Z</time>
      </trkpt>
      <trkpt lat="43.42039" lon="5.56457">
        <ele>373</ele>
        <time>2015-01-16T08:47:40Z</time>
      </trkpt>
      <trkpt lat="43.42035" lon="5.56462">
        <ele>374</ele>
        <time>2015-01-16T08:47:46Z</time>
      </trkpt>
      <trkpt lat="43.42031" lon="5.56464">
        <ele>374</ele>
        <time>2015-01-16T08:47:51Z</time>
      </trkpt>
      <trkpt lat="43.42026" lon="5.56465">
        <ele>374</ele>
        <time>2015-01-16T08:47:55Z</time>
      </trkpt>
      <trkpt lat="43.42021" lon="5.56467">
        <ele>374</ele>
        <time>2015-01-16T08:47:58Z</time>
      </trkpt>
      <trkpt lat="43.42015" lon="5.56468">
        <ele>375</ele>
        <time>2015-01-16T08:48:01Z</time>
      </trkpt>
      <trkpt lat="43.42009" lon="5.5647">
        <ele>375</ele>
        <time>2015-01-16T08:48:04Z</time>
      </trkpt>
      <trkpt lat="43.42004" lon="5.56473">
        <ele>376</ele>
        <time>2015-01-16T08:48:07Z</time>
      </trkpt>
      <trkpt lat="43.41998" lon="5.56475">
        <ele>376</ele>
        <time>2015-01-16T08:48:11Z</time>
      </trkpt>
      <trkpt lat="43.41992" lon="5.56476">
        <ele>376</ele>
        <time>2015-01-16T08:48:14Z</time>
      </trkpt>
      <trkpt lat="43.41987" lon="5.56477">
        <ele>377</ele>
        <time>2015-01-16T08:48:17Z</time>
      </trkpt>
      <trkpt lat="43.41982" lon="5.56478">
        <ele>377</ele>
        <time>2015-01-16T08:48:19Z</time>
      </trkpt>
      <trkpt lat="43.41976" lon="5.56479">
        <ele>377</ele>
        <time>2015-01-16T08:48:22Z</time>
      </trkpt>
      <trkpt lat="43.41971" lon="5.56481">
        <ele>378</ele>
        <time>2015-01-16T08:48:26Z</time>
      </trkpt>
      <trkpt lat="43.41967" lon="5.56484">
        <ele>378</ele>
        <time>2015-01-16T08:48:29Z</time>
      </trkpt>
      <trkpt lat="43.41963" lon="5.56487">
        <ele>379</ele>
        <time>2015-01-16T08:48:33Z</time>
      </trkpt>
      <trkpt lat="43.41957" lon="5.5649">
        <ele>379</ele>
        <time>2015-01-16T08:48:36Z</time>
      </trkpt>
      <trkpt lat="43.41951" lon="5.56492">
        <ele>380</ele>
        <time>2015-01-16T08:48:39Z</time>
      </trkpt>
      <trkpt lat="43.41945" lon="5.56494">
        <ele>380</ele>
        <time>2015-01-16T08:48:41Z</time>
      </trkpt>
      <trkpt lat="43.41941" lon="5.56494">
        <ele>380</ele>
        <time>2015-01-16T08:48:43Z</time>
      </trkpt>
      <trkpt lat="43.41935" lon="5.56495">
        <ele>381</ele>
        <time>2015-01-16T08:48:46Z</time>
      </trkpt>
      <trkpt lat="43.4193" lon="5.56496">
        <ele>381</ele>
        <time>2015-01-16T08:48:49Z</time>
      </trkpt>
      <trkpt lat="43.41925" lon="5.56496">
        <ele>382</ele>
        <time>2015-01-16T08:48:52Z</time>
      </trkpt>
      <trkpt lat="43.41919" lon="5.56497">
        <ele>382</ele>
        <time>2015-01-16T08:48:55Z</time>
      </trkpt>
      <trkpt lat="43.41914" lon="5.56498">
        <ele>383</ele>
        <time>2015-01-16T08:48:58Z</time>
      </trkpt>
      <trkpt lat="43.41909" lon="5.56502">
        <ele>383</ele>
        <time>2015-01-16T08:49:01Z</time>
      </trkpt>
      <trkpt lat="43.41904" lon="5.56507">
        <ele>384</ele>
        <time>2015-01-16T08:49:05Z</time>
      </trkpt>
      <trkpt lat="43.41899" lon="5.56509">
        <ele>384</ele>
        <time>2015-01-16T08:49:08Z</time>
      </trkpt>
      <trkpt lat="43.41893" lon="5.5651">
        <ele>384</ele>
        <time>2015-01-16T08:49:11Z</time>
      </trkpt>
      <trkpt lat="43.41888" lon="5.5651">
        <ele>384</ele>
        <time>2015-01-16T08:49:14Z</time>
      </trkpt>
      <trkpt lat="43.41883" lon="5.56509">
        <ele>385</ele>
        <time>2015-01-16T08:49:17Z</time>
      </trkpt>
      <trkpt lat="43.41877" lon="5.56507">
        <ele>385</ele>
        <time>2015-01-16T08:49:20Z</time>
      </trkpt>
      <trkpt lat="43.41873" lon="5.56503">
        <ele>385</ele>
        <time>2015-01-16T08:49:26Z</time>
      </trkpt>
      <trkpt lat="43.41873" lon="5.56496">
        <ele>386</ele>
        <time>2015-01-16T08:49:36Z</time>
      </trkpt>
      <trkpt lat="43.41872" lon="5.56487">
        <ele>387</ele>
        <time>2015-01-16T08:49:39Z</time>
      </trkpt>
      <trkpt lat="43.41871" lon="5.5648">
        <ele>387</ele>
        <time>2015-01-16T08:49:42Z</time>
      </trkpt>
      <trkpt lat="43.41869" lon="5.56472">
        <ele>387</ele>
        <time>2015-01-16T08:49:45Z</time>
      </trkpt>
      <trkpt lat="43.4187" lon="5.56463">
        <ele>387</ele>
        <time>2015-01-16T08:49:48Z</time>
      </trkpt>
      <trkpt lat="43.41871" lon="5.56454">
        <ele>387</ele>
        <time>2015-01-16T08:49:50Z</time>
      </trkpt>
      <trkpt lat="43.41871" lon="5.56447">
        <ele>387</ele>
        <time>2015-01-16T08:49:52Z</time>
      </trkpt>
      <trkpt lat="43.4187" lon="5.5644">
        <ele>387</ele>
        <time>2015-01-16T08:49:55Z</time>
      </trkpt>
      <trkpt lat="43.41872" lon="5.56433">
        <ele>387</ele>
        <time>2015-01-16T08:50:01Z</time>
      </trkpt>
      <trkpt lat="43.41873" lon="5.56425">
        <ele>387</ele>
        <time>2015-01-16T08:50:05Z</time>
      </trkpt>
      <trkpt lat="43.41877" lon="5.56421">
        <ele>387</ele>
        <time>2015-01-16T08:50:07Z</time>
      </trkpt>
      <trkpt lat="43.41886" lon="5.56417">
        <ele>389</ele>
        <time>2015-01-16T08:50:09Z</time>
      </trkpt>
      <trkpt lat="43.41891" lon="5.56415">
        <ele>389</ele>
        <time>2015-01-16T08:50:10Z</time>
      </trkpt>
      <trkpt lat="43.41896" lon="5.56412">
        <ele>390</ele>
        <time>2015-01-16T08:50:11Z</time>
      </trkpt>
      <trkpt lat="43.41901" lon="5.56408">
        <ele>390</ele>
        <time>2015-01-16T08:50:12Z</time>
      </trkpt>
      <trkpt lat="43.41905" lon="5.56406">
        <ele>391</ele>
        <time>2015-01-16T08:50:13Z</time>
      </trkpt>
      <trkpt lat="43.41913" lon="5.56401">
        <ele>391</ele>
        <time>2015-01-16T08:50:15Z</time>
      </trkpt>
      <trkpt lat="43.41917" lon="5.56398">
        <ele>389</ele>
        <time>2015-01-16T08:50:16Z</time>
      </trkpt>
      <trkpt lat="43.41923" lon="5.56395">
        <ele>388</ele>
        <time>2015-01-16T08:50:17Z</time>
      </trkpt>
      <trkpt lat="43.41928" lon="5.56392">
        <ele>387</ele>
        <time>2015-01-16T08:50:18Z</time>
      </trkpt>
      <trkpt lat="43.41933" lon="5.56391">
        <ele>387</ele>
        <time>2015-01-16T08:50:19Z</time>
      </trkpt>
      <trkpt lat="43.4194" lon="5.56391">
        <ele>387</ele>
        <time>2015-01-16T08:50:21Z</time>
      </trkpt>
      <trkpt lat="43.41945" lon="5.56388">
        <ele>387</ele>
        <time>2015-01-16T08:50:23Z</time>
      </trkpt>
      <trkpt lat="43.41949" lon="5.56385">
        <ele>387</ele>
        <time>2015-01-16T08:50:24Z</time>
      </trkpt>
      <trkpt lat="43.41957" lon="5.56385">
        <ele>387</ele>
        <time>2015-01-16T08:50:26Z</time>
      </trkpt>
      <trkpt lat="43.41964" lon="5.56385">
        <ele>387</ele>
        <time>2015-01-16T08:50:28Z</time>
      </trkpt>
      <trkpt lat="43.41972" lon="5.56386">
        <ele>388</ele>
        <time>2015-01-16T08:50:30Z</time>
      </trkpt>
      <trkpt lat="43.41977" lon="5.56387">
        <ele>388</ele>
        <time>2015-01-16T08:50:32Z</time>
      </trkpt>
      <trkpt lat="43.41983" lon="5.56387">
        <ele>388</ele>
        <time>2015-01-16T08:50:34Z</time>
      </trkpt>
      <trkpt lat="43.41989" lon="5.56391">
        <ele>388</ele>
        <time>2015-01-16T08:50:36Z</time>
      </trkpt>
      <trkpt lat="43.41998" lon="5.56392">
        <ele>388</ele>
        <time>2015-01-16T08:50:38Z</time>
      </trkpt>
      <trkpt lat="43.42001" lon="5.56387">
        <ele>388</ele>
        <time>2015-01-16T08:50:43Z</time>
      </trkpt>
      <trkpt lat="43.42006" lon="5.56386">
        <ele>388</ele>
        <time>2015-01-16T08:50:53Z</time>
      </trkpt>
      <trkpt lat="43.4201" lon="5.56385">
        <ele>388</ele>
        <time>2015-01-16T08:51:07Z</time>
      </trkpt>
      <trkpt lat="43.42014" lon="5.56379">
        <ele>388</ele>
        <time>2015-01-16T08:51:25Z</time>
      </trkpt>
      <trkpt lat="43.42018" lon="5.56374">
        <ele>387</ele>
        <time>2015-01-16T08:51:27Z</time>
      </trkpt>
      <trkpt lat="43.42022" lon="5.56369">
        <ele>387</ele>
        <time>2015-01-16T08:51:29Z</time>
      </trkpt>
      <trkpt lat="43.42028" lon="5.56363">
        <ele>386</ele>
        <time>2015-01-16T08:51:31Z</time>
      </trkpt>
      <trkpt lat="43.42031" lon="5.56358">
        <ele>386</ele>
        <time>2015-01-16T08:51:32Z</time>
      </trkpt>
      <trkpt lat="43.42036" lon="5.56351">
        <ele>386</ele>
        <time>2015-01-16T08:51:34Z</time>
      </trkpt>
      <trkpt lat="43.42043" lon="5.56344">
        <ele>386</ele>
        <time>2015-01-16T08:51:36Z</time>
      </trkpt>
      <trkpt lat="43.42047" lon="5.56339">
        <ele>385</ele>
        <time>2015-01-16T08:51:38Z</time>
      </trkpt>
      <trkpt lat="43.4205" lon="5.56331">
        <ele>385</ele>
        <time>2015-01-16T08:51:40Z</time>
      </trkpt>
      <trkpt lat="43.42054" lon="5.56321">
        <ele>385</ele>
        <time>2015-01-16T08:51:42Z</time>
      </trkpt>
      <trkpt lat="43.42057" lon="5.56315">
        <ele>384</ele>
        <time>2015-01-16T08:51:43Z</time>
      </trkpt>
      <trkpt lat="43.42061" lon="5.56308">
        <ele>383</ele>
        <time>2015-01-16T08:51:44Z</time>
      </trkpt>
      <trkpt lat="43.42063" lon="5.56303">
        <ele>382</ele>
        <time>2015-01-16T08:51:45Z</time>
      </trkpt>
      <trkpt lat="43.42066" lon="5.56296">
        <ele>381</ele>
        <time>2015-01-16T08:51:46Z</time>
      </trkpt>
      <trkpt lat="43.42069" lon="5.56289">
        <ele>381</ele>
        <time>2015-01-16T08:51:47Z</time>
      </trkpt>
      <trkpt lat="43.42072" lon="5.56282">
        <ele>381</ele>
        <time>2015-01-16T08:51:48Z</time>
      </trkpt>
      <trkpt lat="43.42075" lon="5.56276">
        <ele>381</ele>
        <time>2015-01-16T08:51:49Z</time>
      </trkpt>
      <trkpt lat="43.42078" lon="5.5627">
        <ele>381</ele>
        <time>2015-01-16T08:51:50Z</time>
      </trkpt>
      <trkpt lat="43.42081" lon="5.56265">
        <ele>380</ele>
        <time>2015-01-16T08:51:51Z</time>
      </trkpt>
      <trkpt lat="43.42083" lon="5.56259">
        <ele>380</ele>
        <time>2015-01-16T08:51:52Z</time>
      </trkpt>
      <trkpt lat="43.42086" lon="5.56254">
        <ele>380</ele>
        <time>2015-01-16T08:51:53Z</time>
      </trkpt>
      <trkpt lat="43.42089" lon="5.56249">
        <ele>379</ele>
        <time>2015-01-16T08:51:54Z</time>
      </trkpt>
      <trkpt lat="43.42091" lon="5.56242">
        <ele>379</ele>
        <time>2015-01-16T08:51:55Z</time>
      </trkpt>
      <trkpt lat="43.42095" lon="5.56236">
        <ele>379</ele>
        <time>2015-01-16T08:51:56Z</time>
      </trkpt>
      <trkpt lat="43.42101" lon="5.56226">
        <ele>378</ele>
        <time>2015-01-16T08:51:58Z</time>
      </trkpt>
      <trkpt lat="43.42104" lon="5.56219">
        <ele>377</ele>
        <time>2015-01-16T08:51:59Z</time>
      </trkpt>
      <trkpt lat="43.42109" lon="5.56212">
        <ele>377</ele>
        <time>2015-01-16T08:52:00Z</time>
      </trkpt>
      <trkpt lat="43.42113" lon="5.56206">
        <ele>377</ele>
        <time>2015-01-16T08:52:01Z</time>
      </trkpt>
      <trkpt lat="43.42117" lon="5.562">
        <ele>376</ele>
        <time>2015-01-16T08:52:02Z</time>
      </trkpt>
      <trkpt lat="43.42121" lon="5.56195">
        <ele>376</ele>
        <time>2015-01-16T08:52:03Z</time>
      </trkpt>
      <trkpt lat="43.42125" lon="5.56189">
        <ele>375</ele>
        <time>2015-01-16T08:52:04Z</time>
      </trkpt>
      <trkpt lat="43.42128" lon="5.56184">
        <ele>374</ele>
        <time>2015-01-16T08:52:05Z</time>
      </trkpt>
      <trkpt lat="43.42133" lon="5.56177">
        <ele>374</ele>
        <time>2015-01-16T08:52:06Z</time>
      </trkpt>
      <trkpt lat="43.42135" lon="5.56172">
        <ele>373</ele>
        <time>2015-01-16T08:52:07Z</time>
      </trkpt>
      <trkpt lat="43.42138" lon="5.56166">
        <ele>372</ele>
        <time>2015-01-16T08:52:08Z</time>
      </trkpt>
      <trkpt lat="43.42141" lon="5.5616">
        <ele>371</ele>
        <time>2015-01-16T08:52:09Z</time>
      </trkpt>
      <trkpt lat="43.42145" lon="5.56154">
        <ele>371</ele>
        <time>2015-01-16T08:52:10Z</time>
      </trkpt>
      <trkpt lat="43.42151" lon="5.5615">
        <ele>371</ele>
        <time>2015-01-16T08:52:11Z</time>
      </trkpt>
      <trkpt lat="43.42156" lon="5.56145">
        <ele>370</ele>
        <time>2015-01-16T08:52:12Z</time>
      </trkpt>
      <trkpt lat="43.4216" lon="5.56139">
        <ele>369</ele>
        <time>2015-01-16T08:52:13Z</time>
      </trkpt>
      <trkpt lat="43.42165" lon="5.56134">
        <ele>369</ele>
        <time>2015-01-16T08:52:14Z</time>
      </trkpt>
      <trkpt lat="43.4217" lon="5.56127">
        <ele>368</ele>
        <time>2015-01-16T08:52:15Z</time>
      </trkpt>
      <trkpt lat="43.42174" lon="5.56122">
        <ele>368</ele>
        <time>2015-01-16T08:52:16Z</time>
      </trkpt>
      <trkpt lat="43.42178" lon="5.56117">
        <ele>368</ele>
        <time>2015-01-16T08:52:17Z</time>
      </trkpt>
      <trkpt lat="43.42182" lon="5.56111">
        <ele>369</ele>
        <time>2015-01-16T08:52:18Z</time>
      </trkpt>
      <trkpt lat="43.42187" lon="5.56104">
        <ele>368</ele>
        <time>2015-01-16T08:52:19Z</time>
      </trkpt>
      <trkpt lat="43.42191" lon="5.56098">
        <ele>368</ele>
        <time>2015-01-16T08:52:20Z</time>
      </trkpt>
      <trkpt lat="43.42195" lon="5.5609">
        <ele>368</ele>
        <time>2015-01-16T08:52:21Z</time>
      </trkpt>
      <trkpt lat="43.42199" lon="5.56083">
        <ele>369</ele>
        <time>2015-01-16T08:52:22Z</time>
      </trkpt>
      <trkpt lat="43.42203" lon="5.56077">
        <ele>369</ele>
        <time>2015-01-16T08:52:23Z</time>
      </trkpt>
      <trkpt lat="43.42207" lon="5.56073">
        <ele>368</ele>
        <time>2015-01-16T08:52:24Z</time>
      </trkpt>
      <trkpt lat="43.42212" lon="5.56069">
        <ele>368</ele>
        <time>2015-01-16T08:52:25Z</time>
      </trkpt>
      <trkpt lat="43.42217" lon="5.56064">
        <ele>368</ele>
        <time>2015-01-16T08:52:26Z</time>
      </trkpt>
      <trkpt lat="43.42222" lon="5.56058">
        <ele>367</ele>
        <time>2015-01-16T08:52:27Z</time>
      </trkpt>
      <trkpt lat="43.42224" lon="5.5605">
        <ele>366</ele>
        <time>2015-01-16T08:52:28Z</time>
      </trkpt>
      <trkpt lat="43.42226" lon="5.56042">
        <ele>366</ele>
        <time>2015-01-16T08:52:29Z</time>
      </trkpt>
      <trkpt lat="43.42228" lon="5.56033">
        <ele>365</ele>
        <time>2015-01-16T08:52:30Z</time>
      </trkpt>
      <trkpt lat="43.42231" lon="5.56025">
        <ele>365</ele>
        <time>2015-01-16T08:52:31Z</time>
      </trkpt>
      <trkpt lat="43.42234" lon="5.56016">
        <ele>365</ele>
        <time>2015-01-16T08:52:32Z</time>
      </trkpt>
      <trkpt lat="43.42239" lon="5.56009">
        <ele>364</ele>
        <time>2015-01-16T08:52:33Z</time>
      </trkpt>
      <trkpt lat="43.42244" lon="5.56002">
        <ele>363</ele>
        <time>2015-01-16T08:52:34Z</time>
      </trkpt>
      <trkpt lat="43.42249" lon="5.55995">
        <ele>363</ele>
        <time>2015-01-16T08:52:35Z</time>
      </trkpt>
      <trkpt lat="43.42254" lon="5.55989">
        <ele>361</ele>
        <time>2015-01-16T08:52:36Z</time>
      </trkpt>
      <trkpt lat="43.4226" lon="5.55984">
        <ele>360</ele>
        <time>2015-01-16T08:52:37Z</time>
      </trkpt>
      <trkpt lat="43.42265" lon="5.55978">
        <ele>360</ele>
        <time>2015-01-16T08:52:38Z</time>
      </trkpt>
      <trkpt lat="43.4227" lon="5.55973">
        <ele>360</ele>
        <time>2015-01-16T08:52:39Z</time>
      </trkpt>
      <trkpt lat="43.42273" lon="5.55963">
        <ele>361</ele>
        <time>2015-01-16T08:52:41Z</time>
      </trkpt>
      <trkpt lat="43.42275" lon="5.55956">
        <ele>360</ele>
        <time>2015-01-16T08:52:42Z</time>
      </trkpt>
      <trkpt lat="43.42276" lon="5.55944">
        <ele>360</ele>
        <time>2015-01-16T08:52:44Z</time>
      </trkpt>
      <trkpt lat="43.42281" lon="5.55932">
        <ele>361</ele>
        <time>2015-01-16T08:52:46Z</time>
      </trkpt>
      <trkpt lat="43.42283" lon="5.55924">
        <ele>361</ele>
        <time>2015-01-16T08:52:47Z</time>
      </trkpt>
      <trkpt lat="43.42287" lon="5.5592">
        <ele>361</ele>
        <time>2015-01-16T08:52:48Z</time>
      </trkpt>
      <trkpt lat="43.42295" lon="5.55919">
        <ele>360</ele>
        <time>2015-01-16T08:52:50Z</time>
      </trkpt>
      <trkpt lat="43.42301" lon="5.55918">
        <ele>360</ele>
        <time>2015-01-16T08:52:52Z</time>
      </trkpt>
      <trkpt lat="43.42306" lon="5.55918">
        <ele>360</ele>
        <time>2015-01-16T08:52:53Z</time>
      </trkpt>
      <trkpt lat="43.4231" lon="5.55916">
        <ele>359</ele>
        <time>2015-01-16T08:52:54Z</time>
      </trkpt>
      <trkpt lat="43.42315" lon="5.55909">
        <ele>358</ele>
        <time>2015-01-16T08:52:55Z</time>
      </trkpt>
      <trkpt lat="43.42317" lon="5.55904">
        <ele>358</ele>
        <time>2015-01-16T08:52:56Z</time>
      </trkpt>
      <trkpt lat="43.4232" lon="5.55899">
        <ele>357</ele>
        <time>2015-01-16T08:52:57Z</time>
      </trkpt>
      <trkpt lat="43.42326" lon="5.55898">
        <ele>356</ele>
        <time>2015-01-16T08:52:58Z</time>
      </trkpt>
      <trkpt lat="43.42331" lon="5.55894">
        <ele>356</ele>
        <time>2015-01-16T08:52:59Z</time>
      </trkpt>
      <trkpt lat="43.42335" lon="5.55888">
        <ele>355</ele>
        <time>2015-01-16T08:53:00Z</time>
      </trkpt>
      <trkpt lat="43.42339" lon="5.55881">
        <ele>354</ele>
        <time>2015-01-16T08:53:01Z</time>
      </trkpt>
      <trkpt lat="43.42343" lon="5.55875">
        <ele>353</ele>
        <time>2015-01-16T08:53:02Z</time>
      </trkpt>
      <trkpt lat="43.42347" lon="5.5587">
        <ele>352</ele>
        <time>2015-01-16T08:53:03Z</time>
      </trkpt>
      <trkpt lat="43.42352" lon="5.55865">
        <ele>351</ele>
        <time>2015-01-16T08:53:04Z</time>
      </trkpt>
      <trkpt lat="43.42357" lon="5.5586">
        <ele>351</ele>
        <time>2015-01-16T08:53:05Z</time>
      </trkpt>
      <trkpt lat="43.42361" lon="5.55854">
        <ele>350</ele>
        <time>2015-01-16T08:53:06Z</time>
      </trkpt>
      <trkpt lat="43.42365" lon="5.55847">
        <ele>350</ele>
        <time>2015-01-16T08:53:07Z</time>
      </trkpt>
      <trkpt lat="43.42371" lon="5.55842">
        <ele>349</ele>
        <time>2015-01-16T08:53:08Z</time>
      </trkpt>
      <trkpt lat="43.42375" lon="5.55839">
        <ele>349</ele>
        <time>2015-01-16T08:53:09Z</time>
      </trkpt>
      <trkpt lat="43.42379" lon="5.55836">
        <ele>348</ele>
        <time>2015-01-16T08:53:10Z</time>
      </trkpt>
      <trkpt lat="43.42385" lon="5.55832">
        <ele>348</ele>
        <time>2015-01-16T08:53:11Z</time>
      </trkpt>
      <trkpt lat="43.4239" lon="5.55829">
        <ele>348</ele>
        <time>2015-01-16T08:53:12Z</time>
      </trkpt>
      <trkpt lat="43.42395" lon="5.55826">
        <ele>349</ele>
        <time>2015-01-16T08:53:13Z</time>
      </trkpt>
      <trkpt lat="43.42399" lon="5.55823">
        <ele>348</ele>
        <time>2015-01-16T08:53:14Z</time>
      </trkpt>
      <trkpt lat="43.42403" lon="5.55814">
        <ele>348</ele>
        <time>2015-01-16T08:53:16Z</time>
      </trkpt>
      <trkpt lat="43.42404" lon="5.55807">
        <ele>347</ele>
        <time>2015-01-16T08:53:17Z</time>
      </trkpt>
      <trkpt lat="43.42405" lon="5.558">
        <ele>346</ele>
        <time>2015-01-16T08:53:18Z</time>
      </trkpt>
      <trkpt lat="43.42409" lon="5.55796">
        <ele>346</ele>
        <time>2015-01-16T08:53:19Z</time>
      </trkpt>
      <trkpt lat="43.42413" lon="5.55792">
        <ele>346</ele>
        <time>2015-01-16T08:53:20Z</time>
      </trkpt>
      <trkpt lat="43.42419" lon="5.55781">
        <ele>346</ele>
        <time>2015-01-16T08:53:22Z</time>
      </trkpt>
      <trkpt lat="43.42423" lon="5.55777">
        <ele>346</ele>
        <time>2015-01-16T08:53:23Z</time>
      </trkpt>
      <trkpt lat="43.42428" lon="5.55772">
        <ele>346</ele>
        <time>2015-01-16T08:53:24Z</time>
      </trkpt>
      <trkpt lat="43.42432" lon="5.55767">
        <ele>346</ele>
        <time>2015-01-16T08:53:25Z</time>
      </trkpt>
      <trkpt lat="43.42436" lon="5.55762">
        <ele>346</ele>
        <time>2015-01-16T08:53:26Z</time>
      </trkpt>
      <trkpt lat="43.4244" lon="5.55759">
        <ele>345</ele>
        <time>2015-01-16T08:53:27Z</time>
      </trkpt>
      <trkpt lat="43.42444" lon="5.55751">
        <ele>345</ele>
        <time>2015-01-16T08:53:29Z</time>
      </trkpt>
      <trkpt lat="43.4245" lon="5.55747">
        <ele>344</ele>
        <time>2015-01-16T08:53:31Z</time>
      </trkpt>
      <trkpt lat="43.42456" lon="5.55742">
        <ele>344</ele>
        <time>2015-01-16T08:53:33Z</time>
      </trkpt>
      <trkpt lat="43.4246" lon="5.55737">
        <ele>343</ele>
        <time>2015-01-16T08:53:34Z</time>
      </trkpt>
      <trkpt lat="43.42464" lon="5.55731">
        <ele>342</ele>
        <time>2015-01-16T08:53:35Z</time>
      </trkpt>
      <trkpt lat="43.42468" lon="5.55723">
        <ele>342</ele>
        <time>2015-01-16T08:53:36Z</time>
      </trkpt>
      <trkpt lat="43.42473" lon="5.55718">
        <ele>342</ele>
        <time>2015-01-16T08:53:37Z</time>
      </trkpt>
      <trkpt lat="43.42478" lon="5.55713">
        <ele>341</ele>
        <time>2015-01-16T08:53:38Z</time>
      </trkpt>
      <trkpt lat="43.42485" lon="5.55706">
        <ele>341</ele>
        <time>2015-01-16T08:53:40Z</time>
      </trkpt>
      <trkpt lat="43.42489" lon="5.55702">
        <ele>341</ele>
        <time>2015-01-16T08:53:41Z</time>
      </trkpt>
      <trkpt lat="43.42494" lon="5.55697">
        <ele>340</ele>
        <time>2015-01-16T08:53:42Z</time>
      </trkpt>
      <trkpt lat="43.42499" lon="5.55692">
        <ele>340</ele>
        <time>2015-01-16T08:53:43Z</time>
      </trkpt>
      <trkpt lat="43.42504" lon="5.55687">
        <ele>340</ele>
        <time>2015-01-16T08:53:44Z</time>
      </trkpt>
      <trkpt lat="43.42509" lon="5.55685">
        <ele>340</ele>
        <time>2015-01-16T08:53:45Z</time>
      </trkpt>
      <trkpt lat="43.42514" lon="5.55679">
        <ele>340</ele>
        <time>2015-01-16T08:53:47Z</time>
      </trkpt>
      <trkpt lat="43.42518" lon="5.55674">
        <ele>340</ele>
        <time>2015-01-16T08:53:48Z</time>
      </trkpt>
      <trkpt lat="43.42524" lon="5.55668">
        <ele>339</ele>
        <time>2015-01-16T08:53:50Z</time>
      </trkpt>
      <trkpt lat="43.42531" lon="5.55665">
        <ele>338</ele>
        <time>2015-01-16T08:53:52Z</time>
      </trkpt>
      <trkpt lat="43.42538" lon="5.55658">
        <ele>338</ele>
        <time>2015-01-16T08:53:54Z</time>
      </trkpt>
      <trkpt lat="43.42545" lon="5.55652">
        <ele>337</ele>
        <time>2015-01-16T08:53:56Z</time>
      </trkpt>
      <trkpt lat="43.42551" lon="5.55648">
        <ele>337</ele>
        <time>2015-01-16T08:53:58Z</time>
      </trkpt>
      <trkpt lat="43.42557" lon="5.55646">
        <ele>337</ele>
        <time>2015-01-16T08:54:00Z</time>
      </trkpt>
      <trkpt lat="43.42565" lon="5.55647">
        <ele>336</ele>
        <time>2015-01-16T08:54:02Z</time>
      </trkpt>
      <trkpt lat="43.4257" lon="5.55644">
        <ele>336</ele>
        <time>2015-01-16T08:54:03Z</time>
      </trkpt>
      <trkpt lat="43.42575" lon="5.55641">
        <ele>335</ele>
        <time>2015-01-16T08:54:04Z</time>
      </trkpt>
      <trkpt lat="43.42585" lon="5.55635">
        <ele>333</ele>
        <time>2015-01-16T08:54:06Z</time>
      </trkpt>
      <trkpt lat="43.42589" lon="5.55632">
        <ele>333</ele>
        <time>2015-01-16T08:54:07Z</time>
      </trkpt>
      <trkpt lat="43.42593" lon="5.55631">
        <ele>332</ele>
        <time>2015-01-16T08:54:08Z</time>
      </trkpt>
      <trkpt lat="43.42598" lon="5.55628">
        <ele>330</ele>
        <time>2015-01-16T08:54:09Z</time>
      </trkpt>
      <trkpt lat="43.42603" lon="5.55625">
        <ele>329</ele>
        <time>2015-01-16T08:54:10Z</time>
      </trkpt>
      <trkpt lat="43.42609" lon="5.55621">
        <ele>328</ele>
        <time>2015-01-16T08:54:11Z</time>
      </trkpt>
      <trkpt lat="43.42615" lon="5.55616">
        <ele>328</ele>
        <time>2015-01-16T08:54:12Z</time>
      </trkpt>
      <trkpt lat="43.42621" lon="5.5561">
        <ele>327</ele>
        <time>2015-01-16T08:54:13Z</time>
      </trkpt>
      <trkpt lat="43.42625" lon="5.55606">
        <ele>326</ele>
        <time>2015-01-16T08:54:14Z</time>
      </trkpt>
      <trkpt lat="43.4263" lon="5.55602">
        <ele>326</ele>
        <time>2015-01-16T08:54:15Z</time>
      </trkpt>
      <trkpt lat="43.42635" lon="5.55598">
        <ele>325</ele>
        <time>2015-01-16T08:54:16Z</time>
      </trkpt>
      <trkpt lat="43.42639" lon="5.55592">
        <ele>324</ele>
        <time>2015-01-16T08:54:17Z</time>
      </trkpt>
      <trkpt lat="43.42645" lon="5.55587">
        <ele>323</ele>
        <time>2015-01-16T08:54:18Z</time>
      </trkpt>
      <trkpt lat="43.4265" lon="5.55581">
        <ele>321</ele>
        <time>2015-01-16T08:54:19Z</time>
      </trkpt>
      <trkpt lat="43.42656" lon="5.55575">
        <ele>320</ele>
        <time>2015-01-16T08:54:20Z</time>
      </trkpt>
      <trkpt lat="43.42661" lon="5.5557">
        <ele>320</ele>
        <time>2015-01-16T08:54:21Z</time>
      </trkpt>
      <trkpt lat="43.42666" lon="5.55565">
        <ele>320</ele>
        <time>2015-01-16T08:54:22Z</time>
      </trkpt>
      <trkpt lat="43.42672" lon="5.55559">
        <ele>320</ele>
        <time>2015-01-16T08:54:23Z</time>
      </trkpt>
      <trkpt lat="43.42678" lon="5.55552">
        <ele>320</ele>
        <time>2015-01-16T08:54:24Z</time>
      </trkpt>
      <trkpt lat="43.42684" lon="5.55545">
        <ele>319</ele>
        <time>2015-01-16T08:54:25Z</time>
      </trkpt>
      <trkpt lat="43.42689" lon="5.5554">
        <ele>318</ele>
        <time>2015-01-16T08:54:26Z</time>
      </trkpt>
      <trkpt lat="43.42694" lon="5.55534">
        <ele>318</ele>
        <time>2015-01-16T08:54:27Z</time>
      </trkpt>
      <trkpt lat="43.42698" lon="5.55529">
        <ele>317</ele>
        <time>2015-01-16T08:54:28Z</time>
      </trkpt>
      <trkpt lat="43.42703" lon="5.55523">
        <ele>316</ele>
        <time>2015-01-16T08:54:29Z</time>
      </trkpt>
      <trkpt lat="43.42707" lon="5.55517">
        <ele>316</ele>
        <time>2015-01-16T08:54:30Z</time>
      </trkpt>
      <trkpt lat="43.42711" lon="5.55511">
        <ele>316</ele>
        <time>2015-01-16T08:54:32Z</time>
      </trkpt>
      <trkpt lat="43.42715" lon="5.55508">
        <ele>316</ele>
        <time>2015-01-16T08:54:34Z</time>
      </trkpt>
      <trkpt lat="43.42718" lon="5.55499">
        <ele>316</ele>
        <time>2015-01-16T08:54:36Z</time>
      </trkpt>
      <trkpt lat="43.42719" lon="5.55491">
        <ele>316</ele>
        <time>2015-01-16T08:54:38Z</time>
      </trkpt>
      <trkpt lat="43.4272" lon="5.55481">
        <ele>316</ele>
        <time>2015-01-16T08:54:40Z</time>
      </trkpt>
      <trkpt lat="43.42718" lon="5.55472">
        <ele>316</ele>
        <time>2015-01-16T08:54:42Z</time>
      </trkpt>
      <trkpt lat="43.42717" lon="5.55463">
        <ele>315</ele>
        <time>2015-01-16T08:54:44Z</time>
      </trkpt>
      <trkpt lat="43.42716" lon="5.55455">
        <ele>315</ele>
        <time>2015-01-16T08:54:45Z</time>
      </trkpt>
      <trkpt lat="43.42715" lon="5.55449">
        <ele>314</ele>
        <time>2015-01-16T08:54:46Z</time>
      </trkpt>
      <trkpt lat="43.42713" lon="5.55441">
        <ele>313</ele>
        <time>2015-01-16T08:54:48Z</time>
      </trkpt>
      <trkpt lat="43.42713" lon="5.55441">
        <ele>313</ele>
        <time>2015-01-16T08:55:16Z</time>
      </trkpt>
      <trkpt lat="43.42713" lon="5.55441">
        <ele>313</ele>
        <time>2015-01-16T08:55:46Z</time>
      </trkpt>
      <trkpt lat="43.42713" lon="5.55441">
        <ele>313</ele>
        <time>2015-01-16T08:56:16Z</time>
      </trkpt>
      <trkpt lat="43.42713" lon="5.55441">
        <ele>312</ele>
        <time>2015-01-16T08:56:46Z</time>
      </trkpt>
      <trkpt lat="43.42709" lon="5.55434">
        <ele>311</ele>
        <time>2015-01-16T08:57:04Z</time>
      </trkpt>
      <trkpt lat="43.42703" lon="5.55428">
        <ele>311</ele>
        <time>2015-01-16T08:57:07Z</time>
      </trkpt>
      <trkpt lat="43.42699" lon="5.55423">
        <ele>311</ele>
        <time>2015-01-16T08:57:09Z</time>
      </trkpt>
      <trkpt lat="43.42693" lon="5.55418">
        <ele>311</ele>
        <time>2015-01-16T08:57:11Z</time>
      </trkpt>
      <trkpt lat="43.42687" lon="5.55413">
        <ele>311</ele>
        <time>2015-01-16T08:57:13Z</time>
      </trkpt>
      <trkpt lat="43.42682" lon="5.55409">
        <ele>310</ele>
        <time>2015-01-16T08:57:15Z</time>
      </trkpt>
      <trkpt lat="43.42676" lon="5.55405">
        <ele>310</ele>
        <time>2015-01-16T08:57:17Z</time>
      </trkpt>
      <trkpt lat="43.42669" lon="5.554">
        <ele>310</ele>
        <time>2015-01-16T08:57:19Z</time>
      </trkpt>
      <trkpt lat="43.42664" lon="5.55396">
        <ele>310</ele>
        <time>2015-01-16T08:57:21Z</time>
      </trkpt>
      <trkpt lat="43.42659" lon="5.55393">
        <ele>310</ele>
        <time>2015-01-16T08:57:23Z</time>
      </trkpt>
      <trkpt lat="43.42654" lon="5.55388">
        <ele>310</ele>
        <time>2015-01-16T08:57:25Z</time>
      </trkpt>
      <trkpt lat="43.42649" lon="5.55381">
        <ele>310</ele>
        <time>2015-01-16T08:57:27Z</time>
      </trkpt>
      <trkpt lat="43.42644" lon="5.55374">
        <ele>310</ele>
        <time>2015-01-16T08:57:29Z</time>
      </trkpt>
      <trkpt lat="43.42637" lon="5.55364">
        <ele>309</ele>
        <time>2015-01-16T08:57:31Z</time>
      </trkpt>
      <trkpt lat="43.42631" lon="5.55356">
        <ele>308</ele>
        <time>2015-01-16T08:57:33Z</time>
      </trkpt>
      <trkpt lat="43.42625" lon="5.55348">
        <ele>308</ele>
        <time>2015-01-16T08:57:35Z</time>
      </trkpt>
      <trkpt lat="43.42619" lon="5.5534">
        <ele>308</ele>
        <time>2015-01-16T08:57:37Z</time>
      </trkpt>
      <trkpt lat="43.42614" lon="5.55334">
        <ele>308</ele>
        <time>2015-01-16T08:57:39Z</time>
      </trkpt>
      <trkpt lat="43.42608" lon="5.55328">
        <ele>308</ele>
        <time>2015-01-16T08:57:41Z</time>
      </trkpt>
      <trkpt lat="43.42602" lon="5.55322">
        <ele>308</ele>
        <time>2015-01-16T08:57:43Z</time>
      </trkpt>
      <trkpt lat="43.42595" lon="5.55317">
        <ele>308</ele>
        <time>2015-01-16T08:57:45Z</time>
      </trkpt>
      <trkpt lat="43.42587" lon="5.55314">
        <ele>308</ele>
        <time>2015-01-16T08:57:47Z</time>
      </trkpt>
      <trkpt lat="43.42579" lon="5.5531">
        <ele>308</ele>
        <time>2015-01-16T08:57:49Z</time>
      </trkpt>
      <trkpt lat="43.42575" lon="5.55306">
        <ele>308</ele>
        <time>2015-01-16T08:57:51Z</time>
      </trkpt>
      <trkpt lat="43.42579" lon="5.55301">
        <ele>308</ele>
        <time>2015-01-16T08:57:57Z</time>
      </trkpt>
      <trkpt lat="43.42584" lon="5.55299">
        <ele>308</ele>
        <time>2015-01-16T08:57:59Z</time>
      </trkpt>
      <trkpt lat="43.42592" lon="5.55299">
        <ele>308</ele>
        <time>2015-01-16T08:58:01Z</time>
      </trkpt>
      <trkpt lat="43.42598" lon="5.55299">
        <ele>309</ele>
        <time>2015-01-16T08:58:03Z</time>
      </trkpt>
      <trkpt lat="43.42603" lon="5.55299">
        <ele>309</ele>
        <time>2015-01-16T08:58:05Z</time>
      </trkpt>
      <trkpt lat="43.42611" lon="5.553">
        <ele>308</ele>
        <time>2015-01-16T08:58:07Z</time>
      </trkpt>
      <trkpt lat="43.42617" lon="5.553">
        <ele>309</ele>
        <time>2015-01-16T08:58:09Z</time>
      </trkpt>
      <trkpt lat="43.42622" lon="5.55299">
        <ele>309</ele>
        <time>2015-01-16T08:58:11Z</time>
      </trkpt>
      <trkpt lat="43.4263" lon="5.553">
        <ele>309</ele>
        <time>2015-01-16T08:58:13Z</time>
      </trkpt>
      <trkpt lat="43.42635" lon="5.55303">
        <ele>309</ele>
        <time>2015-01-16T08:58:15Z</time>
      </trkpt>
      <trkpt lat="43.42641" lon="5.55307">
        <ele>309</ele>
        <time>2015-01-16T08:58:17Z</time>
      </trkpt>
      <trkpt lat="43.42647" lon="5.55312">
        <ele>309</ele>
        <time>2015-01-16T08:58:19Z</time>
      </trkpt>
      <trkpt lat="43.42653" lon="5.55317">
        <ele>309</ele>
        <time>2015-01-16T08:58:21Z</time>
      </trkpt>
      <trkpt lat="43.42658" lon="5.55321">
        <ele>309</ele>
        <time>2015-01-16T08:58:22Z</time>
      </trkpt>
      <trkpt lat="43.42661" lon="5.55324">
        <ele>309</ele>
        <time>2015-01-16T08:58:23Z</time>
      </trkpt>
      <trkpt lat="43.42669" lon="5.55328">
        <ele>309</ele>
        <time>2015-01-16T08:58:25Z</time>
      </trkpt>
      <trkpt lat="43.42674" lon="5.55333">
        <ele>309</ele>
        <time>2015-01-16T08:58:27Z</time>
      </trkpt>
      <trkpt lat="43.42679" lon="5.55338">
        <ele>309</ele>
        <time>2015-01-16T08:58:29Z</time>
      </trkpt>
      <trkpt lat="43.42687" lon="5.55343">
        <ele>309</ele>
        <time>2015-01-16T08:58:31Z</time>
      </trkpt>
      <trkpt lat="43.42693" lon="5.55349">
        <ele>309</ele>
        <time>2015-01-16T08:58:33Z</time>
      </trkpt>
      <trkpt lat="43.42699" lon="5.55355">
        <ele>310</ele>
        <time>2015-01-16T08:58:35Z</time>
      </trkpt>
      <trkpt lat="43.42704" lon="5.55359">
        <ele>310</ele>
        <time>2015-01-16T08:58:37Z</time>
      </trkpt>
      <trkpt lat="43.42712" lon="5.55362">
        <ele>311</ele>
        <time>2015-01-16T08:58:39Z</time>
      </trkpt>
      <trkpt lat="43.4272" lon="5.55366">
        <ele>311</ele>
        <time>2015-01-16T08:58:41Z</time>
      </trkpt>
      <trkpt lat="43.42727" lon="5.55369">
        <ele>311</ele>
        <time>2015-01-16T08:58:43Z</time>
      </trkpt>
      <trkpt lat="43.42734" lon="5.55373">
        <ele>311</ele>
        <time>2015-01-16T08:58:45Z</time>
      </trkpt>
      <trkpt lat="43.42742" lon="5.55376">
        <ele>312</ele>
        <time>2015-01-16T08:58:47Z</time>
      </trkpt>
      <trkpt lat="43.4275" lon="5.55376">
        <ele>312</ele>
        <time>2015-01-16T08:58:49Z</time>
      </trkpt>
      <trkpt lat="43.42757" lon="5.55376">
        <ele>311</ele>
        <time>2015-01-16T08:58:51Z</time>
      </trkpt>
      <trkpt lat="43.42765" lon="5.55376">
        <ele>311</ele>
        <time>2015-01-16T08:58:53Z</time>
      </trkpt>
      <trkpt lat="43.4277" lon="5.55375">
        <ele>311</ele>
        <time>2015-01-16T08:58:54Z</time>
      </trkpt>
      <trkpt lat="43.42775" lon="5.55374">
        <ele>311</ele>
        <time>2015-01-16T08:58:55Z</time>
      </trkpt>
      <trkpt lat="43.42779" lon="5.55374">
        <ele>311</ele>
        <time>2015-01-16T08:58:56Z</time>
      </trkpt>
      <trkpt lat="43.42784" lon="5.55371">
        <ele>311</ele>
        <time>2015-01-16T08:58:57Z</time>
      </trkpt>
      <trkpt lat="43.4279" lon="5.55368">
        <ele>311</ele>
        <time>2015-01-16T08:58:59Z</time>
      </trkpt>
      <trkpt lat="43.42798" lon="5.55365">
        <ele>311</ele>
        <time>2015-01-16T08:59:01Z</time>
      </trkpt>
      <trkpt lat="43.42804" lon="5.55362">
        <ele>311</ele>
        <time>2015-01-16T08:59:03Z</time>
      </trkpt>
      <trkpt lat="43.42809" lon="5.5536">
        <ele>311</ele>
        <time>2015-01-16T08:59:04Z</time>
      </trkpt>
      <trkpt lat="43.42816" lon="5.55358">
        <ele>310</ele>
        <time>2015-01-16T08:59:06Z</time>
      </trkpt>
      <trkpt lat="43.42822" lon="5.55355">
        <ele>311</ele>
        <time>2015-01-16T08:59:08Z</time>
      </trkpt>
      <trkpt lat="43.42829" lon="5.55353">
        <ele>311</ele>
        <time>2015-01-16T08:59:10Z</time>
      </trkpt>
      <trkpt lat="43.42836" lon="5.55351">
        <ele>311</ele>
        <time>2015-01-16T08:59:12Z</time>
      </trkpt>
      <trkpt lat="43.42843" lon="5.55349">
        <ele>311</ele>
        <time>2015-01-16T08:59:14Z</time>
      </trkpt>
      <trkpt lat="43.42849" lon="5.55348">
        <ele>311</ele>
        <time>2015-01-16T08:59:16Z</time>
      </trkpt>
      <trkpt lat="43.42856" lon="5.55346">
        <ele>311</ele>
        <time>2015-01-16T08:59:18Z</time>
      </trkpt>
      <trkpt lat="43.42862" lon="5.55343">
        <ele>311</ele>
        <time>2015-01-16T08:59:20Z</time>
      </trkpt>
      <trkpt lat="43.42865" lon="5.5534">
        <ele>311</ele>
        <time>2015-01-16T08:59:21Z</time>
      </trkpt>
      <trkpt lat="43.42872" lon="5.55336">
        <ele>311</ele>
        <time>2015-01-16T08:59:23Z</time>
      </trkpt>
      <trkpt lat="43.4288" lon="5.55332">
        <ele>311</ele>
        <time>2015-01-16T08:59:25Z</time>
      </trkpt>
      <trkpt lat="43.42887" lon="5.55329">
        <ele>312</ele>
        <time>2015-01-16T08:59:27Z</time>
      </trkpt>
      <trkpt lat="43.42893" lon="5.55326">
        <ele>312</ele>
        <time>2015-01-16T08:59:29Z</time>
      </trkpt>
      <trkpt lat="43.42898" lon="5.55323">
        <ele>312</ele>
        <time>2015-01-16T08:59:31Z</time>
      </trkpt>
      <trkpt lat="43.42904" lon="5.55317">
        <ele>312</ele>
        <time>2015-01-16T08:59:33Z</time>
      </trkpt>
      <trkpt lat="43.42908" lon="5.55308">
        <ele>312</ele>
        <time>2015-01-16T08:59:35Z</time>
      </trkpt>
      <trkpt lat="43.42911" lon="5.55298">
        <ele>313</ele>
        <time>2015-01-16T08:59:37Z</time>
      </trkpt>
      <trkpt lat="43.42912" lon="5.55284">
        <ele>313</ele>
        <time>2015-01-16T08:59:39Z</time>
      </trkpt>
      <trkpt lat="43.42912" lon="5.55278">
        <ele>313</ele>
        <time>2015-01-16T08:59:40Z</time>
      </trkpt>
      <trkpt lat="43.42912" lon="5.55265">
        <ele>316</ele>
        <time>2015-01-16T08:59:42Z</time>
      </trkpt>
      <trkpt lat="43.42912" lon="5.55257">
        <ele>318</ele>
        <time>2015-01-16T08:59:43Z</time>
      </trkpt>
      <trkpt lat="43.42912" lon="5.5525">
        <ele>319</ele>
        <time>2015-01-16T08:59:44Z</time>
      </trkpt>
      <trkpt lat="43.42912" lon="5.55243">
        <ele>319</ele>
        <time>2015-01-16T08:59:45Z</time>
      </trkpt>
      <trkpt lat="43.42912" lon="5.55236">
        <ele>319</ele>
        <time>2015-01-16T08:59:46Z</time>
      </trkpt>
      <trkpt lat="43.42917" lon="5.55228">
        <ele>319</ele>
        <time>2015-01-16T08:59:48Z</time>
      </trkpt>
      <trkpt lat="43.42921" lon="5.55225">
        <ele>319</ele>
        <time>2015-01-16T08:59:49Z</time>
      </trkpt>
      <trkpt lat="43.42926" lon="5.55222">
        <ele>319</ele>
        <time>2015-01-16T08:59:50Z</time>
      </trkpt>
      <trkpt lat="43.42931" lon="5.55219">
        <ele>319</ele>
        <time>2015-01-16T08:59:51Z</time>
      </trkpt>
      <trkpt lat="43.42936" lon="5.55215">
        <ele>317</ele>
        <time>2015-01-16T08:59:53Z</time>
      </trkpt>
      <trkpt lat="43.42942" lon="5.5521">
        <ele>315</ele>
        <time>2015-01-16T08:59:55Z</time>
      </trkpt>
      <trkpt lat="43.4295" lon="5.55207">
        <ele>314</ele>
        <time>2015-01-16T08:59:57Z</time>
      </trkpt>
      <trkpt lat="43.42959" lon="5.55203">
        <ele>313</ele>
        <time>2015-01-16T08:59:59Z</time>
      </trkpt>
      <trkpt lat="43.42964" lon="5.55201">
        <ele>313</ele>
        <time>2015-01-16T09:00:00Z</time>
      </trkpt>
      <trkpt lat="43.4297" lon="5.55194">
        <ele>312</ele>
        <time>2015-01-16T09:00:02Z</time>
      </trkpt>
      <trkpt lat="43.4297" lon="5.55186">
        <ele>312</ele>
        <time>2015-01-16T09:00:04Z</time>
      </trkpt>
      <trkpt lat="43.4297" lon="5.55179">
        <ele>312</ele>
        <time>2015-01-16T09:00:06Z</time>
      </trkpt>
      <trkpt lat="43.42968" lon="5.55171">
        <ele>312</ele>
        <time>2015-01-16T09:00:08Z</time>
      </trkpt>
      <trkpt lat="43.42969" lon="5.55163">
        <ele>313</ele>
        <time>2015-01-16T09:00:11Z</time>
      </trkpt>
      <trkpt lat="43.42972" lon="5.55155">
        <ele>313</ele>
        <time>2015-01-16T09:00:14Z</time>
      </trkpt>
      <trkpt lat="43.42973" lon="5.55149">
        <ele>313</ele>
        <time>2015-01-16T09:00:16Z</time>
      </trkpt>
      <trkpt lat="43.42973" lon="5.55141">
        <ele>313</ele>
        <time>2015-01-16T09:00:19Z</time>
      </trkpt>
      <trkpt lat="43.42974" lon="5.55131">
        <ele>313</ele>
        <time>2015-01-16T09:00:21Z</time>
      </trkpt>
      <trkpt lat="43.42975" lon="5.55123">
        <ele>314</ele>
        <time>2015-01-16T09:00:23Z</time>
      </trkpt>
      <trkpt lat="43.42976" lon="5.55116">
        <ele>314</ele>
        <time>2015-01-16T09:00:25Z</time>
      </trkpt>
      <trkpt lat="43.42979" lon="5.55109">
        <ele>314</ele>
        <time>2015-01-16T09:00:29Z</time>
      </trkpt>
      <trkpt lat="43.42981" lon="5.55103">
        <ele>314</ele>
        <time>2015-01-16T09:00:32Z</time>
      </trkpt>
      <trkpt lat="43.42986" lon="5.55097">
        <ele>315</ele>
        <time>2015-01-16T09:00:35Z</time>
      </trkpt>
      <trkpt lat="43.42987" lon="5.5509">
        <ele>315</ele>
        <time>2015-01-16T09:00:40Z</time>
      </trkpt>
      <trkpt lat="43.42989" lon="5.55084">
        <ele>315</ele>
        <time>2015-01-16T09:00:43Z</time>
      </trkpt>
      <trkpt lat="43.42989" lon="5.55075">
        <ele>315</ele>
        <time>2015-01-16T09:00:46Z</time>
      </trkpt>
      <trkpt lat="43.42988" lon="5.55067">
        <ele>315</ele>
        <time>2015-01-16T09:00:49Z</time>
      </trkpt>
      <trkpt lat="43.42981" lon="5.5506">
        <ele>317</ele>
        <time>2015-01-16T09:00:51Z</time>
      </trkpt>
      <trkpt lat="43.42976" lon="5.55056">
        <ele>317</ele>
        <time>2015-01-16T09:00:52Z</time>
      </trkpt>
      <trkpt lat="43.4297" lon="5.55051">
        <ele>318</ele>
        <time>2015-01-16T09:00:53Z</time>
      </trkpt>
      <trkpt lat="43.42965" lon="5.55047">
        <ele>319</ele>
        <time>2015-01-16T09:00:54Z</time>
      </trkpt>
      <trkpt lat="43.4296" lon="5.55043">
        <ele>319</ele>
        <time>2015-01-16T09:00:55Z</time>
      </trkpt>
      <trkpt lat="43.42955" lon="5.55039">
        <ele>319</ele>
        <time>2015-01-16T09:00:56Z</time>
      </trkpt>
      <trkpt lat="43.42951" lon="5.55035">
        <ele>319</ele>
        <time>2015-01-16T09:00:57Z</time>
      </trkpt>
      <trkpt lat="43.42947" lon="5.55031">
        <ele>318</ele>
        <time>2015-01-16T09:00:58Z</time>
      </trkpt>
      <trkpt lat="43.42943" lon="5.55026">
        <ele>317</ele>
        <time>2015-01-16T09:00:59Z</time>
      </trkpt>
      <trkpt lat="43.42938" lon="5.55022">
        <ele>316</ele>
        <time>2015-01-16T09:01:00Z</time>
      </trkpt>
      <trkpt lat="43.42934" lon="5.55019">
        <ele>316</ele>
        <time>2015-01-16T09:01:01Z</time>
      </trkpt>
      <trkpt lat="43.4293" lon="5.55016">
        <ele>316</ele>
        <time>2015-01-16T09:01:02Z</time>
      </trkpt>
      <trkpt lat="43.42925" lon="5.55013">
        <ele>316</ele>
        <time>2015-01-16T09:01:03Z</time>
      </trkpt>
      <trkpt lat="43.42921" lon="5.55008">
        <ele>316</ele>
        <time>2015-01-16T09:01:05Z</time>
      </trkpt>
      <trkpt lat="43.42916" lon="5.55005">
        <ele>316</ele>
        <time>2015-01-16T09:01:07Z</time>
      </trkpt>
      <trkpt lat="43.42918" lon="5.54997">
        <ele>316</ele>
        <time>2015-01-16T09:01:11Z</time>
      </trkpt>
      <trkpt lat="43.4292" lon="5.54991">
        <ele>315</ele>
        <time>2015-01-16T09:01:14Z</time>
      </trkpt>
      <trkpt lat="43.42924" lon="5.54988">
        <ele>315</ele>
        <time>2015-01-16T09:01:16Z</time>
      </trkpt>
      <trkpt lat="43.42926" lon="5.5498">
        <ele>314</ele>
        <time>2015-01-16T09:01:19Z</time>
      </trkpt>
      <trkpt lat="43.42927" lon="5.5497">
        <ele>314</ele>
        <time>2015-01-16T09:01:21Z</time>
      </trkpt>
      <trkpt lat="43.42927" lon="5.54963">
        <ele>313</ele>
        <time>2015-01-16T09:01:23Z</time>
      </trkpt>
      <trkpt lat="43.42925" lon="5.54958">
        <ele>313</ele>
        <time>2015-01-16T09:01:26Z</time>
      </trkpt>
      <trkpt lat="43.4292" lon="5.54955">
        <ele>312</ele>
        <time>2015-01-16T09:01:29Z</time>
      </trkpt>
      <trkpt lat="43.42915" lon="5.54951">
        <ele>311</ele>
        <time>2015-01-16T09:01:33Z</time>
      </trkpt>
      <trkpt lat="43.4291" lon="5.54949">
        <ele>311</ele>
        <time>2015-01-16T09:01:35Z</time>
      </trkpt>
      <trkpt lat="43.42904" lon="5.54946">
        <ele>310</ele>
        <time>2015-01-16T09:01:38Z</time>
      </trkpt>
      <trkpt lat="43.42898" lon="5.54944">
        <ele>310</ele>
        <time>2015-01-16T09:01:40Z</time>
      </trkpt>
      <trkpt lat="43.42894" lon="5.54943">
        <ele>309</ele>
        <time>2015-01-16T09:01:42Z</time>
      </trkpt>
      <trkpt lat="43.42889" lon="5.54941">
        <ele>309</ele>
        <time>2015-01-16T09:01:44Z</time>
      </trkpt>
      <trkpt lat="43.42884" lon="5.5494">
        <ele>309</ele>
        <time>2015-01-16T09:01:46Z</time>
      </trkpt>
      <trkpt lat="43.42879" lon="5.54939">
        <ele>308</ele>
        <time>2015-01-16T09:01:48Z</time>
      </trkpt>
      <trkpt lat="43.42874" lon="5.54938">
        <ele>308</ele>
        <time>2015-01-16T09:01:50Z</time>
      </trkpt>
      <trkpt lat="43.42868" lon="5.54937">
        <ele>308</ele>
        <time>2015-01-16T09:01:52Z</time>
      </trkpt>
      <trkpt lat="43.42863" lon="5.54936">
        <ele>308</ele>
        <time>2015-01-16T09:01:54Z</time>
      </trkpt>
      <trkpt lat="43.42859" lon="5.54933">
        <ele>307</ele>
        <time>2015-01-16T09:01:56Z</time>
      </trkpt>
      <trkpt lat="43.42854" lon="5.54931">
        <ele>307</ele>
        <time>2015-01-16T09:01:58Z</time>
      </trkpt>
      <trkpt lat="43.42849" lon="5.54929">
        <ele>306</ele>
        <time>2015-01-16T09:02:01Z</time>
      </trkpt>
      <trkpt lat="43.42844" lon="5.54927">
        <ele>306</ele>
        <time>2015-01-16T09:02:04Z</time>
      </trkpt>
      <trkpt lat="43.4284" lon="5.54924">
        <ele>305</ele>
        <time>2015-01-16T09:02:06Z</time>
      </trkpt>
      <trkpt lat="43.42834" lon="5.54921">
        <ele>305</ele>
        <time>2015-01-16T09:02:08Z</time>
      </trkpt>
      <trkpt lat="43.42829" lon="5.54918">
        <ele>305</ele>
        <time>2015-01-16T09:02:11Z</time>
      </trkpt>
      <trkpt lat="43.42823" lon="5.54913">
        <ele>305</ele>
        <time>2015-01-16T09:02:14Z</time>
      </trkpt>
      <trkpt lat="43.42818" lon="5.54909">
        <ele>305</ele>
        <time>2015-01-16T09:02:16Z</time>
      </trkpt>
      <trkpt lat="43.42813" lon="5.54907">
        <ele>304</ele>
        <time>2015-01-16T09:02:18Z</time>
      </trkpt>
      <trkpt lat="43.42808" lon="5.54904">
        <ele>304</ele>
        <time>2015-01-16T09:02:20Z</time>
      </trkpt>
      <trkpt lat="43.42802" lon="5.54902">
        <ele>304</ele>
        <time>2015-01-16T09:02:22Z</time>
      </trkpt>
      <trkpt lat="43.42795" lon="5.549">
        <ele>304</ele>
        <time>2015-01-16T09:02:24Z</time>
      </trkpt>
      <trkpt lat="43.4279" lon="5.54896">
        <ele>304</ele>
        <time>2015-01-16T09:02:26Z</time>
      </trkpt>
      <trkpt lat="43.42785" lon="5.54891">
        <ele>304</ele>
        <time>2015-01-16T09:02:28Z</time>
      </trkpt>
      <trkpt lat="43.42778" lon="5.54888">
        <ele>303</ele>
        <time>2015-01-16T09:02:30Z</time>
      </trkpt>
      <trkpt lat="43.42772" lon="5.54885">
        <ele>303</ele>
        <time>2015-01-16T09:02:32Z</time>
      </trkpt>
      <trkpt lat="43.42765" lon="5.54882">
        <ele>303</ele>
        <time>2015-01-16T09:02:34Z</time>
      </trkpt>
      <trkpt lat="43.42759" lon="5.54883">
        <ele>303</ele>
        <time>2015-01-16T09:02:36Z</time>
      </trkpt>
      <trkpt lat="43.42753" lon="5.5488">
        <ele>303</ele>
        <time>2015-01-16T09:02:39Z</time>
      </trkpt>
      <trkpt lat="43.42748" lon="5.54878">
        <ele>303</ele>
        <time>2015-01-16T09:02:42Z</time>
      </trkpt>
      <trkpt lat="43.42743" lon="5.54877">
        <ele>303</ele>
        <time>2015-01-16T09:02:45Z</time>
      </trkpt>
      <trkpt lat="43.42737" lon="5.54877">
        <ele>303</ele>
        <time>2015-01-16T09:02:47Z</time>
      </trkpt>
      <trkpt lat="43.42732" lon="5.54876">
        <ele>303</ele>
        <time>2015-01-16T09:02:49Z</time>
      </trkpt>
      <trkpt lat="43.42728" lon="5.54876">
        <ele>304</ele>
        <time>2015-01-16T09:02:51Z</time>
      </trkpt>
      <trkpt lat="43.42722" lon="5.54877">
        <ele>304</ele>
        <time>2015-01-16T09:02:53Z</time>
      </trkpt>
      <trkpt lat="43.42714" lon="5.54878">
        <ele>304</ele>
        <time>2015-01-16T09:02:55Z</time>
      </trkpt>
      <trkpt lat="43.4271" lon="5.54879">
        <ele>305</ele>
        <time>2015-01-16T09:02:57Z</time>
      </trkpt>
      <trkpt lat="43.42705" lon="5.54881">
        <ele>305</ele>
        <time>2015-01-16T09:02:59Z</time>
      </trkpt>
      <trkpt lat="43.427" lon="5.54884">
        <ele>305</ele>
        <time>2015-01-16T09:03:01Z</time>
      </trkpt>
      <trkpt lat="43.42695" lon="5.54887">
        <ele>305</ele>
        <time>2015-01-16T09:03:03Z</time>
      </trkpt>
      <trkpt lat="43.42691" lon="5.5489">
        <ele>305</ele>
        <time>2015-01-16T09:03:05Z</time>
      </trkpt>
      <trkpt lat="43.42686" lon="5.54895">
        <ele>305</ele>
        <time>2015-01-16T09:03:07Z</time>
      </trkpt>
      <trkpt lat="43.42681" lon="5.54898">
        <ele>305</ele>
        <time>2015-01-16T09:03:09Z</time>
      </trkpt>
      <trkpt lat="43.42675" lon="5.549">
        <ele>305</ele>
        <time>2015-01-16T09:03:12Z</time>
      </trkpt>
      <trkpt lat="43.4267" lon="5.54904">
        <ele>305</ele>
        <time>2015-01-16T09:03:14Z</time>
      </trkpt>
      <trkpt lat="43.42666" lon="5.54906">
        <ele>306</ele>
        <time>2015-01-16T09:03:16Z</time>
      </trkpt>
      <trkpt lat="43.42659" lon="5.54908">
        <ele>306</ele>
        <time>2015-01-16T09:03:19Z</time>
      </trkpt>
      <trkpt lat="43.42654" lon="5.54909">
        <ele>306</ele>
        <time>2015-01-16T09:03:21Z</time>
      </trkpt>
      <trkpt lat="43.42647" lon="5.54908">
        <ele>306</ele>
        <time>2015-01-16T09:03:24Z</time>
      </trkpt>
      <trkpt lat="43.42639" lon="5.54907">
        <ele>306</ele>
        <time>2015-01-16T09:03:26Z</time>
      </trkpt>
      <trkpt lat="43.42634" lon="5.54906">
        <ele>306</ele>
        <time>2015-01-16T09:03:27Z</time>
      </trkpt>
      <trkpt lat="43.42625" lon="5.54906">
        <ele>306</ele>
        <time>2015-01-16T09:03:29Z</time>
      </trkpt>
      <trkpt lat="43.42616" lon="5.54908">
        <ele>307</ele>
        <time>2015-01-16T09:03:31Z</time>
      </trkpt>
      <trkpt lat="43.42608" lon="5.5491">
        <ele>308</ele>
        <time>2015-01-16T09:03:33Z</time>
      </trkpt>
      <trkpt lat="43.42601" lon="5.5491">
        <ele>308</ele>
        <time>2015-01-16T09:03:35Z</time>
      </trkpt>
      <trkpt lat="43.42595" lon="5.54911">
        <ele>308</ele>
        <time>2015-01-16T09:03:37Z</time>
      </trkpt>
      <trkpt lat="43.42588" lon="5.54912">
        <ele>308</ele>
        <time>2015-01-16T09:03:39Z</time>
      </trkpt>
      <trkpt lat="43.4258" lon="5.54912">
        <ele>308</ele>
        <time>2015-01-16T09:03:41Z</time>
      </trkpt>
      <trkpt lat="43.42574" lon="5.54912">
        <ele>308</ele>
        <time>2015-01-16T09:03:43Z</time>
      </trkpt>
      <trkpt lat="43.42567" lon="5.54912">
        <ele>308</ele>
        <time>2015-01-16T09:03:45Z</time>
      </trkpt>
      <trkpt lat="43.42559" lon="5.54912">
        <ele>308</ele>
        <time>2015-01-16T09:03:47Z</time>
      </trkpt>
      <trkpt lat="43.42553" lon="5.54914">
        <ele>308</ele>
        <time>2015-01-16T09:03:49Z</time>
      </trkpt>
      <trkpt lat="43.42547" lon="5.54914">
        <ele>308</ele>
        <time>2015-01-16T09:03:51Z</time>
      </trkpt>
      <trkpt lat="43.42539" lon="5.54912">
        <ele>308</ele>
        <time>2015-01-16T09:03:53Z</time>
      </trkpt>
      <trkpt lat="43.42532" lon="5.54909">
        <ele>308</ele>
        <time>2015-01-16T09:03:55Z</time>
      </trkpt>
      <trkpt lat="43.42527" lon="5.54905">
        <ele>308</ele>
        <time>2015-01-16T09:03:57Z</time>
      </trkpt>
      <trkpt lat="43.42522" lon="5.549">
        <ele>309</ele>
        <time>2015-01-16T09:03:59Z</time>
      </trkpt>
      <trkpt lat="43.42517" lon="5.54894">
        <ele>309</ele>
        <time>2015-01-16T09:04:01Z</time>
      </trkpt>
      <trkpt lat="43.42511" lon="5.54889">
        <ele>309</ele>
        <time>2015-01-16T09:04:03Z</time>
      </trkpt>
      <trkpt lat="43.42505" lon="5.54884">
        <ele>309</ele>
        <time>2015-01-16T09:04:05Z</time>
      </trkpt>
      <trkpt lat="43.42498" lon="5.54878">
        <ele>310</ele>
        <time>2015-01-16T09:04:07Z</time>
      </trkpt>
      <trkpt lat="43.42491" lon="5.54873">
        <ele>310</ele>
        <time>2015-01-16T09:04:09Z</time>
      </trkpt>
      <trkpt lat="43.42484" lon="5.54869">
        <ele>310</ele>
        <time>2015-01-16T09:04:11Z</time>
      </trkpt>
      <trkpt lat="43.42479" lon="5.54866">
        <ele>310</ele>
        <time>2015-01-16T09:04:13Z</time>
      </trkpt>
      <trkpt lat="43.42473" lon="5.54863">
        <ele>311</ele>
        <time>2015-01-16T09:04:15Z</time>
      </trkpt>
      <trkpt lat="43.42466" lon="5.54861">
        <ele>311</ele>
        <time>2015-01-16T09:04:17Z</time>
      </trkpt>
      <trkpt lat="43.42459" lon="5.54857">
        <ele>311</ele>
        <time>2015-01-16T09:04:19Z</time>
      </trkpt>
      <trkpt lat="43.42452" lon="5.54852">
        <ele>311</ele>
        <time>2015-01-16T09:04:21Z</time>
      </trkpt>
      <trkpt lat="43.42446" lon="5.54848">
        <ele>311</ele>
        <time>2015-01-16T09:04:23Z</time>
      </trkpt>
      <trkpt lat="43.42441" lon="5.54843">
        <ele>311</ele>
        <time>2015-01-16T09:04:25Z</time>
      </trkpt>
      <trkpt lat="43.42435" lon="5.54837">
        <ele>311</ele>
        <time>2015-01-16T09:04:27Z</time>
      </trkpt>
      <trkpt lat="43.42431" lon="5.54833">
        <ele>311</ele>
        <time>2015-01-16T09:04:28Z</time>
      </trkpt>
      <trkpt lat="43.42427" lon="5.54829">
        <ele>312</ele>
        <time>2015-01-16T09:04:29Z</time>
      </trkpt>
      <trkpt lat="43.42421" lon="5.5482">
        <ele>313</ele>
        <time>2015-01-16T09:04:31Z</time>
      </trkpt>
      <trkpt lat="43.42415" lon="5.54813">
        <ele>314</ele>
        <time>2015-01-16T09:04:33Z</time>
      </trkpt>
      <trkpt lat="43.42411" lon="5.54807">
        <ele>314</ele>
        <time>2015-01-16T09:04:35Z</time>
      </trkpt>
      <trkpt lat="43.42408" lon="5.548">
        <ele>314</ele>
        <time>2015-01-16T09:04:37Z</time>
      </trkpt>
      <trkpt lat="43.42403" lon="5.54794">
        <ele>314</ele>
        <time>2015-01-16T09:04:39Z</time>
      </trkpt>
      <trkpt lat="43.424" lon="5.54789">
        <ele>314</ele>
        <time>2015-01-16T09:04:41Z</time>
      </trkpt>
      <trkpt lat="43.42397" lon="5.54784">
        <ele>314</ele>
        <time>2015-01-16T09:04:44Z</time>
      </trkpt>
      <trkpt lat="43.42392" lon="5.54778">
        <ele>314</ele>
        <time>2015-01-16T09:04:48Z</time>
      </trkpt>
      <trkpt lat="43.42386" lon="5.54774">
        <ele>313</ele>
        <time>2015-01-16T09:04:51Z</time>
      </trkpt>
      <trkpt lat="43.42382" lon="5.54768">
        <ele>313</ele>
        <time>2015-01-16T09:04:54Z</time>
      </trkpt>
      <trkpt lat="43.42378" lon="5.54762">
        <ele>313</ele>
        <time>2015-01-16T09:04:56Z</time>
      </trkpt>
      <trkpt lat="43.42374" lon="5.54756">
        <ele>313</ele>
        <time>2015-01-16T09:04:59Z</time>
      </trkpt>
      <trkpt lat="43.4237" lon="5.54751">
        <ele>313</ele>
        <time>2015-01-16T09:05:01Z</time>
      </trkpt>
      <trkpt lat="43.42367" lon="5.54746">
        <ele>313</ele>
        <time>2015-01-16T09:05:03Z</time>
      </trkpt>
      <trkpt lat="43.42363" lon="5.54742">
        <ele>313</ele>
        <time>2015-01-16T09:05:06Z</time>
      </trkpt>
      <trkpt lat="43.42358" lon="5.5474">
        <ele>314</ele>
        <time>2015-01-16T09:05:24Z</time>
      </trkpt>
      <trkpt lat="43.42355" lon="5.54744">
        <ele>314</ele>
        <time>2015-01-16T09:05:40Z</time>
      </trkpt>
      <trkpt lat="43.42351" lon="5.54743">
        <ele>314</ele>
        <time>2015-01-16T09:05:52Z</time>
      </trkpt>
      <trkpt lat="43.42349" lon="5.5474">
        <ele>313</ele>
        <time>2015-01-16T09:06:16Z</time>
      </trkpt>
      <trkpt lat="43.42349" lon="5.54737">
        <ele>312</ele>
        <time>2015-01-16T09:06:28Z</time>
      </trkpt>
      <trkpt lat="43.42343" lon="5.54734">
        <ele>312</ele>
        <time>2015-01-16T09:06:31Z</time>
      </trkpt>
      <trkpt lat="43.42341" lon="5.54728">
        <ele>312</ele>
        <time>2015-01-16T09:06:34Z</time>
      </trkpt>
      <trkpt lat="43.42339" lon="5.54722">
        <ele>312</ele>
        <time>2015-01-16T09:06:37Z</time>
      </trkpt>
      <trkpt lat="43.42334" lon="5.54717">
        <ele>312</ele>
        <time>2015-01-16T09:06:39Z</time>
      </trkpt>
      <trkpt lat="43.42329" lon="5.54713">
        <ele>312</ele>
        <time>2015-01-16T09:06:41Z</time>
      </trkpt>
      <trkpt lat="43.42321" lon="5.54707">
        <ele>312</ele>
        <time>2015-01-16T09:06:43Z</time>
      </trkpt>
      <trkpt lat="43.42315" lon="5.54704">
        <ele>311</ele>
        <time>2015-01-16T09:06:45Z</time>
      </trkpt>
      <trkpt lat="43.4231" lon="5.54703">
        <ele>311</ele>
        <time>2015-01-16T09:06:47Z</time>
      </trkpt>
      <trkpt lat="43.42304" lon="5.54702">
        <ele>311</ele>
        <time>2015-01-16T09:06:49Z</time>
      </trkpt>
      <trkpt lat="43.42299" lon="5.54699">
        <ele>311</ele>
        <time>2015-01-16T09:06:51Z</time>
      </trkpt>
      <trkpt lat="43.42294" lon="5.54695">
        <ele>311</ele>
        <time>2015-01-16T09:06:53Z</time>
      </trkpt>
      <trkpt lat="43.42289" lon="5.54689">
        <ele>311</ele>
        <time>2015-01-16T09:06:55Z</time>
      </trkpt>
      <trkpt lat="43.42285" lon="5.54682">
        <ele>311</ele>
        <time>2015-01-16T09:06:57Z</time>
      </trkpt>
      <trkpt lat="43.4228" lon="5.54676">
        <ele>311</ele>
        <time>2015-01-16T09:06:59Z</time>
      </trkpt>
      <trkpt lat="43.42276" lon="5.5467">
        <ele>311</ele>
        <time>2015-01-16T09:07:01Z</time>
      </trkpt>
      <trkpt lat="43.42273" lon="5.54664">
        <ele>311</ele>
        <time>2015-01-16T09:07:03Z</time>
      </trkpt>
      <trkpt lat="43.4227" lon="5.54655">
        <ele>311</ele>
        <time>2015-01-16T09:07:05Z</time>
      </trkpt>
      <trkpt lat="43.42268" lon="5.54646">
        <ele>311</ele>
        <time>2015-01-16T09:07:08Z</time>
      </trkpt>
      <trkpt lat="43.42266" lon="5.5464">
        <ele>311</ele>
        <time>2015-01-16T09:07:10Z</time>
      </trkpt>
      <trkpt lat="43.42261" lon="5.54634">
        <ele>311</ele>
        <time>2015-01-16T09:07:13Z</time>
      </trkpt>
      <trkpt lat="43.42256" lon="5.54631">
        <ele>311</ele>
        <time>2015-01-16T09:07:16Z</time>
      </trkpt>
      <trkpt lat="43.42252" lon="5.54627">
        <ele>311</ele>
        <time>2015-01-16T09:07:19Z</time>
      </trkpt>
      <trkpt lat="43.42249" lon="5.54636">
        <ele>311</ele>
        <time>2015-01-16T09:07:30Z</time>
      </trkpt>
      <trkpt lat="43.42247" lon="5.54643">
        <ele>311</ele>
        <time>2015-01-16T09:07:32Z</time>
      </trkpt>
      <trkpt lat="43.42242" lon="5.54648">
        <ele>311</ele>
        <time>2015-01-16T09:07:34Z</time>
      </trkpt>
      <trkpt lat="43.42236" lon="5.54649">
        <ele>310</ele>
        <time>2015-01-16T09:07:45Z</time>
      </trkpt>
      <trkpt lat="43.4223" lon="5.54649">
        <ele>310</ele>
        <time>2015-01-16T09:07:49Z</time>
      </trkpt>
      <trkpt lat="43.42224" lon="5.54648">
        <ele>310</ele>
        <time>2015-01-16T09:07:53Z</time>
      </trkpt>
      <trkpt lat="43.42217" lon="5.54648">
        <ele>310</ele>
        <time>2015-01-16T09:07:57Z</time>
      </trkpt>
      <trkpt lat="43.42213" lon="5.54646">
        <ele>311</ele>
        <time>2015-01-16T09:08:01Z</time>
      </trkpt>
      <trkpt lat="43.42206" lon="5.5465">
        <ele>311</ele>
        <time>2015-01-16T09:08:05Z</time>
      </trkpt>
      <trkpt lat="43.42202" lon="5.54655">
        <ele>311</ele>
        <time>2015-01-16T09:08:08Z</time>
      </trkpt>
      <trkpt lat="43.42199" lon="5.5466">
        <ele>311</ele>
        <time>2015-01-16T09:08:10Z</time>
      </trkpt>
      <trkpt lat="43.42196" lon="5.54666">
        <ele>310</ele>
        <time>2015-01-16T09:08:13Z</time>
      </trkpt>
      <trkpt lat="43.42195" lon="5.54672">
        <ele>310</ele>
        <time>2015-01-16T09:08:16Z</time>
      </trkpt>
      <trkpt lat="43.42197" lon="5.54678">
        <ele>311</ele>
        <time>2015-01-16T09:08:20Z</time>
      </trkpt>
      <trkpt lat="43.42198" lon="5.54686">
        <ele>311</ele>
        <time>2015-01-16T09:08:24Z</time>
      </trkpt>
      <trkpt lat="43.42199" lon="5.54694">
        <ele>312</ele>
        <time>2015-01-16T09:08:28Z</time>
      </trkpt>
      <trkpt lat="43.42197" lon="5.547">
        <ele>312</ele>
        <time>2015-01-16T09:08:31Z</time>
      </trkpt>
      <trkpt lat="43.42197" lon="5.54709">
        <ele>313</ele>
        <time>2015-01-16T09:08:34Z</time>
      </trkpt>
      <trkpt lat="43.42196" lon="5.54716">
        <ele>313</ele>
        <time>2015-01-16T09:08:36Z</time>
      </trkpt>
      <trkpt lat="43.42194" lon="5.54723">
        <ele>314</ele>
        <time>2015-01-16T09:08:40Z</time>
      </trkpt>
      <trkpt lat="43.42193" lon="5.5473">
        <ele>315</ele>
        <time>2015-01-16T09:08:42Z</time>
      </trkpt>
      <trkpt lat="43.42191" lon="5.54735">
        <ele>316</ele>
        <time>2015-01-16T09:08:46Z</time>
      </trkpt>
      <trkpt lat="43.42188" lon="5.54743">
        <ele>316</ele>
        <time>2015-01-16T09:08:50Z</time>
      </trkpt>
      <trkpt lat="43.42186" lon="5.5475">
        <ele>316</ele>
        <time>2015-01-16T09:08:53Z</time>
      </trkpt>
      <trkpt lat="43.42184" lon="5.54756">
        <ele>317</ele>
        <time>2015-01-16T09:08:56Z</time>
      </trkpt>
      <trkpt lat="43.42183" lon="5.54764">
        <ele>317</ele>
        <time>2015-01-16T09:08:59Z</time>
      </trkpt>
      <trkpt lat="43.42184" lon="5.54771">
        <ele>319</ele>
        <time>2015-01-16T09:09:03Z</time>
      </trkpt>
      <trkpt lat="43.42185" lon="5.54779">
        <ele>320</ele>
        <time>2015-01-16T09:09:13Z</time>
      </trkpt>
      <trkpt lat="43.42188" lon="5.54784">
        <ele>321</ele>
        <time>2015-01-16T09:09:25Z</time>
      </trkpt>
      <trkpt lat="43.42189" lon="5.5479">
        <ele>321</ele>
        <time>2015-01-16T09:09:44Z</time>
      </trkpt>
      <trkpt lat="43.42186" lon="5.54795">
        <ele>321</ele>
        <time>2015-01-16T09:09:47Z</time>
      </trkpt>
      <trkpt lat="43.42183" lon="5.54801">
        <ele>321</ele>
        <time>2015-01-16T09:09:50Z</time>
      </trkpt>
      <trkpt lat="43.4218" lon="5.54807">
        <ele>321</ele>
        <time>2015-01-16T09:09:54Z</time>
      </trkpt>
      <trkpt lat="43.42181" lon="5.54814">
        <ele>322</ele>
        <time>2015-01-16T09:09:58Z</time>
      </trkpt>
      <trkpt lat="43.42177" lon="5.54821">
        <ele>322</ele>
        <time>2015-01-16T09:10:02Z</time>
      </trkpt>
      <trkpt lat="43.42173" lon="5.54828">
        <ele>322</ele>
        <time>2015-01-16T09:10:05Z</time>
      </trkpt>
      <trkpt lat="43.42169" lon="5.54832">
        <ele>322</ele>
        <time>2015-01-16T09:10:09Z</time>
      </trkpt>
      <trkpt lat="43.42165" lon="5.54838">
        <ele>323</ele>
        <time>2015-01-16T09:10:11Z</time>
      </trkpt>
      <trkpt lat="43.42162" lon="5.54844">
        <ele>323</ele>
        <time>2015-01-16T09:10:14Z</time>
      </trkpt>
      <trkpt lat="43.42159" lon="5.54852">
        <ele>324</ele>
        <time>2015-01-16T09:10:18Z</time>
      </trkpt>
      <trkpt lat="43.42156" lon="5.54857">
        <ele>325</ele>
        <time>2015-01-16T09:10:21Z</time>
      </trkpt>
      <trkpt lat="43.42154" lon="5.54863">
        <ele>326</ele>
        <time>2015-01-16T09:10:24Z</time>
      </trkpt>
      <trkpt lat="43.42151" lon="5.54869">
        <ele>326</ele>
        <time>2015-01-16T09:10:27Z</time>
      </trkpt>
      <trkpt lat="43.42147" lon="5.54873">
        <ele>327</ele>
        <time>2015-01-16T09:10:30Z</time>
      </trkpt>
      <trkpt lat="43.42141" lon="5.54876">
        <ele>327</ele>
        <time>2015-01-16T09:10:33Z</time>
      </trkpt>
      <trkpt lat="43.42137" lon="5.54881">
        <ele>327</ele>
        <time>2015-01-16T09:10:35Z</time>
      </trkpt>
      <trkpt lat="43.42135" lon="5.54886">
        <ele>328</ele>
        <time>2015-01-16T09:10:38Z</time>
      </trkpt>
      <trkpt lat="43.42139" lon="5.54889">
        <ele>329</ele>
        <time>2015-01-16T09:10:42Z</time>
      </trkpt>
      <trkpt lat="43.42142" lon="5.54893">
        <ele>329</ele>
        <time>2015-01-16T09:10:47Z</time>
      </trkpt>
      <trkpt lat="43.42145" lon="5.54898">
        <ele>331</ele>
        <time>2015-01-16T09:11:02Z</time>
      </trkpt>
      <trkpt lat="43.42147" lon="5.54898">
        <ele>334</ele>
        <time>2015-01-16T09:11:31Z</time>
      </trkpt>
      <trkpt lat="43.42146" lon="5.54899">
        <ele>335</ele>
        <time>2015-01-16T09:11:46Z</time>
      </trkpt>
      <trkpt lat="43.42145" lon="5.54897">
        <ele>336</ele>
        <time>2015-01-16T09:12:01Z</time>
      </trkpt>
      <trkpt lat="43.42146" lon="5.54896">
        <ele>337</ele>
        <time>2015-01-16T09:12:16Z</time>
      </trkpt>
      <trkpt lat="43.42149" lon="5.549">
        <ele>337</ele>
        <time>2015-01-16T09:12:31Z</time>
      </trkpt>
      <trkpt lat="43.42149" lon="5.54901">
        <ele>337</ele>
        <time>2015-01-16T09:12:32Z</time>
      </trkpt>
      <trkpt lat="43.42153" lon="5.54907">
        <ele>337</ele>
        <time>2015-01-16T09:12:36Z</time>
      </trkpt>
      <trkpt lat="43.42157" lon="5.54914">
        <ele>336</ele>
        <time>2015-01-16T09:12:39Z</time>
      </trkpt>
      <trkpt lat="43.4216" lon="5.54919">
        <ele>336</ele>
        <time>2015-01-16T09:12:41Z</time>
      </trkpt>
      <trkpt lat="43.42163" lon="5.54924">
        <ele>336</ele>
        <time>2015-01-16T09:12:43Z</time>
      </trkpt>
      <trkpt lat="43.42167" lon="5.5493">
        <ele>336</ele>
        <time>2015-01-16T09:12:45Z</time>
      </trkpt>
      <trkpt lat="43.42172" lon="5.54935">
        <ele>336</ele>
        <time>2015-01-16T09:12:47Z</time>
      </trkpt>
      <trkpt lat="43.42176" lon="5.54942">
        <ele>336</ele>
        <time>2015-01-16T09:12:49Z</time>
      </trkpt>
      <trkpt lat="43.42181" lon="5.5495">
        <ele>337</ele>
        <time>2015-01-16T09:12:51Z</time>
      </trkpt>
      <trkpt lat="43.42186" lon="5.54957">
        <ele>337</ele>
        <time>2015-01-16T09:12:53Z</time>
      </trkpt>
      <trkpt lat="43.42193" lon="5.54965">
        <ele>337</ele>
        <time>2015-01-16T09:12:55Z</time>
      </trkpt>
      <trkpt lat="43.42197" lon="5.54971">
        <ele>337</ele>
        <time>2015-01-16T09:12:57Z</time>
      </trkpt>
      <trkpt lat="43.42202" lon="5.54978">
        <ele>337</ele>
        <time>2015-01-16T09:12:59Z</time>
      </trkpt>
      <trkpt lat="43.42205" lon="5.54985">
        <ele>337</ele>
        <time>2015-01-16T09:13:01Z</time>
      </trkpt>
      <trkpt lat="43.42211" lon="5.54992">
        <ele>336</ele>
        <time>2015-01-16T09:13:03Z</time>
      </trkpt>
      <trkpt lat="43.42218" lon="5.54998">
        <ele>337</ele>
        <time>2015-01-16T09:13:05Z</time>
      </trkpt>
      <trkpt lat="43.42223" lon="5.55">
        <ele>337</ele>
        <time>2015-01-16T09:13:07Z</time>
      </trkpt>
      <trkpt lat="43.42229" lon="5.55004">
        <ele>337</ele>
        <time>2015-01-16T09:13:09Z</time>
      </trkpt>
      <trkpt lat="43.42234" lon="5.55008">
        <ele>337</ele>
        <time>2015-01-16T09:13:11Z</time>
      </trkpt>
      <trkpt lat="43.4224" lon="5.55013">
        <ele>337</ele>
        <time>2015-01-16T09:13:14Z</time>
      </trkpt>
      <trkpt lat="43.42246" lon="5.55015">
        <ele>337</ele>
        <time>2015-01-16T09:13:16Z</time>
      </trkpt>
      <trkpt lat="43.42253" lon="5.55016">
        <ele>337</ele>
        <time>2015-01-16T09:13:18Z</time>
      </trkpt>
      <trkpt lat="43.42259" lon="5.55018">
        <ele>337</ele>
        <time>2015-01-16T09:13:20Z</time>
      </trkpt>
      <trkpt lat="43.42263" lon="5.55023">
        <ele>337</ele>
        <time>2015-01-16T09:13:22Z</time>
      </trkpt>
      <trkpt lat="43.42262" lon="5.55029">
        <ele>338</ele>
        <time>2015-01-16T09:13:26Z</time>
      </trkpt>
      <trkpt lat="43.4226" lon="5.55037">
        <ele>338</ele>
        <time>2015-01-16T09:13:29Z</time>
      </trkpt>
      <trkpt lat="43.42257" lon="5.55042">
        <ele>338</ele>
        <time>2015-01-16T09:13:31Z</time>
      </trkpt>
      <trkpt lat="43.42254" lon="5.55047">
        <ele>338</ele>
        <time>2015-01-16T09:13:33Z</time>
      </trkpt>
      <trkpt lat="43.4225" lon="5.55053">
        <ele>338</ele>
        <time>2015-01-16T09:13:35Z</time>
      </trkpt>
      <trkpt lat="43.42246" lon="5.5506">
        <ele>338</ele>
        <time>2015-01-16T09:13:37Z</time>
      </trkpt>
      <trkpt lat="43.42242" lon="5.55067">
        <ele>338</ele>
        <time>2015-01-16T09:13:39Z</time>
      </trkpt>
      <trkpt lat="43.42239" lon="5.55074">
        <ele>338</ele>
        <time>2015-01-16T09:13:41Z</time>
      </trkpt>
      <trkpt lat="43.42237" lon="5.55079">
        <ele>338</ele>
        <time>2015-01-16T09:13:42Z</time>
      </trkpt>
      <trkpt lat="43.42234" lon="5.55088">
        <ele>338</ele>
        <time>2015-01-16T09:13:44Z</time>
      </trkpt>
      <trkpt lat="43.42231" lon="5.55095">
        <ele>337</ele>
        <time>2015-01-16T09:13:46Z</time>
      </trkpt>
      <trkpt lat="43.42226" lon="5.55103">
        <ele>334</ele>
        <time>2015-01-16T09:13:48Z</time>
      </trkpt>
      <trkpt lat="43.42221" lon="5.55112">
        <ele>332</ele>
        <time>2015-01-16T09:13:50Z</time>
      </trkpt>
      <trkpt lat="43.42218" lon="5.55117">
        <ele>331</ele>
        <time>2015-01-16T09:13:51Z</time>
      </trkpt>
      <trkpt lat="43.42214" lon="5.55124">
        <ele>331</ele>
        <time>2015-01-16T09:13:53Z</time>
      </trkpt>
      <trkpt lat="43.42211" lon="5.5513">
        <ele>330</ele>
        <time>2015-01-16T09:14:02Z</time>
      </trkpt>
      <trkpt lat="43.4221" lon="5.55136">
        <ele>329</ele>
        <time>2015-01-16T09:14:11Z</time>
      </trkpt>
      <trkpt lat="43.42205" lon="5.55144">
        <ele>329</ele>
        <time>2015-01-16T09:14:17Z</time>
      </trkpt>
      <trkpt lat="43.42201" lon="5.55153">
        <ele>328</ele>
        <time>2015-01-16T09:14:19Z</time>
      </trkpt>
      <trkpt lat="43.42199" lon="5.55159">
        <ele>327</ele>
        <time>2015-01-16T09:14:20Z</time>
      </trkpt>
      <trkpt lat="43.42197" lon="5.55165">
        <ele>325</ele>
        <time>2015-01-16T09:14:21Z</time>
      </trkpt>
      <trkpt lat="43.42193" lon="5.55172">
        <ele>324</ele>
        <time>2015-01-16T09:14:23Z</time>
      </trkpt>
      <trkpt lat="43.42189" lon="5.55177">
        <ele>324</ele>
        <time>2015-01-16T09:14:25Z</time>
      </trkpt>
      <trkpt lat="43.42186" lon="5.55182">
        <ele>324</ele>
        <time>2015-01-16T09:14:28Z</time>
      </trkpt>
      <trkpt lat="43.42183" lon="5.55178">
        <ele>324</ele>
        <time>2015-01-16T09:14:35Z</time>
      </trkpt>
      <trkpt lat="43.42179" lon="5.55172">
        <ele>324</ele>
        <time>2015-01-16T09:14:37Z</time>
      </trkpt>
      <trkpt lat="43.42175" lon="5.55168">
        <ele>324</ele>
        <time>2015-01-16T09:14:39Z</time>
      </trkpt>
      <trkpt lat="43.42172" lon="5.55163">
        <ele>324</ele>
        <time>2015-01-16T09:14:41Z</time>
      </trkpt>
      <trkpt lat="43.42168" lon="5.5516">
        <ele>324</ele>
        <time>2015-01-16T09:14:43Z</time>
      </trkpt>
      <trkpt lat="43.42164" lon="5.55156">
        <ele>324</ele>
        <time>2015-01-16T09:14:45Z</time>
      </trkpt>
      <trkpt lat="43.42158" lon="5.55152">
        <ele>324</ele>
        <time>2015-01-16T09:14:47Z</time>
      </trkpt>
      <trkpt lat="43.42152" lon="5.55149">
        <ele>324</ele>
        <time>2015-01-16T09:14:49Z</time>
      </trkpt>
      <trkpt lat="43.42146" lon="5.55146">
        <ele>324</ele>
        <time>2015-01-16T09:14:51Z</time>
      </trkpt>
      <trkpt lat="43.42141" lon="5.55144">
        <ele>324</ele>
        <time>2015-01-16T09:14:53Z</time>
      </trkpt>
      <trkpt lat="43.42136" lon="5.55142">
        <ele>324</ele>
        <time>2015-01-16T09:14:55Z</time>
      </trkpt>
      <trkpt lat="43.42131" lon="5.55139">
        <ele>324</ele>
        <time>2015-01-16T09:14:57Z</time>
      </trkpt>
      <trkpt lat="43.42126" lon="5.55135">
        <ele>324</ele>
        <time>2015-01-16T09:14:59Z</time>
      </trkpt>
      <trkpt lat="43.42121" lon="5.55131">
        <ele>324</ele>
        <time>2015-01-16T09:15:02Z</time>
      </trkpt>
      <trkpt lat="43.42115" lon="5.55127">
        <ele>324</ele>
        <time>2015-01-16T09:15:04Z</time>
      </trkpt>
      <trkpt lat="43.4211" lon="5.55123">
        <ele>325</ele>
        <time>2015-01-16T09:15:06Z</time>
      </trkpt>
      <trkpt lat="43.42106" lon="5.55117">
        <ele>325</ele>
        <time>2015-01-16T09:15:08Z</time>
      </trkpt>
      <trkpt lat="43.421" lon="5.55113">
        <ele>325</ele>
        <time>2015-01-16T09:15:10Z</time>
      </trkpt>
      <trkpt lat="43.42095" lon="5.55113">
        <ele>325</ele>
        <time>2015-01-16T09:15:12Z</time>
      </trkpt>
      <trkpt lat="43.42089" lon="5.55113">
        <ele>325</ele>
        <time>2015-01-16T09:15:14Z</time>
      </trkpt>
      <trkpt lat="43.42083" lon="5.55113">
        <ele>325</ele>
        <time>2015-01-16T09:15:16Z</time>
      </trkpt>
      <trkpt lat="43.42078" lon="5.55115">
        <ele>325</ele>
        <time>2015-01-16T09:15:18Z</time>
      </trkpt>
      <trkpt lat="43.42073" lon="5.55118">
        <ele>325</ele>
        <time>2015-01-16T09:15:20Z</time>
      </trkpt>
      <trkpt lat="43.42068" lon="5.55122">
        <ele>325</ele>
        <time>2015-01-16T09:15:22Z</time>
      </trkpt>
      <trkpt lat="43.42062" lon="5.55125">
        <ele>326</ele>
        <time>2015-01-16T09:15:25Z</time>
      </trkpt>
      <trkpt lat="43.42056" lon="5.55129">
        <ele>326</ele>
        <time>2015-01-16T09:15:28Z</time>
      </trkpt>
      <trkpt lat="43.42051" lon="5.55131">
        <ele>326</ele>
        <time>2015-01-16T09:15:30Z</time>
      </trkpt>
      <trkpt lat="43.42045" lon="5.55133">
        <ele>326</ele>
        <time>2015-01-16T09:15:32Z</time>
      </trkpt>
      <trkpt lat="43.42039" lon="5.55133">
        <ele>326</ele>
        <time>2015-01-16T09:15:34Z</time>
      </trkpt>
      <trkpt lat="43.42032" lon="5.55131">
        <ele>326</ele>
        <time>2015-01-16T09:15:36Z</time>
      </trkpt>
      <trkpt lat="43.42024" lon="5.5513">
        <ele>327</ele>
        <time>2015-01-16T09:15:38Z</time>
      </trkpt>
      <trkpt lat="43.42014" lon="5.55129">
        <ele>328</ele>
        <time>2015-01-16T09:15:40Z</time>
      </trkpt>
      <trkpt lat="43.42009" lon="5.55128">
        <ele>328</ele>
        <time>2015-01-16T09:15:41Z</time>
      </trkpt>
      <trkpt lat="43.42004" lon="5.55127">
        <ele>329</ele>
        <time>2015-01-16T09:15:42Z</time>
      </trkpt>
      <trkpt lat="43.41999" lon="5.55127">
        <ele>329</ele>
        <time>2015-01-16T09:15:43Z</time>
      </trkpt>
      <trkpt lat="43.41991" lon="5.55125">
        <ele>329</ele>
        <time>2015-01-16T09:15:45Z</time>
      </trkpt>
      <trkpt lat="43.41986" lon="5.55124">
        <ele>329</ele>
        <time>2015-01-16T09:15:47Z</time>
      </trkpt>
      <trkpt lat="43.41979" lon="5.55124">
        <ele>329</ele>
        <time>2015-01-16T09:15:49Z</time>
      </trkpt>
      <trkpt lat="43.41973" lon="5.5512">
        <ele>329</ele>
        <time>2015-01-16T09:15:51Z</time>
      </trkpt>
      <trkpt lat="43.41966" lon="5.55113">
        <ele>329</ele>
        <time>2015-01-16T09:15:53Z</time>
      </trkpt>
      <trkpt lat="43.41959" lon="5.55108">
        <ele>328</ele>
        <time>2015-01-16T09:15:55Z</time>
      </trkpt>
      <trkpt lat="43.41952" lon="5.55103">
        <ele>328</ele>
        <time>2015-01-16T09:15:57Z</time>
      </trkpt>
      <trkpt lat="43.41947" lon="5.55101">
        <ele>328</ele>
        <time>2015-01-16T09:15:58Z</time>
      </trkpt>
      <trkpt lat="43.41943" lon="5.55099">
        <ele>329</ele>
        <time>2015-01-16T09:15:59Z</time>
      </trkpt>
      <trkpt lat="43.41936" lon="5.55094">
        <ele>329</ele>
        <time>2015-01-16T09:16:01Z</time>
      </trkpt>
      <trkpt lat="43.4193" lon="5.55089">
        <ele>330</ele>
        <time>2015-01-16T09:16:03Z</time>
      </trkpt>
      <trkpt lat="43.41924" lon="5.55083">
        <ele>330</ele>
        <time>2015-01-16T09:16:05Z</time>
      </trkpt>
      <trkpt lat="43.41919" lon="5.55076">
        <ele>330</ele>
        <time>2015-01-16T09:16:07Z</time>
      </trkpt>
      <trkpt lat="43.41914" lon="5.55069">
        <ele>330</ele>
        <time>2015-01-16T09:16:09Z</time>
      </trkpt>
      <trkpt lat="43.41911" lon="5.55061">
        <ele>330</ele>
        <time>2015-01-16T09:16:11Z</time>
      </trkpt>
      <trkpt lat="43.41907" lon="5.55057">
        <ele>330</ele>
        <time>2015-01-16T09:16:13Z</time>
      </trkpt>
      <trkpt lat="43.41903" lon="5.55052">
        <ele>330</ele>
        <time>2015-01-16T09:16:15Z</time>
      </trkpt>
      <trkpt lat="43.41896" lon="5.55048">
        <ele>330</ele>
        <time>2015-01-16T09:16:17Z</time>
      </trkpt>
      <trkpt lat="43.41892" lon="5.55045">
        <ele>330</ele>
        <time>2015-01-16T09:16:19Z</time>
      </trkpt>
      <trkpt lat="43.41887" lon="5.55042">
        <ele>330</ele>
        <time>2015-01-16T09:16:21Z</time>
      </trkpt>
      <trkpt lat="43.41882" lon="5.55038">
        <ele>331</ele>
        <time>2015-01-16T09:16:23Z</time>
      </trkpt>
      <trkpt lat="43.41874" lon="5.55033">
        <ele>331</ele>
        <time>2015-01-16T09:16:25Z</time>
      </trkpt>
      <trkpt lat="43.41869" lon="5.55026">
        <ele>331</ele>
        <time>2015-01-16T09:16:27Z</time>
      </trkpt>
      <trkpt lat="43.41863" lon="5.55018">
        <ele>331</ele>
        <time>2015-01-16T09:16:29Z</time>
      </trkpt>
      <trkpt lat="43.41858" lon="5.55012">
        <ele>331</ele>
        <time>2015-01-16T09:16:31Z</time>
      </trkpt>
      <trkpt lat="43.41853" lon="5.55005">
        <ele>331</ele>
        <time>2015-01-16T09:16:33Z</time>
      </trkpt>
      <trkpt lat="43.4185" lon="5.54999">
        <ele>331</ele>
        <time>2015-01-16T09:16:35Z</time>
      </trkpt>
      <trkpt lat="43.41847" lon="5.54992">
        <ele>331</ele>
        <time>2015-01-16T09:16:37Z</time>
      </trkpt>
      <trkpt lat="43.41843" lon="5.54985">
        <ele>331</ele>
        <time>2015-01-16T09:16:40Z</time>
      </trkpt>
      <trkpt lat="43.4184" lon="5.5498">
        <ele>331</ele>
        <time>2015-01-16T09:16:47Z</time>
      </trkpt>
      <trkpt lat="43.41839" lon="5.54977">
        <ele>331</ele>
        <time>2015-01-16T09:17:16Z</time>
      </trkpt>
      <trkpt lat="43.41841" lon="5.54976">
        <ele>331</ele>
        <time>2015-01-16T09:17:46Z</time>
      </trkpt>
      <trkpt lat="43.41842" lon="5.54974">
        <ele>332</ele>
        <time>2015-01-16T09:18:00Z</time>
      </trkpt>
      <trkpt lat="43.41845" lon="5.54969">
        <ele>332</ele>
        <time>2015-01-16T09:18:15Z</time>
      </trkpt>
      <trkpt lat="43.41846" lon="5.54962">
        <ele>332</ele>
        <time>2015-01-16T09:18:21Z</time>
      </trkpt>
      <trkpt lat="43.41847" lon="5.54954">
        <ele>332</ele>
        <time>2015-01-16T09:18:24Z</time>
      </trkpt>
      <trkpt lat="43.41848" lon="5.54947">
        <ele>332</ele>
        <time>2015-01-16T09:18:27Z</time>
      </trkpt>
      <trkpt lat="43.41848" lon="5.54939">
        <ele>333</ele>
        <time>2015-01-16T09:18:30Z</time>
      </trkpt>
      <trkpt lat="43.4185" lon="5.54932">
        <ele>333</ele>
        <time>2015-01-16T09:18:34Z</time>
      </trkpt>
      <trkpt lat="43.41851" lon="5.54925">
        <ele>333</ele>
        <time>2015-01-16T09:18:37Z</time>
      </trkpt>
      <trkpt lat="43.41852" lon="5.54918">
        <ele>333</ele>
        <time>2015-01-16T09:18:39Z</time>
      </trkpt>
      <trkpt lat="43.41853" lon="5.54912">
        <ele>333</ele>
        <time>2015-01-16T09:18:42Z</time>
      </trkpt>
      <trkpt lat="43.41854" lon="5.54905">
        <ele>333</ele>
        <time>2015-01-16T09:18:44Z</time>
      </trkpt>
      <trkpt lat="43.41854" lon="5.54897">
        <ele>333</ele>
        <time>2015-01-16T09:18:46Z</time>
      </trkpt>
      <trkpt lat="43.41854" lon="5.54891">
        <ele>333</ele>
        <time>2015-01-16T09:18:48Z</time>
      </trkpt>
      <trkpt lat="43.41853" lon="5.54883">
        <ele>333</ele>
        <time>2015-01-16T09:18:51Z</time>
      </trkpt>
      <trkpt lat="43.41854" lon="5.54874">
        <ele>333</ele>
        <time>2015-01-16T09:18:54Z</time>
      </trkpt>
      <trkpt lat="43.41855" lon="5.54866">
        <ele>333</ele>
        <time>2015-01-16T09:18:57Z</time>
      </trkpt>
      <trkpt lat="43.41857" lon="5.54858">
        <ele>333</ele>
        <time>2015-01-16T09:19:00Z</time>
      </trkpt>
      <trkpt lat="43.41859" lon="5.5485">
        <ele>333</ele>
        <time>2015-01-16T09:19:02Z</time>
      </trkpt>
      <trkpt lat="43.4186" lon="5.54842">
        <ele>333</ele>
        <time>2015-01-16T09:19:04Z</time>
      </trkpt>
      <trkpt lat="43.4186" lon="5.54835">
        <ele>333</ele>
        <time>2015-01-16T09:19:06Z</time>
      </trkpt>
      <trkpt lat="43.41861" lon="5.54827">
        <ele>333</ele>
        <time>2015-01-16T09:19:08Z</time>
      </trkpt>
      <trkpt lat="43.41861" lon="5.54819">
        <ele>333</ele>
        <time>2015-01-16T09:19:10Z</time>
      </trkpt>
      <trkpt lat="43.41861" lon="5.54812">
        <ele>333</ele>
        <time>2015-01-16T09:19:12Z</time>
      </trkpt>
      <trkpt lat="43.41861" lon="5.54804">
        <ele>333</ele>
        <time>2015-01-16T09:19:14Z</time>
      </trkpt>
      <trkpt lat="43.41862" lon="5.54797">
        <ele>333</ele>
        <time>2015-01-16T09:19:16Z</time>
      </trkpt>
      <trkpt lat="43.41863" lon="5.54789">
        <ele>333</ele>
        <time>2015-01-16T09:19:18Z</time>
      </trkpt>
      <trkpt lat="43.41864" lon="5.54782">
        <ele>333</ele>
        <time>2015-01-16T09:19:20Z</time>
      </trkpt>
      <trkpt lat="43.41868" lon="5.54776">
        <ele>334</ele>
        <time>2015-01-16T09:19:23Z</time>
      </trkpt>
      <trkpt lat="43.41872" lon="5.54773">
        <ele>334</ele>
        <time>2015-01-16T09:19:26Z</time>
      </trkpt>
      <trkpt lat="43.41876" lon="5.54778">
        <ele>335</ele>
        <time>2015-01-16T09:19:31Z</time>
      </trkpt>
      <trkpt lat="43.41878" lon="5.54784">
        <ele>336</ele>
        <time>2015-01-16T09:19:36Z</time>
      </trkpt>
      <trkpt lat="43.41879" lon="5.54791">
        <ele>336</ele>
        <time>2015-01-16T09:19:41Z</time>
      </trkpt>
      <trkpt lat="43.41879" lon="5.54799">
        <ele>337</ele>
        <time>2015-01-16T09:19:50Z</time>
      </trkpt>
      <trkpt lat="43.41882" lon="5.54806">
        <ele>337</ele>
        <time>2015-01-16T09:19:53Z</time>
      </trkpt>
      <trkpt lat="43.41885" lon="5.54812">
        <ele>338</ele>
        <time>2015-01-16T09:19:56Z</time>
      </trkpt>
      <trkpt lat="43.41888" lon="5.5482">
        <ele>339</ele>
        <time>2015-01-16T09:20:01Z</time>
      </trkpt>
      <trkpt lat="43.41891" lon="5.54825">
        <ele>339</ele>
        <time>2015-01-16T09:20:04Z</time>
      </trkpt>
      <trkpt lat="43.41895" lon="5.54828">
        <ele>340</ele>
        <time>2015-01-16T09:20:14Z</time>
      </trkpt>
      <trkpt lat="43.419" lon="5.54826">
        <ele>339</ele>
        <time>2015-01-16T09:20:31Z</time>
      </trkpt>
      <trkpt lat="43.419" lon="5.54827">
        <ele>339</ele>
        <time>2015-01-16T09:20:32Z</time>
      </trkpt>
      <trkpt lat="43.41903" lon="5.54833">
        <ele>339</ele>
        <time>2015-01-16T09:20:35Z</time>
      </trkpt>
      <trkpt lat="43.41908" lon="5.5484">
        <ele>339</ele>
        <time>2015-01-16T09:20:38Z</time>
      </trkpt>
      <trkpt lat="43.41914" lon="5.54844">
        <ele>339</ele>
        <time>2015-01-16T09:20:41Z</time>
      </trkpt>
      <trkpt lat="43.41918" lon="5.54848">
        <ele>339</ele>
        <time>2015-01-16T09:20:43Z</time>
      </trkpt>
      <trkpt lat="43.41924" lon="5.54852">
        <ele>339</ele>
        <time>2015-01-16T09:20:45Z</time>
      </trkpt>
      <trkpt lat="43.4193" lon="5.54854">
        <ele>339</ele>
        <time>2015-01-16T09:20:47Z</time>
      </trkpt>
      <trkpt lat="43.41935" lon="5.54855">
        <ele>339</ele>
        <time>2015-01-16T09:20:49Z</time>
      </trkpt>
      <trkpt lat="43.41941" lon="5.54856">
        <ele>339</ele>
        <time>2015-01-16T09:20:51Z</time>
      </trkpt>
      <trkpt lat="43.41949" lon="5.54856">
        <ele>339</ele>
        <time>2015-01-16T09:20:53Z</time>
      </trkpt>
      <trkpt lat="43.41954" lon="5.54857">
        <ele>339</ele>
        <time>2015-01-16T09:20:55Z</time>
      </trkpt>
      <trkpt lat="43.4196" lon="5.54857">
        <ele>339</ele>
        <time>2015-01-16T09:20:57Z</time>
      </trkpt>
      <trkpt lat="43.41966" lon="5.54854">
        <ele>339</ele>
        <time>2015-01-16T09:20:59Z</time>
      </trkpt>
      <trkpt lat="43.41972" lon="5.54852">
        <ele>339</ele>
        <time>2015-01-16T09:21:01Z</time>
      </trkpt>
      <trkpt lat="43.41978" lon="5.54852">
        <ele>338</ele>
        <time>2015-01-16T09:21:03Z</time>
      </trkpt>
      <trkpt lat="43.41984" lon="5.54849">
        <ele>338</ele>
        <time>2015-01-16T09:21:05Z</time>
      </trkpt>
      <trkpt lat="43.41988" lon="5.54843">
        <ele>338</ele>
        <time>2015-01-16T09:21:07Z</time>
      </trkpt>
      <trkpt lat="43.41991" lon="5.54838">
        <ele>337</ele>
        <time>2015-01-16T09:21:09Z</time>
      </trkpt>
      <trkpt lat="43.41994" lon="5.54831">
        <ele>337</ele>
        <time>2015-01-16T09:21:11Z</time>
      </trkpt>
      <trkpt lat="43.41999" lon="5.54824">
        <ele>337</ele>
        <time>2015-01-16T09:21:13Z</time>
      </trkpt>
      <trkpt lat="43.42003" lon="5.54817">
        <ele>337</ele>
        <time>2015-01-16T09:21:15Z</time>
      </trkpt>
      <trkpt lat="43.42005" lon="5.54811">
        <ele>337</ele>
        <time>2015-01-16T09:21:17Z</time>
      </trkpt>
      <trkpt lat="43.42006" lon="5.54803">
        <ele>337</ele>
        <time>2015-01-16T09:21:19Z</time>
      </trkpt>
      <trkpt lat="43.42007" lon="5.54797">
        <ele>338</ele>
        <time>2015-01-16T09:21:21Z</time>
      </trkpt>
      <trkpt lat="43.42007" lon="5.5479">
        <ele>338</ele>
        <time>2015-01-16T09:21:23Z</time>
      </trkpt>
      <trkpt lat="43.42007" lon="5.54784">
        <ele>338</ele>
        <time>2015-01-16T09:21:25Z</time>
      </trkpt>
      <trkpt lat="43.42009" lon="5.54777">
        <ele>338</ele>
        <time>2015-01-16T09:21:27Z</time>
      </trkpt>
      <trkpt lat="43.42011" lon="5.54769">
        <ele>338</ele>
        <time>2015-01-16T09:21:29Z</time>
      </trkpt>
      <trkpt lat="43.42011" lon="5.54762">
        <ele>339</ele>
        <time>2015-01-16T09:21:30Z</time>
      </trkpt>
      <trkpt lat="43.4201" lon="5.54753">
        <ele>339</ele>
        <time>2015-01-16T09:21:32Z</time>
      </trkpt>
      <trkpt lat="43.42008" lon="5.54744">
        <ele>340</ele>
        <time>2015-01-16T09:21:34Z</time>
      </trkpt>
      <trkpt lat="43.42007" lon="5.54735">
        <ele>340</ele>
        <time>2015-01-16T09:21:36Z</time>
      </trkpt>
      <trkpt lat="43.42009" lon="5.54726">
        <ele>340</ele>
        <time>2015-01-16T09:21:38Z</time>
      </trkpt>
      <trkpt lat="43.42011" lon="5.5472">
        <ele>340</ele>
        <time>2015-01-16T09:21:40Z</time>
      </trkpt>
      <trkpt lat="43.42012" lon="5.54711">
        <ele>340</ele>
        <time>2015-01-16T09:21:43Z</time>
      </trkpt>
      <trkpt lat="43.42011" lon="5.54703">
        <ele>340</ele>
        <time>2015-01-16T09:21:45Z</time>
      </trkpt>
      <trkpt lat="43.42011" lon="5.54695">
        <ele>340</ele>
        <time>2015-01-16T09:21:47Z</time>
      </trkpt>
      <trkpt lat="43.42012" lon="5.54686">
        <ele>341</ele>
        <time>2015-01-16T09:21:49Z</time>
      </trkpt>
      <trkpt lat="43.42012" lon="5.54679">
        <ele>341</ele>
        <time>2015-01-16T09:21:51Z</time>
      </trkpt>
      <trkpt lat="43.42012" lon="5.5467">
        <ele>341</ele>
        <time>2015-01-16T09:21:55Z</time>
      </trkpt>
      <trkpt lat="43.42009" lon="5.54659">
        <ele>341</ele>
        <time>2015-01-16T09:21:57Z</time>
      </trkpt>
      <trkpt lat="43.42005" lon="5.54652">
        <ele>341</ele>
        <time>2015-01-16T09:21:59Z</time>
      </trkpt>
      <trkpt lat="43.41999" lon="5.54649">
        <ele>341</ele>
        <time>2015-01-16T09:22:02Z</time>
      </trkpt>
      <trkpt lat="43.41992" lon="5.54647">
        <ele>341</ele>
        <time>2015-01-16T09:22:05Z</time>
      </trkpt>
      <trkpt lat="43.41987" lon="5.54648">
        <ele>341</ele>
        <time>2015-01-16T09:22:07Z</time>
      </trkpt>
      <trkpt lat="43.41981" lon="5.54648">
        <ele>340</ele>
        <time>2015-01-16T09:22:10Z</time>
      </trkpt>
      <trkpt lat="43.41976" lon="5.5465">
        <ele>340</ele>
        <time>2015-01-16T09:22:13Z</time>
      </trkpt>
      <trkpt lat="43.4197" lon="5.54651">
        <ele>340</ele>
        <time>2015-01-16T09:22:16Z</time>
      </trkpt>
      <trkpt lat="43.41965" lon="5.54649">
        <ele>340</ele>
        <time>2015-01-16T09:22:19Z</time>
      </trkpt>
      <trkpt lat="43.41958" lon="5.54648">
        <ele>339</ele>
        <time>2015-01-16T09:22:22Z</time>
      </trkpt>
      <trkpt lat="43.41954" lon="5.54645">
        <ele>339</ele>
        <time>2015-01-16T09:22:24Z</time>
      </trkpt>
      <trkpt lat="43.4195" lon="5.54641">
        <ele>339</ele>
        <time>2015-01-16T09:22:26Z</time>
      </trkpt>
      <trkpt lat="43.41943" lon="5.5464">
        <ele>339</ele>
        <time>2015-01-16T09:22:29Z</time>
      </trkpt>
      <trkpt lat="43.41937" lon="5.5464">
        <ele>340</ele>
        <time>2015-01-16T09:22:32Z</time>
      </trkpt>
      <trkpt lat="43.4193" lon="5.54643">
        <ele>340</ele>
        <time>2015-01-16T09:22:35Z</time>
      </trkpt>
      <trkpt lat="43.41925" lon="5.54647">
        <ele>340</ele>
        <time>2015-01-16T09:22:37Z</time>
      </trkpt>
      <trkpt lat="43.41919" lon="5.5465">
        <ele>340</ele>
        <time>2015-01-16T09:22:40Z</time>
      </trkpt>
      <trkpt lat="43.41911" lon="5.54652">
        <ele>339</ele>
        <time>2015-01-16T09:22:44Z</time>
      </trkpt>
      <trkpt lat="43.41904" lon="5.54655">
        <ele>339</ele>
        <time>2015-01-16T09:22:46Z</time>
      </trkpt>
      <trkpt lat="43.41899" lon="5.54656">
        <ele>339</ele>
        <time>2015-01-16T09:22:47Z</time>
      </trkpt>
      <trkpt lat="43.41892" lon="5.54661">
        <ele>339</ele>
        <time>2015-01-16T09:22:49Z</time>
      </trkpt>
      <trkpt lat="43.41884" lon="5.54667">
        <ele>340</ele>
        <time>2015-01-16T09:22:51Z</time>
      </trkpt>
      <trkpt lat="43.41879" lon="5.54674">
        <ele>340</ele>
        <time>2015-01-16T09:22:53Z</time>
      </trkpt>
      <trkpt lat="43.41873" lon="5.54681">
        <ele>340</ele>
        <time>2015-01-16T09:22:55Z</time>
      </trkpt>
      <trkpt lat="43.41869" lon="5.54685">
        <ele>340</ele>
        <time>2015-01-16T09:22:56Z</time>
      </trkpt>
      <trkpt lat="43.41865" lon="5.54689">
        <ele>341</ele>
        <time>2015-01-16T09:22:57Z</time>
      </trkpt>
      <trkpt lat="43.41858" lon="5.54697">
        <ele>342</ele>
        <time>2015-01-16T09:22:59Z</time>
      </trkpt>
      <trkpt lat="43.41854" lon="5.547">
        <ele>343</ele>
        <time>2015-01-16T09:23:00Z</time>
      </trkpt>
      <trkpt lat="43.4185" lon="5.54703">
        <ele>344</ele>
        <time>2015-01-16T09:23:01Z</time>
      </trkpt>
      <trkpt lat="43.41846" lon="5.54706">
        <ele>344</ele>
        <time>2015-01-16T09:23:02Z</time>
      </trkpt>
      <trkpt lat="43.41842" lon="5.5471">
        <ele>343</ele>
        <time>2015-01-16T09:23:03Z</time>
      </trkpt>
      <trkpt lat="43.41837" lon="5.54718">
        <ele>343</ele>
        <time>2015-01-16T09:23:05Z</time>
      </trkpt>
      <trkpt lat="43.41834" lon="5.54723">
        <ele>343</ele>
        <time>2015-01-16T09:23:06Z</time>
      </trkpt>
      <trkpt lat="43.41829" lon="5.54727">
        <ele>343</ele>
        <time>2015-01-16T09:23:08Z</time>
      </trkpt>
      <trkpt lat="43.41823" lon="5.54732">
        <ele>343</ele>
        <time>2015-01-16T09:23:10Z</time>
      </trkpt>
      <trkpt lat="43.41818" lon="5.54738">
        <ele>343</ele>
        <time>2015-01-16T09:23:12Z</time>
      </trkpt>
      <trkpt lat="43.41812" lon="5.54745">
        <ele>343</ele>
        <time>2015-01-16T09:23:14Z</time>
      </trkpt>
      <trkpt lat="43.41805" lon="5.54749">
        <ele>343</ele>
        <time>2015-01-16T09:23:16Z</time>
      </trkpt>
      <trkpt lat="43.418" lon="5.54751">
        <ele>343</ele>
        <time>2015-01-16T09:23:18Z</time>
      </trkpt>
      <trkpt lat="43.41794" lon="5.54752">
        <ele>343</ele>
        <time>2015-01-16T09:23:20Z</time>
      </trkpt>
      <trkpt lat="43.41787" lon="5.54752">
        <ele>343</ele>
        <time>2015-01-16T09:23:22Z</time>
      </trkpt>
      <trkpt lat="43.41777" lon="5.54752">
        <ele>343</ele>
        <time>2015-01-16T09:23:24Z</time>
      </trkpt>
      <trkpt lat="43.4177" lon="5.54752">
        <ele>343</ele>
        <time>2015-01-16T09:23:26Z</time>
      </trkpt>
      <trkpt lat="43.41765" lon="5.54752">
        <ele>343</ele>
        <time>2015-01-16T09:23:28Z</time>
      </trkpt>
      <trkpt lat="43.4176" lon="5.54753">
        <ele>343</ele>
        <time>2015-01-16T09:23:30Z</time>
      </trkpt>
      <trkpt lat="43.41754" lon="5.54752">
        <ele>343</ele>
        <time>2015-01-16T09:23:32Z</time>
      </trkpt>
      <trkpt lat="43.41746" lon="5.54755">
        <ele>344</ele>
        <time>2015-01-16T09:23:34Z</time>
      </trkpt>
      <trkpt lat="43.41737" lon="5.54757">
        <ele>344</ele>
        <time>2015-01-16T09:23:36Z</time>
      </trkpt>
      <trkpt lat="43.41733" lon="5.54757">
        <ele>344</ele>
        <time>2015-01-16T09:23:37Z</time>
      </trkpt>
      <trkpt lat="43.41728" lon="5.54758">
        <ele>344</ele>
        <time>2015-01-16T09:23:38Z</time>
      </trkpt>
      <trkpt lat="43.41723" lon="5.54759">
        <ele>344</ele>
        <time>2015-01-16T09:23:39Z</time>
      </trkpt>
      <trkpt lat="43.41717" lon="5.54761">
        <ele>345</ele>
        <time>2015-01-16T09:23:40Z</time>
      </trkpt>
      <trkpt lat="43.41712" lon="5.54762">
        <ele>345</ele>
        <time>2015-01-16T09:23:41Z</time>
      </trkpt>
      <trkpt lat="43.41707" lon="5.54763">
        <ele>345</ele>
        <time>2015-01-16T09:23:42Z</time>
      </trkpt>
      <trkpt lat="43.41702" lon="5.54765">
        <ele>345</ele>
        <time>2015-01-16T09:23:43Z</time>
      </trkpt>
      <trkpt lat="43.41694" lon="5.54766">
        <ele>345</ele>
        <time>2015-01-16T09:23:45Z</time>
      </trkpt>
      <trkpt lat="43.41686" lon="5.54769">
        <ele>345</ele>
        <time>2015-01-16T09:23:47Z</time>
      </trkpt>
      <trkpt lat="43.41681" lon="5.54769">
        <ele>345</ele>
        <time>2015-01-16T09:23:49Z</time>
      </trkpt>
      <trkpt lat="43.41674" lon="5.54767">
        <ele>345</ele>
        <time>2015-01-16T09:23:51Z</time>
      </trkpt>
      <trkpt lat="43.41667" lon="5.54766">
        <ele>344</ele>
        <time>2015-01-16T09:23:53Z</time>
      </trkpt>
      <trkpt lat="43.41659" lon="5.54766">
        <ele>343</ele>
        <time>2015-01-16T09:23:55Z</time>
      </trkpt>
      <trkpt lat="43.4165" lon="5.54764">
        <ele>344</ele>
        <time>2015-01-16T09:23:57Z</time>
      </trkpt>
      <trkpt lat="43.41644" lon="5.54763">
        <ele>344</ele>
        <time>2015-01-16T09:23:59Z</time>
      </trkpt>
      <trkpt lat="43.41638" lon="5.54764">
        <ele>344</ele>
        <time>2015-01-16T09:24:01Z</time>
      </trkpt>
      <trkpt lat="43.41631" lon="5.54764">
        <ele>344</ele>
        <time>2015-01-16T09:24:03Z</time>
      </trkpt>
      <trkpt lat="43.41624" lon="5.54765">
        <ele>344</ele>
        <time>2015-01-16T09:24:05Z</time>
      </trkpt>
      <trkpt lat="43.41618" lon="5.54767">
        <ele>345</ele>
        <time>2015-01-16T09:24:07Z</time>
      </trkpt>
      <trkpt lat="43.41611" lon="5.54769">
        <ele>344</ele>
        <time>2015-01-16T09:24:09Z</time>
      </trkpt>
      <trkpt lat="43.41602" lon="5.54772">
        <ele>345</ele>
        <time>2015-01-16T09:24:11Z</time>
      </trkpt>
      <trkpt lat="43.41594" lon="5.54777">
        <ele>345</ele>
        <time>2015-01-16T09:24:13Z</time>
      </trkpt>
      <trkpt lat="43.41589" lon="5.54779">
        <ele>345</ele>
        <time>2015-01-16T09:24:14Z</time>
      </trkpt>
      <trkpt lat="43.41584" lon="5.54782">
        <ele>345</ele>
        <time>2015-01-16T09:24:15Z</time>
      </trkpt>
      <trkpt lat="43.41579" lon="5.54786">
        <ele>345</ele>
        <time>2015-01-16T09:24:16Z</time>
      </trkpt>
      <trkpt lat="43.41572" lon="5.54794">
        <ele>345</ele>
        <time>2015-01-16T09:24:18Z</time>
      </trkpt>
      <trkpt lat="43.41571" lon="5.54801">
        <ele>345</ele>
        <time>2015-01-16T09:24:19Z</time>
      </trkpt>
      <trkpt lat="43.41571" lon="5.54808">
        <ele>345</ele>
        <time>2015-01-16T09:24:20Z</time>
      </trkpt>
      <trkpt lat="43.41573" lon="5.54814">
        <ele>345</ele>
        <time>2015-01-16T09:24:21Z</time>
      </trkpt>
      <trkpt lat="43.41576" lon="5.5482">
        <ele>345</ele>
        <time>2015-01-16T09:24:22Z</time>
      </trkpt>
      <trkpt lat="43.41581" lon="5.54828">
        <ele>345</ele>
        <time>2015-01-16T09:24:24Z</time>
      </trkpt>
      <trkpt lat="43.41586" lon="5.54835">
        <ele>345</ele>
        <time>2015-01-16T09:24:26Z</time>
      </trkpt>
      <trkpt lat="43.41589" lon="5.54841">
        <ele>345</ele>
        <time>2015-01-16T09:24:28Z</time>
      </trkpt>
      <trkpt lat="43.41592" lon="5.5485">
        <ele>345</ele>
        <time>2015-01-16T09:24:30Z</time>
      </trkpt>
      <trkpt lat="43.41595" lon="5.54857">
        <ele>345</ele>
        <time>2015-01-16T09:24:32Z</time>
      </trkpt>
      <trkpt lat="43.41599" lon="5.54864">
        <ele>345</ele>
        <time>2015-01-16T09:24:34Z</time>
      </trkpt>
      <trkpt lat="43.41603" lon="5.5487">
        <ele>344</ele>
        <time>2015-01-16T09:24:36Z</time>
      </trkpt>
      <trkpt lat="43.41606" lon="5.54876">
        <ele>344</ele>
        <time>2015-01-16T09:24:38Z</time>
      </trkpt>
      <trkpt lat="43.41609" lon="5.54885">
        <ele>344</ele>
        <time>2015-01-16T09:24:40Z</time>
      </trkpt>
      <trkpt lat="43.41612" lon="5.54891">
        <ele>344</ele>
        <time>2015-01-16T09:24:42Z</time>
      </trkpt>
      <trkpt lat="43.41616" lon="5.54897">
        <ele>343</ele>
        <time>2015-01-16T09:24:44Z</time>
      </trkpt>
      <trkpt lat="43.41621" lon="5.54902">
        <ele>343</ele>
        <time>2015-01-16T09:24:46Z</time>
      </trkpt>
      <trkpt lat="43.41626" lon="5.54908">
        <ele>343</ele>
        <time>2015-01-16T09:24:48Z</time>
      </trkpt>
      <trkpt lat="43.41632" lon="5.54915">
        <ele>343</ele>
        <time>2015-01-16T09:24:50Z</time>
      </trkpt>
      <trkpt lat="43.41636" lon="5.54919">
        <ele>342</ele>
        <time>2015-01-16T09:24:51Z</time>
      </trkpt>
      <trkpt lat="43.41641" lon="5.54924">
        <ele>342</ele>
        <time>2015-01-16T09:24:53Z</time>
      </trkpt>
      <trkpt lat="43.4165" lon="5.54929">
        <ele>341</ele>
        <time>2015-01-16T09:24:55Z</time>
      </trkpt>
      <trkpt lat="43.41658" lon="5.54932">
        <ele>341</ele>
        <time>2015-01-16T09:24:57Z</time>
      </trkpt>
      <trkpt lat="43.41662" lon="5.54934">
        <ele>340</ele>
        <time>2015-01-16T09:24:58Z</time>
      </trkpt>
      <trkpt lat="43.41667" lon="5.54934">
        <ele>340</ele>
        <time>2015-01-16T09:24:59Z</time>
      </trkpt>
      <trkpt lat="43.41671" lon="5.54935">
        <ele>339</ele>
        <time>2015-01-16T09:25:00Z</time>
      </trkpt>
      <trkpt lat="43.41677" lon="5.54935">
        <ele>338</ele>
        <time>2015-01-16T09:25:01Z</time>
      </trkpt>
      <trkpt lat="43.41684" lon="5.54934">
        <ele>336</ele>
        <time>2015-01-16T09:25:03Z</time>
      </trkpt>
      <trkpt lat="43.41693" lon="5.54933">
        <ele>335</ele>
        <time>2015-01-16T09:25:05Z</time>
      </trkpt>
      <trkpt lat="43.417" lon="5.54931">
        <ele>334</ele>
        <time>2015-01-16T09:25:07Z</time>
      </trkpt>
      <trkpt lat="43.41709" lon="5.5493">
        <ele>334</ele>
        <time>2015-01-16T09:25:09Z</time>
      </trkpt>
      <trkpt lat="43.41714" lon="5.5493">
        <ele>334</ele>
        <time>2015-01-16T09:25:10Z</time>
      </trkpt>
      <trkpt lat="43.41718" lon="5.54929">
        <ele>334</ele>
        <time>2015-01-16T09:25:11Z</time>
      </trkpt>
      <trkpt lat="43.41723" lon="5.54928">
        <ele>334</ele>
        <time>2015-01-16T09:25:12Z</time>
      </trkpt>
      <trkpt lat="43.41728" lon="5.54928">
        <ele>334</ele>
        <time>2015-01-16T09:25:13Z</time>
      </trkpt>
      <trkpt lat="43.41737" lon="5.5493">
        <ele>333</ele>
        <time>2015-01-16T09:25:15Z</time>
      </trkpt>
      <trkpt lat="43.41741" lon="5.54932">
        <ele>333</ele>
        <time>2015-01-16T09:25:16Z</time>
      </trkpt>
      <trkpt lat="43.41748" lon="5.54938">
        <ele>333</ele>
        <time>2015-01-16T09:25:18Z</time>
      </trkpt>
      <trkpt lat="43.41752" lon="5.54943">
        <ele>333</ele>
        <time>2015-01-16T09:25:19Z</time>
      </trkpt>
      <trkpt lat="43.41756" lon="5.54946">
        <ele>333</ele>
        <time>2015-01-16T09:25:20Z</time>
      </trkpt>
      <trkpt lat="43.41761" lon="5.5495">
        <ele>333</ele>
        <time>2015-01-16T09:25:21Z</time>
      </trkpt>
      <trkpt lat="43.41766" lon="5.54952">
        <ele>333</ele>
        <time>2015-01-16T09:25:22Z</time>
      </trkpt>
      <trkpt lat="43.41771" lon="5.54954">
        <ele>333</ele>
        <time>2015-01-16T09:25:23Z</time>
      </trkpt>
      <trkpt lat="43.41776" lon="5.54956">
        <ele>333</ele>
        <time>2015-01-16T09:25:24Z</time>
      </trkpt>
      <trkpt lat="43.4178" lon="5.54959">
        <ele>333</ele>
        <time>2015-01-16T09:25:25Z</time>
      </trkpt>
      <trkpt lat="43.41785" lon="5.54962">
        <ele>334</ele>
        <time>2015-01-16T09:25:26Z</time>
      </trkpt>
      <trkpt lat="43.41789" lon="5.54966">
        <ele>335</ele>
        <time>2015-01-16T09:25:27Z</time>
      </trkpt>
      <trkpt lat="43.41792" lon="5.54972">
        <ele>335</ele>
        <time>2015-01-16T09:25:28Z</time>
      </trkpt>
      <trkpt lat="43.41795" lon="5.54978">
        <ele>334</ele>
        <time>2015-01-16T09:25:29Z</time>
      </trkpt>
      <trkpt lat="43.41798" lon="5.54984">
        <ele>334</ele>
        <time>2015-01-16T09:25:30Z</time>
      </trkpt>
      <trkpt lat="43.41801" lon="5.5499">
        <ele>334</ele>
        <time>2015-01-16T09:25:31Z</time>
      </trkpt>
      <trkpt lat="43.41805" lon="5.54996">
        <ele>335</ele>
        <time>2015-01-16T09:25:32Z</time>
      </trkpt>
      <trkpt lat="43.41808" lon="5.55002">
        <ele>335</ele>
        <time>2015-01-16T09:25:33Z</time>
      </trkpt>
      <trkpt lat="43.41811" lon="5.55009">
        <ele>334</ele>
        <time>2015-01-16T09:25:34Z</time>
      </trkpt>
      <trkpt lat="43.41813" lon="5.55016">
        <ele>334</ele>
        <time>2015-01-16T09:25:35Z</time>
      </trkpt>
      <trkpt lat="43.41815" lon="5.55024">
        <ele>334</ele>
        <time>2015-01-16T09:25:36Z</time>
      </trkpt>
      <trkpt lat="43.41818" lon="5.55031">
        <ele>333</ele>
        <time>2015-01-16T09:25:37Z</time>
      </trkpt>
      <trkpt lat="43.41821" lon="5.55038">
        <ele>334</ele>
        <time>2015-01-16T09:25:38Z</time>
      </trkpt>
      <trkpt lat="43.41825" lon="5.55045">
        <ele>335</ele>
        <time>2015-01-16T09:25:39Z</time>
      </trkpt>
      <trkpt lat="43.41828" lon="5.55051">
        <ele>336</ele>
        <time>2015-01-16T09:25:40Z</time>
      </trkpt>
      <trkpt lat="43.41832" lon="5.55057">
        <ele>336</ele>
        <time>2015-01-16T09:25:41Z</time>
      </trkpt>
      <trkpt lat="43.41837" lon="5.55062">
        <ele>336</ele>
        <time>2015-01-16T09:25:42Z</time>
      </trkpt>
      <trkpt lat="43.41841" lon="5.55067">
        <ele>337</ele>
        <time>2015-01-16T09:25:43Z</time>
      </trkpt>
      <trkpt lat="43.41844" lon="5.55072">
        <ele>336</ele>
        <time>2015-01-16T09:25:44Z</time>
      </trkpt>
      <trkpt lat="43.41851" lon="5.5508">
        <ele>336</ele>
        <time>2015-01-16T09:25:46Z</time>
      </trkpt>
      <trkpt lat="43.41855" lon="5.55085">
        <ele>336</ele>
        <time>2015-01-16T09:25:47Z</time>
      </trkpt>
      <trkpt lat="43.41858" lon="5.55091">
        <ele>335</ele>
        <time>2015-01-16T09:25:48Z</time>
      </trkpt>
      <trkpt lat="43.41861" lon="5.55097">
        <ele>334</ele>
        <time>2015-01-16T09:25:49Z</time>
      </trkpt>
      <trkpt lat="43.41864" lon="5.55101">
        <ele>334</ele>
        <time>2015-01-16T09:25:50Z</time>
      </trkpt>
      <trkpt lat="43.41867" lon="5.55106">
        <ele>333</ele>
        <time>2015-01-16T09:25:51Z</time>
      </trkpt>
      <trkpt lat="43.4187" lon="5.5511">
        <ele>333</ele>
        <time>2015-01-16T09:25:52Z</time>
      </trkpt>
      <trkpt lat="43.41874" lon="5.55115">
        <ele>334</ele>
        <time>2015-01-16T09:25:53Z</time>
      </trkpt>
      <trkpt lat="43.41877" lon="5.5512">
        <ele>334</ele>
        <time>2015-01-16T09:25:54Z</time>
      </trkpt>
      <trkpt lat="43.41881" lon="5.55123">
        <ele>334</ele>
        <time>2015-01-16T09:25:55Z</time>
      </trkpt>
      <trkpt lat="43.41887" lon="5.55127">
        <ele>334</ele>
        <time>2015-01-16T09:25:56Z</time>
      </trkpt>
      <trkpt lat="43.41892" lon="5.55131">
        <ele>334</ele>
        <time>2015-01-16T09:25:57Z</time>
      </trkpt>
      <trkpt lat="43.41898" lon="5.55134">
        <ele>334</ele>
        <time>2015-01-16T09:25:58Z</time>
      </trkpt>
      <trkpt lat="43.41903" lon="5.55135">
        <ele>335</ele>
        <time>2015-01-16T09:25:59Z</time>
      </trkpt>
      <trkpt lat="43.41909" lon="5.55137">
        <ele>335</ele>
        <time>2015-01-16T09:26:00Z</time>
      </trkpt>
      <trkpt lat="43.41913" lon="5.5514">
        <ele>335</ele>
        <time>2015-01-16T09:26:01Z</time>
      </trkpt>
      <trkpt lat="43.41919" lon="5.55143">
        <ele>335</ele>
        <time>2015-01-16T09:26:02Z</time>
      </trkpt>
      <trkpt lat="43.41925" lon="5.55147">
        <ele>335</ele>
        <time>2015-01-16T09:26:03Z</time>
      </trkpt>
      <trkpt lat="43.41932" lon="5.5515">
        <ele>336</ele>
        <time>2015-01-16T09:26:04Z</time>
      </trkpt>
      <trkpt lat="43.41939" lon="5.55155">
        <ele>335</ele>
        <time>2015-01-16T09:26:05Z</time>
      </trkpt>
      <trkpt lat="43.41945" lon="5.5516">
        <ele>334</ele>
        <time>2015-01-16T09:26:06Z</time>
      </trkpt>
      <trkpt lat="43.41953" lon="5.55165">
        <ele>334</ele>
        <time>2015-01-16T09:26:07Z</time>
      </trkpt>
      <trkpt lat="43.41959" lon="5.55171">
        <ele>333</ele>
        <time>2015-01-16T09:26:08Z</time>
      </trkpt>
      <trkpt lat="43.41964" lon="5.55176">
        <ele>333</ele>
        <time>2015-01-16T09:26:09Z</time>
      </trkpt>
      <trkpt lat="43.41969" lon="5.5518">
        <ele>332</ele>
        <time>2015-01-16T09:26:10Z</time>
      </trkpt>
      <trkpt lat="43.41972" lon="5.55187">
        <ele>331</ele>
        <time>2015-01-16T09:26:11Z</time>
      </trkpt>
      <trkpt lat="43.41976" lon="5.55195">
        <ele>330</ele>
        <time>2015-01-16T09:26:12Z</time>
      </trkpt>
      <trkpt lat="43.4198" lon="5.55202">
        <ele>330</ele>
        <time>2015-01-16T09:26:13Z</time>
      </trkpt>
      <trkpt lat="43.41986" lon="5.55208">
        <ele>329</ele>
        <time>2015-01-16T09:26:14Z</time>
      </trkpt>
      <trkpt lat="43.41991" lon="5.55213">
        <ele>329</ele>
        <time>2015-01-16T09:26:15Z</time>
      </trkpt>
      <trkpt lat="43.41997" lon="5.55216">
        <ele>329</ele>
        <time>2015-01-16T09:26:16Z</time>
      </trkpt>
      <trkpt lat="43.42003" lon="5.55219">
        <ele>329</ele>
        <time>2015-01-16T09:26:17Z</time>
      </trkpt>
      <trkpt lat="43.42008" lon="5.55221">
        <ele>329</ele>
        <time>2015-01-16T09:26:18Z</time>
      </trkpt>
      <trkpt lat="43.42012" lon="5.55223">
        <ele>329</ele>
        <time>2015-01-16T09:26:19Z</time>
      </trkpt>
      <trkpt lat="43.42018" lon="5.55226">
        <ele>328</ele>
        <time>2015-01-16T09:26:20Z</time>
      </trkpt>
      <trkpt lat="43.42025" lon="5.5523">
        <ele>327</ele>
        <time>2015-01-16T09:26:22Z</time>
      </trkpt>
      <trkpt lat="43.4203" lon="5.55233">
        <ele>327</ele>
        <time>2015-01-16T09:26:24Z</time>
      </trkpt>
      <trkpt lat="43.42035" lon="5.55234">
        <ele>327</ele>
        <time>2015-01-16T09:26:25Z</time>
      </trkpt>
      <trkpt lat="43.42039" lon="5.55236">
        <ele>327</ele>
        <time>2015-01-16T09:26:26Z</time>
      </trkpt>
      <trkpt lat="43.42046" lon="5.55239">
        <ele>328</ele>
        <time>2015-01-16T09:26:28Z</time>
      </trkpt>
      <trkpt lat="43.42051" lon="5.55241">
        <ele>328</ele>
        <time>2015-01-16T09:26:29Z</time>
      </trkpt>
      <trkpt lat="43.42058" lon="5.55242">
        <ele>327</ele>
        <time>2015-01-16T09:26:31Z</time>
      </trkpt>
      <trkpt lat="43.42063" lon="5.55242">
        <ele>327</ele>
        <time>2015-01-16T09:26:32Z</time>
      </trkpt>
      <trkpt lat="43.42068" lon="5.55242">
        <ele>327</ele>
        <time>2015-01-16T09:26:33Z</time>
      </trkpt>
      <trkpt lat="43.42073" lon="5.55242">
        <ele>327</ele>
        <time>2015-01-16T09:26:34Z</time>
      </trkpt>
      <trkpt lat="43.42078" lon="5.55242">
        <ele>327</ele>
        <time>2015-01-16T09:26:35Z</time>
      </trkpt>
      <trkpt lat="43.42083" lon="5.55241">
        <ele>327</ele>
        <time>2015-01-16T09:26:36Z</time>
      </trkpt>
      <trkpt lat="43.42088" lon="5.55241">
        <ele>327</ele>
        <time>2015-01-16T09:26:37Z</time>
      </trkpt>
      <trkpt lat="43.42092" lon="5.55243">
        <ele>327</ele>
        <time>2015-01-16T09:26:38Z</time>
      </trkpt>
      <trkpt lat="43.421" lon="5.55247">
        <ele>327</ele>
        <time>2015-01-16T09:26:40Z</time>
      </trkpt>
      <trkpt lat="43.42104" lon="5.5525">
        <ele>327</ele>
        <time>2015-01-16T09:26:41Z</time>
      </trkpt>
      <trkpt lat="43.42108" lon="5.55252">
        <ele>327</ele>
        <time>2015-01-16T09:26:42Z</time>
      </trkpt>
      <trkpt lat="43.42113" lon="5.55254">
        <ele>327</ele>
        <time>2015-01-16T09:26:43Z</time>
      </trkpt>
      <trkpt lat="43.42117" lon="5.55258">
        <ele>327</ele>
        <time>2015-01-16T09:26:44Z</time>
      </trkpt>
      <trkpt lat="43.42121" lon="5.55261">
        <ele>327</ele>
        <time>2015-01-16T09:26:45Z</time>
      </trkpt>
      <trkpt lat="43.42125" lon="5.55265">
        <ele>328</ele>
        <time>2015-01-16T09:26:46Z</time>
      </trkpt>
      <trkpt lat="43.4213" lon="5.55274">
        <ele>328</ele>
        <time>2015-01-16T09:26:48Z</time>
      </trkpt>
      <trkpt lat="43.42134" lon="5.5528">
        <ele>329</ele>
        <time>2015-01-16T09:26:49Z</time>
      </trkpt>
      <trkpt lat="43.42137" lon="5.55286">
        <ele>329</ele>
        <time>2015-01-16T09:26:50Z</time>
      </trkpt>
      <trkpt lat="43.42139" lon="5.55292">
        <ele>330</ele>
        <time>2015-01-16T09:26:51Z</time>
      </trkpt>
      <trkpt lat="43.42143" lon="5.55298">
        <ele>330</ele>
        <time>2015-01-16T09:26:52Z</time>
      </trkpt>
      <trkpt lat="43.42146" lon="5.55304">
        <ele>331</ele>
        <time>2015-01-16T09:26:53Z</time>
      </trkpt>
      <trkpt lat="43.42149" lon="5.5531">
        <ele>331</ele>
        <time>2015-01-16T09:26:54Z</time>
      </trkpt>
      <trkpt lat="43.42152" lon="5.55317">
        <ele>332</ele>
        <time>2015-01-16T09:26:55Z</time>
      </trkpt>
      <trkpt lat="43.42156" lon="5.55323">
        <ele>333</ele>
        <time>2015-01-16T09:26:56Z</time>
      </trkpt>
      <trkpt lat="43.42159" lon="5.55329">
        <ele>333</ele>
        <time>2015-01-16T09:26:57Z</time>
      </trkpt>
      <trkpt lat="43.42164" lon="5.5534">
        <ele>334</ele>
        <time>2015-01-16T09:26:59Z</time>
      </trkpt>
      <trkpt lat="43.42167" lon="5.55346">
        <ele>334</ele>
        <time>2015-01-16T09:27:00Z</time>
      </trkpt>
      <trkpt lat="43.4217" lon="5.55351">
        <ele>334</ele>
        <time>2015-01-16T09:27:01Z</time>
      </trkpt>
      <trkpt lat="43.42173" lon="5.55356">
        <ele>333</ele>
        <time>2015-01-16T09:27:02Z</time>
      </trkpt>
      <trkpt lat="43.42175" lon="5.55362">
        <ele>333</ele>
        <time>2015-01-16T09:27:03Z</time>
      </trkpt>
      <trkpt lat="43.42178" lon="5.55368">
        <ele>333</ele>
        <time>2015-01-16T09:27:04Z</time>
      </trkpt>
      <trkpt lat="43.42181" lon="5.55378">
        <ele>332</ele>
        <time>2015-01-16T09:27:06Z</time>
      </trkpt>
      <trkpt lat="43.42183" lon="5.55388">
        <ele>332</ele>
        <time>2015-01-16T09:27:08Z</time>
      </trkpt>
      <trkpt lat="43.42186" lon="5.55395">
        <ele>332</ele>
        <time>2015-01-16T09:27:10Z</time>
      </trkpt>
      <trkpt lat="43.42188" lon="5.55399">
        <ele>332</ele>
        <time>2015-01-16T09:27:31Z</time>
      </trkpt>
      <trkpt lat="43.42188" lon="5.55399">
        <ele>332</ele>
        <time>2015-01-16T09:27:46Z</time>
      </trkpt>
      <trkpt lat="43.42187" lon="5.55406">
        <ele>332</ele>
        <time>2015-01-16T09:27:52Z</time>
      </trkpt>
      <trkpt lat="43.42189" lon="5.55413">
        <ele>332</ele>
        <time>2015-01-16T09:27:58Z</time>
      </trkpt>
      <trkpt lat="43.42193" lon="5.5542">
        <ele>331</ele>
        <time>2015-01-16T09:28:02Z</time>
      </trkpt>
      <trkpt lat="43.42199" lon="5.55424">
        <ele>331</ele>
        <time>2015-01-16T09:28:05Z</time>
      </trkpt>
      <trkpt lat="43.42207" lon="5.55427">
        <ele>331</ele>
        <time>2015-01-16T09:28:07Z</time>
      </trkpt>
      <trkpt lat="43.42213" lon="5.55429">
        <ele>331</ele>
        <time>2015-01-16T09:28:09Z</time>
      </trkpt>
      <trkpt lat="43.42218" lon="5.55433">
        <ele>331</ele>
        <time>2015-01-16T09:28:11Z</time>
      </trkpt>
      <trkpt lat="43.42223" lon="5.55433">
        <ele>331</ele>
        <time>2015-01-16T09:28:14Z</time>
      </trkpt>
      <trkpt lat="43.42231" lon="5.55432">
        <ele>331</ele>
        <time>2015-01-16T09:28:17Z</time>
      </trkpt>
      <trkpt lat="43.42237" lon="5.55431">
        <ele>331</ele>
        <time>2015-01-16T09:28:19Z</time>
      </trkpt>
      <trkpt lat="43.42244" lon="5.55423">
        <ele>330</ele>
        <time>2015-01-16T09:28:21Z</time>
      </trkpt>
      <trkpt lat="43.4225" lon="5.55418">
        <ele>331</ele>
        <time>2015-01-16T09:28:24Z</time>
      </trkpt>
      <trkpt lat="43.42254" lon="5.55414">
        <ele>331</ele>
        <time>2015-01-16T09:28:26Z</time>
      </trkpt>
      <trkpt lat="43.42258" lon="5.55411">
        <ele>331</ele>
        <time>2015-01-16T09:28:28Z</time>
      </trkpt>
      <trkpt lat="43.42264" lon="5.55411">
        <ele>330</ele>
        <time>2015-01-16T09:28:31Z</time>
      </trkpt>
      <trkpt lat="43.42269" lon="5.55412">
        <ele>330</ele>
        <time>2015-01-16T09:28:35Z</time>
      </trkpt>
      <trkpt lat="43.42276" lon="5.55413">
        <ele>330</ele>
        <time>2015-01-16T09:28:38Z</time>
      </trkpt>
      <trkpt lat="43.42281" lon="5.55412">
        <ele>330</ele>
        <time>2015-01-16T09:28:40Z</time>
      </trkpt>
      <trkpt lat="43.42286" lon="5.55407">
        <ele>330</ele>
        <time>2015-01-16T09:28:43Z</time>
      </trkpt>
      <trkpt lat="43.42291" lon="5.55403">
        <ele>330</ele>
        <time>2015-01-16T09:28:47Z</time>
      </trkpt>
      <trkpt lat="43.42296" lon="5.55402">
        <ele>329</ele>
        <time>2015-01-16T09:28:49Z</time>
      </trkpt>
      <trkpt lat="43.42301" lon="5.554">
        <ele>329</ele>
        <time>2015-01-16T09:28:51Z</time>
      </trkpt>
      <trkpt lat="43.42306" lon="5.55399">
        <ele>329</ele>
        <time>2015-01-16T09:28:53Z</time>
      </trkpt>
      <trkpt lat="43.42312" lon="5.55398">
        <ele>329</ele>
        <time>2015-01-16T09:28:55Z</time>
      </trkpt>
      <trkpt lat="43.42316" lon="5.55397">
        <ele>328</ele>
        <time>2015-01-16T09:28:56Z</time>
      </trkpt>
      <trkpt lat="43.42321" lon="5.55396">
        <ele>327</ele>
        <time>2015-01-16T09:28:57Z</time>
      </trkpt>
      <trkpt lat="43.4233" lon="5.55394">
        <ele>326</ele>
        <time>2015-01-16T09:28:59Z</time>
      </trkpt>
      <trkpt lat="43.42335" lon="5.55393">
        <ele>325</ele>
        <time>2015-01-16T09:29:00Z</time>
      </trkpt>
      <trkpt lat="43.42341" lon="5.55391">
        <ele>325</ele>
        <time>2015-01-16T09:29:01Z</time>
      </trkpt>
      <trkpt lat="43.42346" lon="5.5539">
        <ele>324</ele>
        <time>2015-01-16T09:29:02Z</time>
      </trkpt>
      <trkpt lat="43.42353" lon="5.55388">
        <ele>323</ele>
        <time>2015-01-16T09:29:04Z</time>
      </trkpt>
      <trkpt lat="43.42358" lon="5.55387">
        <ele>322</ele>
        <time>2015-01-16T09:29:05Z</time>
      </trkpt>
      <trkpt lat="43.42362" lon="5.55386">
        <ele>321</ele>
        <time>2015-01-16T09:29:06Z</time>
      </trkpt>
      <trkpt lat="43.42369" lon="5.55381">
        <ele>321</ele>
        <time>2015-01-16T09:29:08Z</time>
      </trkpt>
      <trkpt lat="43.42373" lon="5.55378">
        <ele>320</ele>
        <time>2015-01-16T09:29:09Z</time>
      </trkpt>
      <trkpt lat="43.42377" lon="5.55374">
        <ele>320</ele>
        <time>2015-01-16T09:29:10Z</time>
      </trkpt>
      <trkpt lat="43.42383" lon="5.55367">
        <ele>320</ele>
        <time>2015-01-16T09:29:12Z</time>
      </trkpt>
      <trkpt lat="43.4239" lon="5.55363">
        <ele>320</ele>
        <time>2015-01-16T09:29:14Z</time>
      </trkpt>
      <trkpt lat="43.42394" lon="5.55366">
        <ele>320</ele>
        <time>2015-01-16T09:29:18Z</time>
      </trkpt>
      <trkpt lat="43.42394" lon="5.55373">
        <ele>319</ele>
        <time>2015-01-16T09:29:22Z</time>
      </trkpt>
      <trkpt lat="43.42391" lon="5.5538">
        <ele>319</ele>
        <time>2015-01-16T09:29:25Z</time>
      </trkpt>
      <trkpt lat="43.42389" lon="5.55387">
        <ele>319</ele>
        <time>2015-01-16T09:29:28Z</time>
      </trkpt>
      <trkpt lat="43.42384" lon="5.55395">
        <ele>318</ele>
        <time>2015-01-16T09:29:31Z</time>
      </trkpt>
      <trkpt lat="43.42379" lon="5.55401">
        <ele>318</ele>
        <time>2015-01-16T09:29:33Z</time>
      </trkpt>
      <trkpt lat="43.42375" lon="5.55408">
        <ele>318</ele>
        <time>2015-01-16T09:29:35Z</time>
      </trkpt>
      <trkpt lat="43.42371" lon="5.55413">
        <ele>318</ele>
        <time>2015-01-16T09:29:37Z</time>
      </trkpt>
      <trkpt lat="43.42366" lon="5.55416">
        <ele>318</ele>
        <time>2015-01-16T09:29:39Z</time>
      </trkpt>
      <trkpt lat="43.42362" lon="5.55419">
        <ele>318</ele>
        <time>2015-01-16T09:29:41Z</time>
      </trkpt>
      <trkpt lat="43.42356" lon="5.55424">
        <ele>318</ele>
        <time>2015-01-16T09:29:43Z</time>
      </trkpt>
      <trkpt lat="43.4235" lon="5.55424">
        <ele>318</ele>
        <time>2015-01-16T09:29:45Z</time>
      </trkpt>
      <trkpt lat="43.42344" lon="5.55426">
        <ele>318</ele>
        <time>2015-01-16T09:29:48Z</time>
      </trkpt>
      <trkpt lat="43.42339" lon="5.55425">
        <ele>318</ele>
        <time>2015-01-16T09:29:50Z</time>
      </trkpt>
      <trkpt lat="43.42333" lon="5.55425">
        <ele>318</ele>
        <time>2015-01-16T09:29:52Z</time>
      </trkpt>
      <trkpt lat="43.42329" lon="5.55426">
        <ele>319</ele>
        <time>2015-01-16T09:29:54Z</time>
      </trkpt>
      <trkpt lat="43.42324" lon="5.5543">
        <ele>319</ele>
        <time>2015-01-16T09:29:56Z</time>
      </trkpt>
      <trkpt lat="43.4232" lon="5.55434">
        <ele>319</ele>
        <time>2015-01-16T09:29:58Z</time>
      </trkpt>
      <trkpt lat="43.42315" lon="5.55436">
        <ele>319</ele>
        <time>2015-01-16T09:30:00Z</time>
      </trkpt>
      <trkpt lat="43.4231" lon="5.5544">
        <ele>319</ele>
        <time>2015-01-16T09:30:03Z</time>
      </trkpt>
      <trkpt lat="43.42308" lon="5.55446">
        <ele>320</ele>
        <time>2015-01-16T09:30:05Z</time>
      </trkpt>
      <trkpt lat="43.42305" lon="5.55452">
        <ele>320</ele>
        <time>2015-01-16T09:30:07Z</time>
      </trkpt>
      <trkpt lat="43.42302" lon="5.55457">
        <ele>320</ele>
        <time>2015-01-16T09:30:09Z</time>
      </trkpt>
      <trkpt lat="43.423" lon="5.55464">
        <ele>320</ele>
        <time>2015-01-16T09:30:11Z</time>
      </trkpt>
      <trkpt lat="43.42297" lon="5.5547">
        <ele>320</ele>
        <time>2015-01-16T09:30:13Z</time>
      </trkpt>
      <trkpt lat="43.42293" lon="5.55475">
        <ele>320</ele>
        <time>2015-01-16T09:30:16Z</time>
      </trkpt>
      <trkpt lat="43.42291" lon="5.55481">
        <ele>320</ele>
        <time>2015-01-16T09:30:19Z</time>
      </trkpt>
      <trkpt lat="43.42291" lon="5.55487">
        <ele>320</ele>
        <time>2015-01-16T09:30:22Z</time>
      </trkpt>
      <trkpt lat="43.42286" lon="5.55492">
        <ele>320</ele>
        <time>2015-01-16T09:30:25Z</time>
      </trkpt>
      <trkpt lat="43.42281" lon="5.55497">
        <ele>321</ele>
        <time>2015-01-16T09:30:28Z</time>
      </trkpt>
      <trkpt lat="43.42276" lon="5.55503">
        <ele>321</ele>
        <time>2015-01-16T09:30:31Z</time>
      </trkpt>
      <trkpt lat="43.42271" lon="5.55506">
        <ele>321</ele>
        <time>2015-01-16T09:30:33Z</time>
      </trkpt>
      <trkpt lat="43.42267" lon="5.55506">
        <ele>321</ele>
        <time>2015-01-16T09:30:35Z</time>
      </trkpt>
      <trkpt lat="43.42262" lon="5.5551">
        <ele>321</ele>
        <time>2015-01-16T09:30:37Z</time>
      </trkpt>
      <trkpt lat="43.42257" lon="5.55511">
        <ele>321</ele>
        <time>2015-01-16T09:30:40Z</time>
      </trkpt>
      <trkpt lat="43.42251" lon="5.5551">
        <ele>321</ele>
        <time>2015-01-16T09:30:43Z</time>
      </trkpt>
      <trkpt lat="43.42245" lon="5.55509">
        <ele>321</ele>
        <time>2015-01-16T09:30:46Z</time>
      </trkpt>
      <trkpt lat="43.4224" lon="5.55511">
        <ele>321</ele>
        <time>2015-01-16T09:30:48Z</time>
      </trkpt>
      <trkpt lat="43.42236" lon="5.55517">
        <ele>321</ele>
        <time>2015-01-16T09:30:50Z</time>
      </trkpt>
      <trkpt lat="43.4223" lon="5.5552">
        <ele>322</ele>
        <time>2015-01-16T09:30:54Z</time>
      </trkpt>
      <trkpt lat="43.42225" lon="5.55522">
        <ele>322</ele>
        <time>2015-01-16T09:30:56Z</time>
      </trkpt>
      <trkpt lat="43.4222" lon="5.55523">
        <ele>322</ele>
        <time>2015-01-16T09:30:59Z</time>
      </trkpt>
      <trkpt lat="43.42215" lon="5.55522">
        <ele>323</ele>
        <time>2015-01-16T09:31:02Z</time>
      </trkpt>
      <trkpt lat="43.42209" lon="5.55522">
        <ele>323</ele>
        <time>2015-01-16T09:31:05Z</time>
      </trkpt>
      <trkpt lat="43.42204" lon="5.55522">
        <ele>323</ele>
        <time>2015-01-16T09:31:08Z</time>
      </trkpt>
      <trkpt lat="43.42197" lon="5.55524">
        <ele>324</ele>
        <time>2015-01-16T09:31:11Z</time>
      </trkpt>
      <trkpt lat="43.42191" lon="5.55525">
        <ele>324</ele>
        <time>2015-01-16T09:31:13Z</time>
      </trkpt>
      <trkpt lat="43.42185" lon="5.55524">
        <ele>324</ele>
        <time>2015-01-16T09:31:16Z</time>
      </trkpt>
      <trkpt lat="43.4218" lon="5.5552">
        <ele>324</ele>
        <time>2015-01-16T09:31:20Z</time>
      </trkpt>
      <trkpt lat="43.42174" lon="5.55515">
        <ele>324</ele>
        <time>2015-01-16T09:31:24Z</time>
      </trkpt>
      <trkpt lat="43.4217" lon="5.5551">
        <ele>325</ele>
        <time>2015-01-16T09:31:26Z</time>
      </trkpt>
      <trkpt lat="43.42168" lon="5.55504">
        <ele>325</ele>
        <time>2015-01-16T09:31:29Z</time>
      </trkpt>
      <trkpt lat="43.42167" lon="5.55496">
        <ele>325</ele>
        <time>2015-01-16T09:31:32Z</time>
      </trkpt>
      <trkpt lat="43.42165" lon="5.55489">
        <ele>326</ele>
        <time>2015-01-16T09:31:36Z</time>
      </trkpt>
      <trkpt lat="43.42165" lon="5.55481">
        <ele>326</ele>
        <time>2015-01-16T09:31:39Z</time>
      </trkpt>
      <trkpt lat="43.42164" lon="5.55475">
        <ele>326</ele>
        <time>2015-01-16T09:31:41Z</time>
      </trkpt>
      <trkpt lat="43.42163" lon="5.55468">
        <ele>326</ele>
        <time>2015-01-16T09:31:43Z</time>
      </trkpt>
      <trkpt lat="43.42163" lon="5.55461">
        <ele>326</ele>
        <time>2015-01-16T09:31:45Z</time>
      </trkpt>
      <trkpt lat="43.42164" lon="5.55454">
        <ele>326</ele>
        <time>2015-01-16T09:31:47Z</time>
      </trkpt>
      <trkpt lat="43.42164" lon="5.55445">
        <ele>326</ele>
        <time>2015-01-16T09:31:49Z</time>
      </trkpt>
      <trkpt lat="43.42164" lon="5.55438">
        <ele>327</ele>
        <time>2015-01-16T09:31:51Z</time>
      </trkpt>
      <trkpt lat="43.42162" lon="5.5543">
        <ele>327</ele>
        <time>2015-01-16T09:31:53Z</time>
      </trkpt>
      <trkpt lat="43.42159" lon="5.55424">
        <ele>326</ele>
        <time>2015-01-16T09:31:56Z</time>
      </trkpt>
      <trkpt lat="43.42155" lon="5.55421">
        <ele>326</ele>
        <time>2015-01-16T09:32:00Z</time>
      </trkpt>
      <trkpt lat="43.42151" lon="5.55424">
        <ele>326</ele>
        <time>2015-01-16T09:32:07Z</time>
      </trkpt>
      <trkpt lat="43.42153" lon="5.55417">
        <ele>326</ele>
        <time>2015-01-16T09:32:30Z</time>
      </trkpt>
      <trkpt lat="43.42149" lon="5.55412">
        <ele>327</ele>
        <time>2015-01-16T09:32:43Z</time>
      </trkpt>
      <trkpt lat="43.42145" lon="5.55411">
        <ele>326</ele>
        <time>2015-01-16T09:32:48Z</time>
      </trkpt>
      <trkpt lat="43.42139" lon="5.55416">
        <ele>326</ele>
        <time>2015-01-16T09:32:50Z</time>
      </trkpt>
      <trkpt lat="43.42134" lon="5.5542">
        <ele>326</ele>
        <time>2015-01-16T09:32:52Z</time>
      </trkpt>
      <trkpt lat="43.4213" lon="5.55426">
        <ele>326</ele>
        <time>2015-01-16T09:32:55Z</time>
      </trkpt>
      <trkpt lat="43.42127" lon="5.55433">
        <ele>326</ele>
        <time>2015-01-16T09:33:01Z</time>
      </trkpt>
      <trkpt lat="43.42124" lon="5.5544">
        <ele>326</ele>
        <time>2015-01-16T09:33:04Z</time>
      </trkpt>
      <trkpt lat="43.42122" lon="5.55447">
        <ele>327</ele>
        <time>2015-01-16T09:33:08Z</time>
      </trkpt>
      <trkpt lat="43.42119" lon="5.55455">
        <ele>327</ele>
        <time>2015-01-16T09:33:11Z</time>
      </trkpt>
      <trkpt lat="43.42117" lon="5.55463">
        <ele>328</ele>
        <time>2015-01-16T09:33:14Z</time>
      </trkpt>
      <trkpt lat="43.42115" lon="5.55471">
        <ele>329</ele>
        <time>2015-01-16T09:33:17Z</time>
      </trkpt>
      <trkpt lat="43.42114" lon="5.55477">
        <ele>329</ele>
        <time>2015-01-16T09:33:20Z</time>
      </trkpt>
      <trkpt lat="43.42114" lon="5.55485">
        <ele>330</ele>
        <time>2015-01-16T09:33:22Z</time>
      </trkpt>
      <trkpt lat="43.42112" lon="5.5549">
        <ele>330</ele>
        <time>2015-01-16T09:33:25Z</time>
      </trkpt>
      <trkpt lat="43.42109" lon="5.55497">
        <ele>331</ele>
        <time>2015-01-16T09:33:28Z</time>
      </trkpt>
      <trkpt lat="43.42106" lon="5.55505">
        <ele>331</ele>
        <time>2015-01-16T09:33:31Z</time>
      </trkpt>
      <trkpt lat="43.42106" lon="5.55512">
        <ele>332</ele>
        <time>2015-01-16T09:33:34Z</time>
      </trkpt>
      <trkpt lat="43.42106" lon="5.55519">
        <ele>333</ele>
        <time>2015-01-16T09:33:37Z</time>
      </trkpt>
      <trkpt lat="43.42104" lon="5.55527">
        <ele>333</ele>
        <time>2015-01-16T09:33:40Z</time>
      </trkpt>
      <trkpt lat="43.42104" lon="5.55534">
        <ele>334</ele>
        <time>2015-01-16T09:33:43Z</time>
      </trkpt>
      <trkpt lat="43.42105" lon="5.55541">
        <ele>334</ele>
        <time>2015-01-16T09:33:46Z</time>
      </trkpt>
      <trkpt lat="43.42104" lon="5.55548">
        <ele>335</ele>
        <time>2015-01-16T09:33:49Z</time>
      </trkpt>
      <trkpt lat="43.42105" lon="5.55555">
        <ele>335</ele>
        <time>2015-01-16T09:33:52Z</time>
      </trkpt>
      <trkpt lat="43.42106" lon="5.55561">
        <ele>336</ele>
        <time>2015-01-16T09:33:56Z</time>
      </trkpt>
      <trkpt lat="43.42103" lon="5.55567">
        <ele>336</ele>
        <time>2015-01-16T09:34:01Z</time>
      </trkpt>
      <trkpt lat="43.42101" lon="5.55572">
        <ele>337</ele>
        <time>2015-01-16T09:34:05Z</time>
      </trkpt>
      <trkpt lat="43.42098" lon="5.55578">
        <ele>337</ele>
        <time>2015-01-16T09:34:08Z</time>
      </trkpt>
      <trkpt lat="43.42097" lon="5.55584">
        <ele>338</ele>
        <time>2015-01-16T09:34:11Z</time>
      </trkpt>
      <trkpt lat="43.42093" lon="5.55589">
        <ele>338</ele>
        <time>2015-01-16T09:34:14Z</time>
      </trkpt>
      <trkpt lat="43.4209" lon="5.55593">
        <ele>340</ele>
        <time>2015-01-16T09:34:24Z</time>
      </trkpt>
      <trkpt lat="43.42092" lon="5.55598">
        <ele>341</ele>
        <time>2015-01-16T09:34:30Z</time>
      </trkpt>
      <trkpt lat="43.42096" lon="5.55599">
        <ele>343</ele>
        <time>2015-01-16T09:34:47Z</time>
      </trkpt>
      <trkpt lat="43.42088" lon="5.556">
        <ele>344</ele>
        <time>2015-01-16T09:35:17Z</time>
      </trkpt>
      <trkpt lat="43.42088" lon="5.55606">
        <ele>346</ele>
        <time>2015-01-16T09:35:47Z</time>
      </trkpt>
      <trkpt lat="43.42092" lon="5.55612">
        <ele>346</ele>
        <time>2015-01-16T09:35:51Z</time>
      </trkpt>
      <trkpt lat="43.42095" lon="5.55616">
        <ele>346</ele>
        <time>2015-01-16T09:35:53Z</time>
      </trkpt>
      <trkpt lat="43.421" lon="5.55621">
        <ele>346</ele>
        <time>2015-01-16T09:35:56Z</time>
      </trkpt>
      <trkpt lat="43.42105" lon="5.55624">
        <ele>346</ele>
        <time>2015-01-16T09:35:58Z</time>
      </trkpt>
      <trkpt lat="43.4211" lon="5.55628">
        <ele>347</ele>
        <time>2015-01-16T09:36:01Z</time>
      </trkpt>
      <trkpt lat="43.42116" lon="5.55631">
        <ele>347</ele>
        <time>2015-01-16T09:36:04Z</time>
      </trkpt>
      <trkpt lat="43.4212" lon="5.55631">
        <ele>348</ele>
        <time>2015-01-16T09:36:07Z</time>
      </trkpt>
      <trkpt lat="43.42125" lon="5.55635">
        <ele>349</ele>
        <time>2015-01-16T09:36:13Z</time>
      </trkpt>
      <trkpt lat="43.42129" lon="5.55638">
        <ele>349</ele>
        <time>2015-01-16T09:36:16Z</time>
      </trkpt>
      <trkpt lat="43.42135" lon="5.55641">
        <ele>349</ele>
        <time>2015-01-16T09:36:19Z</time>
      </trkpt>
      <trkpt lat="43.42141" lon="5.55646">
        <ele>350</ele>
        <time>2015-01-16T09:36:22Z</time>
      </trkpt>
      <trkpt lat="43.42143" lon="5.55652">
        <ele>350</ele>
        <time>2015-01-16T09:36:26Z</time>
      </trkpt>
      <trkpt lat="43.42144" lon="5.55661">
        <ele>350</ele>
        <time>2015-01-16T09:36:30Z</time>
      </trkpt>
      <trkpt lat="43.42139" lon="5.55666">
        <ele>351</ele>
        <time>2015-01-16T09:36:36Z</time>
      </trkpt>
      <trkpt lat="43.42138" lon="5.55673">
        <ele>351</ele>
        <time>2015-01-16T09:36:39Z</time>
      </trkpt>
      <trkpt lat="43.42136" lon="5.55679">
        <ele>352</ele>
        <time>2015-01-16T09:36:42Z</time>
      </trkpt>
      <trkpt lat="43.42133" lon="5.55684">
        <ele>353</ele>
        <time>2015-01-16T09:36:45Z</time>
      </trkpt>
      <trkpt lat="43.42131" lon="5.55691">
        <ele>353</ele>
        <time>2015-01-16T09:36:48Z</time>
      </trkpt>
      <trkpt lat="43.42128" lon="5.55698">
        <ele>353</ele>
        <time>2015-01-16T09:36:51Z</time>
      </trkpt>
      <trkpt lat="43.42126" lon="5.55703">
        <ele>353</ele>
        <time>2015-01-16T09:36:55Z</time>
      </trkpt>
      <trkpt lat="43.42122" lon="5.55707">
        <ele>354</ele>
        <time>2015-01-16T09:37:00Z</time>
      </trkpt>
      <trkpt lat="43.42119" lon="5.55713">
        <ele>354</ele>
        <time>2015-01-16T09:37:04Z</time>
      </trkpt>
      <trkpt lat="43.42115" lon="5.55718">
        <ele>354</ele>
        <time>2015-01-16T09:37:07Z</time>
      </trkpt>
      <trkpt lat="43.42112" lon="5.55722">
        <ele>354</ele>
        <time>2015-01-16T09:37:10Z</time>
      </trkpt>
      <trkpt lat="43.42107" lon="5.55725">
        <ele>354</ele>
        <time>2015-01-16T09:37:14Z</time>
      </trkpt>
      <trkpt lat="43.42103" lon="5.55727">
        <ele>354</ele>
        <time>2015-01-16T09:37:18Z</time>
      </trkpt>
      <trkpt lat="43.42098" lon="5.5573">
        <ele>354</ele>
        <time>2015-01-16T09:37:22Z</time>
      </trkpt>
      <trkpt lat="43.42093" lon="5.55732">
        <ele>354</ele>
        <time>2015-01-16T09:37:25Z</time>
      </trkpt>
      <trkpt lat="43.42088" lon="5.55734">
        <ele>354</ele>
        <time>2015-01-16T09:37:28Z</time>
      </trkpt>
      <trkpt lat="43.42082" lon="5.55738">
        <ele>355</ele>
        <time>2015-01-16T09:37:31Z</time>
      </trkpt>
      <trkpt lat="43.42078" lon="5.5574">
        <ele>355</ele>
        <time>2015-01-16T09:37:33Z</time>
      </trkpt>
      <trkpt lat="43.42073" lon="5.55745">
        <ele>356</ele>
        <time>2015-01-16T09:37:37Z</time>
      </trkpt>
      <trkpt lat="43.4207" lon="5.5575">
        <ele>356</ele>
        <time>2015-01-16T09:37:40Z</time>
      </trkpt>
      <trkpt lat="43.42065" lon="5.55753">
        <ele>357</ele>
        <time>2015-01-16T09:37:43Z</time>
      </trkpt>
      <trkpt lat="43.42061" lon="5.55756">
        <ele>358</ele>
        <time>2015-01-16T09:37:46Z</time>
      </trkpt>
      <trkpt lat="43.42055" lon="5.55755">
        <ele>358</ele>
        <time>2015-01-16T09:37:49Z</time>
      </trkpt>
      <trkpt lat="43.42051" lon="5.55751">
        <ele>359</ele>
        <time>2015-01-16T09:37:54Z</time>
      </trkpt>
      <trkpt lat="43.42048" lon="5.55746">
        <ele>360</ele>
        <time>2015-01-16T09:37:57Z</time>
      </trkpt>
      <trkpt lat="43.42041" lon="5.55745">
        <ele>360</ele>
        <time>2015-01-16T09:38:00Z</time>
      </trkpt>
      <trkpt lat="43.42037" lon="5.55747">
        <ele>361</ele>
        <time>2015-01-16T09:38:02Z</time>
      </trkpt>
      <trkpt lat="43.42031" lon="5.55752">
        <ele>361</ele>
        <time>2015-01-16T09:38:05Z</time>
      </trkpt>
      <trkpt lat="43.42026" lon="5.55754">
        <ele>362</ele>
        <time>2015-01-16T09:38:07Z</time>
      </trkpt>
      <trkpt lat="43.42021" lon="5.55754">
        <ele>362</ele>
        <time>2015-01-16T09:38:09Z</time>
      </trkpt>
      <trkpt lat="43.42014" lon="5.55755">
        <ele>362</ele>
        <time>2015-01-16T09:38:12Z</time>
      </trkpt>
      <trkpt lat="43.42009" lon="5.55755">
        <ele>362</ele>
        <time>2015-01-16T09:38:14Z</time>
      </trkpt>
      <trkpt lat="43.42004" lon="5.55755">
        <ele>363</ele>
        <time>2015-01-16T09:38:17Z</time>
      </trkpt>
      <trkpt lat="43.41999" lon="5.55753">
        <ele>363</ele>
        <time>2015-01-16T09:38:20Z</time>
      </trkpt>
      <trkpt lat="43.41993" lon="5.55751">
        <ele>363</ele>
        <time>2015-01-16T09:38:23Z</time>
      </trkpt>
      <trkpt lat="43.41988" lon="5.55752">
        <ele>362</ele>
        <time>2015-01-16T09:38:25Z</time>
      </trkpt>
      <trkpt lat="43.41984" lon="5.55755">
        <ele>362</ele>
        <time>2015-01-16T09:38:27Z</time>
      </trkpt>
      <trkpt lat="43.41978" lon="5.55758">
        <ele>362</ele>
        <time>2015-01-16T09:38:30Z</time>
      </trkpt>
      <trkpt lat="43.41974" lon="5.55762">
        <ele>362</ele>
        <time>2015-01-16T09:38:32Z</time>
      </trkpt>
      <trkpt lat="43.41969" lon="5.55766">
        <ele>362</ele>
        <time>2015-01-16T09:38:34Z</time>
      </trkpt>
      <trkpt lat="43.41964" lon="5.55771">
        <ele>363</ele>
        <time>2015-01-16T09:38:36Z</time>
      </trkpt>
      <trkpt lat="43.41958" lon="5.55774">
        <ele>363</ele>
        <time>2015-01-16T09:38:38Z</time>
      </trkpt>
      <trkpt lat="43.41953" lon="5.55782">
        <ele>363</ele>
        <time>2015-01-16T09:38:40Z</time>
      </trkpt>
      <trkpt lat="43.41948" lon="5.55788">
        <ele>363</ele>
        <time>2015-01-16T09:38:42Z</time>
      </trkpt>
      <trkpt lat="43.41944" lon="5.55796">
        <ele>363</ele>
        <time>2015-01-16T09:38:44Z</time>
      </trkpt>
      <trkpt lat="43.4194" lon="5.55803">
        <ele>364</ele>
        <time>2015-01-16T09:38:46Z</time>
      </trkpt>
      <trkpt lat="43.41937" lon="5.55811">
        <ele>364</ele>
        <time>2015-01-16T09:38:48Z</time>
      </trkpt>
      <trkpt lat="43.41933" lon="5.55817">
        <ele>365</ele>
        <time>2015-01-16T09:38:50Z</time>
      </trkpt>
      <trkpt lat="43.4193" lon="5.55822">
        <ele>365</ele>
        <time>2015-01-16T09:38:52Z</time>
      </trkpt>
      <trkpt lat="43.41928" lon="5.5583">
        <ele>365</ele>
        <time>2015-01-16T09:38:55Z</time>
      </trkpt>
      <trkpt lat="43.41924" lon="5.55836">
        <ele>366</ele>
        <time>2015-01-16T09:38:58Z</time>
      </trkpt>
      <trkpt lat="43.4192" lon="5.55841">
        <ele>366</ele>
        <time>2015-01-16T09:39:00Z</time>
      </trkpt>
      <trkpt lat="43.41915" lon="5.55847">
        <ele>366</ele>
        <time>2015-01-16T09:39:02Z</time>
      </trkpt>
      <trkpt lat="43.41909" lon="5.55853">
        <ele>367</ele>
        <time>2015-01-16T09:39:04Z</time>
      </trkpt>
      <trkpt lat="43.41904" lon="5.55859">
        <ele>367</ele>
        <time>2015-01-16T09:39:06Z</time>
      </trkpt>
      <trkpt lat="43.41901" lon="5.55865">
        <ele>367</ele>
        <time>2015-01-16T09:39:08Z</time>
      </trkpt>
      <trkpt lat="43.41898" lon="5.55872">
        <ele>367</ele>
        <time>2015-01-16T09:39:10Z</time>
      </trkpt>
      <trkpt lat="43.41894" lon="5.55878">
        <ele>367</ele>
        <time>2015-01-16T09:39:12Z</time>
      </trkpt>
      <trkpt lat="43.4189" lon="5.55884">
        <ele>367</ele>
        <time>2015-01-16T09:39:14Z</time>
      </trkpt>
      <trkpt lat="43.41886" lon="5.55892">
        <ele>368</ele>
        <time>2015-01-16T09:39:16Z</time>
      </trkpt>
      <trkpt lat="43.41883" lon="5.559">
        <ele>368</ele>
        <time>2015-01-16T09:39:18Z</time>
      </trkpt>
      <trkpt lat="43.41879" lon="5.55906">
        <ele>368</ele>
        <time>2015-01-16T09:39:20Z</time>
      </trkpt>
      <trkpt lat="43.41876" lon="5.55913">
        <ele>369</ele>
        <time>2015-01-16T09:39:22Z</time>
      </trkpt>
      <trkpt lat="43.41873" lon="5.55918">
        <ele>369</ele>
        <time>2015-01-16T09:39:24Z</time>
      </trkpt>
      <trkpt lat="43.41869" lon="5.55924">
        <ele>369</ele>
        <time>2015-01-16T09:39:26Z</time>
      </trkpt>
      <trkpt lat="43.41864" lon="5.55931">
        <ele>369</ele>
        <time>2015-01-16T09:39:28Z</time>
      </trkpt>
      <trkpt lat="43.4186" lon="5.55938">
        <ele>369</ele>
        <time>2015-01-16T09:39:30Z</time>
      </trkpt>
      <trkpt lat="43.41856" lon="5.55945">
        <ele>369</ele>
        <time>2015-01-16T09:39:32Z</time>
      </trkpt>
      <trkpt lat="43.41852" lon="5.55952">
        <ele>369</ele>
        <time>2015-01-16T09:39:35Z</time>
      </trkpt>
      <trkpt lat="43.4185" lon="5.55959">
        <ele>369</ele>
        <time>2015-01-16T09:39:37Z</time>
      </trkpt>
      <trkpt lat="43.41847" lon="5.55968">
        <ele>369</ele>
        <time>2015-01-16T09:39:39Z</time>
      </trkpt>
      <trkpt lat="43.41844" lon="5.55976">
        <ele>369</ele>
        <time>2015-01-16T09:39:41Z</time>
      </trkpt>
      <trkpt lat="43.41841" lon="5.55983">
        <ele>369</ele>
        <time>2015-01-16T09:39:43Z</time>
      </trkpt>
      <trkpt lat="43.41839" lon="5.5599">
        <ele>369</ele>
        <time>2015-01-16T09:39:45Z</time>
      </trkpt>
      <trkpt lat="43.41835" lon="5.55998">
        <ele>369</ele>
        <time>2015-01-16T09:39:47Z</time>
      </trkpt>
      <trkpt lat="43.41832" lon="5.56002">
        <ele>369</ele>
        <time>2015-01-16T09:39:49Z</time>
      </trkpt>
      <trkpt lat="43.41827" lon="5.56005">
        <ele>369</ele>
        <time>2015-01-16T09:39:51Z</time>
      </trkpt>
      <trkpt lat="43.41822" lon="5.56009">
        <ele>369</ele>
        <time>2015-01-16T09:39:53Z</time>
      </trkpt>
      <trkpt lat="43.41818" lon="5.56013">
        <ele>369</ele>
        <time>2015-01-16T09:39:55Z</time>
      </trkpt>
      <trkpt lat="43.41814" lon="5.56019">
        <ele>369</ele>
        <time>2015-01-16T09:39:57Z</time>
      </trkpt>
      <trkpt lat="43.4181" lon="5.56025">
        <ele>369</ele>
        <time>2015-01-16T09:39:59Z</time>
      </trkpt>
      <trkpt lat="43.41807" lon="5.56032">
        <ele>369</ele>
        <time>2015-01-16T09:40:01Z</time>
      </trkpt>
      <trkpt lat="43.41803" lon="5.5604">
        <ele>369</ele>
        <time>2015-01-16T09:40:03Z</time>
      </trkpt>
      <trkpt lat="43.418" lon="5.56047">
        <ele>370</ele>
        <time>2015-01-16T09:40:05Z</time>
      </trkpt>
      <trkpt lat="43.41797" lon="5.56055">
        <ele>370</ele>
        <time>2015-01-16T09:40:07Z</time>
      </trkpt>
      <trkpt lat="43.41794" lon="5.56065">
        <ele>373</ele>
        <time>2015-01-16T09:40:09Z</time>
      </trkpt>
      <trkpt lat="43.41792" lon="5.56077">
        <ele>377</ele>
        <time>2015-01-16T09:40:11Z</time>
      </trkpt>
      <trkpt lat="43.41791" lon="5.56087">
        <ele>377</ele>
        <time>2015-01-16T09:40:13Z</time>
      </trkpt>
      <trkpt lat="43.4179" lon="5.56097">
        <ele>377</ele>
        <time>2015-01-16T09:40:15Z</time>
      </trkpt>
      <trkpt lat="43.41788" lon="5.56105">
        <ele>377</ele>
        <time>2015-01-16T09:40:17Z</time>
      </trkpt>
      <trkpt lat="43.41787" lon="5.56112">
        <ele>377</ele>
        <time>2015-01-16T09:40:19Z</time>
      </trkpt>
      <trkpt lat="43.41785" lon="5.56119">
        <ele>377</ele>
        <time>2015-01-16T09:40:21Z</time>
      </trkpt>
      <trkpt lat="43.41784" lon="5.56126">
        <ele>376</ele>
        <time>2015-01-16T09:40:23Z</time>
      </trkpt>
      <trkpt lat="43.41781" lon="5.56132">
        <ele>376</ele>
        <time>2015-01-16T09:40:25Z</time>
      </trkpt>
      <trkpt lat="43.41779" lon="5.5614">
        <ele>376</ele>
        <time>2015-01-16T09:40:27Z</time>
      </trkpt>
      <trkpt lat="43.41777" lon="5.56147">
        <ele>376</ele>
        <time>2015-01-16T09:40:29Z</time>
      </trkpt>
      <trkpt lat="43.41776" lon="5.56156">
        <ele>375</ele>
        <time>2015-01-16T09:40:31Z</time>
      </trkpt>
      <trkpt lat="43.41775" lon="5.56164">
        <ele>375</ele>
        <time>2015-01-16T09:40:33Z</time>
      </trkpt>
      <trkpt lat="43.41774" lon="5.56172">
        <ele>375</ele>
        <time>2015-01-16T09:40:35Z</time>
      </trkpt>
      <trkpt lat="43.41774" lon="5.56179">
        <ele>375</ele>
        <time>2015-01-16T09:40:37Z</time>
      </trkpt>
      <trkpt lat="43.41773" lon="5.56186">
        <ele>375</ele>
        <time>2015-01-16T09:40:39Z</time>
      </trkpt>
      <trkpt lat="43.41771" lon="5.56195">
        <ele>375</ele>
        <time>2015-01-16T09:40:41Z</time>
      </trkpt>
      <trkpt lat="43.4177" lon="5.56205">
        <ele>375</ele>
        <time>2015-01-16T09:40:43Z</time>
      </trkpt>
      <trkpt lat="43.41769" lon="5.56214">
        <ele>375</ele>
        <time>2015-01-16T09:40:45Z</time>
      </trkpt>
      <trkpt lat="43.41768" lon="5.56224">
        <ele>375</ele>
        <time>2015-01-16T09:40:47Z</time>
      </trkpt>
      <trkpt lat="43.41766" lon="5.5623">
        <ele>374</ele>
        <time>2015-01-16T09:40:49Z</time>
      </trkpt>
      <trkpt lat="43.41765" lon="5.56237">
        <ele>374</ele>
        <time>2015-01-16T09:40:51Z</time>
      </trkpt>
      <trkpt lat="43.41763" lon="5.56244">
        <ele>375</ele>
        <time>2015-01-16T09:40:53Z</time>
      </trkpt>
      <trkpt lat="43.4176" lon="5.56252">
        <ele>375</ele>
        <time>2015-01-16T09:40:55Z</time>
      </trkpt>
      <trkpt lat="43.41758" lon="5.5626">
        <ele>375</ele>
        <time>2015-01-16T09:40:57Z</time>
      </trkpt>
      <trkpt lat="43.41756" lon="5.56268">
        <ele>375</ele>
        <time>2015-01-16T09:40:59Z</time>
      </trkpt>
      <trkpt lat="43.41752" lon="5.56274">
        <ele>375</ele>
        <time>2015-01-16T09:41:01Z</time>
      </trkpt>
      <trkpt lat="43.41749" lon="5.56281">
        <ele>375</ele>
        <time>2015-01-16T09:41:03Z</time>
      </trkpt>
      <trkpt lat="43.41745" lon="5.56289">
        <ele>375</ele>
        <time>2015-01-16T09:41:05Z</time>
      </trkpt>
      <trkpt lat="43.41742" lon="5.56294">
        <ele>375</ele>
        <time>2015-01-16T09:41:07Z</time>
      </trkpt>
      <trkpt lat="43.41739" lon="5.56299">
        <ele>374</ele>
        <time>2015-01-16T09:41:09Z</time>
      </trkpt>
      <trkpt lat="43.41736" lon="5.56305">
        <ele>374</ele>
        <time>2015-01-16T09:41:12Z</time>
      </trkpt>
      <trkpt lat="43.41731" lon="5.5631">
        <ele>374</ele>
        <time>2015-01-16T09:41:14Z</time>
      </trkpt>
      <trkpt lat="43.41727" lon="5.56315">
        <ele>374</ele>
        <time>2015-01-16T09:41:16Z</time>
      </trkpt>
      <trkpt lat="43.41723" lon="5.56322">
        <ele>374</ele>
        <time>2015-01-16T09:41:19Z</time>
      </trkpt>
      <trkpt lat="43.41721" lon="5.56329">
        <ele>375</ele>
        <time>2015-01-16T09:41:23Z</time>
      </trkpt>
      <trkpt lat="43.41721" lon="5.56336">
        <ele>375</ele>
        <time>2015-01-16T09:41:26Z</time>
      </trkpt>
      <trkpt lat="43.4172" lon="5.56344">
        <ele>375</ele>
        <time>2015-01-16T09:41:29Z</time>
      </trkpt>
      <trkpt lat="43.41719" lon="5.56351">
        <ele>375</ele>
        <time>2015-01-16T09:41:32Z</time>
      </trkpt>
      <trkpt lat="43.41719" lon="5.56358">
        <ele>375</ele>
        <time>2015-01-16T09:41:35Z</time>
      </trkpt>
      <trkpt lat="43.4172" lon="5.56368">
        <ele>375</ele>
        <time>2015-01-16T09:41:38Z</time>
      </trkpt>
      <trkpt lat="43.4172" lon="5.56375">
        <ele>375</ele>
        <time>2015-01-16T09:41:40Z</time>
      </trkpt>
      <trkpt lat="43.4172" lon="5.56382">
        <ele>375</ele>
        <time>2015-01-16T09:41:43Z</time>
      </trkpt>
      <trkpt lat="43.4172" lon="5.56389">
        <ele>375</ele>
        <time>2015-01-16T09:41:46Z</time>
      </trkpt>
      <trkpt lat="43.41721" lon="5.56395">
        <ele>375</ele>
        <time>2015-01-16T09:41:49Z</time>
      </trkpt>
      <trkpt lat="43.41723" lon="5.56402">
        <ele>375</ele>
        <time>2015-01-16T09:41:52Z</time>
      </trkpt>
      <trkpt lat="43.41724" lon="5.5641">
        <ele>375</ele>
        <time>2015-01-16T09:41:55Z</time>
      </trkpt>
      <trkpt lat="43.41726" lon="5.56417">
        <ele>375</ele>
        <time>2015-01-16T09:41:58Z</time>
      </trkpt>
      <trkpt lat="43.41726" lon="5.56424">
        <ele>375</ele>
        <time>2015-01-16T09:42:01Z</time>
      </trkpt>
      <trkpt lat="43.41727" lon="5.56431">
        <ele>375</ele>
        <time>2015-01-16T09:42:04Z</time>
      </trkpt>
      <trkpt lat="43.41729" lon="5.56438">
        <ele>375</ele>
        <time>2015-01-16T09:42:07Z</time>
      </trkpt>
      <trkpt lat="43.41733" lon="5.56443">
        <ele>376</ele>
        <time>2015-01-16T09:42:10Z</time>
      </trkpt>
      <trkpt lat="43.41736" lon="5.5645">
        <ele>376</ele>
        <time>2015-01-16T09:42:14Z</time>
      </trkpt>
      <trkpt lat="43.41739" lon="5.56456">
        <ele>377</ele>
        <time>2015-01-16T09:42:17Z</time>
      </trkpt>
      <trkpt lat="43.41742" lon="5.56464">
        <ele>377</ele>
        <time>2015-01-16T09:42:20Z</time>
      </trkpt>
      <trkpt lat="43.41744" lon="5.56471">
        <ele>378</ele>
        <time>2015-01-16T09:42:23Z</time>
      </trkpt>
      <trkpt lat="43.41746" lon="5.56477">
        <ele>378</ele>
        <time>2015-01-16T09:42:26Z</time>
      </trkpt>
      <trkpt lat="43.41748" lon="5.56485">
        <ele>379</ele>
        <time>2015-01-16T09:42:30Z</time>
      </trkpt>
      <trkpt lat="43.4175" lon="5.56492">
        <ele>379</ele>
        <time>2015-01-16T09:42:33Z</time>
      </trkpt>
      <trkpt lat="43.41751" lon="5.56499">
        <ele>379</ele>
        <time>2015-01-16T09:42:35Z</time>
      </trkpt>
      <trkpt lat="43.41753" lon="5.56507">
        <ele>379</ele>
        <time>2015-01-16T09:42:38Z</time>
      </trkpt>
      <trkpt lat="43.41753" lon="5.56515">
        <ele>380</ele>
        <time>2015-01-16T09:42:41Z</time>
      </trkpt>
      <trkpt lat="43.41754" lon="5.56522">
        <ele>380</ele>
        <time>2015-01-16T09:42:43Z</time>
      </trkpt>
      <trkpt lat="43.41753" lon="5.5653">
        <ele>380</ele>
        <time>2015-01-16T09:42:46Z</time>
      </trkpt>
      <trkpt lat="43.41752" lon="5.56538">
        <ele>380</ele>
        <time>2015-01-16T09:42:49Z</time>
      </trkpt>
      <trkpt lat="43.41749" lon="5.56545">
        <ele>381</ele>
        <time>2015-01-16T09:42:52Z</time>
      </trkpt>
      <trkpt lat="43.41748" lon="5.56552">
        <ele>381</ele>
        <time>2015-01-16T09:42:55Z</time>
      </trkpt>
      <trkpt lat="43.41745" lon="5.56558">
        <ele>382</ele>
        <time>2015-01-16T09:42:58Z</time>
      </trkpt>
      <trkpt lat="43.41742" lon="5.56564">
        <ele>382</ele>
        <time>2015-01-16T09:43:02Z</time>
      </trkpt>
      <trkpt lat="43.41739" lon="5.56569">
        <ele>383</ele>
        <time>2015-01-16T09:43:06Z</time>
      </trkpt>
      <trkpt lat="43.41736" lon="5.56574">
        <ele>385</ele>
        <time>2015-01-16T09:43:10Z</time>
      </trkpt>
      <trkpt lat="43.41731" lon="5.56576">
        <ele>385</ele>
        <time>2015-01-16T09:43:13Z</time>
      </trkpt>
      <trkpt lat="43.41727" lon="5.56576">
        <ele>387</ele>
        <time>2015-01-16T09:43:32Z</time>
      </trkpt>
      <trkpt lat="43.41726" lon="5.56576">
        <ele>387</ele>
        <time>2015-01-16T09:43:34Z</time>
      </trkpt>
      <trkpt lat="43.41725" lon="5.56583">
        <ele>387</ele>
        <time>2015-01-16T09:43:41Z</time>
      </trkpt>
      <trkpt lat="43.4172" lon="5.56587">
        <ele>387</ele>
        <time>2015-01-16T09:43:46Z</time>
      </trkpt>
      <trkpt lat="43.41716" lon="5.56591">
        <ele>387</ele>
        <time>2015-01-16T09:43:50Z</time>
      </trkpt>
      <trkpt lat="43.41711" lon="5.56593">
        <ele>387</ele>
        <time>2015-01-16T09:43:54Z</time>
      </trkpt>
      <trkpt lat="43.41705" lon="5.56596">
        <ele>388</ele>
        <time>2015-01-16T09:43:57Z</time>
      </trkpt>
      <trkpt lat="43.417" lon="5.56598">
        <ele>388</ele>
        <time>2015-01-16T09:43:59Z</time>
      </trkpt>
      <trkpt lat="43.41696" lon="5.56607">
        <ele>388</ele>
        <time>2015-01-16T09:44:02Z</time>
      </trkpt>
      <trkpt lat="43.41695" lon="5.56615">
        <ele>388</ele>
        <time>2015-01-16T09:44:05Z</time>
      </trkpt>
      <trkpt lat="43.41697" lon="5.56622">
        <ele>389</ele>
        <time>2015-01-16T09:44:08Z</time>
      </trkpt>
      <trkpt lat="43.41699" lon="5.56631">
        <ele>389</ele>
        <time>2015-01-16T09:44:11Z</time>
      </trkpt>
      <trkpt lat="43.41699" lon="5.56638">
        <ele>389</ele>
        <time>2015-01-16T09:44:13Z</time>
      </trkpt>
      <trkpt lat="43.41697" lon="5.56647">
        <ele>389</ele>
        <time>2015-01-16T09:44:15Z</time>
      </trkpt>
      <trkpt lat="43.41695" lon="5.56656">
        <ele>389</ele>
        <time>2015-01-16T09:44:17Z</time>
      </trkpt>
      <trkpt lat="43.41691" lon="5.56662">
        <ele>389</ele>
        <time>2015-01-16T09:44:19Z</time>
      </trkpt>
      <trkpt lat="43.41686" lon="5.56667">
        <ele>390</ele>
        <time>2015-01-16T09:44:21Z</time>
      </trkpt>
      <trkpt lat="43.41682" lon="5.56671">
        <ele>390</ele>
        <time>2015-01-16T09:44:23Z</time>
      </trkpt>
      <trkpt lat="43.41678" lon="5.56675">
        <ele>390</ele>
        <time>2015-01-16T09:44:25Z</time>
      </trkpt>
      <trkpt lat="43.41673" lon="5.5668">
        <ele>390</ele>
        <time>2015-01-16T09:44:27Z</time>
      </trkpt>
      <trkpt lat="43.41668" lon="5.56685">
        <ele>391</ele>
        <time>2015-01-16T09:44:29Z</time>
      </trkpt>
      <trkpt lat="43.41663" lon="5.5669">
        <ele>393</ele>
        <time>2015-01-16T09:44:31Z</time>
      </trkpt>
      <trkpt lat="43.4166" lon="5.56697">
        <ele>394</ele>
        <time>2015-01-16T09:44:33Z</time>
      </trkpt>
      <trkpt lat="43.41657" lon="5.56701">
        <ele>394</ele>
        <time>2015-01-16T09:44:34Z</time>
      </trkpt>
      <trkpt lat="43.41653" lon="5.56706">
        <ele>395</ele>
        <time>2015-01-16T09:44:35Z</time>
      </trkpt>
      <trkpt lat="43.41647" lon="5.56711">
        <ele>395</ele>
        <time>2015-01-16T09:44:37Z</time>
      </trkpt>
      <trkpt lat="43.41642" lon="5.5672">
        <ele>396</ele>
        <time>2015-01-16T09:44:39Z</time>
      </trkpt>
      <trkpt lat="43.4164" lon="5.56725">
        <ele>397</ele>
        <time>2015-01-16T09:44:40Z</time>
      </trkpt>
      <trkpt lat="43.41636" lon="5.5673">
        <ele>397</ele>
        <time>2015-01-16T09:44:41Z</time>
      </trkpt>
      <trkpt lat="43.41632" lon="5.56737">
        <ele>397</ele>
        <time>2015-01-16T09:44:42Z</time>
      </trkpt>
      <trkpt lat="43.41628" lon="5.56743">
        <ele>397</ele>
        <time>2015-01-16T09:44:43Z</time>
      </trkpt>
      <trkpt lat="43.41625" lon="5.56748">
        <ele>397</ele>
        <time>2015-01-16T09:44:44Z</time>
      </trkpt>
      <trkpt lat="43.41621" lon="5.56753">
        <ele>397</ele>
        <time>2015-01-16T09:44:45Z</time>
      </trkpt>
      <trkpt lat="43.41615" lon="5.56759">
        <ele>397</ele>
        <time>2015-01-16T09:44:47Z</time>
      </trkpt>
      <trkpt lat="43.41608" lon="5.56764">
        <ele>396</ele>
        <time>2015-01-16T09:44:49Z</time>
      </trkpt>
      <trkpt lat="43.41605" lon="5.5677">
        <ele>396</ele>
        <time>2015-01-16T09:44:51Z</time>
      </trkpt>
      <trkpt lat="43.416" lon="5.56774">
        <ele>396</ele>
        <time>2015-01-16T09:44:53Z</time>
      </trkpt>
      <trkpt lat="43.41595" lon="5.56779">
        <ele>396</ele>
        <time>2015-01-16T09:44:55Z</time>
      </trkpt>
      <trkpt lat="43.41591" lon="5.56785">
        <ele>396</ele>
        <time>2015-01-16T09:44:57Z</time>
      </trkpt>
      <trkpt lat="43.41588" lon="5.56793">
        <ele>396</ele>
        <time>2015-01-16T09:44:59Z</time>
      </trkpt>
      <trkpt lat="43.41586" lon="5.56801">
        <ele>396</ele>
        <time>2015-01-16T09:45:01Z</time>
      </trkpt>
      <trkpt lat="43.41585" lon="5.5681">
        <ele>396</ele>
        <time>2015-01-16T09:45:03Z</time>
      </trkpt>
      <trkpt lat="43.41583" lon="5.5682">
        <ele>396</ele>
        <time>2015-01-16T09:45:05Z</time>
      </trkpt>
      <trkpt lat="43.41582" lon="5.56832">
        <ele>396</ele>
        <time>2015-01-16T09:45:07Z</time>
      </trkpt>
      <trkpt lat="43.4158" lon="5.56842">
        <ele>396</ele>
        <time>2015-01-16T09:45:09Z</time>
      </trkpt>
      <trkpt lat="43.41578" lon="5.56852">
        <ele>396</ele>
        <time>2015-01-16T09:45:11Z</time>
      </trkpt>
      <trkpt lat="43.41574" lon="5.56861">
        <ele>396</ele>
        <time>2015-01-16T09:45:13Z</time>
      </trkpt>
      <trkpt lat="43.4157" lon="5.56868">
        <ele>396</ele>
        <time>2015-01-16T09:45:15Z</time>
      </trkpt>
      <trkpt lat="43.41566" lon="5.56872">
        <ele>396</ele>
        <time>2015-01-16T09:45:17Z</time>
      </trkpt>
      <trkpt lat="43.41561" lon="5.56874">
        <ele>396</ele>
        <time>2015-01-16T09:45:19Z</time>
      </trkpt>
      <trkpt lat="43.41554" lon="5.56878">
        <ele>396</ele>
        <time>2015-01-16T09:45:21Z</time>
      </trkpt>
      <trkpt lat="43.41547" lon="5.56886">
        <ele>396</ele>
        <time>2015-01-16T09:45:23Z</time>
      </trkpt>
      <trkpt lat="43.41543" lon="5.56896">
        <ele>397</ele>
        <time>2015-01-16T09:45:25Z</time>
      </trkpt>
      <trkpt lat="43.4154" lon="5.56907">
        <ele>397</ele>
        <time>2015-01-16T09:45:27Z</time>
      </trkpt>
      <trkpt lat="43.41537" lon="5.56918">
        <ele>397</ele>
        <time>2015-01-16T09:45:29Z</time>
      </trkpt>
      <trkpt lat="43.41534" lon="5.56924">
        <ele>398</ele>
        <time>2015-01-16T09:45:30Z</time>
      </trkpt>
      <trkpt lat="43.4153" lon="5.5693">
        <ele>399</ele>
        <time>2015-01-16T09:45:31Z</time>
      </trkpt>
      <trkpt lat="43.41526" lon="5.56936">
        <ele>400</ele>
        <time>2015-01-16T09:45:32Z</time>
      </trkpt>
      <trkpt lat="43.41523" lon="5.56942">
        <ele>401</ele>
        <time>2015-01-16T09:45:33Z</time>
      </trkpt>
      <trkpt lat="43.41519" lon="5.56947">
        <ele>401</ele>
        <time>2015-01-16T09:45:34Z</time>
      </trkpt>
      <trkpt lat="43.41516" lon="5.56952">
        <ele>401</ele>
        <time>2015-01-16T09:45:35Z</time>
      </trkpt>
      <trkpt lat="43.41513" lon="5.56957">
        <ele>400</ele>
        <time>2015-01-16T09:45:36Z</time>
      </trkpt>
      <trkpt lat="43.4151" lon="5.56962">
        <ele>400</ele>
        <time>2015-01-16T09:45:37Z</time>
      </trkpt>
      <trkpt lat="43.41505" lon="5.56967">
        <ele>400</ele>
        <time>2015-01-16T09:45:38Z</time>
      </trkpt>
      <trkpt lat="43.41502" lon="5.5697">
        <ele>400</ele>
        <time>2015-01-16T09:45:39Z</time>
      </trkpt>
      <trkpt lat="43.41498" lon="5.56975">
        <ele>400</ele>
        <time>2015-01-16T09:45:40Z</time>
      </trkpt>
      <trkpt lat="43.41493" lon="5.5698">
        <ele>399</ele>
        <time>2015-01-16T09:45:41Z</time>
      </trkpt>
      <trkpt lat="43.41489" lon="5.56985">
        <ele>398</ele>
        <time>2015-01-16T09:45:42Z</time>
      </trkpt>
      <trkpt lat="43.41485" lon="5.56989">
        <ele>399</ele>
        <time>2015-01-16T09:45:43Z</time>
      </trkpt>
      <trkpt lat="43.4148" lon="5.56993">
        <ele>399</ele>
        <time>2015-01-16T09:45:44Z</time>
      </trkpt>
      <trkpt lat="43.41475" lon="5.56997">
        <ele>400</ele>
        <time>2015-01-16T09:45:45Z</time>
      </trkpt>
      <trkpt lat="43.4147" lon="5.57002">
        <ele>401</ele>
        <time>2015-01-16T09:45:46Z</time>
      </trkpt>
      <trkpt lat="43.41465" lon="5.57005">
        <ele>402</ele>
        <time>2015-01-16T09:45:47Z</time>
      </trkpt>
      <trkpt lat="43.41459" lon="5.57008">
        <ele>403</ele>
        <time>2015-01-16T09:45:48Z</time>
      </trkpt>
      <trkpt lat="43.41453" lon="5.57011">
        <ele>403</ele>
        <time>2015-01-16T09:45:49Z</time>
      </trkpt>
      <trkpt lat="43.41447" lon="5.57014">
        <ele>403</ele>
        <time>2015-01-16T09:45:50Z</time>
      </trkpt>
      <trkpt lat="43.41441" lon="5.57018">
        <ele>403</ele>
        <time>2015-01-16T09:45:51Z</time>
      </trkpt>
      <trkpt lat="43.41438" lon="5.57021">
        <ele>403</ele>
        <time>2015-01-16T09:45:52Z</time>
      </trkpt>
      <trkpt lat="43.41432" lon="5.57025">
        <ele>403</ele>
        <time>2015-01-16T09:45:53Z</time>
      </trkpt>
      <trkpt lat="43.41426" lon="5.57028">
        <ele>403</ele>
        <time>2015-01-16T09:45:54Z</time>
      </trkpt>
      <trkpt lat="43.41421" lon="5.57031">
        <ele>403</ele>
        <time>2015-01-16T09:45:55Z</time>
      </trkpt>
      <trkpt lat="43.41415" lon="5.57032">
        <ele>403</ele>
        <time>2015-01-16T09:45:56Z</time>
      </trkpt>
      <trkpt lat="43.41407" lon="5.5703">
        <ele>405</ele>
        <time>2015-01-16T09:45:58Z</time>
      </trkpt>
      <trkpt lat="43.41403" lon="5.57028">
        <ele>405</ele>
        <time>2015-01-16T09:45:59Z</time>
      </trkpt>
      <trkpt lat="43.41394" lon="5.57025">
        <ele>406</ele>
        <time>2015-01-16T09:46:01Z</time>
      </trkpt>
      <trkpt lat="43.4139" lon="5.57024">
        <ele>407</ele>
        <time>2015-01-16T09:46:02Z</time>
      </trkpt>
      <trkpt lat="43.41385" lon="5.57023">
        <ele>408</ele>
        <time>2015-01-16T09:46:03Z</time>
      </trkpt>
      <trkpt lat="43.4138" lon="5.57023">
        <ele>408</ele>
        <time>2015-01-16T09:46:04Z</time>
      </trkpt>
      <trkpt lat="43.41375" lon="5.57023">
        <ele>407</ele>
        <time>2015-01-16T09:46:05Z</time>
      </trkpt>
      <trkpt lat="43.4137" lon="5.57022">
        <ele>408</ele>
        <time>2015-01-16T09:46:06Z</time>
      </trkpt>
      <trkpt lat="43.41365" lon="5.57022">
        <ele>409</ele>
        <time>2015-01-16T09:46:07Z</time>
      </trkpt>
      <trkpt lat="43.4136" lon="5.57021">
        <ele>410</ele>
        <time>2015-01-16T09:46:08Z</time>
      </trkpt>
      <trkpt lat="43.41355" lon="5.57021">
        <ele>412</ele>
        <time>2015-01-16T09:46:09Z</time>
      </trkpt>
      <trkpt lat="43.41351" lon="5.57022">
        <ele>413</ele>
        <time>2015-01-16T09:46:10Z</time>
      </trkpt>
      <trkpt lat="43.41342" lon="5.57021">
        <ele>417</ele>
        <time>2015-01-16T09:46:12Z</time>
      </trkpt>
      <trkpt lat="43.41336" lon="5.57023">
        <ele>418</ele>
        <time>2015-01-16T09:46:14Z</time>
      </trkpt>
      <trkpt lat="43.41333" lon="5.57016">
        <ele>418</ele>
        <time>2015-01-16T09:46:20Z</time>
      </trkpt>
      <trkpt lat="43.41332" lon="5.57008">
        <ele>417</ele>
        <time>2015-01-16T09:46:24Z</time>
      </trkpt>
      <trkpt lat="43.41331" lon="5.57002">
        <ele>417</ele>
        <time>2015-01-16T09:46:27Z</time>
      </trkpt>
      <trkpt lat="43.41329" lon="5.56996">
        <ele>417</ele>
        <time>2015-01-16T09:46:31Z</time>
      </trkpt>
      <trkpt lat="43.4133" lon="5.56989">
        <ele>415</ele>
        <time>2015-01-16T09:46:47Z</time>
      </trkpt>
      <trkpt lat="43.4133" lon="5.56981">
        <ele>415</ele>
        <time>2015-01-16T09:46:50Z</time>
      </trkpt>
      <trkpt lat="43.4133" lon="5.56974">
        <ele>415</ele>
        <time>2015-01-16T09:46:52Z</time>
      </trkpt>
      <trkpt lat="43.41328" lon="5.56965">
        <ele>414</ele>
        <time>2015-01-16T09:46:54Z</time>
      </trkpt>
      <trkpt lat="43.41326" lon="5.56959">
        <ele>414</ele>
        <time>2015-01-16T09:46:56Z</time>
      </trkpt>
      <trkpt lat="43.41325" lon="5.56949">
        <ele>414</ele>
        <time>2015-01-16T09:46:58Z</time>
      </trkpt>
      <trkpt lat="43.41325" lon="5.56942">
        <ele>413</ele>
        <time>2015-01-16T09:47:00Z</time>
      </trkpt>
      <trkpt lat="43.41327" lon="5.56937">
        <ele>413</ele>
        <time>2015-01-16T09:47:02Z</time>
      </trkpt>
      <trkpt lat="43.41329" lon="5.56929">
        <ele>413</ele>
        <time>2015-01-16T09:47:04Z</time>
      </trkpt>
      <trkpt lat="43.4133" lon="5.56921">
        <ele>412</ele>
        <time>2015-01-16T09:47:06Z</time>
      </trkpt>
      <trkpt lat="43.41326" lon="5.56918">
        <ele>412</ele>
        <time>2015-01-16T09:47:08Z</time>
      </trkpt>
      <trkpt lat="43.41318" lon="5.56916">
        <ele>410</ele>
        <time>2015-01-16T09:47:10Z</time>
      </trkpt>
      <trkpt lat="43.4131" lon="5.56914">
        <ele>409</ele>
        <time>2015-01-16T09:47:12Z</time>
      </trkpt>
      <trkpt lat="43.41303" lon="5.56912">
        <ele>409</ele>
        <time>2015-01-16T09:47:14Z</time>
      </trkpt>
      <trkpt lat="43.41297" lon="5.56911">
        <ele>409</ele>
        <time>2015-01-16T09:47:15Z</time>
      </trkpt>
      <trkpt lat="43.41291" lon="5.56909">
        <ele>408</ele>
        <time>2015-01-16T09:47:16Z</time>
      </trkpt>
      <trkpt lat="43.41286" lon="5.56907">
        <ele>408</ele>
        <time>2015-01-16T09:47:17Z</time>
      </trkpt>
      <trkpt lat="43.4128" lon="5.56907">
        <ele>408</ele>
        <time>2015-01-16T09:47:18Z</time>
      </trkpt>
      <trkpt lat="43.41276" lon="5.56907">
        <ele>408</ele>
        <time>2015-01-16T09:47:19Z</time>
      </trkpt>
      <trkpt lat="43.4127" lon="5.56908">
        <ele>406</ele>
        <time>2015-01-16T09:47:20Z</time>
      </trkpt>
      <trkpt lat="43.41264" lon="5.56907">
        <ele>405</ele>
        <time>2015-01-16T09:47:21Z</time>
      </trkpt>
      <trkpt lat="43.4126" lon="5.56905">
        <ele>405</ele>
        <time>2015-01-16T09:47:22Z</time>
      </trkpt>
      <trkpt lat="43.41253" lon="5.56899">
        <ele>405</ele>
        <time>2015-01-16T09:47:24Z</time>
      </trkpt>
      <trkpt lat="43.41251" lon="5.56893">
        <ele>404</ele>
        <time>2015-01-16T09:47:26Z</time>
      </trkpt>
      <trkpt lat="43.41252" lon="5.56884">
        <ele>404</ele>
        <time>2015-01-16T09:47:28Z</time>
      </trkpt>
      <trkpt lat="43.41253" lon="5.56873">
        <ele>404</ele>
        <time>2015-01-16T09:47:30Z</time>
      </trkpt>
      <trkpt lat="43.41253" lon="5.56865">
        <ele>404</ele>
        <time>2015-01-16T09:47:31Z</time>
      </trkpt>
      <trkpt lat="43.41255" lon="5.56858">
        <ele>404</ele>
        <time>2015-01-16T09:47:32Z</time>
      </trkpt>
      <trkpt lat="43.41256" lon="5.56851">
        <ele>403</ele>
        <time>2015-01-16T09:47:33Z</time>
      </trkpt>
      <trkpt lat="43.41257" lon="5.56844">
        <ele>401</ele>
        <time>2015-01-16T09:47:34Z</time>
      </trkpt>
      <trkpt lat="43.41258" lon="5.56837">
        <ele>400</ele>
        <time>2015-01-16T09:47:35Z</time>
      </trkpt>
      <trkpt lat="43.41259" lon="5.5683">
        <ele>399</ele>
        <time>2015-01-16T09:47:36Z</time>
      </trkpt>
      <trkpt lat="43.41261" lon="5.56822">
        <ele>399</ele>
        <time>2015-01-16T09:47:37Z</time>
      </trkpt>
      <trkpt lat="43.41262" lon="5.56815">
        <ele>398</ele>
        <time>2015-01-16T09:47:38Z</time>
      </trkpt>
      <trkpt lat="43.41266" lon="5.56808">
        <ele>398</ele>
        <time>2015-01-16T09:47:39Z</time>
      </trkpt>
      <trkpt lat="43.4127" lon="5.56803">
        <ele>397</ele>
        <time>2015-01-16T09:47:40Z</time>
      </trkpt>
      <trkpt lat="43.41275" lon="5.56798">
        <ele>397</ele>
        <time>2015-01-16T09:47:41Z</time>
      </trkpt>
      <trkpt lat="43.41279" lon="5.56792">
        <ele>397</ele>
        <time>2015-01-16T09:47:42Z</time>
      </trkpt>
      <trkpt lat="43.41281" lon="5.56784">
        <ele>397</ele>
        <time>2015-01-16T09:47:43Z</time>
      </trkpt>
      <trkpt lat="43.41284" lon="5.56776">
        <ele>397</ele>
        <time>2015-01-16T09:47:44Z</time>
      </trkpt>
      <trkpt lat="43.41287" lon="5.56771">
        <ele>397</ele>
        <time>2015-01-16T09:47:45Z</time>
      </trkpt>
      <trkpt lat="43.41291" lon="5.56766">
        <ele>397</ele>
        <time>2015-01-16T09:47:46Z</time>
      </trkpt>
      <trkpt lat="43.41293" lon="5.5676">
        <ele>397</ele>
        <time>2015-01-16T09:47:47Z</time>
      </trkpt>
      <trkpt lat="43.41291" lon="5.56747">
        <ele>397</ele>
        <time>2015-01-16T09:47:49Z</time>
      </trkpt>
      <trkpt lat="43.41289" lon="5.56739">
        <ele>397</ele>
        <time>2015-01-16T09:47:50Z</time>
      </trkpt>
      <trkpt lat="43.41285" lon="5.56731">
        <ele>397</ele>
        <time>2015-01-16T09:47:52Z</time>
      </trkpt>
      <trkpt lat="43.41279" lon="5.56722">
        <ele>397</ele>
        <time>2015-01-16T09:47:54Z</time>
      </trkpt>
      <trkpt lat="43.41277" lon="5.56716">
        <ele>398</ele>
        <time>2015-01-16T09:47:55Z</time>
      </trkpt>
      <trkpt lat="43.41275" lon="5.56709">
        <ele>398</ele>
        <time>2015-01-16T09:47:56Z</time>
      </trkpt>
      <trkpt lat="43.41273" lon="5.56701">
        <ele>399</ele>
        <time>2015-01-16T09:47:57Z</time>
      </trkpt>
      <trkpt lat="43.41272" lon="5.56694">
        <ele>399</ele>
        <time>2015-01-16T09:47:58Z</time>
      </trkpt>
      <trkpt lat="43.4127" lon="5.56687">
        <ele>398</ele>
        <time>2015-01-16T09:47:59Z</time>
      </trkpt>
      <trkpt lat="43.4127" lon="5.56679">
        <ele>398</ele>
        <time>2015-01-16T09:48:01Z</time>
      </trkpt>
      <trkpt lat="43.41271" lon="5.56671">
        <ele>398</ele>
        <time>2015-01-16T09:48:03Z</time>
      </trkpt>
      <trkpt lat="43.41274" lon="5.56665">
        <ele>398</ele>
        <time>2015-01-16T09:48:06Z</time>
      </trkpt>
      <trkpt lat="43.41276" lon="5.56658">
        <ele>396</ele>
        <time>2015-01-16T09:48:10Z</time>
      </trkpt>
      <trkpt lat="43.41275" lon="5.56651">
        <ele>395</ele>
        <time>2015-01-16T09:48:14Z</time>
      </trkpt>
      <trkpt lat="43.41274" lon="5.56645">
        <ele>395</ele>
        <time>2015-01-16T09:48:17Z</time>
      </trkpt>
      <trkpt lat="43.41274" lon="5.56638">
        <ele>394</ele>
        <time>2015-01-16T09:48:20Z</time>
      </trkpt>
      <trkpt lat="43.41275" lon="5.56629">
        <ele>393</ele>
        <time>2015-01-16T09:48:23Z</time>
      </trkpt>
      <trkpt lat="43.41277" lon="5.56624">
        <ele>393</ele>
        <time>2015-01-16T09:48:25Z</time>
      </trkpt>
      <trkpt lat="43.41278" lon="5.56617">
        <ele>392</ele>
        <time>2015-01-16T09:48:27Z</time>
      </trkpt>
      <trkpt lat="43.41279" lon="5.56611">
        <ele>392</ele>
        <time>2015-01-16T09:48:29Z</time>
      </trkpt>
      <trkpt lat="43.4128" lon="5.56604">
        <ele>392</ele>
        <time>2015-01-16T09:48:31Z</time>
      </trkpt>
      <trkpt lat="43.41281" lon="5.56596">
        <ele>392</ele>
        <time>2015-01-16T09:48:33Z</time>
      </trkpt>
      <trkpt lat="43.41282" lon="5.56588">
        <ele>391</ele>
        <time>2015-01-16T09:48:35Z</time>
      </trkpt>
      <trkpt lat="43.41284" lon="5.5658">
        <ele>391</ele>
        <time>2015-01-16T09:48:37Z</time>
      </trkpt>
      <trkpt lat="43.41285" lon="5.56572">
        <ele>391</ele>
        <time>2015-01-16T09:48:39Z</time>
      </trkpt>
      <trkpt lat="43.41287" lon="5.56561">
        <ele>391</ele>
        <time>2015-01-16T09:48:41Z</time>
      </trkpt>
      <trkpt lat="43.41289" lon="5.56551">
        <ele>390</ele>
        <time>2015-01-16T09:48:43Z</time>
      </trkpt>
      <trkpt lat="43.41291" lon="5.5654">
        <ele>388</ele>
        <time>2015-01-16T09:48:45Z</time>
      </trkpt>
      <trkpt lat="43.41291" lon="5.5653">
        <ele>388</ele>
        <time>2015-01-16T09:48:47Z</time>
      </trkpt>
      <trkpt lat="43.41292" lon="5.56523">
        <ele>387</ele>
        <time>2015-01-16T09:48:48Z</time>
      </trkpt>
      <trkpt lat="43.41294" lon="5.56516">
        <ele>387</ele>
        <time>2015-01-16T09:48:49Z</time>
      </trkpt>
      <trkpt lat="43.41296" lon="5.5651">
        <ele>386</ele>
        <time>2015-01-16T09:48:50Z</time>
      </trkpt>
      <trkpt lat="43.41299" lon="5.56499">
        <ele>385</ele>
        <time>2015-01-16T09:48:52Z</time>
      </trkpt>
      <trkpt lat="43.41301" lon="5.56493">
        <ele>385</ele>
        <time>2015-01-16T09:48:53Z</time>
      </trkpt>
      <trkpt lat="43.41303" lon="5.56485">
        <ele>385</ele>
        <time>2015-01-16T09:48:55Z</time>
      </trkpt>
      <trkpt lat="43.41304" lon="5.56476">
        <ele>385</ele>
        <time>2015-01-16T09:48:57Z</time>
      </trkpt>
      <trkpt lat="43.41306" lon="5.56467">
        <ele>385</ele>
        <time>2015-01-16T09:48:59Z</time>
      </trkpt>
      <trkpt lat="43.41307" lon="5.56458">
        <ele>385</ele>
        <time>2015-01-16T09:49:01Z</time>
      </trkpt>
      <trkpt lat="43.41308" lon="5.56451">
        <ele>385</ele>
        <time>2015-01-16T09:49:03Z</time>
      </trkpt>
      <trkpt lat="43.41309" lon="5.56444">
        <ele>384</ele>
        <time>2015-01-16T09:49:05Z</time>
      </trkpt>
      <trkpt lat="43.41311" lon="5.56438">
        <ele>384</ele>
        <time>2015-01-16T09:49:07Z</time>
      </trkpt>
      <trkpt lat="43.41309" lon="5.56432">
        <ele>383</ele>
        <time>2015-01-16T09:49:11Z</time>
      </trkpt>
      <trkpt lat="43.41312" lon="5.56426">
        <ele>383</ele>
        <time>2015-01-16T09:49:16Z</time>
      </trkpt>
      <trkpt lat="43.41314" lon="5.5642">
        <ele>382</ele>
        <time>2015-01-16T09:49:21Z</time>
      </trkpt>
      <trkpt lat="43.41317" lon="5.56414">
        <ele>382</ele>
        <time>2015-01-16T09:49:26Z</time>
      </trkpt>
      <trkpt lat="43.4132" lon="5.56409">
        <ele>382</ele>
        <time>2015-01-16T09:49:29Z</time>
      </trkpt>
      <trkpt lat="43.41324" lon="5.56403">
        <ele>382</ele>
        <time>2015-01-16T09:49:32Z</time>
      </trkpt>
      <trkpt lat="43.41325" lon="5.56396">
        <ele>381</ele>
        <time>2015-01-16T09:49:35Z</time>
      </trkpt>
      <trkpt lat="43.41328" lon="5.56392">
        <ele>382</ele>
        <time>2015-01-16T09:49:37Z</time>
      </trkpt>
      <trkpt lat="43.41334" lon="5.56389">
        <ele>382</ele>
        <time>2015-01-16T09:49:41Z</time>
      </trkpt>
      <trkpt lat="43.41339" lon="5.56383">
        <ele>382</ele>
        <time>2015-01-16T09:49:44Z</time>
      </trkpt>
      <trkpt lat="43.41342" lon="5.56377">
        <ele>382</ele>
        <time>2015-01-16T09:49:46Z</time>
      </trkpt>
      <trkpt lat="43.41346" lon="5.56371">
        <ele>382</ele>
        <time>2015-01-16T09:49:48Z</time>
      </trkpt>
      <trkpt lat="43.4135" lon="5.5637">
        <ele>383</ele>
        <time>2015-01-16T09:49:50Z</time>
      </trkpt>
      <trkpt lat="43.41357" lon="5.56367">
        <ele>383</ele>
        <time>2015-01-16T09:49:53Z</time>
      </trkpt>
      <trkpt lat="43.41359" lon="5.56361">
        <ele>383</ele>
        <time>2015-01-16T09:49:55Z</time>
      </trkpt>
      <trkpt lat="43.41364" lon="5.56354">
        <ele>384</ele>
        <time>2015-01-16T09:49:58Z</time>
      </trkpt>
      <trkpt lat="43.4137" lon="5.56349">
        <ele>384</ele>
        <time>2015-01-16T09:50:00Z</time>
      </trkpt>
      <trkpt lat="43.41377" lon="5.56342">
        <ele>384</ele>
        <time>2015-01-16T09:50:02Z</time>
      </trkpt>
      <trkpt lat="43.41381" lon="5.5634">
        <ele>384</ele>
        <time>2015-01-16T09:50:04Z</time>
      </trkpt>
      <trkpt lat="43.41385" lon="5.56333">
        <ele>384</ele>
        <time>2015-01-16T09:50:07Z</time>
      </trkpt>
      <trkpt lat="43.41391" lon="5.56331">
        <ele>385</ele>
        <time>2015-01-16T09:50:09Z</time>
      </trkpt>
      <trkpt lat="43.41397" lon="5.56327">
        <ele>385</ele>
        <time>2015-01-16T09:50:11Z</time>
      </trkpt>
      <trkpt lat="43.41401" lon="5.56324">
        <ele>385</ele>
        <time>2015-01-16T09:50:13Z</time>
      </trkpt>
      <trkpt lat="43.41407" lon="5.56321">
        <ele>385</ele>
        <time>2015-01-16T09:50:15Z</time>
      </trkpt>
      <trkpt lat="43.41411" lon="5.56317">
        <ele>385</ele>
        <time>2015-01-16T09:50:17Z</time>
      </trkpt>
      <trkpt lat="43.41414" lon="5.56313">
        <ele>385</ele>
        <time>2015-01-16T09:50:19Z</time>
      </trkpt>
      <trkpt lat="43.41419" lon="5.56312">
        <ele>385</ele>
        <time>2015-01-16T09:50:22Z</time>
      </trkpt>
      <trkpt lat="43.41423" lon="5.5631">
        <ele>385</ele>
        <time>2015-01-16T09:50:24Z</time>
      </trkpt>
      <trkpt lat="43.4143" lon="5.5631">
        <ele>385</ele>
        <time>2015-01-16T09:50:26Z</time>
      </trkpt>
      <trkpt lat="43.41435" lon="5.56307">
        <ele>385</ele>
        <time>2015-01-16T09:50:28Z</time>
      </trkpt>
      <trkpt lat="43.41439" lon="5.56302">
        <ele>385</ele>
        <time>2015-01-16T09:50:30Z</time>
      </trkpt>
      <trkpt lat="43.41441" lon="5.56296">
        <ele>385</ele>
        <time>2015-01-16T09:50:32Z</time>
      </trkpt>
      <trkpt lat="43.41441" lon="5.56287">
        <ele>385</ele>
        <time>2015-01-16T09:50:34Z</time>
      </trkpt>
      <trkpt lat="43.4144" lon="5.56277">
        <ele>385</ele>
        <time>2015-01-16T09:50:36Z</time>
      </trkpt>
      <trkpt lat="43.41439" lon="5.56268">
        <ele>385</ele>
        <time>2015-01-16T09:50:38Z</time>
      </trkpt>
      <trkpt lat="43.41439" lon="5.56259">
        <ele>385</ele>
        <time>2015-01-16T09:50:41Z</time>
      </trkpt>
      <trkpt lat="43.4144" lon="5.56252">
        <ele>385</ele>
        <time>2015-01-16T09:50:46Z</time>
      </trkpt>
      <trkpt lat="43.41438" lon="5.56246">
        <ele>385</ele>
        <time>2015-01-16T09:50:54Z</time>
      </trkpt>
      <trkpt lat="43.41435" lon="5.5624">
        <ele>384</ele>
        <time>2015-01-16T09:51:03Z</time>
      </trkpt>
      <trkpt lat="43.41431" lon="5.56237">
        <ele>383</ele>
        <time>2015-01-16T09:51:09Z</time>
      </trkpt>
      <trkpt lat="43.41427" lon="5.56232">
        <ele>382</ele>
        <time>2015-01-16T09:51:12Z</time>
      </trkpt>
      <trkpt lat="43.41424" lon="5.56225">
        <ele>382</ele>
        <time>2015-01-16T09:51:15Z</time>
      </trkpt>
      <trkpt lat="43.41422" lon="5.56219">
        <ele>382</ele>
        <time>2015-01-16T09:51:18Z</time>
      </trkpt>
      <trkpt lat="43.4142" lon="5.56211">
        <ele>382</ele>
        <time>2015-01-16T09:51:21Z</time>
      </trkpt>
      <trkpt lat="43.41419" lon="5.56204">
        <ele>382</ele>
        <time>2015-01-16T09:51:24Z</time>
      </trkpt>
      <trkpt lat="43.41419" lon="5.56197">
        <ele>382</ele>
        <time>2015-01-16T09:51:27Z</time>
      </trkpt>
      <trkpt lat="43.4142" lon="5.56189">
        <ele>382</ele>
        <time>2015-01-16T09:51:30Z</time>
      </trkpt>
      <trkpt lat="43.41422" lon="5.5618">
        <ele>382</ele>
        <time>2015-01-16T09:51:33Z</time>
      </trkpt>
      <trkpt lat="43.41423" lon="5.56174">
        <ele>382</ele>
        <time>2015-01-16T09:51:35Z</time>
      </trkpt>
      <trkpt lat="43.41423" lon="5.56166">
        <ele>382</ele>
        <time>2015-01-16T09:51:37Z</time>
      </trkpt>
      <trkpt lat="43.41423" lon="5.5616">
        <ele>382</ele>
        <time>2015-01-16T09:51:39Z</time>
      </trkpt>
      <trkpt lat="43.41423" lon="5.56153">
        <ele>382</ele>
        <time>2015-01-16T09:51:42Z</time>
      </trkpt>
      <trkpt lat="43.41424" lon="5.56145">
        <ele>382</ele>
        <time>2015-01-16T09:51:46Z</time>
      </trkpt>
      <trkpt lat="43.41427" lon="5.56137">
        <ele>383</ele>
        <time>2015-01-16T09:51:49Z</time>
      </trkpt>
      <trkpt lat="43.41431" lon="5.56129">
        <ele>383</ele>
        <time>2015-01-16T09:51:52Z</time>
      </trkpt>
      <trkpt lat="43.41435" lon="5.56125">
        <ele>383</ele>
        <time>2015-01-16T09:51:54Z</time>
      </trkpt>
      <trkpt lat="43.41438" lon="5.56118">
        <ele>383</ele>
        <time>2015-01-16T09:51:56Z</time>
      </trkpt>
      <trkpt lat="43.41443" lon="5.56111">
        <ele>383</ele>
        <time>2015-01-16T09:51:58Z</time>
      </trkpt>
      <trkpt lat="43.41446" lon="5.56105">
        <ele>384</ele>
        <time>2015-01-16T09:52:00Z</time>
      </trkpt>
      <trkpt lat="43.41449" lon="5.56099">
        <ele>384</ele>
        <time>2015-01-16T09:52:02Z</time>
      </trkpt>
      <trkpt lat="43.41452" lon="5.56093">
        <ele>384</ele>
        <time>2015-01-16T09:52:04Z</time>
      </trkpt>
      <trkpt lat="43.41456" lon="5.56085">
        <ele>384</ele>
        <time>2015-01-16T09:52:06Z</time>
      </trkpt>
      <trkpt lat="43.41459" lon="5.56079">
        <ele>384</ele>
        <time>2015-01-16T09:52:07Z</time>
      </trkpt>
      <trkpt lat="43.41461" lon="5.56074">
        <ele>384</ele>
        <time>2015-01-16T09:52:08Z</time>
      </trkpt>
      <trkpt lat="43.41464" lon="5.56068">
        <ele>385</ele>
        <time>2015-01-16T09:52:09Z</time>
      </trkpt>
      <trkpt lat="43.41466" lon="5.56057">
        <ele>385</ele>
        <time>2015-01-16T09:52:11Z</time>
      </trkpt>
      <trkpt lat="43.41467" lon="5.56051">
        <ele>385</ele>
        <time>2015-01-16T09:52:12Z</time>
      </trkpt>
      <trkpt lat="43.41468" lon="5.56039">
        <ele>385</ele>
        <time>2015-01-16T09:52:14Z</time>
      </trkpt>
      <trkpt lat="43.41468" lon="5.56029">
        <ele>385</ele>
        <time>2015-01-16T09:52:16Z</time>
      </trkpt>
      <trkpt lat="43.41468" lon="5.56017">
        <ele>385</ele>
        <time>2015-01-16T09:52:18Z</time>
      </trkpt>
      <trkpt lat="43.41467" lon="5.56009">
        <ele>385</ele>
        <time>2015-01-16T09:52:20Z</time>
      </trkpt>
      <trkpt lat="43.41466" lon="5.56002">
        <ele>385</ele>
        <time>2015-01-16T09:52:22Z</time>
      </trkpt>
      <trkpt lat="43.41467" lon="5.55994">
        <ele>385</ele>
        <time>2015-01-16T09:52:25Z</time>
      </trkpt>
      <trkpt lat="43.4147" lon="5.5599">
        <ele>385</ele>
        <time>2015-01-16T09:52:28Z</time>
      </trkpt>
      <trkpt lat="43.41476" lon="5.55986">
        <ele>384</ele>
        <time>2015-01-16T09:52:31Z</time>
      </trkpt>
      <trkpt lat="43.4148" lon="5.55983">
        <ele>384</ele>
        <time>2015-01-16T09:52:33Z</time>
      </trkpt>
      <trkpt lat="43.41485" lon="5.5598">
        <ele>384</ele>
        <time>2015-01-16T09:52:35Z</time>
      </trkpt>
      <trkpt lat="43.4149" lon="5.55976">
        <ele>384</ele>
        <time>2015-01-16T09:52:37Z</time>
      </trkpt>
      <trkpt lat="43.41494" lon="5.55972">
        <ele>384</ele>
        <time>2015-01-16T09:52:38Z</time>
      </trkpt>
      <trkpt lat="43.41498" lon="5.55968">
        <ele>383</ele>
        <time>2015-01-16T09:52:39Z</time>
      </trkpt>
      <trkpt lat="43.41505" lon="5.55961">
        <ele>383</ele>
        <time>2015-01-16T09:52:41Z</time>
      </trkpt>
      <trkpt lat="43.41513" lon="5.55956">
        <ele>383</ele>
        <time>2015-01-16T09:52:43Z</time>
      </trkpt>
      <trkpt lat="43.41518" lon="5.55954">
        <ele>383</ele>
        <time>2015-01-16T09:52:44Z</time>
      </trkpt>
      <trkpt lat="43.41524" lon="5.55951">
        <ele>382</ele>
        <time>2015-01-16T09:52:45Z</time>
      </trkpt>
      <trkpt lat="43.4153" lon="5.55947">
        <ele>382</ele>
        <time>2015-01-16T09:52:46Z</time>
      </trkpt>
      <trkpt lat="43.41536" lon="5.55943">
        <ele>382</ele>
        <time>2015-01-16T09:52:47Z</time>
      </trkpt>
      <trkpt lat="43.41542" lon="5.55939">
        <ele>382</ele>
        <time>2015-01-16T09:52:48Z</time>
      </trkpt>
      <trkpt lat="43.41549" lon="5.55935">
        <ele>382</ele>
        <time>2015-01-16T09:52:49Z</time>
      </trkpt>
      <trkpt lat="43.41556" lon="5.55929">
        <ele>382</ele>
        <time>2015-01-16T09:52:50Z</time>
      </trkpt>
      <trkpt lat="43.41562" lon="5.55924">
        <ele>381</ele>
        <time>2015-01-16T09:52:51Z</time>
      </trkpt>
      <trkpt lat="43.41568" lon="5.55919">
        <ele>380</ele>
        <time>2015-01-16T09:52:52Z</time>
      </trkpt>
      <trkpt lat="43.41574" lon="5.55915">
        <ele>378</ele>
        <time>2015-01-16T09:52:53Z</time>
      </trkpt>
      <trkpt lat="43.41581" lon="5.5591">
        <ele>376</ele>
        <time>2015-01-16T09:52:54Z</time>
      </trkpt>
      <trkpt lat="43.41587" lon="5.55907">
        <ele>374</ele>
        <time>2015-01-16T09:52:55Z</time>
      </trkpt>
      <trkpt lat="43.41595" lon="5.55902">
        <ele>373</ele>
        <time>2015-01-16T09:52:56Z</time>
      </trkpt>
      <trkpt lat="43.41601" lon="5.55898">
        <ele>372</ele>
        <time>2015-01-16T09:52:57Z</time>
      </trkpt>
      <trkpt lat="43.41607" lon="5.55894">
        <ele>370</ele>
        <time>2015-01-16T09:52:58Z</time>
      </trkpt>
      <trkpt lat="43.41613" lon="5.5589">
        <ele>370</ele>
        <time>2015-01-16T09:52:59Z</time>
      </trkpt>
      <trkpt lat="43.41618" lon="5.55887">
        <ele>370</ele>
        <time>2015-01-16T09:53:00Z</time>
      </trkpt>
      <trkpt lat="43.41623" lon="5.55881">
        <ele>370</ele>
        <time>2015-01-16T09:53:01Z</time>
      </trkpt>
      <trkpt lat="43.41628" lon="5.55874">
        <ele>369</ele>
        <time>2015-01-16T09:53:02Z</time>
      </trkpt>
      <trkpt lat="43.41633" lon="5.5587">
        <ele>369</ele>
        <time>2015-01-16T09:53:03Z</time>
      </trkpt>
      <trkpt lat="43.41639" lon="5.55866">
        <ele>369</ele>
        <time>2015-01-16T09:53:04Z</time>
      </trkpt>
      <trkpt lat="43.41644" lon="5.55861">
        <ele>369</ele>
        <time>2015-01-16T09:53:05Z</time>
      </trkpt>
      <trkpt lat="43.4165" lon="5.55855">
        <ele>369</ele>
        <time>2015-01-16T09:53:06Z</time>
      </trkpt>
      <trkpt lat="43.41655" lon="5.5585">
        <ele>369</ele>
        <time>2015-01-16T09:53:07Z</time>
      </trkpt>
      <trkpt lat="43.41659" lon="5.55847">
        <ele>369</ele>
        <time>2015-01-16T09:53:08Z</time>
      </trkpt>
      <trkpt lat="43.41664" lon="5.55843">
        <ele>369</ele>
        <time>2015-01-16T09:53:09Z</time>
      </trkpt>
      <trkpt lat="43.41669" lon="5.55842">
        <ele>369</ele>
        <time>2015-01-16T09:53:10Z</time>
      </trkpt>
      <trkpt lat="43.41674" lon="5.5584">
        <ele>369</ele>
        <time>2015-01-16T09:53:11Z</time>
      </trkpt>
      <trkpt lat="43.4168" lon="5.55838">
        <ele>369</ele>
        <time>2015-01-16T09:53:12Z</time>
      </trkpt>
      <trkpt lat="43.41687" lon="5.55835">
        <ele>369</ele>
        <time>2015-01-16T09:53:13Z</time>
      </trkpt>
      <trkpt lat="43.41694" lon="5.55832">
        <ele>368</ele>
        <time>2015-01-16T09:53:14Z</time>
      </trkpt>
      <trkpt lat="43.417" lon="5.55827">
        <ele>367</ele>
        <time>2015-01-16T09:53:15Z</time>
      </trkpt>
      <trkpt lat="43.41706" lon="5.55821">
        <ele>366</ele>
        <time>2015-01-16T09:53:16Z</time>
      </trkpt>
      <trkpt lat="43.41712" lon="5.55815">
        <ele>365</ele>
        <time>2015-01-16T09:53:17Z</time>
      </trkpt>
      <trkpt lat="43.41717" lon="5.55811">
        <ele>363</ele>
        <time>2015-01-16T09:53:18Z</time>
      </trkpt>
      <trkpt lat="43.41722" lon="5.55808">
        <ele>362</ele>
        <time>2015-01-16T09:53:19Z</time>
      </trkpt>
      <trkpt lat="43.41726" lon="5.55804">
        <ele>361</ele>
        <time>2015-01-16T09:53:20Z</time>
      </trkpt>
      <trkpt lat="43.41731" lon="5.55798">
        <ele>361</ele>
        <time>2015-01-16T09:53:21Z</time>
      </trkpt>
      <trkpt lat="43.41736" lon="5.55794">
        <ele>360</ele>
        <time>2015-01-16T09:53:22Z</time>
      </trkpt>
      <trkpt lat="43.41742" lon="5.55789">
        <ele>360</ele>
        <time>2015-01-16T09:53:23Z</time>
      </trkpt>
      <trkpt lat="43.41747" lon="5.55784">
        <ele>360</ele>
        <time>2015-01-16T09:53:24Z</time>
      </trkpt>
      <trkpt lat="43.41752" lon="5.55779">
        <ele>360</ele>
        <time>2015-01-16T09:53:25Z</time>
      </trkpt>
      <trkpt lat="43.41758" lon="5.55774">
        <ele>359</ele>
        <time>2015-01-16T09:53:26Z</time>
      </trkpt>
      <trkpt lat="43.41763" lon="5.55769">
        <ele>359</ele>
        <time>2015-01-16T09:53:27Z</time>
      </trkpt>
      <trkpt lat="43.41768" lon="5.55765">
        <ele>358</ele>
        <time>2015-01-16T09:53:28Z</time>
      </trkpt>
      <trkpt lat="43.41773" lon="5.5576">
        <ele>357</ele>
        <time>2015-01-16T09:53:29Z</time>
      </trkpt>
      <trkpt lat="43.41779" lon="5.55755">
        <ele>357</ele>
        <time>2015-01-16T09:53:30Z</time>
      </trkpt>
      <trkpt lat="43.41785" lon="5.5575">
        <ele>356</ele>
        <time>2015-01-16T09:53:31Z</time>
      </trkpt>
      <trkpt lat="43.4179" lon="5.55745">
        <ele>356</ele>
        <time>2015-01-16T09:53:32Z</time>
      </trkpt>
      <trkpt lat="43.41796" lon="5.55743">
        <ele>356</ele>
        <time>2015-01-16T09:53:33Z</time>
      </trkpt>
      <trkpt lat="43.418" lon="5.55741">
        <ele>355</ele>
        <time>2015-01-16T09:53:34Z</time>
      </trkpt>
      <trkpt lat="43.41805" lon="5.55735">
        <ele>354</ele>
        <time>2015-01-16T09:53:35Z</time>
      </trkpt>
      <trkpt lat="43.4181" lon="5.55729">
        <ele>353</ele>
        <time>2015-01-16T09:53:36Z</time>
      </trkpt>
      <trkpt lat="43.41814" lon="5.55723">
        <ele>352</ele>
        <time>2015-01-16T09:53:37Z</time>
      </trkpt>
      <trkpt lat="43.41818" lon="5.55716">
        <ele>352</ele>
        <time>2015-01-16T09:53:38Z</time>
      </trkpt>
      <trkpt lat="43.41821" lon="5.5571">
        <ele>352</ele>
        <time>2015-01-16T09:53:39Z</time>
      </trkpt>
      <trkpt lat="43.41824" lon="5.55704">
        <ele>351</ele>
        <time>2015-01-16T09:53:40Z</time>
      </trkpt>
      <trkpt lat="43.41828" lon="5.55697">
        <ele>350</ele>
        <time>2015-01-16T09:53:41Z</time>
      </trkpt>
      <trkpt lat="43.41831" lon="5.5569">
        <ele>349</ele>
        <time>2015-01-16T09:53:42Z</time>
      </trkpt>
      <trkpt lat="43.41833" lon="5.55683">
        <ele>349</ele>
        <time>2015-01-16T09:53:43Z</time>
      </trkpt>
      <trkpt lat="43.41836" lon="5.55675">
        <ele>350</ele>
        <time>2015-01-16T09:53:44Z</time>
      </trkpt>
      <trkpt lat="43.41838" lon="5.55669">
        <ele>349</ele>
        <time>2015-01-16T09:53:45Z</time>
      </trkpt>
      <trkpt lat="43.41842" lon="5.55664">
        <ele>350</ele>
        <time>2015-01-16T09:53:46Z</time>
      </trkpt>
      <trkpt lat="43.41846" lon="5.55659">
        <ele>350</ele>
        <time>2015-01-16T09:53:47Z</time>
      </trkpt>
      <trkpt lat="43.41851" lon="5.55656">
        <ele>350</ele>
        <time>2015-01-16T09:53:48Z</time>
      </trkpt>
      <trkpt lat="43.41856" lon="5.5565">
        <ele>351</ele>
        <time>2015-01-16T09:53:49Z</time>
      </trkpt>
      <trkpt lat="43.41859" lon="5.55645">
        <ele>350</ele>
        <time>2015-01-16T09:53:50Z</time>
      </trkpt>
      <trkpt lat="43.41864" lon="5.55639">
        <ele>350</ele>
        <time>2015-01-16T09:53:51Z</time>
      </trkpt>
      <trkpt lat="43.4187" lon="5.55633">
        <ele>349</ele>
        <time>2015-01-16T09:53:52Z</time>
      </trkpt>
      <trkpt lat="43.41875" lon="5.55627">
        <ele>348</ele>
        <time>2015-01-16T09:53:53Z</time>
      </trkpt>
      <trkpt lat="43.41879" lon="5.55619">
        <ele>348</ele>
        <time>2015-01-16T09:53:54Z</time>
      </trkpt>
      <trkpt lat="43.41886" lon="5.55609">
        <ele>347</ele>
        <time>2015-01-16T09:53:56Z</time>
      </trkpt>
      <trkpt lat="43.41891" lon="5.55605">
        <ele>346</ele>
        <time>2015-01-16T09:53:57Z</time>
      </trkpt>
      <trkpt lat="43.41894" lon="5.55599">
        <ele>346</ele>
        <time>2015-01-16T09:53:58Z</time>
      </trkpt>
      <trkpt lat="43.41897" lon="5.55592">
        <ele>345</ele>
        <time>2015-01-16T09:53:59Z</time>
      </trkpt>
      <trkpt lat="43.419" lon="5.55585">
        <ele>344</ele>
        <time>2015-01-16T09:54:00Z</time>
      </trkpt>
      <trkpt lat="43.41903" lon="5.55578">
        <ele>343</ele>
        <time>2015-01-16T09:54:01Z</time>
      </trkpt>
      <trkpt lat="43.41905" lon="5.55571">
        <ele>342</ele>
        <time>2015-01-16T09:54:02Z</time>
      </trkpt>
      <trkpt lat="43.41908" lon="5.55561">
        <ele>342</ele>
        <time>2015-01-16T09:54:03Z</time>
      </trkpt>
      <trkpt lat="43.4191" lon="5.55554">
        <ele>342</ele>
        <time>2015-01-16T09:54:04Z</time>
      </trkpt>
      <trkpt lat="43.41912" lon="5.55546">
        <ele>341</ele>
        <time>2015-01-16T09:54:05Z</time>
      </trkpt>
      <trkpt lat="43.41914" lon="5.55538">
        <ele>339</ele>
        <time>2015-01-16T09:54:06Z</time>
      </trkpt>
      <trkpt lat="43.41915" lon="5.5553">
        <ele>339</ele>
        <time>2015-01-16T09:54:07Z</time>
      </trkpt>
      <trkpt lat="43.41916" lon="5.55521">
        <ele>338</ele>
        <time>2015-01-16T09:54:08Z</time>
      </trkpt>
      <trkpt lat="43.41917" lon="5.55514">
        <ele>337</ele>
        <time>2015-01-16T09:54:09Z</time>
      </trkpt>
      <trkpt lat="43.41917" lon="5.55508">
        <ele>338</ele>
        <time>2015-01-16T09:54:10Z</time>
      </trkpt>
      <trkpt lat="43.4192" lon="5.55501">
        <ele>337</ele>
        <time>2015-01-16T09:54:11Z</time>
      </trkpt>
      <trkpt lat="43.41922" lon="5.55495">
        <ele>337</ele>
        <time>2015-01-16T09:54:12Z</time>
      </trkpt>
      <trkpt lat="43.41924" lon="5.55489">
        <ele>337</ele>
        <time>2015-01-16T09:54:13Z</time>
      </trkpt>
      <trkpt lat="43.41927" lon="5.55481">
        <ele>337</ele>
        <time>2015-01-16T09:54:14Z</time>
      </trkpt>
      <trkpt lat="43.41929" lon="5.55473">
        <ele>337</ele>
        <time>2015-01-16T09:54:15Z</time>
      </trkpt>
      <trkpt lat="43.4193" lon="5.55468">
        <ele>337</ele>
        <time>2015-01-16T09:54:16Z</time>
      </trkpt>
      <trkpt lat="43.4193" lon="5.55461">
        <ele>337</ele>
        <time>2015-01-16T09:54:17Z</time>
      </trkpt>
      <trkpt lat="43.41929" lon="5.55452">
        <ele>337</ele>
        <time>2015-01-16T09:54:19Z</time>
      </trkpt>
      <trkpt lat="43.41928" lon="5.55443">
        <ele>337</ele>
        <time>2015-01-16T09:54:22Z</time>
      </trkpt>
      <trkpt lat="43.41925" lon="5.55437">
        <ele>337</ele>
        <time>2015-01-16T09:54:24Z</time>
      </trkpt>
      <trkpt lat="43.41919" lon="5.55436">
        <ele>336</ele>
        <time>2015-01-16T09:54:27Z</time>
      </trkpt>
      <trkpt lat="43.41914" lon="5.55435">
        <ele>336</ele>
        <time>2015-01-16T09:54:30Z</time>
      </trkpt>
      <trkpt lat="43.41908" lon="5.55433">
        <ele>336</ele>
        <time>2015-01-16T09:54:33Z</time>
      </trkpt>
      <trkpt lat="43.41902" lon="5.55435">
        <ele>335</ele>
        <time>2015-01-16T09:54:36Z</time>
      </trkpt>
      <trkpt lat="43.41898" lon="5.55437">
        <ele>335</ele>
        <time>2015-01-16T09:54:38Z</time>
      </trkpt>
      <trkpt lat="43.41893" lon="5.55438">
        <ele>335</ele>
        <time>2015-01-16T09:54:40Z</time>
      </trkpt>
      <trkpt lat="43.41888" lon="5.55439">
        <ele>334</ele>
        <time>2015-01-16T09:54:42Z</time>
      </trkpt>
      <trkpt lat="43.41882" lon="5.55442">
        <ele>334</ele>
        <time>2015-01-16T09:54:44Z</time>
      </trkpt>
      <trkpt lat="43.41879" lon="5.55445">
        <ele>334</ele>
        <time>2015-01-16T09:54:46Z</time>
      </trkpt>
      <trkpt lat="43.41874" lon="5.55446">
        <ele>334</ele>
        <time>2015-01-16T09:54:48Z</time>
      </trkpt>
      <trkpt lat="43.41867" lon="5.55449">
        <ele>334</ele>
        <time>2015-01-16T09:54:51Z</time>
      </trkpt>
      <trkpt lat="43.41863" lon="5.55452">
        <ele>334</ele>
        <time>2015-01-16T09:54:53Z</time>
      </trkpt>
      <trkpt lat="43.41858" lon="5.55455">
        <ele>334</ele>
        <time>2015-01-16T09:54:55Z</time>
      </trkpt>
      <trkpt lat="43.41853" lon="5.55457">
        <ele>334</ele>
        <time>2015-01-16T09:54:57Z</time>
      </trkpt>
      <trkpt lat="43.41848" lon="5.5546">
        <ele>334</ele>
        <time>2015-01-16T09:54:59Z</time>
      </trkpt>
      <trkpt lat="43.41844" lon="5.55462">
        <ele>334</ele>
        <time>2015-01-16T09:55:01Z</time>
      </trkpt>
      <trkpt lat="43.41838" lon="5.55463">
        <ele>334</ele>
        <time>2015-01-16T09:55:04Z</time>
      </trkpt>
      <trkpt lat="43.41833" lon="5.55465">
        <ele>335</ele>
        <time>2015-01-16T09:55:07Z</time>
      </trkpt>
      <trkpt lat="43.41828" lon="5.55469">
        <ele>335</ele>
        <time>2015-01-16T09:55:10Z</time>
      </trkpt>
      <trkpt lat="43.41824" lon="5.55472">
        <ele>335</ele>
        <time>2015-01-16T09:55:12Z</time>
      </trkpt>
      <trkpt lat="43.41817" lon="5.55476">
        <ele>335</ele>
        <time>2015-01-16T09:55:15Z</time>
      </trkpt>
      <trkpt lat="43.41812" lon="5.55479">
        <ele>336</ele>
        <time>2015-01-16T09:55:18Z</time>
      </trkpt>
      <trkpt lat="43.41807" lon="5.55482">
        <ele>336</ele>
        <time>2015-01-16T09:55:20Z</time>
      </trkpt>
      <trkpt lat="43.41802" lon="5.55485">
        <ele>336</ele>
        <time>2015-01-16T09:55:23Z</time>
      </trkpt>
      <trkpt lat="43.41795" lon="5.55487">
        <ele>338</ele>
        <time>2015-01-16T09:55:26Z</time>
      </trkpt>
      <trkpt lat="43.41789" lon="5.55488">
        <ele>339</ele>
        <time>2015-01-16T09:55:30Z</time>
      </trkpt>
      <trkpt lat="43.41781" lon="5.55487">
        <ele>339</ele>
        <time>2015-01-16T09:55:32Z</time>
      </trkpt>
      <trkpt lat="43.41773" lon="5.55487">
        <ele>340</ele>
        <time>2015-01-16T09:55:34Z</time>
      </trkpt>
      <trkpt lat="43.41766" lon="5.55485">
        <ele>340</ele>
        <time>2015-01-16T09:55:36Z</time>
      </trkpt>
      <trkpt lat="43.41759" lon="5.55482">
        <ele>340</ele>
        <time>2015-01-16T09:55:38Z</time>
      </trkpt>
      <trkpt lat="43.41752" lon="5.55482">
        <ele>340</ele>
        <time>2015-01-16T09:55:40Z</time>
      </trkpt>
      <trkpt lat="43.41746" lon="5.55483">
        <ele>340</ele>
        <time>2015-01-16T09:55:42Z</time>
      </trkpt>
      <trkpt lat="43.4174" lon="5.55483">
        <ele>340</ele>
        <time>2015-01-16T09:55:44Z</time>
      </trkpt>
      <trkpt lat="43.41736" lon="5.55482">
        <ele>341</ele>
        <time>2015-01-16T09:55:46Z</time>
      </trkpt>
      <trkpt lat="43.4173" lon="5.55482">
        <ele>341</ele>
        <time>2015-01-16T09:55:48Z</time>
      </trkpt>
      <trkpt lat="43.41723" lon="5.55481">
        <ele>341</ele>
        <time>2015-01-16T09:55:50Z</time>
      </trkpt>
      <trkpt lat="43.41716" lon="5.5548">
        <ele>341</ele>
        <time>2015-01-16T09:55:53Z</time>
      </trkpt>
      <trkpt lat="43.41709" lon="5.5548">
        <ele>341</ele>
        <time>2015-01-16T09:55:55Z</time>
      </trkpt>
      <trkpt lat="43.41703" lon="5.5548">
        <ele>341</ele>
        <time>2015-01-16T09:55:57Z</time>
      </trkpt>
      <trkpt lat="43.41697" lon="5.55481">
        <ele>341</ele>
        <time>2015-01-16T09:55:59Z</time>
      </trkpt>
      <trkpt lat="43.41692" lon="5.55483">
        <ele>341</ele>
        <time>2015-01-16T09:56:01Z</time>
      </trkpt>
      <trkpt lat="43.41684" lon="5.55483">
        <ele>341</ele>
        <time>2015-01-16T09:56:04Z</time>
      </trkpt>
      <trkpt lat="43.41679" lon="5.55484">
        <ele>341</ele>
        <time>2015-01-16T09:56:06Z</time>
      </trkpt>
      <trkpt lat="43.41674" lon="5.55484">
        <ele>341</ele>
        <time>2015-01-16T09:56:08Z</time>
      </trkpt>
      <trkpt lat="43.41669" lon="5.55484">
        <ele>341</ele>
        <time>2015-01-16T09:56:10Z</time>
      </trkpt>
      <trkpt lat="43.41663" lon="5.55484">
        <ele>341</ele>
        <time>2015-01-16T09:56:12Z</time>
      </trkpt>
      <trkpt lat="43.41657" lon="5.55487">
        <ele>342</ele>
        <time>2015-01-16T09:56:14Z</time>
      </trkpt>
      <trkpt lat="43.41649" lon="5.55486">
        <ele>343</ele>
        <time>2015-01-16T09:56:16Z</time>
      </trkpt>
      <trkpt lat="43.41643" lon="5.55486">
        <ele>343</ele>
        <time>2015-01-16T09:56:17Z</time>
      </trkpt>
      <trkpt lat="43.41637" lon="5.55486">
        <ele>343</ele>
        <time>2015-01-16T09:56:18Z</time>
      </trkpt>
      <trkpt lat="43.41631" lon="5.55487">
        <ele>343</ele>
        <time>2015-01-16T09:56:19Z</time>
      </trkpt>
      <trkpt lat="43.41626" lon="5.55489">
        <ele>343</ele>
        <time>2015-01-16T09:56:20Z</time>
      </trkpt>
      <trkpt lat="43.41621" lon="5.5549">
        <ele>344</ele>
        <time>2015-01-16T09:56:21Z</time>
      </trkpt>
      <trkpt lat="43.41615" lon="5.55493">
        <ele>343</ele>
        <time>2015-01-16T09:56:23Z</time>
      </trkpt>
      <trkpt lat="43.41608" lon="5.55498">
        <ele>343</ele>
        <time>2015-01-16T09:56:25Z</time>
      </trkpt>
      <trkpt lat="43.41602" lon="5.55504">
        <ele>343</ele>
        <time>2015-01-16T09:56:27Z</time>
      </trkpt>
      <trkpt lat="43.41596" lon="5.55507">
        <ele>343</ele>
        <time>2015-01-16T09:56:29Z</time>
      </trkpt>
      <trkpt lat="43.41591" lon="5.55511">
        <ele>343</ele>
        <time>2015-01-16T09:56:31Z</time>
      </trkpt>
      <trkpt lat="43.41586" lon="5.55514">
        <ele>343</ele>
        <time>2015-01-16T09:56:33Z</time>
      </trkpt>
      <trkpt lat="43.41581" lon="5.55518">
        <ele>343</ele>
        <time>2015-01-16T09:56:35Z</time>
      </trkpt>
      <trkpt lat="43.41575" lon="5.5552">
        <ele>343</ele>
        <time>2015-01-16T09:56:37Z</time>
      </trkpt>
      <trkpt lat="43.41568" lon="5.5552">
        <ele>343</ele>
        <time>2015-01-16T09:56:39Z</time>
      </trkpt>
      <trkpt lat="43.41562" lon="5.55519">
        <ele>343</ele>
        <time>2015-01-16T09:56:42Z</time>
      </trkpt>
      <trkpt lat="43.41556" lon="5.55521">
        <ele>343</ele>
        <time>2015-01-16T09:56:44Z</time>
      </trkpt>
      <trkpt lat="43.41551" lon="5.55521">
        <ele>343</ele>
        <time>2015-01-16T09:56:46Z</time>
      </trkpt>
      <trkpt lat="43.41543" lon="5.5552">
        <ele>343</ele>
        <time>2015-01-16T09:56:49Z</time>
      </trkpt>
      <trkpt lat="43.41537" lon="5.55519">
        <ele>344</ele>
        <time>2015-01-16T09:56:51Z</time>
      </trkpt>
      <trkpt lat="43.4153" lon="5.55519">
        <ele>345</ele>
        <time>2015-01-16T09:56:53Z</time>
      </trkpt>
      <trkpt lat="43.41523" lon="5.55516">
        <ele>346</ele>
        <time>2015-01-16T09:56:55Z</time>
      </trkpt>
      <trkpt lat="43.41517" lon="5.55516">
        <ele>346</ele>
        <time>2015-01-16T09:56:57Z</time>
      </trkpt>
      <trkpt lat="43.41512" lon="5.55514">
        <ele>346</ele>
        <time>2015-01-16T09:56:59Z</time>
      </trkpt>
      <trkpt lat="43.41507" lon="5.55515">
        <ele>346</ele>
        <time>2015-01-16T09:57:00Z</time>
      </trkpt>
      <trkpt lat="43.41499" lon="5.55515">
        <ele>346</ele>
        <time>2015-01-16T09:57:02Z</time>
      </trkpt>
      <trkpt lat="43.41491" lon="5.55513">
        <ele>345</ele>
        <time>2015-01-16T09:57:04Z</time>
      </trkpt>
      <trkpt lat="43.41484" lon="5.55511">
        <ele>345</ele>
        <time>2015-01-16T09:57:06Z</time>
      </trkpt>
      <trkpt lat="43.41477" lon="5.55509">
        <ele>346</ele>
        <time>2015-01-16T09:57:08Z</time>
      </trkpt>
      <trkpt lat="43.41472" lon="5.55508">
        <ele>347</ele>
        <time>2015-01-16T09:57:09Z</time>
      </trkpt>
      <trkpt lat="43.41466" lon="5.55509">
        <ele>349</ele>
        <time>2015-01-16T09:57:10Z</time>
      </trkpt>
      <trkpt lat="43.4146" lon="5.5551">
        <ele>349</ele>
        <time>2015-01-16T09:57:11Z</time>
      </trkpt>
      <trkpt lat="43.41456" lon="5.55512">
        <ele>349</ele>
        <time>2015-01-16T09:57:12Z</time>
      </trkpt>
      <trkpt lat="43.41451" lon="5.55514">
        <ele>350</ele>
        <time>2015-01-16T09:57:13Z</time>
      </trkpt>
      <trkpt lat="43.41446" lon="5.55516">
        <ele>350</ele>
        <time>2015-01-16T09:57:14Z</time>
      </trkpt>
      <trkpt lat="43.41441" lon="5.55518">
        <ele>350</ele>
        <time>2015-01-16T09:57:15Z</time>
      </trkpt>
      <trkpt lat="43.41436" lon="5.55518">
        <ele>349</ele>
        <time>2015-01-16T09:57:16Z</time>
      </trkpt>
      <trkpt lat="43.41432" lon="5.55518">
        <ele>349</ele>
        <time>2015-01-16T09:57:17Z</time>
      </trkpt>
      <trkpt lat="43.41422" lon="5.55521">
        <ele>349</ele>
        <time>2015-01-16T09:57:19Z</time>
      </trkpt>
      <trkpt lat="43.41418" lon="5.55523">
        <ele>349</ele>
        <time>2015-01-16T09:57:20Z</time>
      </trkpt>
      <trkpt lat="43.41409" lon="5.55525">
        <ele>349</ele>
        <time>2015-01-16T09:57:22Z</time>
      </trkpt>
      <trkpt lat="43.41404" lon="5.55526">
        <ele>349</ele>
        <time>2015-01-16T09:57:23Z</time>
      </trkpt>
      <trkpt lat="43.41396" lon="5.55527">
        <ele>350</ele>
        <time>2015-01-16T09:57:25Z</time>
      </trkpt>
      <trkpt lat="43.41389" lon="5.55531">
        <ele>350</ele>
        <time>2015-01-16T09:57:27Z</time>
      </trkpt>
      <trkpt lat="43.41383" lon="5.5554">
        <ele>350</ele>
        <time>2015-01-16T09:57:29Z</time>
      </trkpt>
      <trkpt lat="43.41375" lon="5.55545">
        <ele>350</ele>
        <time>2015-01-16T09:57:31Z</time>
      </trkpt>
      <trkpt lat="43.41369" lon="5.55552">
        <ele>350</ele>
        <time>2015-01-16T09:57:33Z</time>
      </trkpt>
      <trkpt lat="43.41365" lon="5.55556">
        <ele>350</ele>
        <time>2015-01-16T09:57:35Z</time>
      </trkpt>
      <trkpt lat="43.41361" lon="5.55561">
        <ele>350</ele>
        <time>2015-01-16T09:57:37Z</time>
      </trkpt>
      <trkpt lat="43.41356" lon="5.55568">
        <ele>350</ele>
        <time>2015-01-16T09:57:39Z</time>
      </trkpt>
      <trkpt lat="43.4135" lon="5.55572">
        <ele>350</ele>
        <time>2015-01-16T09:57:41Z</time>
      </trkpt>
      <trkpt lat="43.41346" lon="5.55575">
        <ele>349</ele>
        <time>2015-01-16T09:57:43Z</time>
      </trkpt>
      <trkpt lat="43.41341" lon="5.55578">
        <ele>349</ele>
        <time>2015-01-16T09:57:45Z</time>
      </trkpt>
      <trkpt lat="43.41336" lon="5.55581">
        <ele>349</ele>
        <time>2015-01-16T09:57:47Z</time>
      </trkpt>
      <trkpt lat="43.41331" lon="5.55584">
        <ele>349</ele>
        <time>2015-01-16T09:57:49Z</time>
      </trkpt>
      <trkpt lat="43.41327" lon="5.55589">
        <ele>349</ele>
        <time>2015-01-16T09:57:51Z</time>
      </trkpt>
      <trkpt lat="43.41322" lon="5.55595">
        <ele>349</ele>
        <time>2015-01-16T09:57:53Z</time>
      </trkpt>
      <trkpt lat="43.41317" lon="5.55599">
        <ele>349</ele>
        <time>2015-01-16T09:57:55Z</time>
      </trkpt>
      <trkpt lat="43.41313" lon="5.55603">
        <ele>349</ele>
        <time>2015-01-16T09:57:57Z</time>
      </trkpt>
      <trkpt lat="43.41308" lon="5.55606">
        <ele>349</ele>
        <time>2015-01-16T09:57:59Z</time>
      </trkpt>
      <trkpt lat="43.41301" lon="5.55609">
        <ele>349</ele>
        <time>2015-01-16T09:58:01Z</time>
      </trkpt>
      <trkpt lat="43.41297" lon="5.55615">
        <ele>349</ele>
        <time>2015-01-16T09:58:03Z</time>
      </trkpt>
      <trkpt lat="43.41293" lon="5.55621">
        <ele>349</ele>
        <time>2015-01-16T09:58:05Z</time>
      </trkpt>
      <trkpt lat="43.41289" lon="5.5563">
        <ele>349</ele>
        <time>2015-01-16T09:58:07Z</time>
      </trkpt>
      <trkpt lat="43.41285" lon="5.55636">
        <ele>349</ele>
        <time>2015-01-16T09:58:09Z</time>
      </trkpt>
      <trkpt lat="43.4128" lon="5.55642">
        <ele>349</ele>
        <time>2015-01-16T09:58:11Z</time>
      </trkpt>
      <trkpt lat="43.41275" lon="5.55647">
        <ele>349</ele>
        <time>2015-01-16T09:58:13Z</time>
      </trkpt>
      <trkpt lat="43.41269" lon="5.55654">
        <ele>349</ele>
        <time>2015-01-16T09:58:15Z</time>
      </trkpt>
      <trkpt lat="43.41265" lon="5.55657">
        <ele>348</ele>
        <time>2015-01-16T09:58:16Z</time>
      </trkpt>
      <trkpt lat="43.41261" lon="5.55661">
        <ele>348</ele>
        <time>2015-01-16T09:58:17Z</time>
      </trkpt>
      <trkpt lat="43.41254" lon="5.55668">
        <ele>348</ele>
        <time>2015-01-16T09:58:19Z</time>
      </trkpt>
      <trkpt lat="43.41251" lon="5.55672">
        <ele>348</ele>
        <time>2015-01-16T09:58:21Z</time>
      </trkpt>
      <trkpt lat="43.41246" lon="5.55677">
        <ele>348</ele>
        <time>2015-01-16T09:58:23Z</time>
      </trkpt>
      <trkpt lat="43.41242" lon="5.55681">
        <ele>348</ele>
        <time>2015-01-16T09:58:25Z</time>
      </trkpt>
      <trkpt lat="43.41237" lon="5.55689">
        <ele>348</ele>
        <time>2015-01-16T09:58:27Z</time>
      </trkpt>
      <trkpt lat="43.4123" lon="5.55695">
        <ele>348</ele>
        <time>2015-01-16T09:58:29Z</time>
      </trkpt>
      <trkpt lat="43.41224" lon="5.55702">
        <ele>348</ele>
        <time>2015-01-16T09:58:31Z</time>
      </trkpt>
      <trkpt lat="43.41218" lon="5.55708">
        <ele>348</ele>
        <time>2015-01-16T09:58:33Z</time>
      </trkpt>
      <trkpt lat="43.41211" lon="5.55713">
        <ele>348</ele>
        <time>2015-01-16T09:58:35Z</time>
      </trkpt>
      <trkpt lat="43.41205" lon="5.55716">
        <ele>348</ele>
        <time>2015-01-16T09:58:37Z</time>
      </trkpt>
      <trkpt lat="43.41198" lon="5.55718">
        <ele>348</ele>
        <time>2015-01-16T09:58:39Z</time>
      </trkpt>
      <trkpt lat="43.41193" lon="5.55721">
        <ele>349</ele>
        <time>2015-01-16T09:58:41Z</time>
      </trkpt>
      <trkpt lat="43.41187" lon="5.55726">
        <ele>349</ele>
        <time>2015-01-16T09:58:43Z</time>
      </trkpt>
      <trkpt lat="43.4118" lon="5.5573">
        <ele>349</ele>
        <time>2015-01-16T09:58:45Z</time>
      </trkpt>
      <trkpt lat="43.41176" lon="5.55733">
        <ele>349</ele>
        <time>2015-01-16T09:58:47Z</time>
      </trkpt>
      <trkpt lat="43.41172" lon="5.55737">
        <ele>350</ele>
        <time>2015-01-16T09:58:50Z</time>
      </trkpt>
      <trkpt lat="43.41166" lon="5.55739">
        <ele>350</ele>
        <time>2015-01-16T09:58:52Z</time>
      </trkpt>
      <trkpt lat="43.41162" lon="5.55742">
        <ele>350</ele>
        <time>2015-01-16T09:58:55Z</time>
      </trkpt>
      <trkpt lat="43.41158" lon="5.55747">
        <ele>351</ele>
        <time>2015-01-16T09:58:58Z</time>
      </trkpt>
      <trkpt lat="43.41154" lon="5.55752">
        <ele>351</ele>
        <time>2015-01-16T09:59:04Z</time>
      </trkpt>
      <trkpt lat="43.41155" lon="5.55755">
        <ele>352</ele>
        <time>2015-01-16T09:59:32Z</time>
      </trkpt>
      <trkpt lat="43.41155" lon="5.55753">
        <ele>353</ele>
        <time>2015-01-16T09:59:47Z</time>
      </trkpt>
      <trkpt lat="43.41153" lon="5.55754">
        <ele>354</ele>
        <time>2015-01-16T10:00:02Z</time>
      </trkpt>
      <trkpt lat="43.41154" lon="5.55752">
        <ele>355</ele>
        <time>2015-01-16T10:00:17Z</time>
      </trkpt>
      <trkpt lat="43.41154" lon="5.5575">
        <ele>355</ele>
        <time>2015-01-16T10:00:32Z</time>
      </trkpt>
      <trkpt lat="43.41151" lon="5.55759">
        <ele>355</ele>
        <time>2015-01-16T10:00:46Z</time>
      </trkpt>
      <trkpt lat="43.41148" lon="5.55766">
        <ele>355</ele>
        <time>2015-01-16T10:00:48Z</time>
      </trkpt>
      <trkpt lat="43.41144" lon="5.55773">
        <ele>355</ele>
        <time>2015-01-16T10:00:50Z</time>
      </trkpt>
      <trkpt lat="43.41142" lon="5.55779">
        <ele>355</ele>
        <time>2015-01-16T10:00:52Z</time>
      </trkpt>
      <trkpt lat="43.4114" lon="5.55786">
        <ele>355</ele>
        <time>2015-01-16T10:00:55Z</time>
      </trkpt>
      <trkpt lat="43.41136" lon="5.55792">
        <ele>355</ele>
        <time>2015-01-16T10:00:58Z</time>
      </trkpt>
      <trkpt lat="43.41134" lon="5.55799">
        <ele>355</ele>
        <time>2015-01-16T10:01:00Z</time>
      </trkpt>
      <trkpt lat="43.41132" lon="5.55805">
        <ele>355</ele>
        <time>2015-01-16T10:01:02Z</time>
      </trkpt>
      <trkpt lat="43.4113" lon="5.55812">
        <ele>355</ele>
        <time>2015-01-16T10:01:04Z</time>
      </trkpt>
      <trkpt lat="43.41129" lon="5.55818">
        <ele>356</ele>
        <time>2015-01-16T10:01:06Z</time>
      </trkpt>
      <trkpt lat="43.41127" lon="5.55825">
        <ele>356</ele>
        <time>2015-01-16T10:01:08Z</time>
      </trkpt>
      <trkpt lat="43.41125" lon="5.55832">
        <ele>357</ele>
        <time>2015-01-16T10:01:11Z</time>
      </trkpt>
      <trkpt lat="43.41125" lon="5.5584">
        <ele>357</ele>
        <time>2015-01-16T10:01:14Z</time>
      </trkpt>
      <trkpt lat="43.41123" lon="5.55847">
        <ele>358</ele>
        <time>2015-01-16T10:01:16Z</time>
      </trkpt>
      <trkpt lat="43.4112" lon="5.55853">
        <ele>358</ele>
        <time>2015-01-16T10:01:18Z</time>
      </trkpt>
      <trkpt lat="43.41118" lon="5.5586">
        <ele>359</ele>
        <time>2015-01-16T10:01:20Z</time>
      </trkpt>
      <trkpt lat="43.41114" lon="5.55865">
        <ele>359</ele>
        <time>2015-01-16T10:01:22Z</time>
      </trkpt>
      <trkpt lat="43.41111" lon="5.5587">
        <ele>360</ele>
        <time>2015-01-16T10:01:24Z</time>
      </trkpt>
      <trkpt lat="43.41108" lon="5.55879">
        <ele>360</ele>
        <time>2015-01-16T10:01:26Z</time>
      </trkpt>
      <trkpt lat="43.41105" lon="5.55889">
        <ele>361</ele>
        <time>2015-01-16T10:01:28Z</time>
      </trkpt>
      <trkpt lat="43.41103" lon="5.55899">
        <ele>362</ele>
        <time>2015-01-16T10:01:30Z</time>
      </trkpt>
      <trkpt lat="43.41103" lon="5.55909">
        <ele>362</ele>
        <time>2015-01-16T10:01:32Z</time>
      </trkpt>
      <trkpt lat="43.41102" lon="5.55918">
        <ele>363</ele>
        <time>2015-01-16T10:01:34Z</time>
      </trkpt>
      <trkpt lat="43.411" lon="5.55925">
        <ele>363</ele>
        <time>2015-01-16T10:01:36Z</time>
      </trkpt>
      <trkpt lat="43.41097" lon="5.5593">
        <ele>363</ele>
        <time>2015-01-16T10:01:38Z</time>
      </trkpt>
      <trkpt lat="43.41094" lon="5.55935">
        <ele>364</ele>
        <time>2015-01-16T10:01:40Z</time>
      </trkpt>
      <trkpt lat="43.4109" lon="5.55941">
        <ele>364</ele>
        <time>2015-01-16T10:01:42Z</time>
      </trkpt>
      <trkpt lat="43.41087" lon="5.55947">
        <ele>364</ele>
        <time>2015-01-16T10:01:44Z</time>
      </trkpt>
      <trkpt lat="43.41083" lon="5.55953">
        <ele>364</ele>
        <time>2015-01-16T10:01:46Z</time>
      </trkpt>
      <trkpt lat="43.4108" lon="5.55959">
        <ele>364</ele>
        <time>2015-01-16T10:01:49Z</time>
      </trkpt>
      <trkpt lat="43.41082" lon="5.55954">
        <ele>364</ele>
        <time>2015-01-16T10:02:11Z</time>
      </trkpt>
      <trkpt lat="43.41082" lon="5.55947">
        <ele>364</ele>
        <time>2015-01-16T10:02:20Z</time>
      </trkpt>
      <trkpt lat="43.4108" lon="5.55939">
        <ele>364</ele>
        <time>2015-01-16T10:02:25Z</time>
      </trkpt>
      <trkpt lat="43.41075" lon="5.55935">
        <ele>364</ele>
        <time>2015-01-16T10:02:28Z</time>
      </trkpt>
      <trkpt lat="43.41071" lon="5.55931">
        <ele>364</ele>
        <time>2015-01-16T10:02:30Z</time>
      </trkpt>
      <trkpt lat="43.41066" lon="5.55927">
        <ele>364</ele>
        <time>2015-01-16T10:02:33Z</time>
      </trkpt>
      <trkpt lat="43.41062" lon="5.55925">
        <ele>365</ele>
        <time>2015-01-16T10:02:41Z</time>
      </trkpt>
      <trkpt lat="43.41058" lon="5.55922">
        <ele>366</ele>
        <time>2015-01-16T10:02:51Z</time>
      </trkpt>
      <trkpt lat="43.41053" lon="5.5592">
        <ele>365</ele>
        <time>2015-01-16T10:03:00Z</time>
      </trkpt>
      <trkpt lat="43.4105" lon="5.55914">
        <ele>365</ele>
        <time>2015-01-16T10:03:04Z</time>
      </trkpt>
      <trkpt lat="43.41048" lon="5.55907">
        <ele>364</ele>
        <time>2015-01-16T10:03:08Z</time>
      </trkpt>
      <trkpt lat="43.41049" lon="5.559">
        <ele>364</ele>
        <time>2015-01-16T10:03:11Z</time>
      </trkpt>
      <trkpt lat="43.41051" lon="5.55893">
        <ele>364</ele>
        <time>2015-01-16T10:03:14Z</time>
      </trkpt>
      <trkpt lat="43.41057" lon="5.55887">
        <ele>364</ele>
        <time>2015-01-16T10:03:17Z</time>
      </trkpt>
      <trkpt lat="43.41061" lon="5.55881">
        <ele>364</ele>
        <time>2015-01-16T10:03:21Z</time>
      </trkpt>
      <trkpt lat="43.41062" lon="5.55875">
        <ele>364</ele>
        <time>2015-01-16T10:03:23Z</time>
      </trkpt>
      <trkpt lat="43.41059" lon="5.55867">
        <ele>364</ele>
        <time>2015-01-16T10:03:25Z</time>
      </trkpt>
      <trkpt lat="43.41054" lon="5.5586">
        <ele>363</ele>
        <time>2015-01-16T10:03:27Z</time>
      </trkpt>
      <trkpt lat="43.41048" lon="5.55852">
        <ele>363</ele>
        <time>2015-01-16T10:03:29Z</time>
      </trkpt>
      <trkpt lat="43.41043" lon="5.55846">
        <ele>363</ele>
        <time>2015-01-16T10:03:31Z</time>
      </trkpt>
      <trkpt lat="43.41039" lon="5.55841">
        <ele>362</ele>
        <time>2015-01-16T10:03:33Z</time>
      </trkpt>
      <trkpt lat="43.41037" lon="5.55833">
        <ele>362</ele>
        <time>2015-01-16T10:03:35Z</time>
      </trkpt>
      <trkpt lat="43.41035" lon="5.55823">
        <ele>362</ele>
        <time>2015-01-16T10:03:37Z</time>
      </trkpt>
      <trkpt lat="43.41032" lon="5.55816">
        <ele>362</ele>
        <time>2015-01-16T10:03:39Z</time>
      </trkpt>
      <trkpt lat="43.41032" lon="5.55808">
        <ele>361</ele>
        <time>2015-01-16T10:03:41Z</time>
      </trkpt>
      <trkpt lat="43.41034" lon="5.55803">
        <ele>361</ele>
        <time>2015-01-16T10:03:43Z</time>
      </trkpt>
      <trkpt lat="43.41039" lon="5.55796">
        <ele>359</ele>
        <time>2015-01-16T10:03:45Z</time>
      </trkpt>
      <trkpt lat="43.41044" lon="5.5579">
        <ele>359</ele>
        <time>2015-01-16T10:03:47Z</time>
      </trkpt>
      <trkpt lat="43.41049" lon="5.55785">
        <ele>359</ele>
        <time>2015-01-16T10:03:49Z</time>
      </trkpt>
      <trkpt lat="43.41056" lon="5.55781">
        <ele>358</ele>
        <time>2015-01-16T10:03:51Z</time>
      </trkpt>
      <trkpt lat="43.41063" lon="5.55775">
        <ele>358</ele>
        <time>2015-01-16T10:03:53Z</time>
      </trkpt>
      <trkpt lat="43.41067" lon="5.55766">
        <ele>358</ele>
        <time>2015-01-16T10:03:55Z</time>
      </trkpt>
      <trkpt lat="43.41069" lon="5.55758">
        <ele>358</ele>
        <time>2015-01-16T10:03:57Z</time>
      </trkpt>
      <trkpt lat="43.41071" lon="5.55749">
        <ele>358</ele>
        <time>2015-01-16T10:03:59Z</time>
      </trkpt>
      <trkpt lat="43.41073" lon="5.5574">
        <ele>358</ele>
        <time>2015-01-16T10:04:01Z</time>
      </trkpt>
      <trkpt lat="43.41076" lon="5.55732">
        <ele>358</ele>
        <time>2015-01-16T10:04:03Z</time>
      </trkpt>
      <trkpt lat="43.41081" lon="5.55727">
        <ele>358</ele>
        <time>2015-01-16T10:04:05Z</time>
      </trkpt>
      <trkpt lat="43.41085" lon="5.55722">
        <ele>358</ele>
        <time>2015-01-16T10:04:07Z</time>
      </trkpt>
      <trkpt lat="43.41089" lon="5.55715">
        <ele>358</ele>
        <time>2015-01-16T10:04:09Z</time>
      </trkpt>
      <trkpt lat="43.4109" lon="5.55708">
        <ele>358</ele>
        <time>2015-01-16T10:04:11Z</time>
      </trkpt>
      <trkpt lat="43.41093" lon="5.55701">
        <ele>358</ele>
        <time>2015-01-16T10:04:13Z</time>
      </trkpt>
      <trkpt lat="43.41095" lon="5.55694">
        <ele>358</ele>
        <time>2015-01-16T10:04:15Z</time>
      </trkpt>
      <trkpt lat="43.41098" lon="5.55685">
        <ele>358</ele>
        <time>2015-01-16T10:04:17Z</time>
      </trkpt>
      <trkpt lat="43.41103" lon="5.55676">
        <ele>358</ele>
        <time>2015-01-16T10:04:19Z</time>
      </trkpt>
      <trkpt lat="43.41106" lon="5.55666">
        <ele>358</ele>
        <time>2015-01-16T10:04:21Z</time>
      </trkpt>
      <trkpt lat="43.41109" lon="5.55656">
        <ele>358</ele>
        <time>2015-01-16T10:04:23Z</time>
      </trkpt>
      <trkpt lat="43.41112" lon="5.55647">
        <ele>359</ele>
        <time>2015-01-16T10:04:25Z</time>
      </trkpt>
      <trkpt lat="43.41118" lon="5.55638">
        <ele>359</ele>
        <time>2015-01-16T10:04:27Z</time>
      </trkpt>
      <trkpt lat="43.41124" lon="5.5563">
        <ele>359</ele>
        <time>2015-01-16T10:04:29Z</time>
      </trkpt>
      <trkpt lat="43.41126" lon="5.55624">
        <ele>359</ele>
        <time>2015-01-16T10:04:30Z</time>
      </trkpt>
      <trkpt lat="43.41129" lon="5.55617">
        <ele>360</ele>
        <time>2015-01-16T10:04:31Z</time>
      </trkpt>
      <trkpt lat="43.41131" lon="5.55612">
        <ele>360</ele>
        <time>2015-01-16T10:04:32Z</time>
      </trkpt>
      <trkpt lat="43.41136" lon="5.55601">
        <ele>360</ele>
        <time>2015-01-16T10:04:34Z</time>
      </trkpt>
      <trkpt lat="43.41139" lon="5.55596">
        <ele>359</ele>
        <time>2015-01-16T10:04:35Z</time>
      </trkpt>
      <trkpt lat="43.41146" lon="5.55588">
        <ele>359</ele>
        <time>2015-01-16T10:04:37Z</time>
      </trkpt>
      <trkpt lat="43.4115" lon="5.55578">
        <ele>359</ele>
        <time>2015-01-16T10:04:39Z</time>
      </trkpt>
      <trkpt lat="43.41152" lon="5.55572">
        <ele>360</ele>
        <time>2015-01-16T10:04:40Z</time>
      </trkpt>
      <trkpt lat="43.41153" lon="5.55566">
        <ele>359</ele>
        <time>2015-01-16T10:04:41Z</time>
      </trkpt>
      <trkpt lat="43.41157" lon="5.55555">
        <ele>359</ele>
        <time>2015-01-16T10:04:43Z</time>
      </trkpt>
      <trkpt lat="43.4116" lon="5.5555">
        <ele>359</ele>
        <time>2015-01-16T10:04:44Z</time>
      </trkpt>
      <trkpt lat="43.41163" lon="5.55544">
        <ele>358</ele>
        <time>2015-01-16T10:04:45Z</time>
      </trkpt>
      <trkpt lat="43.41166" lon="5.55538">
        <ele>358</ele>
        <time>2015-01-16T10:04:46Z</time>
      </trkpt>
      <trkpt lat="43.41171" lon="5.55533">
        <ele>358</ele>
        <time>2015-01-16T10:04:47Z</time>
      </trkpt>
      <trkpt lat="43.41175" lon="5.55527">
        <ele>358</ele>
        <time>2015-01-16T10:04:48Z</time>
      </trkpt>
      <trkpt lat="43.41179" lon="5.55521">
        <ele>358</ele>
        <time>2015-01-16T10:04:49Z</time>
      </trkpt>
      <trkpt lat="43.41182" lon="5.55514">
        <ele>358</ele>
        <time>2015-01-16T10:04:50Z</time>
      </trkpt>
      <trkpt lat="43.41185" lon="5.55508">
        <ele>358</ele>
        <time>2015-01-16T10:04:51Z</time>
      </trkpt>
      <trkpt lat="43.41189" lon="5.55501">
        <ele>357</ele>
        <time>2015-01-16T10:04:52Z</time>
      </trkpt>
      <trkpt lat="43.41193" lon="5.55496">
        <ele>358</ele>
        <time>2015-01-16T10:04:53Z</time>
      </trkpt>
      <trkpt lat="43.41197" lon="5.55489">
        <ele>357</ele>
        <time>2015-01-16T10:04:54Z</time>
      </trkpt>
      <trkpt lat="43.41202" lon="5.55483">
        <ele>357</ele>
        <time>2015-01-16T10:04:55Z</time>
      </trkpt>
      <trkpt lat="43.41206" lon="5.55476">
        <ele>357</ele>
        <time>2015-01-16T10:04:56Z</time>
      </trkpt>
      <trkpt lat="43.41209" lon="5.55469">
        <ele>358</ele>
        <time>2015-01-16T10:04:57Z</time>
      </trkpt>
      <trkpt lat="43.41212" lon="5.55461">
        <ele>358</ele>
        <time>2015-01-16T10:04:58Z</time>
      </trkpt>
      <trkpt lat="43.41214" lon="5.55454">
        <ele>358</ele>
        <time>2015-01-16T10:04:59Z</time>
      </trkpt>
      <trkpt lat="43.41218" lon="5.55446">
        <ele>358</ele>
        <time>2015-01-16T10:05:00Z</time>
      </trkpt>
      <trkpt lat="43.41222" lon="5.55438">
        <ele>357</ele>
        <time>2015-01-16T10:05:01Z</time>
      </trkpt>
      <trkpt lat="43.41227" lon="5.55432">
        <ele>357</ele>
        <time>2015-01-16T10:05:02Z</time>
      </trkpt>
      <trkpt lat="43.41233" lon="5.55427">
        <ele>357</ele>
        <time>2015-01-16T10:05:03Z</time>
      </trkpt>
      <trkpt lat="43.41237" lon="5.55423">
        <ele>356</ele>
        <time>2015-01-16T10:05:04Z</time>
      </trkpt>
      <trkpt lat="43.41241" lon="5.55419">
        <ele>356</ele>
        <time>2015-01-16T10:05:05Z</time>
      </trkpt>
      <trkpt lat="43.41245" lon="5.55415">
        <ele>356</ele>
        <time>2015-01-16T10:05:06Z</time>
      </trkpt>
      <trkpt lat="43.41249" lon="5.55411">
        <ele>355</ele>
        <time>2015-01-16T10:05:07Z</time>
      </trkpt>
      <trkpt lat="43.41254" lon="5.55406">
        <ele>355</ele>
        <time>2015-01-16T10:05:08Z</time>
      </trkpt>
      <trkpt lat="43.41259" lon="5.55402">
        <ele>356</ele>
        <time>2015-01-16T10:05:09Z</time>
      </trkpt>
      <trkpt lat="43.41263" lon="5.55399">
        <ele>356</ele>
        <time>2015-01-16T10:05:10Z</time>
      </trkpt>
      <trkpt lat="43.41267" lon="5.55396">
        <ele>356</ele>
        <time>2015-01-16T10:05:11Z</time>
      </trkpt>
      <trkpt lat="43.41275" lon="5.5539">
        <ele>353</ele>
        <time>2015-01-16T10:05:13Z</time>
      </trkpt>
      <trkpt lat="43.41279" lon="5.55385">
        <ele>352</ele>
        <time>2015-01-16T10:05:14Z</time>
      </trkpt>
      <trkpt lat="43.41285" lon="5.55375">
        <ele>351</ele>
        <time>2015-01-16T10:05:16Z</time>
      </trkpt>
      <trkpt lat="43.4129" lon="5.55364">
        <ele>349</ele>
        <time>2015-01-16T10:05:18Z</time>
      </trkpt>
      <trkpt lat="43.41294" lon="5.55357">
        <ele>349</ele>
        <time>2015-01-16T10:05:21Z</time>
      </trkpt>
      <trkpt lat="43.41297" lon="5.55352">
        <ele>349</ele>
        <time>2015-01-16T10:05:23Z</time>
      </trkpt>
      <trkpt lat="43.41297" lon="5.55346">
        <ele>349</ele>
        <time>2015-01-16T10:05:25Z</time>
      </trkpt>
      <trkpt lat="43.41298" lon="5.55337">
        <ele>348</ele>
        <time>2015-01-16T10:05:28Z</time>
      </trkpt>
      <trkpt lat="43.413" lon="5.55329">
        <ele>348</ele>
        <time>2015-01-16T10:05:31Z</time>
      </trkpt>
      <trkpt lat="43.41302" lon="5.55319">
        <ele>348</ele>
        <time>2015-01-16T10:05:34Z</time>
      </trkpt>
      <trkpt lat="43.41304" lon="5.55309">
        <ele>348</ele>
        <time>2015-01-16T10:05:36Z</time>
      </trkpt>
      <trkpt lat="43.41305" lon="5.55302">
        <ele>347</ele>
        <time>2015-01-16T10:05:38Z</time>
      </trkpt>
      <trkpt lat="43.41308" lon="5.55295">
        <ele>347</ele>
        <time>2015-01-16T10:05:40Z</time>
      </trkpt>
      <trkpt lat="43.41311" lon="5.55286">
        <ele>347</ele>
        <time>2015-01-16T10:05:42Z</time>
      </trkpt>
      <trkpt lat="43.41314" lon="5.55277">
        <ele>347</ele>
        <time>2015-01-16T10:05:44Z</time>
      </trkpt>
      <trkpt lat="43.41316" lon="5.55269">
        <ele>347</ele>
        <time>2015-01-16T10:05:46Z</time>
      </trkpt>
      <trkpt lat="43.41317" lon="5.55262">
        <ele>347</ele>
        <time>2015-01-16T10:05:48Z</time>
      </trkpt>
      <trkpt lat="43.41319" lon="5.55255">
        <ele>347</ele>
        <time>2015-01-16T10:05:50Z</time>
      </trkpt>
      <trkpt lat="43.41321" lon="5.55247">
        <ele>347</ele>
        <time>2015-01-16T10:05:52Z</time>
      </trkpt>
      <trkpt lat="43.41322" lon="5.55235">
        <ele>347</ele>
        <time>2015-01-16T10:05:54Z</time>
      </trkpt>
      <trkpt lat="43.41323" lon="5.55229">
        <ele>347</ele>
        <time>2015-01-16T10:05:55Z</time>
      </trkpt>
      <trkpt lat="43.41324" lon="5.55223">
        <ele>347</ele>
        <time>2015-01-16T10:05:56Z</time>
      </trkpt>
      <trkpt lat="43.41326" lon="5.55211">
        <ele>346</ele>
        <time>2015-01-16T10:05:58Z</time>
      </trkpt>
      <trkpt lat="43.41329" lon="5.55202">
        <ele>345</ele>
        <time>2015-01-16T10:06:00Z</time>
      </trkpt>
      <trkpt lat="43.41333" lon="5.55192">
        <ele>345</ele>
        <time>2015-01-16T10:06:02Z</time>
      </trkpt>
      <trkpt lat="43.41336" lon="5.55184">
        <ele>345</ele>
        <time>2015-01-16T10:06:04Z</time>
      </trkpt>
      <trkpt lat="43.41336" lon="5.55174">
        <ele>345</ele>
        <time>2015-01-16T10:06:06Z</time>
      </trkpt>
      <trkpt lat="43.41338" lon="5.55162">
        <ele>345</ele>
        <time>2015-01-16T10:06:08Z</time>
      </trkpt>
      <trkpt lat="43.41338" lon="5.55156">
        <ele>345</ele>
        <time>2015-01-16T10:06:09Z</time>
      </trkpt>
      <trkpt lat="43.41339" lon="5.55149">
        <ele>344</ele>
        <time>2015-01-16T10:06:10Z</time>
      </trkpt>
      <trkpt lat="43.4134" lon="5.55137">
        <ele>343</ele>
        <time>2015-01-16T10:06:12Z</time>
      </trkpt>
      <trkpt lat="43.41341" lon="5.55129">
        <ele>343</ele>
        <time>2015-01-16T10:06:13Z</time>
      </trkpt>
      <trkpt lat="43.41342" lon="5.55121">
        <ele>343</ele>
        <time>2015-01-16T10:06:14Z</time>
      </trkpt>
      <trkpt lat="43.41343" lon="5.55115">
        <ele>344</ele>
        <time>2015-01-16T10:06:15Z</time>
      </trkpt>
      <trkpt lat="43.41344" lon="5.55108">
        <ele>345</ele>
        <time>2015-01-16T10:06:16Z</time>
      </trkpt>
      <trkpt lat="43.41344" lon="5.55101">
        <ele>345</ele>
        <time>2015-01-16T10:06:17Z</time>
      </trkpt>
      <trkpt lat="43.41345" lon="5.55089">
        <ele>345</ele>
        <time>2015-01-16T10:06:19Z</time>
      </trkpt>
      <trkpt lat="43.41347" lon="5.5508">
        <ele>345</ele>
        <time>2015-01-16T10:06:21Z</time>
      </trkpt>
      <trkpt lat="43.41348" lon="5.55069">
        <ele>345</ele>
        <time>2015-01-16T10:06:23Z</time>
      </trkpt>
      <trkpt lat="43.41348" lon="5.55062">
        <ele>344</ele>
        <time>2015-01-16T10:06:24Z</time>
      </trkpt>
      <trkpt lat="43.41348" lon="5.55055">
        <ele>344</ele>
        <time>2015-01-16T10:06:25Z</time>
      </trkpt>
      <trkpt lat="43.41348" lon="5.55047">
        <ele>344</ele>
        <time>2015-01-16T10:06:26Z</time>
      </trkpt>
      <trkpt lat="43.41348" lon="5.55035">
        <ele>344</ele>
        <time>2015-01-16T10:06:28Z</time>
      </trkpt>
      <trkpt lat="43.41346" lon="5.55024">
        <ele>345</ele>
        <time>2015-01-16T10:06:30Z</time>
      </trkpt>
      <trkpt lat="43.41346" lon="5.55012">
        <ele>345</ele>
        <time>2015-01-16T10:06:32Z</time>
      </trkpt>
      <trkpt lat="43.41346" lon="5.55004">
        <ele>344</ele>
        <time>2015-01-16T10:06:33Z</time>
      </trkpt>
      <trkpt lat="43.41346" lon="5.54998">
        <ele>344</ele>
        <time>2015-01-16T10:06:34Z</time>
      </trkpt>
      <trkpt lat="43.41345" lon="5.5499">
        <ele>344</ele>
        <time>2015-01-16T10:06:37Z</time>
      </trkpt>
      <trkpt lat="43.41342" lon="5.54984">
        <ele>343</ele>
        <time>2015-01-16T10:06:58Z</time>
      </trkpt>
      <trkpt lat="43.4134" lon="5.54978">
        <ele>343</ele>
        <time>2015-01-16T10:07:01Z</time>
      </trkpt>
      <trkpt lat="43.41333" lon="5.54972">
        <ele>343</ele>
        <time>2015-01-16T10:07:04Z</time>
      </trkpt>
      <trkpt lat="43.41327" lon="5.54968">
        <ele>343</ele>
        <time>2015-01-16T10:07:07Z</time>
      </trkpt>
      <trkpt lat="43.41322" lon="5.54966">
        <ele>343</ele>
        <time>2015-01-16T10:07:09Z</time>
      </trkpt>
      <trkpt lat="43.41317" lon="5.54964">
        <ele>343</ele>
        <time>2015-01-16T10:07:11Z</time>
      </trkpt>
      <trkpt lat="43.41312" lon="5.54961">
        <ele>343</ele>
        <time>2015-01-16T10:07:13Z</time>
      </trkpt>
      <trkpt lat="43.41307" lon="5.54958">
        <ele>343</ele>
        <time>2015-01-16T10:07:16Z</time>
      </trkpt>
      <trkpt lat="43.41301" lon="5.54956">
        <ele>342</ele>
        <time>2015-01-16T10:07:19Z</time>
      </trkpt>
      <trkpt lat="43.41295" lon="5.54953">
        <ele>342</ele>
        <time>2015-01-16T10:07:22Z</time>
      </trkpt>
      <trkpt lat="43.41291" lon="5.54949">
        <ele>342</ele>
        <time>2015-01-16T10:07:25Z</time>
      </trkpt>
      <trkpt lat="43.41287" lon="5.54942">
        <ele>343</ele>
        <time>2015-01-16T10:07:28Z</time>
      </trkpt>
      <trkpt lat="43.41284" lon="5.54936">
        <ele>343</ele>
        <time>2015-01-16T10:07:30Z</time>
      </trkpt>
      <trkpt lat="43.41282" lon="5.54928">
        <ele>343</ele>
        <time>2015-01-16T10:07:33Z</time>
      </trkpt>
      <trkpt lat="43.41279" lon="5.54922">
        <ele>343</ele>
        <time>2015-01-16T10:07:35Z</time>
      </trkpt>
      <trkpt lat="43.41276" lon="5.54915">
        <ele>343</ele>
        <time>2015-01-16T10:07:38Z</time>
      </trkpt>
      <trkpt lat="43.41274" lon="5.54909">
        <ele>344</ele>
        <time>2015-01-16T10:07:40Z</time>
      </trkpt>
      <trkpt lat="43.41276" lon="5.54901">
        <ele>344</ele>
        <time>2015-01-16T10:07:44Z</time>
      </trkpt>
      <trkpt lat="43.41278" lon="5.54894">
        <ele>344</ele>
        <time>2015-01-16T10:07:46Z</time>
      </trkpt>
      <trkpt lat="43.41274" lon="5.54888">
        <ele>344</ele>
        <time>2015-01-16T10:07:49Z</time>
      </trkpt>
      <trkpt lat="43.41269" lon="5.54883">
        <ele>344</ele>
        <time>2015-01-16T10:07:51Z</time>
      </trkpt>
      <trkpt lat="43.41264" lon="5.54878">
        <ele>344</ele>
        <time>2015-01-16T10:07:53Z</time>
      </trkpt>
      <trkpt lat="43.41259" lon="5.54875">
        <ele>344</ele>
        <time>2015-01-16T10:07:55Z</time>
      </trkpt>
      <trkpt lat="43.41254" lon="5.54873">
        <ele>344</ele>
        <time>2015-01-16T10:07:57Z</time>
      </trkpt>
      <trkpt lat="43.41249" lon="5.54869">
        <ele>344</ele>
        <time>2015-01-16T10:08:00Z</time>
      </trkpt>
      <trkpt lat="43.41246" lon="5.54863">
        <ele>344</ele>
        <time>2015-01-16T10:08:02Z</time>
      </trkpt>
      <trkpt lat="43.41247" lon="5.54852">
        <ele>344</ele>
        <time>2015-01-16T10:08:05Z</time>
      </trkpt>
      <trkpt lat="43.4125" lon="5.54843">
        <ele>344</ele>
        <time>2015-01-16T10:08:07Z</time>
      </trkpt>
      <trkpt lat="43.41253" lon="5.54833">
        <ele>344</ele>
        <time>2015-01-16T10:08:09Z</time>
      </trkpt>
      <trkpt lat="43.41254" lon="5.54821">
        <ele>344</ele>
        <time>2015-01-16T10:08:11Z</time>
      </trkpt>
      <trkpt lat="43.41254" lon="5.54814">
        <ele>344</ele>
        <time>2015-01-16T10:08:12Z</time>
      </trkpt>
      <trkpt lat="43.41255" lon="5.54808">
        <ele>343</ele>
        <time>2015-01-16T10:08:13Z</time>
      </trkpt>
      <trkpt lat="43.41257" lon="5.54797">
        <ele>343</ele>
        <time>2015-01-16T10:08:15Z</time>
      </trkpt>
      <trkpt lat="43.41256" lon="5.54786">
        <ele>343</ele>
        <time>2015-01-16T10:08:17Z</time>
      </trkpt>
      <trkpt lat="43.41254" lon="5.5478">
        <ele>343</ele>
        <time>2015-01-16T10:08:19Z</time>
      </trkpt>
      <trkpt lat="43.41254" lon="5.54774">
        <ele>342</ele>
        <time>2015-01-16T10:08:31Z</time>
      </trkpt>
      <trkpt lat="43.4125" lon="5.54779">
        <ele>342</ele>
        <time>2015-01-16T10:08:36Z</time>
      </trkpt>
      <trkpt lat="43.41246" lon="5.54782">
        <ele>341</ele>
        <time>2015-01-16T10:08:47Z</time>
      </trkpt>
      <trkpt lat="43.41241" lon="5.54783">
        <ele>340</ele>
        <time>2015-01-16T10:08:58Z</time>
      </trkpt>
      <trkpt lat="43.41235" lon="5.54785">
        <ele>339</ele>
        <time>2015-01-16T10:09:17Z</time>
      </trkpt>
      <trkpt lat="43.4123" lon="5.54787">
        <ele>339</ele>
        <time>2015-01-16T10:09:19Z</time>
      </trkpt>
      <trkpt lat="43.41224" lon="5.54789">
        <ele>339</ele>
        <time>2015-01-16T10:09:21Z</time>
      </trkpt>
      <trkpt lat="43.41217" lon="5.5479">
        <ele>339</ele>
        <time>2015-01-16T10:09:23Z</time>
      </trkpt>
      <trkpt lat="43.41212" lon="5.54791">
        <ele>338</ele>
        <time>2015-01-16T10:09:25Z</time>
      </trkpt>
      <trkpt lat="43.41206" lon="5.54794">
        <ele>338</ele>
        <time>2015-01-16T10:09:27Z</time>
      </trkpt>
      <trkpt lat="43.41199" lon="5.54797">
        <ele>338</ele>
        <time>2015-01-16T10:09:29Z</time>
      </trkpt>
      <trkpt lat="43.41193" lon="5.54801">
        <ele>338</ele>
        <time>2015-01-16T10:09:31Z</time>
      </trkpt>
      <trkpt lat="43.41188" lon="5.54802">
        <ele>338</ele>
        <time>2015-01-16T10:09:32Z</time>
      </trkpt>
      <trkpt lat="43.41183" lon="5.54804">
        <ele>338</ele>
        <time>2015-01-16T10:09:33Z</time>
      </trkpt>
      <trkpt lat="43.41177" lon="5.54806">
        <ele>337</ele>
        <time>2015-01-16T10:09:34Z</time>
      </trkpt>
      <trkpt lat="43.41172" lon="5.54808">
        <ele>336</ele>
        <time>2015-01-16T10:09:35Z</time>
      </trkpt>
      <trkpt lat="43.41167" lon="5.5481">
        <ele>335</ele>
        <time>2015-01-16T10:09:36Z</time>
      </trkpt>
      <trkpt lat="43.41158" lon="5.54812">
        <ele>335</ele>
        <time>2015-01-16T10:09:38Z</time>
      </trkpt>
      <trkpt lat="43.41152" lon="5.54814">
        <ele>335</ele>
        <time>2015-01-16T10:09:39Z</time>
      </trkpt>
      <trkpt lat="43.41147" lon="5.54816">
        <ele>334</ele>
        <time>2015-01-16T10:09:40Z</time>
      </trkpt>
      <trkpt lat="43.41141" lon="5.54819">
        <ele>334</ele>
        <time>2015-01-16T10:09:41Z</time>
      </trkpt>
      <trkpt lat="43.41134" lon="5.54822">
        <ele>334</ele>
        <time>2015-01-16T10:09:42Z</time>
      </trkpt>
      <trkpt lat="43.41127" lon="5.54824">
        <ele>334</ele>
        <time>2015-01-16T10:09:43Z</time>
      </trkpt>
      <trkpt lat="43.41119" lon="5.54826">
        <ele>332</ele>
        <time>2015-01-16T10:09:44Z</time>
      </trkpt>
      <trkpt lat="43.41113" lon="5.54828">
        <ele>332</ele>
        <time>2015-01-16T10:09:45Z</time>
      </trkpt>
      <trkpt lat="43.41107" lon="5.5483">
        <ele>332</ele>
        <time>2015-01-16T10:09:46Z</time>
      </trkpt>
      <trkpt lat="43.41101" lon="5.54832">
        <ele>331</ele>
        <time>2015-01-16T10:09:47Z</time>
      </trkpt>
      <trkpt lat="43.41095" lon="5.54833">
        <ele>330</ele>
        <time>2015-01-16T10:09:48Z</time>
      </trkpt>
      <trkpt lat="43.41088" lon="5.54836">
        <ele>329</ele>
        <time>2015-01-16T10:09:49Z</time>
      </trkpt>
      <trkpt lat="43.41081" lon="5.54838">
        <ele>329</ele>
        <time>2015-01-16T10:09:50Z</time>
      </trkpt>
      <trkpt lat="43.41074" lon="5.5484">
        <ele>328</ele>
        <time>2015-01-16T10:09:51Z</time>
      </trkpt>
      <trkpt lat="43.41067" lon="5.54843">
        <ele>328</ele>
        <time>2015-01-16T10:09:52Z</time>
      </trkpt>
      <trkpt lat="43.4106" lon="5.54845">
        <ele>327</ele>
        <time>2015-01-16T10:09:53Z</time>
      </trkpt>
      <trkpt lat="43.41053" lon="5.54847">
        <ele>327</ele>
        <time>2015-01-16T10:09:54Z</time>
      </trkpt>
      <trkpt lat="43.41047" lon="5.5485">
        <ele>328</ele>
        <time>2015-01-16T10:09:55Z</time>
      </trkpt>
      <trkpt lat="43.4104" lon="5.54852">
        <ele>328</ele>
        <time>2015-01-16T10:09:56Z</time>
      </trkpt>
      <trkpt lat="43.41034" lon="5.54854">
        <ele>328</ele>
        <time>2015-01-16T10:09:57Z</time>
      </trkpt>
      <trkpt lat="43.41028" lon="5.54857">
        <ele>329</ele>
        <time>2015-01-16T10:09:58Z</time>
      </trkpt>
      <trkpt lat="43.41021" lon="5.54859">
        <ele>329</ele>
        <time>2015-01-16T10:09:59Z</time>
      </trkpt>
      <trkpt lat="43.41015" lon="5.54861">
        <ele>329</ele>
        <time>2015-01-16T10:10:00Z</time>
      </trkpt>
      <trkpt lat="43.41009" lon="5.54864">
        <ele>329</ele>
        <time>2015-01-16T10:10:01Z</time>
      </trkpt>
      <trkpt lat="43.41003" lon="5.54866">
        <ele>329</ele>
        <time>2015-01-16T10:10:02Z</time>
      </trkpt>
      <trkpt lat="43.40997" lon="5.54869">
        <ele>329</ele>
        <time>2015-01-16T10:10:03Z</time>
      </trkpt>
      <trkpt lat="43.40991" lon="5.54871">
        <ele>329</ele>
        <time>2015-01-16T10:10:04Z</time>
      </trkpt>
      <trkpt lat="43.40985" lon="5.54873">
        <ele>329</ele>
        <time>2015-01-16T10:10:05Z</time>
      </trkpt>
      <trkpt lat="43.40979" lon="5.54875">
        <ele>330</ele>
        <time>2015-01-16T10:10:06Z</time>
      </trkpt>
      <trkpt lat="43.40972" lon="5.54878">
        <ele>329</ele>
        <time>2015-01-16T10:10:07Z</time>
      </trkpt>
      <trkpt lat="43.40966" lon="5.5488">
        <ele>330</ele>
        <time>2015-01-16T10:10:08Z</time>
      </trkpt>
      <trkpt lat="43.40959" lon="5.54883">
        <ele>330</ele>
        <time>2015-01-16T10:10:09Z</time>
      </trkpt>
      <trkpt lat="43.40952" lon="5.54885">
        <ele>330</ele>
        <time>2015-01-16T10:10:10Z</time>
      </trkpt>
      <trkpt lat="43.40945" lon="5.54887">
        <ele>330</ele>
        <time>2015-01-16T10:10:11Z</time>
      </trkpt>
      <trkpt lat="43.40939" lon="5.54889">
        <ele>329</ele>
        <time>2015-01-16T10:10:12Z</time>
      </trkpt>
      <trkpt lat="43.40933" lon="5.54891">
        <ele>328</ele>
        <time>2015-01-16T10:10:13Z</time>
      </trkpt>
      <trkpt lat="43.40926" lon="5.54893">
        <ele>328</ele>
        <time>2015-01-16T10:10:14Z</time>
      </trkpt>
      <trkpt lat="43.4092" lon="5.54895">
        <ele>328</ele>
        <time>2015-01-16T10:10:15Z</time>
      </trkpt>
      <trkpt lat="43.40914" lon="5.54897">
        <ele>329</ele>
        <time>2015-01-16T10:10:16Z</time>
      </trkpt>
      <trkpt lat="43.40908" lon="5.54899">
        <ele>328</ele>
        <time>2015-01-16T10:10:17Z</time>
      </trkpt>
      <trkpt lat="43.40903" lon="5.54901">
        <ele>327</ele>
        <time>2015-01-16T10:10:18Z</time>
      </trkpt>
      <trkpt lat="43.40897" lon="5.54903">
        <ele>327</ele>
        <time>2015-01-16T10:10:19Z</time>
      </trkpt>
      <trkpt lat="43.40891" lon="5.54905">
        <ele>326</ele>
        <time>2015-01-16T10:10:20Z</time>
      </trkpt>
      <trkpt lat="43.40885" lon="5.54907">
        <ele>326</ele>
        <time>2015-01-16T10:10:21Z</time>
      </trkpt>
      <trkpt lat="43.4088" lon="5.54909">
        <ele>325</ele>
        <time>2015-01-16T10:10:22Z</time>
      </trkpt>
      <trkpt lat="43.40876" lon="5.54911">
        <ele>325</ele>
        <time>2015-01-16T10:10:23Z</time>
      </trkpt>
      <trkpt lat="43.40871" lon="5.54908">
        <ele>325</ele>
        <time>2015-01-16T10:10:25Z</time>
      </trkpt>
      <trkpt lat="43.40872" lon="5.549">
        <ele>325</ele>
        <time>2015-01-16T10:10:28Z</time>
      </trkpt>
      <trkpt lat="43.40876" lon="5.54894">
        <ele>325</ele>
        <time>2015-01-16T10:10:31Z</time>
      </trkpt>
      <trkpt lat="43.40881" lon="5.54889">
        <ele>325</ele>
        <time>2015-01-16T10:10:33Z</time>
      </trkpt>
      <trkpt lat="43.40886" lon="5.54885">
        <ele>325</ele>
        <time>2015-01-16T10:10:35Z</time>
      </trkpt>
      <trkpt lat="43.40891" lon="5.54881">
        <ele>325</ele>
        <time>2015-01-16T10:10:37Z</time>
      </trkpt>
      <trkpt lat="43.40894" lon="5.54877">
        <ele>325</ele>
        <time>2015-01-16T10:10:39Z</time>
      </trkpt>
      <trkpt lat="43.40899" lon="5.54872">
        <ele>325</ele>
        <time>2015-01-16T10:10:42Z</time>
      </trkpt>
      <trkpt lat="43.40902" lon="5.54864">
        <ele>325</ele>
        <time>2015-01-16T10:10:44Z</time>
      </trkpt>
      <trkpt lat="43.40902" lon="5.54858">
        <ele>326</ele>
        <time>2015-01-16T10:10:46Z</time>
      </trkpt>
      <trkpt lat="43.40904" lon="5.54851">
        <ele>326</ele>
        <time>2015-01-16T10:10:48Z</time>
      </trkpt>
      <trkpt lat="43.40905" lon="5.54843">
        <ele>326</ele>
        <time>2015-01-16T10:10:50Z</time>
      </trkpt>
      <trkpt lat="43.40905" lon="5.54837">
        <ele>326</ele>
        <time>2015-01-16T10:10:52Z</time>
      </trkpt>
      <trkpt lat="43.40907" lon="5.5483">
        <ele>326</ele>
        <time>2015-01-16T10:10:54Z</time>
      </trkpt>
      <trkpt lat="43.40908" lon="5.54823">
        <ele>326</ele>
        <time>2015-01-16T10:10:56Z</time>
      </trkpt>
      <trkpt lat="43.4091" lon="5.54815">
        <ele>327</ele>
        <time>2015-01-16T10:10:58Z</time>
      </trkpt>
      <trkpt lat="43.40912" lon="5.54809">
        <ele>327</ele>
        <time>2015-01-16T10:11:00Z</time>
      </trkpt>
      <trkpt lat="43.40914" lon="5.54803">
        <ele>327</ele>
        <time>2015-01-16T10:11:02Z</time>
      </trkpt>
      <trkpt lat="43.40915" lon="5.54796">
        <ele>328</ele>
        <time>2015-01-16T10:11:04Z</time>
      </trkpt>
      <trkpt lat="43.40915" lon="5.5479">
        <ele>328</ele>
        <time>2015-01-16T10:11:06Z</time>
      </trkpt>
      <trkpt lat="43.40916" lon="5.54782">
        <ele>328</ele>
        <time>2015-01-16T10:11:08Z</time>
      </trkpt>
      <trkpt lat="43.40916" lon="5.54774">
        <ele>329</ele>
        <time>2015-01-16T10:11:11Z</time>
      </trkpt>
      <trkpt lat="43.40918" lon="5.54768">
        <ele>329</ele>
        <time>2015-01-16T10:11:14Z</time>
      </trkpt>
      <trkpt lat="43.40918" lon="5.54761">
        <ele>329</ele>
        <time>2015-01-16T10:11:17Z</time>
      </trkpt>
      <trkpt lat="43.4092" lon="5.54757">
        <ele>331</ele>
        <time>2015-01-16T10:11:32Z</time>
      </trkpt>
      <trkpt lat="43.40917" lon="5.54746">
        <ele>332</ele>
        <time>2015-01-16T10:11:46Z</time>
      </trkpt>
      <trkpt lat="43.40917" lon="5.5474">
        <ele>333</ele>
        <time>2015-01-16T10:11:49Z</time>
      </trkpt>
      <trkpt lat="43.40918" lon="5.54731">
        <ele>333</ele>
        <time>2015-01-16T10:11:56Z</time>
      </trkpt>
      <trkpt lat="43.4092" lon="5.54724">
        <ele>334</ele>
        <time>2015-01-16T10:12:01Z</time>
      </trkpt>
      <trkpt lat="43.40922" lon="5.54716">
        <ele>335</ele>
        <time>2015-01-16T10:12:06Z</time>
      </trkpt>
      <trkpt lat="43.40923" lon="5.54708">
        <ele>335</ele>
        <time>2015-01-16T10:12:11Z</time>
      </trkpt>
      <trkpt lat="43.40925" lon="5.54701">
        <ele>336</ele>
        <time>2015-01-16T10:12:14Z</time>
      </trkpt>
      <trkpt lat="43.40925" lon="5.54694">
        <ele>337</ele>
        <time>2015-01-16T10:12:17Z</time>
      </trkpt>
      <trkpt lat="43.40926" lon="5.54686">
        <ele>338</ele>
        <time>2015-01-16T10:12:21Z</time>
      </trkpt>
      <trkpt lat="43.40925" lon="5.54678">
        <ele>338</ele>
        <time>2015-01-16T10:12:24Z</time>
      </trkpt>
      <trkpt lat="43.40925" lon="5.54671">
        <ele>339</ele>
        <time>2015-01-16T10:12:27Z</time>
      </trkpt>
      <trkpt lat="43.40925" lon="5.54664">
        <ele>340</ele>
        <time>2015-01-16T10:12:31Z</time>
      </trkpt>
      <trkpt lat="43.40924" lon="5.54657">
        <ele>340</ele>
        <time>2015-01-16T10:12:35Z</time>
      </trkpt>
      <trkpt lat="43.40925" lon="5.54649">
        <ele>341</ele>
        <time>2015-01-16T10:12:40Z</time>
      </trkpt>
      <trkpt lat="43.40928" lon="5.54643">
        <ele>341</ele>
        <time>2015-01-16T10:12:43Z</time>
      </trkpt>
      <trkpt lat="43.40933" lon="5.54635">
        <ele>342</ele>
        <time>2015-01-16T10:12:47Z</time>
      </trkpt>
      <trkpt lat="43.40936" lon="5.5463">
        <ele>343</ele>
        <time>2015-01-16T10:12:52Z</time>
      </trkpt>
      <trkpt lat="43.40939" lon="5.54625">
        <ele>344</ele>
        <time>2015-01-16T10:12:55Z</time>
      </trkpt>
      <trkpt lat="43.40944" lon="5.54623">
        <ele>344</ele>
        <time>2015-01-16T10:12:58Z</time>
      </trkpt>
      <trkpt lat="43.40949" lon="5.54619">
        <ele>345</ele>
        <time>2015-01-16T10:13:01Z</time>
      </trkpt>
      <trkpt lat="43.40952" lon="5.54612">
        <ele>345</ele>
        <time>2015-01-16T10:13:04Z</time>
      </trkpt>
      <trkpt lat="43.40957" lon="5.54607">
        <ele>345</ele>
        <time>2015-01-16T10:13:07Z</time>
      </trkpt>
      <trkpt lat="43.40962" lon="5.54604">
        <ele>346</ele>
        <time>2015-01-16T10:13:10Z</time>
      </trkpt>
      <trkpt lat="43.40967" lon="5.54601">
        <ele>346</ele>
        <time>2015-01-16T10:13:13Z</time>
      </trkpt>
      <trkpt lat="43.40972" lon="5.54601">
        <ele>346</ele>
        <time>2015-01-16T10:13:16Z</time>
      </trkpt>
      <trkpt lat="43.40976" lon="5.54607">
        <ele>347</ele>
        <time>2015-01-16T10:13:20Z</time>
      </trkpt>
      <trkpt lat="43.40979" lon="5.54613">
        <ele>347</ele>
        <time>2015-01-16T10:13:23Z</time>
      </trkpt>
      <trkpt lat="43.40982" lon="5.54619">
        <ele>348</ele>
        <time>2015-01-16T10:13:26Z</time>
      </trkpt>
      <trkpt lat="43.40986" lon="5.54625">
        <ele>348</ele>
        <time>2015-01-16T10:13:29Z</time>
      </trkpt>
      <trkpt lat="43.40988" lon="5.5463">
        <ele>348</ele>
        <time>2015-01-16T10:13:31Z</time>
      </trkpt>
      <trkpt lat="43.40991" lon="5.54635">
        <ele>349</ele>
        <time>2015-01-16T10:13:33Z</time>
      </trkpt>
      <trkpt lat="43.40995" lon="5.54639">
        <ele>349</ele>
        <time>2015-01-16T10:13:36Z</time>
      </trkpt>
      <trkpt lat="43.41" lon="5.54641">
        <ele>349</ele>
        <time>2015-01-16T10:13:38Z</time>
      </trkpt>
      <trkpt lat="43.41005" lon="5.54642">
        <ele>349</ele>
        <time>2015-01-16T10:13:40Z</time>
      </trkpt>
      <trkpt lat="43.4101" lon="5.5464">
        <ele>350</ele>
        <time>2015-01-16T10:13:43Z</time>
      </trkpt>
      <trkpt lat="43.41012" lon="5.54634">
        <ele>350</ele>
        <time>2015-01-16T10:13:47Z</time>
      </trkpt>
      <trkpt lat="43.41013" lon="5.54627">
        <ele>350</ele>
        <time>2015-01-16T10:13:50Z</time>
      </trkpt>
      <trkpt lat="43.41012" lon="5.54619">
        <ele>351</ele>
        <time>2015-01-16T10:13:53Z</time>
      </trkpt>
      <trkpt lat="43.41012" lon="5.5461">
        <ele>352</ele>
        <time>2015-01-16T10:13:56Z</time>
      </trkpt>
      <trkpt lat="43.41011" lon="5.54604">
        <ele>352</ele>
        <time>2015-01-16T10:13:59Z</time>
      </trkpt>
      <trkpt lat="43.41011" lon="5.54596">
        <ele>353</ele>
        <time>2015-01-16T10:14:02Z</time>
      </trkpt>
      <trkpt lat="43.41011" lon="5.54588">
        <ele>354</ele>
        <time>2015-01-16T10:14:05Z</time>
      </trkpt>
      <trkpt lat="43.41011" lon="5.54582">
        <ele>354</ele>
        <time>2015-01-16T10:14:07Z</time>
      </trkpt>
      <trkpt lat="43.41012" lon="5.54574">
        <ele>354</ele>
        <time>2015-01-16T10:14:10Z</time>
      </trkpt>
      <trkpt lat="43.41013" lon="5.54567">
        <ele>355</ele>
        <time>2015-01-16T10:14:13Z</time>
      </trkpt>
      <trkpt lat="43.41015" lon="5.54562">
        <ele>355</ele>
        <time>2015-01-16T10:14:16Z</time>
      </trkpt>
      <trkpt lat="43.41017" lon="5.54556">
        <ele>356</ele>
        <time>2015-01-16T10:14:19Z</time>
      </trkpt>
      <trkpt lat="43.41019" lon="5.5455">
        <ele>356</ele>
        <time>2015-01-16T10:14:22Z</time>
      </trkpt>
      <trkpt lat="43.41022" lon="5.54543">
        <ele>357</ele>
        <time>2015-01-16T10:14:25Z</time>
      </trkpt>
      <trkpt lat="43.41024" lon="5.54537">
        <ele>358</ele>
        <time>2015-01-16T10:14:28Z</time>
      </trkpt>
      <trkpt lat="43.41027" lon="5.54532">
        <ele>358</ele>
        <time>2015-01-16T10:14:31Z</time>
      </trkpt>
      <trkpt lat="43.41032" lon="5.54529">
        <ele>358</ele>
        <time>2015-01-16T10:14:35Z</time>
      </trkpt>
      <trkpt lat="43.41037" lon="5.54529">
        <ele>359</ele>
        <time>2015-01-16T10:14:38Z</time>
      </trkpt>
      <trkpt lat="43.41043" lon="5.54527">
        <ele>359</ele>
        <time>2015-01-16T10:14:40Z</time>
      </trkpt>
      <trkpt lat="43.41048" lon="5.54524">
        <ele>359</ele>
        <time>2015-01-16T10:14:42Z</time>
      </trkpt>
      <trkpt lat="43.41053" lon="5.54518">
        <ele>360</ele>
        <time>2015-01-16T10:14:44Z</time>
      </trkpt>
      <trkpt lat="43.41055" lon="5.54511">
        <ele>360</ele>
        <time>2015-01-16T10:14:46Z</time>
      </trkpt>
      <trkpt lat="43.41053" lon="5.54503">
        <ele>360</ele>
        <time>2015-01-16T10:14:48Z</time>
      </trkpt>
      <trkpt lat="43.4105" lon="5.54495">
        <ele>362</ele>
        <time>2015-01-16T10:14:50Z</time>
      </trkpt>
      <trkpt lat="43.41045" lon="5.54488">
        <ele>362</ele>
        <time>2015-01-16T10:14:52Z</time>
      </trkpt>
      <trkpt lat="43.41041" lon="5.5448">
        <ele>363</ele>
        <time>2015-01-16T10:14:54Z</time>
      </trkpt>
      <trkpt lat="43.41039" lon="5.54472">
        <ele>363</ele>
        <time>2015-01-16T10:14:56Z</time>
      </trkpt>
      <trkpt lat="43.41038" lon="5.54465">
        <ele>364</ele>
        <time>2015-01-16T10:14:58Z</time>
      </trkpt>
      <trkpt lat="43.41036" lon="5.54456">
        <ele>364</ele>
        <time>2015-01-16T10:15:00Z</time>
      </trkpt>
      <trkpt lat="43.41033" lon="5.54449">
        <ele>364</ele>
        <time>2015-01-16T10:15:02Z</time>
      </trkpt>
      <trkpt lat="43.4103" lon="5.54443">
        <ele>364</ele>
        <time>2015-01-16T10:15:04Z</time>
      </trkpt>
      <trkpt lat="43.41027" lon="5.54438">
        <ele>364</ele>
        <time>2015-01-16T10:15:06Z</time>
      </trkpt>
      <trkpt lat="43.41023" lon="5.54434">
        <ele>364</ele>
        <time>2015-01-16T10:15:09Z</time>
      </trkpt>
      <trkpt lat="43.41019" lon="5.54429">
        <ele>364</ele>
        <time>2015-01-16T10:15:11Z</time>
      </trkpt>
      <trkpt lat="43.41015" lon="5.54425">
        <ele>364</ele>
        <time>2015-01-16T10:15:14Z</time>
      </trkpt>
      <trkpt lat="43.41011" lon="5.54424">
        <ele>364</ele>
        <time>2015-01-16T10:15:16Z</time>
      </trkpt>
      <trkpt lat="43.41004" lon="5.54424">
        <ele>364</ele>
        <time>2015-01-16T10:15:19Z</time>
      </trkpt>
      <trkpt lat="43.40998" lon="5.54425">
        <ele>364</ele>
        <time>2015-01-16T10:15:22Z</time>
      </trkpt>
      <trkpt lat="43.40991" lon="5.54425">
        <ele>365</ele>
        <time>2015-01-16T10:15:25Z</time>
      </trkpt>
      <trkpt lat="43.40986" lon="5.54424">
        <ele>365</ele>
        <time>2015-01-16T10:15:27Z</time>
      </trkpt>
      <trkpt lat="43.40981" lon="5.54423">
        <ele>365</ele>
        <time>2015-01-16T10:15:29Z</time>
      </trkpt>
      <trkpt lat="43.40976" lon="5.54422">
        <ele>365</ele>
        <time>2015-01-16T10:15:31Z</time>
      </trkpt>
      <trkpt lat="43.40972" lon="5.5442">
        <ele>365</ele>
        <time>2015-01-16T10:15:33Z</time>
      </trkpt>
      <trkpt lat="43.40966" lon="5.54417">
        <ele>365</ele>
        <time>2015-01-16T10:15:36Z</time>
      </trkpt>
      <trkpt lat="43.4096" lon="5.54412">
        <ele>365</ele>
        <time>2015-01-16T10:15:39Z</time>
      </trkpt>
      <trkpt lat="43.40956" lon="5.54407">
        <ele>365</ele>
        <time>2015-01-16T10:15:42Z</time>
      </trkpt>
      <trkpt lat="43.40953" lon="5.54402">
        <ele>365</ele>
        <time>2015-01-16T10:15:44Z</time>
      </trkpt>
      <trkpt lat="43.4095" lon="5.54394">
        <ele>365</ele>
        <time>2015-01-16T10:15:47Z</time>
      </trkpt>
      <trkpt lat="43.40948" lon="5.54387">
        <ele>365</ele>
        <time>2015-01-16T10:15:50Z</time>
      </trkpt>
      <trkpt lat="43.40947" lon="5.5438">
        <ele>365</ele>
        <time>2015-01-16T10:15:53Z</time>
      </trkpt>
      <trkpt lat="43.40948" lon="5.54372">
        <ele>365</ele>
        <time>2015-01-16T10:15:56Z</time>
      </trkpt>
      <trkpt lat="43.40948" lon="5.54364">
        <ele>365</ele>
        <time>2015-01-16T10:15:58Z</time>
      </trkpt>
      <trkpt lat="43.40949" lon="5.54355">
        <ele>365</ele>
        <time>2015-01-16T10:16:00Z</time>
      </trkpt>
      <trkpt lat="43.40951" lon="5.54346">
        <ele>366</ele>
        <time>2015-01-16T10:16:03Z</time>
      </trkpt>
      <trkpt lat="43.40953" lon="5.5434">
        <ele>366</ele>
        <time>2015-01-16T10:16:05Z</time>
      </trkpt>
      <trkpt lat="43.40955" lon="5.54333">
        <ele>366</ele>
        <time>2015-01-16T10:16:07Z</time>
      </trkpt>
      <trkpt lat="43.40956" lon="5.54324">
        <ele>366</ele>
        <time>2015-01-16T10:16:09Z</time>
      </trkpt>
      <trkpt lat="43.40958" lon="5.54317">
        <ele>366</ele>
        <time>2015-01-16T10:16:11Z</time>
      </trkpt>
      <trkpt lat="43.40962" lon="5.54309">
        <ele>367</ele>
        <time>2015-01-16T10:16:13Z</time>
      </trkpt>
      <trkpt lat="43.40966" lon="5.54302">
        <ele>367</ele>
        <time>2015-01-16T10:16:15Z</time>
      </trkpt>
      <trkpt lat="43.4097" lon="5.54296">
        <ele>367</ele>
        <time>2015-01-16T10:16:17Z</time>
      </trkpt>
      <trkpt lat="43.40974" lon="5.54292">
        <ele>367</ele>
        <time>2015-01-16T10:16:19Z</time>
      </trkpt>
      <trkpt lat="43.40978" lon="5.54289">
        <ele>367</ele>
        <time>2015-01-16T10:16:21Z</time>
      </trkpt>
      <trkpt lat="43.40983" lon="5.54286">
        <ele>367</ele>
        <time>2015-01-16T10:16:23Z</time>
      </trkpt>
      <trkpt lat="43.40989" lon="5.54283">
        <ele>367</ele>
        <time>2015-01-16T10:16:25Z</time>
      </trkpt>
      <trkpt lat="43.40995" lon="5.54281">
        <ele>367</ele>
        <time>2015-01-16T10:16:27Z</time>
      </trkpt>
      <trkpt lat="43.41001" lon="5.54281">
        <ele>368</ele>
        <time>2015-01-16T10:16:30Z</time>
      </trkpt>
      <trkpt lat="43.41006" lon="5.54281">
        <ele>368</ele>
        <time>2015-01-16T10:16:32Z</time>
      </trkpt>
      <trkpt lat="43.41013" lon="5.5428">
        <ele>368</ele>
        <time>2015-01-16T10:16:34Z</time>
      </trkpt>
      <trkpt lat="43.41019" lon="5.54278">
        <ele>369</ele>
        <time>2015-01-16T10:16:36Z</time>
      </trkpt>
      <trkpt lat="43.41025" lon="5.54276">
        <ele>369</ele>
        <time>2015-01-16T10:16:38Z</time>
      </trkpt>
      <trkpt lat="43.41029" lon="5.54273">
        <ele>369</ele>
        <time>2015-01-16T10:16:40Z</time>
      </trkpt>
      <trkpt lat="43.41034" lon="5.54271">
        <ele>370</ele>
        <time>2015-01-16T10:16:42Z</time>
      </trkpt>
      <trkpt lat="43.41039" lon="5.54268">
        <ele>370</ele>
        <time>2015-01-16T10:16:45Z</time>
      </trkpt>
      <trkpt lat="43.41044" lon="5.54266">
        <ele>371</ele>
        <time>2015-01-16T10:16:48Z</time>
      </trkpt>
      <trkpt lat="43.4105" lon="5.54264">
        <ele>371</ele>
        <time>2015-01-16T10:16:51Z</time>
      </trkpt>
      <trkpt lat="43.41057" lon="5.54262">
        <ele>372</ele>
        <time>2015-01-16T10:16:54Z</time>
      </trkpt>
      <trkpt lat="43.41061" lon="5.5426">
        <ele>372</ele>
        <time>2015-01-16T10:16:56Z</time>
      </trkpt>
      <trkpt lat="43.41066" lon="5.54257">
        <ele>372</ele>
        <time>2015-01-16T10:16:58Z</time>
      </trkpt>
      <trkpt lat="43.41071" lon="5.54255">
        <ele>373</ele>
        <time>2015-01-16T10:17:00Z</time>
      </trkpt>
      <trkpt lat="43.41076" lon="5.5425">
        <ele>373</ele>
        <time>2015-01-16T10:17:03Z</time>
      </trkpt>
      <trkpt lat="43.41079" lon="5.54244">
        <ele>373</ele>
        <time>2015-01-16T10:17:05Z</time>
      </trkpt>
      <trkpt lat="43.41081" lon="5.54237">
        <ele>374</ele>
        <time>2015-01-16T10:17:07Z</time>
      </trkpt>
      <trkpt lat="43.41084" lon="5.54229">
        <ele>374</ele>
        <time>2015-01-16T10:17:09Z</time>
      </trkpt>
      <trkpt lat="43.41086" lon="5.54222">
        <ele>374</ele>
        <time>2015-01-16T10:17:11Z</time>
      </trkpt>
      <trkpt lat="43.41088" lon="5.54216">
        <ele>374</ele>
        <time>2015-01-16T10:17:13Z</time>
      </trkpt>
      <trkpt lat="43.41091" lon="5.54209">
        <ele>375</ele>
        <time>2015-01-16T10:17:16Z</time>
      </trkpt>
      <trkpt lat="43.41094" lon="5.54203">
        <ele>375</ele>
        <time>2015-01-16T10:17:18Z</time>
      </trkpt>
      <trkpt lat="43.41098" lon="5.54196">
        <ele>375</ele>
        <time>2015-01-16T10:17:20Z</time>
      </trkpt>
      <trkpt lat="43.41102" lon="5.54187">
        <ele>375</ele>
        <time>2015-01-16T10:17:22Z</time>
      </trkpt>
      <trkpt lat="43.41105" lon="5.54177">
        <ele>377</ele>
        <time>2015-01-16T10:17:24Z</time>
      </trkpt>
      <trkpt lat="43.41106" lon="5.54167">
        <ele>377</ele>
        <time>2015-01-16T10:17:26Z</time>
      </trkpt>
      <trkpt lat="43.41108" lon="5.54158">
        <ele>377</ele>
        <time>2015-01-16T10:17:28Z</time>
      </trkpt>
      <trkpt lat="43.4111" lon="5.54148">
        <ele>377</ele>
        <time>2015-01-16T10:17:30Z</time>
      </trkpt>
      <trkpt lat="43.41113" lon="5.54139">
        <ele>377</ele>
        <time>2015-01-16T10:17:32Z</time>
      </trkpt>
      <trkpt lat="43.41114" lon="5.54129">
        <ele>377</ele>
        <time>2015-01-16T10:17:34Z</time>
      </trkpt>
      <trkpt lat="43.41116" lon="5.5412">
        <ele>377</ele>
        <time>2015-01-16T10:17:36Z</time>
      </trkpt>
      <trkpt lat="43.41119" lon="5.54108">
        <ele>378</ele>
        <time>2015-01-16T10:17:38Z</time>
      </trkpt>
      <trkpt lat="43.41121" lon="5.54101">
        <ele>379</ele>
        <time>2015-01-16T10:17:39Z</time>
      </trkpt>
      <trkpt lat="43.41122" lon="5.54094">
        <ele>379</ele>
        <time>2015-01-16T10:17:40Z</time>
      </trkpt>
      <trkpt lat="43.41124" lon="5.54088">
        <ele>380</ele>
        <time>2015-01-16T10:17:41Z</time>
      </trkpt>
      <trkpt lat="43.41125" lon="5.54081">
        <ele>381</ele>
        <time>2015-01-16T10:17:42Z</time>
      </trkpt>
      <trkpt lat="43.41127" lon="5.54076">
        <ele>381</ele>
        <time>2015-01-16T10:17:43Z</time>
      </trkpt>
      <trkpt lat="43.41131" lon="5.54068">
        <ele>382</ele>
        <time>2015-01-16T10:17:45Z</time>
      </trkpt>
      <trkpt lat="43.41136" lon="5.54061">
        <ele>382</ele>
        <time>2015-01-16T10:17:47Z</time>
      </trkpt>
      <trkpt lat="43.41139" lon="5.54057">
        <ele>383</ele>
        <time>2015-01-16T10:17:48Z</time>
      </trkpt>
      <trkpt lat="43.41146" lon="5.5405">
        <ele>385</ele>
        <time>2015-01-16T10:17:50Z</time>
      </trkpt>
      <trkpt lat="43.41152" lon="5.54042">
        <ele>385</ele>
        <time>2015-01-16T10:17:52Z</time>
      </trkpt>
      <trkpt lat="43.41156" lon="5.54038">
        <ele>385</ele>
        <time>2015-01-16T10:17:54Z</time>
      </trkpt>
      <trkpt lat="43.41161" lon="5.54034">
        <ele>385</ele>
        <time>2015-01-16T10:17:56Z</time>
      </trkpt>
      <trkpt lat="43.41165" lon="5.54031">
        <ele>384</ele>
        <time>2015-01-16T10:17:58Z</time>
      </trkpt>
      <trkpt lat="43.41169" lon="5.54029">
        <ele>384</ele>
        <time>2015-01-16T10:18:01Z</time>
      </trkpt>
      <trkpt lat="43.41174" lon="5.54026">
        <ele>384</ele>
        <time>2015-01-16T10:18:05Z</time>
      </trkpt>
      <trkpt lat="43.4118" lon="5.54023">
        <ele>384</ele>
        <time>2015-01-16T10:18:08Z</time>
      </trkpt>
      <trkpt lat="43.41184" lon="5.54021">
        <ele>384</ele>
        <time>2015-01-16T10:18:10Z</time>
      </trkpt>
      <trkpt lat="43.41188" lon="5.5402">
        <ele>384</ele>
        <time>2015-01-16T10:18:12Z</time>
      </trkpt>
      <trkpt lat="43.41193" lon="5.54019">
        <ele>384</ele>
        <time>2015-01-16T10:18:14Z</time>
      </trkpt>
      <trkpt lat="43.41198" lon="5.54015">
        <ele>383</ele>
        <time>2015-01-16T10:18:16Z</time>
      </trkpt>
      <trkpt lat="43.41203" lon="5.5401">
        <ele>383</ele>
        <time>2015-01-16T10:18:18Z</time>
      </trkpt>
      <trkpt lat="43.41209" lon="5.54006">
        <ele>383</ele>
        <time>2015-01-16T10:18:20Z</time>
      </trkpt>
      <trkpt lat="43.41215" lon="5.54001">
        <ele>383</ele>
        <time>2015-01-16T10:18:22Z</time>
      </trkpt>
      <trkpt lat="43.41221" lon="5.53995">
        <ele>383</ele>
        <time>2015-01-16T10:18:24Z</time>
      </trkpt>
      <trkpt lat="43.41226" lon="5.5399">
        <ele>383</ele>
        <time>2015-01-16T10:18:26Z</time>
      </trkpt>
      <trkpt lat="43.4123" lon="5.53986">
        <ele>383</ele>
        <time>2015-01-16T10:18:27Z</time>
      </trkpt>
      <trkpt lat="43.41234" lon="5.53983">
        <ele>383</ele>
        <time>2015-01-16T10:18:28Z</time>
      </trkpt>
      <trkpt lat="43.41239" lon="5.5398">
        <ele>384</ele>
        <time>2015-01-16T10:18:29Z</time>
      </trkpt>
      <trkpt lat="43.41244" lon="5.53977">
        <ele>385</ele>
        <time>2015-01-16T10:18:30Z</time>
      </trkpt>
      <trkpt lat="43.41248" lon="5.53974">
        <ele>386</ele>
        <time>2015-01-16T10:18:31Z</time>
      </trkpt>
      <trkpt lat="43.41253" lon="5.53971">
        <ele>387</ele>
        <time>2015-01-16T10:18:32Z</time>
      </trkpt>
      <trkpt lat="43.41258" lon="5.53967">
        <ele>387</ele>
        <time>2015-01-16T10:18:33Z</time>
      </trkpt>
      <trkpt lat="43.41264" lon="5.53965">
        <ele>387</ele>
        <time>2015-01-16T10:18:34Z</time>
      </trkpt>
      <trkpt lat="43.41269" lon="5.53963">
        <ele>387</ele>
        <time>2015-01-16T10:18:35Z</time>
      </trkpt>
      <trkpt lat="43.41274" lon="5.53959">
        <ele>386</ele>
        <time>2015-01-16T10:18:36Z</time>
      </trkpt>
      <trkpt lat="43.41279" lon="5.53956">
        <ele>386</ele>
        <time>2015-01-16T10:18:37Z</time>
      </trkpt>
      <trkpt lat="43.41284" lon="5.53953">
        <ele>386</ele>
        <time>2015-01-16T10:18:38Z</time>
      </trkpt>
      <trkpt lat="43.41288" lon="5.53951">
        <ele>386</ele>
        <time>2015-01-16T10:18:39Z</time>
      </trkpt>
      <trkpt lat="43.41293" lon="5.53947">
        <ele>386</ele>
        <time>2015-01-16T10:18:40Z</time>
      </trkpt>
      <trkpt lat="43.41297" lon="5.53943">
        <ele>386</ele>
        <time>2015-01-16T10:18:41Z</time>
      </trkpt>
      <trkpt lat="43.41301" lon="5.5394">
        <ele>386</ele>
        <time>2015-01-16T10:18:42Z</time>
      </trkpt>
      <trkpt lat="43.41305" lon="5.53937">
        <ele>385</ele>
        <time>2015-01-16T10:18:43Z</time>
      </trkpt>
      <trkpt lat="43.41309" lon="5.53934">
        <ele>385</ele>
        <time>2015-01-16T10:18:44Z</time>
      </trkpt>
      <trkpt lat="43.41314" lon="5.53931">
        <ele>385</ele>
        <time>2015-01-16T10:18:45Z</time>
      </trkpt>
      <trkpt lat="43.41319" lon="5.53929">
        <ele>384</ele>
        <time>2015-01-16T10:18:46Z</time>
      </trkpt>
      <trkpt lat="43.41323" lon="5.53927">
        <ele>384</ele>
        <time>2015-01-16T10:18:47Z</time>
      </trkpt>
      <trkpt lat="43.41328" lon="5.53925">
        <ele>383</ele>
        <time>2015-01-16T10:18:48Z</time>
      </trkpt>
      <trkpt lat="43.41333" lon="5.53921">
        <ele>382</ele>
        <time>2015-01-16T10:18:49Z</time>
      </trkpt>
      <trkpt lat="43.41341" lon="5.53917">
        <ele>383</ele>
        <time>2015-01-16T10:18:51Z</time>
      </trkpt>
      <trkpt lat="43.41348" lon="5.53914">
        <ele>384</ele>
        <time>2015-01-16T10:18:53Z</time>
      </trkpt>
      <trkpt lat="43.41355" lon="5.53913">
        <ele>384</ele>
        <time>2015-01-16T10:18:56Z</time>
      </trkpt>
      <trkpt lat="43.41361" lon="5.5391">
        <ele>384</ele>
        <time>2015-01-16T10:18:59Z</time>
      </trkpt>
      <trkpt lat="43.41367" lon="5.53907">
        <ele>384</ele>
        <time>2015-01-16T10:19:01Z</time>
      </trkpt>
      <trkpt lat="43.41372" lon="5.53903">
        <ele>383</ele>
        <time>2015-01-16T10:19:03Z</time>
      </trkpt>
      <trkpt lat="43.41377" lon="5.53899">
        <ele>383</ele>
        <time>2015-01-16T10:19:06Z</time>
      </trkpt>
      <trkpt lat="43.4138" lon="5.53897">
        <ele>383</ele>
        <time>2015-01-16T10:19:32Z</time>
      </trkpt>
      <trkpt lat="43.41381" lon="5.53894">
        <ele>383</ele>
        <time>2015-01-16T10:19:39Z</time>
      </trkpt>
      <trkpt lat="43.4138" lon="5.53893">
        <ele>383</ele>
        <time>2015-01-16T10:20:02Z</time>
      </trkpt>
      <trkpt lat="43.41379" lon="5.53888">
        <ele>383</ele>
        <time>2015-01-16T10:20:11Z</time>
      </trkpt>
      <trkpt lat="43.41375" lon="5.53889">
        <ele>384</ele>
        <time>2015-01-16T10:20:32Z</time>
      </trkpt>
      <trkpt lat="43.41377" lon="5.53891">
        <ele>383</ele>
        <time>2015-01-16T10:20:47Z</time>
      </trkpt>
      <trkpt lat="43.41376" lon="5.53893">
        <ele>382</ele>
        <time>2015-01-16T10:21:01Z</time>
      </trkpt>
      <trkpt lat="43.41373" lon="5.53892">
        <ele>380</ele>
        <time>2015-01-16T10:21:17Z</time>
      </trkpt>
      <trkpt lat="43.41376" lon="5.53891">
        <ele>380</ele>
        <time>2015-01-16T10:21:32Z</time>
      </trkpt>
      <trkpt lat="43.41377" lon="5.53889">
        <ele>380</ele>
        <time>2015-01-16T10:21:47Z</time>
      </trkpt>
      <trkpt lat="43.4138" lon="5.5389">
        <ele>380</ele>
        <time>2015-01-16T10:21:53Z</time>
      </trkpt>
      <trkpt lat="43.41385" lon="5.53889">
        <ele>380</ele>
        <time>2015-01-16T10:22:01Z</time>
      </trkpt>
      <trkpt lat="43.41388" lon="5.5389">
        <ele>380</ele>
        <time>2015-01-16T10:22:17Z</time>
      </trkpt>
      <trkpt lat="43.41386" lon="5.53889">
        <ele>380</ele>
        <time>2015-01-16T10:22:32Z</time>
      </trkpt>
      <trkpt lat="43.41383" lon="5.53885">
        <ele>379</ele>
        <time>2015-01-16T10:22:47Z</time>
      </trkpt>
      <trkpt lat="43.41382" lon="5.53884">
        <ele>379</ele>
        <time>2015-01-16T10:22:58Z</time>
      </trkpt>
      <trkpt lat="43.41377" lon="5.53881">
        <ele>379</ele>
        <time>2015-01-16T10:23:05Z</time>
      </trkpt>
      <trkpt lat="43.41378" lon="5.53889">
        <ele>377</ele>
        <time>2015-01-16T10:23:26Z</time>
      </trkpt>
      <trkpt lat="43.41377" lon="5.53883">
        <ele>377</ele>
        <time>2015-01-16T10:23:29Z</time>
      </trkpt>
      <trkpt lat="43.41375" lon="5.53876">
        <ele>377</ele>
        <time>2015-01-16T10:23:31Z</time>
      </trkpt>
      <trkpt lat="43.41372" lon="5.53871">
        <ele>377</ele>
        <time>2015-01-16T10:23:33Z</time>
      </trkpt>
      <trkpt lat="43.41369" lon="5.53865">
        <ele>377</ele>
        <time>2015-01-16T10:23:35Z</time>
      </trkpt>
      <trkpt lat="43.41366" lon="5.53858">
        <ele>377</ele>
        <time>2015-01-16T10:23:38Z</time>
      </trkpt>
      <trkpt lat="43.41363" lon="5.5385">
        <ele>377</ele>
        <time>2015-01-16T10:23:41Z</time>
      </trkpt>
      <trkpt lat="43.4136" lon="5.53845">
        <ele>376</ele>
        <time>2015-01-16T10:23:43Z</time>
      </trkpt>
      <trkpt lat="43.41357" lon="5.53841">
        <ele>377</ele>
        <time>2015-01-16T10:23:45Z</time>
      </trkpt>
      <trkpt lat="43.41354" lon="5.53836">
        <ele>377</ele>
        <time>2015-01-16T10:23:47Z</time>
      </trkpt>
      <trkpt lat="43.41351" lon="5.53828">
        <ele>377</ele>
        <time>2015-01-16T10:23:49Z</time>
      </trkpt>
      <trkpt lat="43.41349" lon="5.53817">
        <ele>377</ele>
        <time>2015-01-16T10:23:51Z</time>
      </trkpt>
      <trkpt lat="43.41345" lon="5.53809">
        <ele>377</ele>
        <time>2015-01-16T10:23:53Z</time>
      </trkpt>
      <trkpt lat="43.41341" lon="5.53801">
        <ele>377</ele>
        <time>2015-01-16T10:23:55Z</time>
      </trkpt>
      <trkpt lat="43.41339" lon="5.53795">
        <ele>377</ele>
        <time>2015-01-16T10:23:57Z</time>
      </trkpt>
      <trkpt lat="43.41342" lon="5.53788">
        <ele>376</ele>
        <time>2015-01-16T10:24:01Z</time>
      </trkpt>
      <trkpt lat="43.41348" lon="5.53784">
        <ele>376</ele>
        <time>2015-01-16T10:24:03Z</time>
      </trkpt>
      <trkpt lat="43.41353" lon="5.53783">
        <ele>376</ele>
        <time>2015-01-16T10:24:05Z</time>
      </trkpt>
      <trkpt lat="43.41358" lon="5.53782">
        <ele>376</ele>
        <time>2015-01-16T10:24:07Z</time>
      </trkpt>
      <trkpt lat="43.41363" lon="5.53782">
        <ele>376</ele>
        <time>2015-01-16T10:24:09Z</time>
      </trkpt>
      <trkpt lat="43.41369" lon="5.5378">
        <ele>376</ele>
        <time>2015-01-16T10:24:13Z</time>
      </trkpt>
      <trkpt lat="43.41373" lon="5.53777">
        <ele>375</ele>
        <time>2015-01-16T10:24:15Z</time>
      </trkpt>
      <trkpt lat="43.41378" lon="5.53774">
        <ele>375</ele>
        <time>2015-01-16T10:24:18Z</time>
      </trkpt>
      <trkpt lat="43.41382" lon="5.53768">
        <ele>375</ele>
        <time>2015-01-16T10:24:21Z</time>
      </trkpt>
      <trkpt lat="43.41386" lon="5.53762">
        <ele>374</ele>
        <time>2015-01-16T10:24:24Z</time>
      </trkpt>
      <trkpt lat="43.4139" lon="5.53756">
        <ele>374</ele>
        <time>2015-01-16T10:24:27Z</time>
      </trkpt>
      <trkpt lat="43.41396" lon="5.53752">
        <ele>374</ele>
        <time>2015-01-16T10:24:30Z</time>
      </trkpt>
      <trkpt lat="43.41401" lon="5.53755">
        <ele>374</ele>
        <time>2015-01-16T10:24:32Z</time>
      </trkpt>
      <trkpt lat="43.41406" lon="5.5376">
        <ele>373</ele>
        <time>2015-01-16T10:24:34Z</time>
      </trkpt>
      <trkpt lat="43.41413" lon="5.53766">
        <ele>373</ele>
        <time>2015-01-16T10:24:36Z</time>
      </trkpt>
      <trkpt lat="43.41417" lon="5.5377">
        <ele>373</ele>
        <time>2015-01-16T10:24:37Z</time>
      </trkpt>
      <trkpt lat="43.41421" lon="5.53773">
        <ele>373</ele>
        <time>2015-01-16T10:24:38Z</time>
      </trkpt>
      <trkpt lat="43.41426" lon="5.53775">
        <ele>371</ele>
        <time>2015-01-16T10:24:39Z</time>
      </trkpt>
      <trkpt lat="43.41431" lon="5.53777">
        <ele>370</ele>
        <time>2015-01-16T10:24:40Z</time>
      </trkpt>
      <trkpt lat="43.41435" lon="5.53778">
        <ele>370</ele>
        <time>2015-01-16T10:24:41Z</time>
      </trkpt>
      <trkpt lat="43.41442" lon="5.53783">
        <ele>370</ele>
        <time>2015-01-16T10:24:43Z</time>
      </trkpt>
      <trkpt lat="43.41448" lon="5.53788">
        <ele>369</ele>
        <time>2015-01-16T10:24:45Z</time>
      </trkpt>
      <trkpt lat="43.41454" lon="5.53791">
        <ele>369</ele>
        <time>2015-01-16T10:24:47Z</time>
      </trkpt>
      <trkpt lat="43.41459" lon="5.53794">
        <ele>369</ele>
        <time>2015-01-16T10:24:49Z</time>
      </trkpt>
      <trkpt lat="43.41465" lon="5.53798">
        <ele>368</ele>
        <time>2015-01-16T10:24:51Z</time>
      </trkpt>
      <trkpt lat="43.4147" lon="5.53801">
        <ele>368</ele>
        <time>2015-01-16T10:24:53Z</time>
      </trkpt>
      <trkpt lat="43.41475" lon="5.53806">
        <ele>368</ele>
        <time>2015-01-16T10:24:55Z</time>
      </trkpt>
      <trkpt lat="43.41481" lon="5.53813">
        <ele>368</ele>
        <time>2015-01-16T10:24:57Z</time>
      </trkpt>
      <trkpt lat="43.41485" lon="5.53816">
        <ele>367</ele>
        <time>2015-01-16T10:24:58Z</time>
      </trkpt>
      <trkpt lat="43.4149" lon="5.5382">
        <ele>367</ele>
        <time>2015-01-16T10:24:59Z</time>
      </trkpt>
      <trkpt lat="43.41494" lon="5.53823">
        <ele>367</ele>
        <time>2015-01-16T10:25:00Z</time>
      </trkpt>
      <trkpt lat="43.415" lon="5.53829">
        <ele>367</ele>
        <time>2015-01-16T10:25:02Z</time>
      </trkpt>
      <trkpt lat="43.41504" lon="5.53832">
        <ele>366</ele>
        <time>2015-01-16T10:25:10Z</time>
      </trkpt>
      <trkpt lat="43.41508" lon="5.53834">
        <ele>365</ele>
        <time>2015-01-16T10:25:18Z</time>
      </trkpt>
      <trkpt lat="43.41513" lon="5.53838">
        <ele>365</ele>
        <time>2015-01-16T10:25:21Z</time>
      </trkpt>
      <trkpt lat="43.41517" lon="5.53843">
        <ele>364</ele>
        <time>2015-01-16T10:25:28Z</time>
      </trkpt>
      <trkpt lat="43.41521" lon="5.53847">
        <ele>364</ele>
        <time>2015-01-16T10:25:30Z</time>
      </trkpt>
      <trkpt lat="43.41523" lon="5.53852">
        <ele>364</ele>
        <time>2015-01-16T10:25:32Z</time>
      </trkpt>
      <trkpt lat="43.41527" lon="5.53857">
        <ele>364</ele>
        <time>2015-01-16T10:25:34Z</time>
      </trkpt>
      <trkpt lat="43.41532" lon="5.53863">
        <ele>363</ele>
        <time>2015-01-16T10:25:36Z</time>
      </trkpt>
      <trkpt lat="43.41535" lon="5.53867">
        <ele>363</ele>
        <time>2015-01-16T10:25:38Z</time>
      </trkpt>
      <trkpt lat="43.41539" lon="5.53872">
        <ele>363</ele>
        <time>2015-01-16T10:25:40Z</time>
      </trkpt>
      <trkpt lat="43.41544" lon="5.53876">
        <ele>363</ele>
        <time>2015-01-16T10:25:42Z</time>
      </trkpt>
      <trkpt lat="43.4155" lon="5.53881">
        <ele>363</ele>
        <time>2015-01-16T10:25:44Z</time>
      </trkpt>
      <trkpt lat="43.41554" lon="5.53885">
        <ele>363</ele>
        <time>2015-01-16T10:25:46Z</time>
      </trkpt>
      <trkpt lat="43.41559" lon="5.53889">
        <ele>362</ele>
        <time>2015-01-16T10:25:48Z</time>
      </trkpt>
      <trkpt lat="43.41563" lon="5.53893">
        <ele>362</ele>
        <time>2015-01-16T10:25:50Z</time>
      </trkpt>
      <trkpt lat="43.4157" lon="5.53895">
        <ele>362</ele>
        <time>2015-01-16T10:25:52Z</time>
      </trkpt>
      <trkpt lat="43.41578" lon="5.53898">
        <ele>362</ele>
        <time>2015-01-16T10:25:54Z</time>
      </trkpt>
      <trkpt lat="43.41584" lon="5.539">
        <ele>362</ele>
        <time>2015-01-16T10:25:56Z</time>
      </trkpt>
      <trkpt lat="43.41593" lon="5.53903">
        <ele>362</ele>
        <time>2015-01-16T10:25:58Z</time>
      </trkpt>
      <trkpt lat="43.41597" lon="5.53905">
        <ele>362</ele>
        <time>2015-01-16T10:25:59Z</time>
      </trkpt>
      <trkpt lat="43.41605" lon="5.53909">
        <ele>363</ele>
        <time>2015-01-16T10:26:01Z</time>
      </trkpt>
      <trkpt lat="43.41612" lon="5.53915">
        <ele>363</ele>
        <time>2015-01-16T10:26:03Z</time>
      </trkpt>
      <trkpt lat="43.4162" lon="5.53921">
        <ele>363</ele>
        <time>2015-01-16T10:26:05Z</time>
      </trkpt>
      <trkpt lat="43.41623" lon="5.53929">
        <ele>363</ele>
        <time>2015-01-16T10:26:07Z</time>
      </trkpt>
      <trkpt lat="43.41628" lon="5.53936">
        <ele>363</ele>
        <time>2015-01-16T10:26:09Z</time>
      </trkpt>
      <trkpt lat="43.41631" lon="5.53943">
        <ele>363</ele>
        <time>2015-01-16T10:26:11Z</time>
      </trkpt>
      <trkpt lat="43.41632" lon="5.5395">
        <ele>363</ele>
        <time>2015-01-16T10:26:13Z</time>
      </trkpt>
      <trkpt lat="43.41633" lon="5.53956">
        <ele>363</ele>
        <time>2015-01-16T10:26:15Z</time>
      </trkpt>
      <trkpt lat="43.41634" lon="5.53964">
        <ele>363</ele>
        <time>2015-01-16T10:26:19Z</time>
      </trkpt>
      <trkpt lat="43.41635" lon="5.53973">
        <ele>362</ele>
        <time>2015-01-16T10:26:22Z</time>
      </trkpt>
      <trkpt lat="43.41636" lon="5.5398">
        <ele>362</ele>
        <time>2015-01-16T10:26:24Z</time>
      </trkpt>
      <trkpt lat="43.41638" lon="5.53987">
        <ele>362</ele>
        <time>2015-01-16T10:26:26Z</time>
      </trkpt>
      <trkpt lat="43.41639" lon="5.53994">
        <ele>361</ele>
        <time>2015-01-16T10:26:29Z</time>
      </trkpt>
      <trkpt lat="43.41641" lon="5.54001">
        <ele>360</ele>
        <time>2015-01-16T10:26:32Z</time>
      </trkpt>
      <trkpt lat="43.41643" lon="5.54008">
        <ele>360</ele>
        <time>2015-01-16T10:26:35Z</time>
      </trkpt>
      <trkpt lat="43.41644" lon="5.54015">
        <ele>359</ele>
        <time>2015-01-16T10:26:38Z</time>
      </trkpt>
      <trkpt lat="43.41644" lon="5.54023">
        <ele>359</ele>
        <time>2015-01-16T10:26:41Z</time>
      </trkpt>
      <trkpt lat="43.41644" lon="5.54031">
        <ele>358</ele>
        <time>2015-01-16T10:26:44Z</time>
      </trkpt>
      <trkpt lat="43.41642" lon="5.54039">
        <ele>358</ele>
        <time>2015-01-16T10:26:47Z</time>
      </trkpt>
      <trkpt lat="43.41643" lon="5.54047">
        <ele>357</ele>
        <time>2015-01-16T10:26:49Z</time>
      </trkpt>
      <trkpt lat="43.41643" lon="5.54054">
        <ele>357</ele>
        <time>2015-01-16T10:26:51Z</time>
      </trkpt>
      <trkpt lat="43.41643" lon="5.54061">
        <ele>357</ele>
        <time>2015-01-16T10:26:53Z</time>
      </trkpt>
      <trkpt lat="43.41644" lon="5.54069">
        <ele>357</ele>
        <time>2015-01-16T10:26:55Z</time>
      </trkpt>
      <trkpt lat="43.41644" lon="5.54076">
        <ele>356</ele>
        <time>2015-01-16T10:26:57Z</time>
      </trkpt>
      <trkpt lat="43.41645" lon="5.54083">
        <ele>356</ele>
        <time>2015-01-16T10:26:59Z</time>
      </trkpt>
      <trkpt lat="43.41645" lon="5.54089">
        <ele>356</ele>
        <time>2015-01-16T10:27:01Z</time>
      </trkpt>
      <trkpt lat="43.41645" lon="5.54096">
        <ele>356</ele>
        <time>2015-01-16T10:27:03Z</time>
      </trkpt>
      <trkpt lat="43.41645" lon="5.54103">
        <ele>356</ele>
        <time>2015-01-16T10:27:05Z</time>
      </trkpt>
      <trkpt lat="43.41645" lon="5.54111">
        <ele>356</ele>
        <time>2015-01-16T10:27:07Z</time>
      </trkpt>
      <trkpt lat="43.41645" lon="5.54118">
        <ele>356</ele>
        <time>2015-01-16T10:27:09Z</time>
      </trkpt>
      <trkpt lat="43.41644" lon="5.54125">
        <ele>355</ele>
        <time>2015-01-16T10:27:11Z</time>
      </trkpt>
      <trkpt lat="43.41643" lon="5.54133">
        <ele>355</ele>
        <time>2015-01-16T10:27:13Z</time>
      </trkpt>
      <trkpt lat="43.41642" lon="5.54141">
        <ele>355</ele>
        <time>2015-01-16T10:27:15Z</time>
      </trkpt>
      <trkpt lat="43.41639" lon="5.54152">
        <ele>354</ele>
        <time>2015-01-16T10:27:17Z</time>
      </trkpt>
      <trkpt lat="43.41636" lon="5.54164">
        <ele>353</ele>
        <time>2015-01-16T10:27:19Z</time>
      </trkpt>
      <trkpt lat="43.41633" lon="5.54177">
        <ele>351</ele>
        <time>2015-01-16T10:27:21Z</time>
      </trkpt>
      <trkpt lat="43.41631" lon="5.54185">
        <ele>351</ele>
        <time>2015-01-16T10:27:22Z</time>
      </trkpt>
      <trkpt lat="43.41631" lon="5.54193">
        <ele>350</ele>
        <time>2015-01-16T10:27:23Z</time>
      </trkpt>
      <trkpt lat="43.41631" lon="5.54199">
        <ele>350</ele>
        <time>2015-01-16T10:27:24Z</time>
      </trkpt>
      <trkpt lat="43.4163" lon="5.54206">
        <ele>350</ele>
        <time>2015-01-16T10:27:25Z</time>
      </trkpt>
      <trkpt lat="43.41628" lon="5.54215">
        <ele>350</ele>
        <time>2015-01-16T10:27:27Z</time>
      </trkpt>
      <trkpt lat="43.41626" lon="5.54222">
        <ele>350</ele>
        <time>2015-01-16T10:27:29Z</time>
      </trkpt>
      <trkpt lat="43.41626" lon="5.5423">
        <ele>350</ele>
        <time>2015-01-16T10:27:31Z</time>
      </trkpt>
      <trkpt lat="43.41625" lon="5.54239">
        <ele>350</ele>
        <time>2015-01-16T10:27:33Z</time>
      </trkpt>
      <trkpt lat="43.41626" lon="5.54247">
        <ele>349</ele>
        <time>2015-01-16T10:27:35Z</time>
      </trkpt>
      <trkpt lat="43.41629" lon="5.54253">
        <ele>349</ele>
        <time>2015-01-16T10:27:37Z</time>
      </trkpt>
      <trkpt lat="43.41632" lon="5.54259">
        <ele>349</ele>
        <time>2015-01-16T10:27:39Z</time>
      </trkpt>
      <trkpt lat="43.41634" lon="5.54266">
        <ele>349</ele>
        <time>2015-01-16T10:27:42Z</time>
      </trkpt>
      <trkpt lat="43.41635" lon="5.54273">
        <ele>349</ele>
        <time>2015-01-16T10:27:45Z</time>
      </trkpt>
      <trkpt lat="43.41633" lon="5.54281">
        <ele>349</ele>
        <time>2015-01-16T10:27:49Z</time>
      </trkpt>
      <trkpt lat="43.4163" lon="5.54289">
        <ele>349</ele>
        <time>2015-01-16T10:27:52Z</time>
      </trkpt>
      <trkpt lat="43.41629" lon="5.54295">
        <ele>349</ele>
        <time>2015-01-16T10:27:55Z</time>
      </trkpt>
      <trkpt lat="43.41628" lon="5.54303">
        <ele>350</ele>
        <time>2015-01-16T10:27:58Z</time>
      </trkpt>
      <trkpt lat="43.41626" lon="5.54311">
        <ele>350</ele>
        <time>2015-01-16T10:28:01Z</time>
      </trkpt>
      <trkpt lat="43.41627" lon="5.5432">
        <ele>350</ele>
        <time>2015-01-16T10:28:03Z</time>
      </trkpt>
      <trkpt lat="43.4163" lon="5.54327">
        <ele>350</ele>
        <time>2015-01-16T10:28:06Z</time>
      </trkpt>
      <trkpt lat="43.41634" lon="5.5433">
        <ele>351</ele>
        <time>2015-01-16T10:28:09Z</time>
      </trkpt>
      <trkpt lat="43.41638" lon="5.54335">
        <ele>352</ele>
        <time>2015-01-16T10:28:22Z</time>
      </trkpt>
      <trkpt lat="43.41643" lon="5.54335">
        <ele>353</ele>
        <time>2015-01-16T10:28:41Z</time>
      </trkpt>
      <trkpt lat="43.41646" lon="5.5434">
        <ele>353</ele>
        <time>2015-01-16T10:28:57Z</time>
      </trkpt>
      <trkpt lat="43.4165" lon="5.54341">
        <ele>353</ele>
        <time>2015-01-16T10:28:59Z</time>
      </trkpt>
      <trkpt lat="43.41658" lon="5.54342">
        <ele>353</ele>
        <time>2015-01-16T10:29:01Z</time>
      </trkpt>
      <trkpt lat="43.41663" lon="5.54343">
        <ele>353</ele>
        <time>2015-01-16T10:29:03Z</time>
      </trkpt>
      <trkpt lat="43.41671" lon="5.54343">
        <ele>353</ele>
        <time>2015-01-16T10:29:06Z</time>
      </trkpt>
      <trkpt lat="43.41677" lon="5.54344">
        <ele>353</ele>
        <time>2015-01-16T10:29:08Z</time>
      </trkpt>
      <trkpt lat="43.41683" lon="5.54344">
        <ele>353</ele>
        <time>2015-01-16T10:29:10Z</time>
      </trkpt>
      <trkpt lat="43.41688" lon="5.54345">
        <ele>353</ele>
        <time>2015-01-16T10:29:12Z</time>
      </trkpt>
      <trkpt lat="43.41694" lon="5.54346">
        <ele>354</ele>
        <time>2015-01-16T10:29:14Z</time>
      </trkpt>
      <trkpt lat="43.417" lon="5.54348">
        <ele>354</ele>
        <time>2015-01-16T10:29:16Z</time>
      </trkpt>
      <trkpt lat="43.41705" lon="5.5435">
        <ele>354</ele>
        <time>2015-01-16T10:29:18Z</time>
      </trkpt>
      <trkpt lat="43.41711" lon="5.54352">
        <ele>354</ele>
        <time>2015-01-16T10:29:20Z</time>
      </trkpt>
      <trkpt lat="43.41718" lon="5.54354">
        <ele>354</ele>
        <time>2015-01-16T10:29:22Z</time>
      </trkpt>
      <trkpt lat="43.41724" lon="5.54355">
        <ele>354</ele>
        <time>2015-01-16T10:29:24Z</time>
      </trkpt>
      <trkpt lat="43.4173" lon="5.54357">
        <ele>355</ele>
        <time>2015-01-16T10:29:26Z</time>
      </trkpt>
      <trkpt lat="43.41736" lon="5.5436">
        <ele>355</ele>
        <time>2015-01-16T10:29:28Z</time>
      </trkpt>
      <trkpt lat="43.41742" lon="5.54367">
        <ele>355</ele>
        <time>2015-01-16T10:29:30Z</time>
      </trkpt>
      <trkpt lat="43.41745" lon="5.54372">
        <ele>355</ele>
        <time>2015-01-16T10:29:31Z</time>
      </trkpt>
      <trkpt lat="43.41748" lon="5.54376">
        <ele>355</ele>
        <time>2015-01-16T10:29:32Z</time>
      </trkpt>
      <trkpt lat="43.41752" lon="5.54382">
        <ele>355</ele>
        <time>2015-01-16T10:29:33Z</time>
      </trkpt>
      <trkpt lat="43.41756" lon="5.54388">
        <ele>355</ele>
        <time>2015-01-16T10:29:34Z</time>
      </trkpt>
      <trkpt lat="43.4176" lon="5.54394">
        <ele>355</ele>
        <time>2015-01-16T10:29:35Z</time>
      </trkpt>
      <trkpt lat="43.41762" lon="5.544">
        <ele>355</ele>
        <time>2015-01-16T10:29:36Z</time>
      </trkpt>
      <trkpt lat="43.41765" lon="5.54406">
        <ele>355</ele>
        <time>2015-01-16T10:29:37Z</time>
      </trkpt>
      <trkpt lat="43.41767" lon="5.54412">
        <ele>355</ele>
        <time>2015-01-16T10:29:38Z</time>
      </trkpt>
      <trkpt lat="43.41772" lon="5.54421">
        <ele>355</ele>
        <time>2015-01-16T10:29:40Z</time>
      </trkpt>
      <trkpt lat="43.41775" lon="5.54426">
        <ele>355</ele>
        <time>2015-01-16T10:29:41Z</time>
      </trkpt>
      <trkpt lat="43.41778" lon="5.54431">
        <ele>355</ele>
        <time>2015-01-16T10:29:42Z</time>
      </trkpt>
      <trkpt lat="43.41781" lon="5.54436">
        <ele>354</ele>
        <time>2015-01-16T10:29:43Z</time>
      </trkpt>
      <trkpt lat="43.41784" lon="5.54441">
        <ele>354</ele>
        <time>2015-01-16T10:29:44Z</time>
      </trkpt>
      <trkpt lat="43.41789" lon="5.54448">
        <ele>354</ele>
        <time>2015-01-16T10:29:46Z</time>
      </trkpt>
      <trkpt lat="43.41794" lon="5.54455">
        <ele>354</ele>
        <time>2015-01-16T10:29:48Z</time>
      </trkpt>
      <trkpt lat="43.41798" lon="5.54458">
        <ele>353</ele>
        <time>2015-01-16T10:29:49Z</time>
      </trkpt>
      <trkpt lat="43.41804" lon="5.54465">
        <ele>353</ele>
        <time>2015-01-16T10:29:51Z</time>
      </trkpt>
      <trkpt lat="43.41808" lon="5.5447">
        <ele>353</ele>
        <time>2015-01-16T10:29:53Z</time>
      </trkpt>
      <trkpt lat="43.41814" lon="5.54476">
        <ele>353</ele>
        <time>2015-01-16T10:29:55Z</time>
      </trkpt>
      <trkpt lat="43.41818" lon="5.54481">
        <ele>354</ele>
        <time>2015-01-16T10:29:56Z</time>
      </trkpt>
      <trkpt lat="43.41821" lon="5.54484">
        <ele>354</ele>
        <time>2015-01-16T10:29:57Z</time>
      </trkpt>
      <trkpt lat="43.41826" lon="5.54488">
        <ele>354</ele>
        <time>2015-01-16T10:29:58Z</time>
      </trkpt>
      <trkpt lat="43.4183" lon="5.5449">
        <ele>354</ele>
        <time>2015-01-16T10:29:59Z</time>
      </trkpt>
      <trkpt lat="43.41839" lon="5.54493">
        <ele>354</ele>
        <time>2015-01-16T10:30:01Z</time>
      </trkpt>
      <trkpt lat="43.41847" lon="5.54494">
        <ele>354</ele>
        <time>2015-01-16T10:30:03Z</time>
      </trkpt>
      <trkpt lat="43.41851" lon="5.54495">
        <ele>354</ele>
        <time>2015-01-16T10:30:04Z</time>
      </trkpt>
      <trkpt lat="43.41856" lon="5.54495">
        <ele>354</ele>
        <time>2015-01-16T10:30:05Z</time>
      </trkpt>
      <trkpt lat="43.41861" lon="5.54495">
        <ele>354</ele>
        <time>2015-01-16T10:30:06Z</time>
      </trkpt>
      <trkpt lat="43.41868" lon="5.54496">
        <ele>354</ele>
        <time>2015-01-16T10:30:08Z</time>
      </trkpt>
      <trkpt lat="43.41877" lon="5.54495">
        <ele>354</ele>
        <time>2015-01-16T10:30:10Z</time>
      </trkpt>
      <trkpt lat="43.41885" lon="5.54493">
        <ele>354</ele>
        <time>2015-01-16T10:30:12Z</time>
      </trkpt>
      <trkpt lat="43.41893" lon="5.54493">
        <ele>354</ele>
        <time>2015-01-16T10:30:14Z</time>
      </trkpt>
      <trkpt lat="43.41901" lon="5.54491">
        <ele>354</ele>
        <time>2015-01-16T10:30:16Z</time>
      </trkpt>
      <trkpt lat="43.41905" lon="5.54488">
        <ele>354</ele>
        <time>2015-01-16T10:30:17Z</time>
      </trkpt>
      <trkpt lat="43.4191" lon="5.54487">
        <ele>354</ele>
        <time>2015-01-16T10:30:18Z</time>
      </trkpt>
      <trkpt lat="43.41916" lon="5.54484">
        <ele>354</ele>
        <time>2015-01-16T10:30:19Z</time>
      </trkpt>
      <trkpt lat="43.4192" lon="5.54482">
        <ele>354</ele>
        <time>2015-01-16T10:30:20Z</time>
      </trkpt>
      <trkpt lat="43.41925" lon="5.54481">
        <ele>353</ele>
        <time>2015-01-16T10:30:21Z</time>
      </trkpt>
      <trkpt lat="43.41931" lon="5.5448">
        <ele>353</ele>
        <time>2015-01-16T10:30:22Z</time>
      </trkpt>
      <trkpt lat="43.41937" lon="5.54479">
        <ele>352</ele>
        <time>2015-01-16T10:30:23Z</time>
      </trkpt>
      <trkpt lat="43.41943" lon="5.54479">
        <ele>352</ele>
        <time>2015-01-16T10:30:24Z</time>
      </trkpt>
      <trkpt lat="43.41948" lon="5.54478">
        <ele>351</ele>
        <time>2015-01-16T10:30:25Z</time>
      </trkpt>
      <trkpt lat="43.41954" lon="5.54477">
        <ele>351</ele>
        <time>2015-01-16T10:30:26Z</time>
      </trkpt>
      <trkpt lat="43.41958" lon="5.54478">
        <ele>350</ele>
        <time>2015-01-16T10:30:27Z</time>
      </trkpt>
      <trkpt lat="43.41966" lon="5.54479">
        <ele>350</ele>
        <time>2015-01-16T10:30:29Z</time>
      </trkpt>
      <trkpt lat="43.41975" lon="5.54481">
        <ele>350</ele>
        <time>2015-01-16T10:30:31Z</time>
      </trkpt>
      <trkpt lat="43.4198" lon="5.54481">
        <ele>350</ele>
        <time>2015-01-16T10:30:32Z</time>
      </trkpt>
      <trkpt lat="43.41986" lon="5.54482">
        <ele>350</ele>
        <time>2015-01-16T10:30:33Z</time>
      </trkpt>
      <trkpt lat="43.41993" lon="5.54483">
        <ele>349</ele>
        <time>2015-01-16T10:30:34Z</time>
      </trkpt>
      <trkpt lat="43.41999" lon="5.54483">
        <ele>349</ele>
        <time>2015-01-16T10:30:35Z</time>
      </trkpt>
      <trkpt lat="43.42005" lon="5.54483">
        <ele>348</ele>
        <time>2015-01-16T10:30:36Z</time>
      </trkpt>
      <trkpt lat="43.42011" lon="5.54484">
        <ele>348</ele>
        <time>2015-01-16T10:30:37Z</time>
      </trkpt>
      <trkpt lat="43.42015" lon="5.54485">
        <ele>348</ele>
        <time>2015-01-16T10:30:38Z</time>
      </trkpt>
      <trkpt lat="43.4202" lon="5.54483">
        <ele>348</ele>
        <time>2015-01-16T10:30:40Z</time>
      </trkpt>
      <trkpt lat="43.42026" lon="5.54482">
        <ele>348</ele>
        <time>2015-01-16T10:30:43Z</time>
      </trkpt>
      <trkpt lat="43.42031" lon="5.54479">
        <ele>348</ele>
        <time>2015-01-16T10:30:47Z</time>
      </trkpt>
      <trkpt lat="43.42032" lon="5.54473">
        <ele>346</ele>
        <time>2015-01-16T10:31:01Z</time>
      </trkpt>
      <trkpt lat="43.42034" lon="5.54468">
        <ele>345</ele>
        <time>2015-01-16T10:31:07Z</time>
      </trkpt>
      <trkpt lat="43.42039" lon="5.54465">
        <ele>343</ele>
        <time>2015-01-16T10:31:14Z</time>
      </trkpt>
      <trkpt lat="43.42043" lon="5.54462">
        <ele>340</ele>
        <time>2015-01-16T10:31:23Z</time>
      </trkpt>
      <trkpt lat="43.42048" lon="5.5446">
        <ele>339</ele>
        <time>2015-01-16T10:31:34Z</time>
      </trkpt>
      <trkpt lat="43.42052" lon="5.54455">
        <ele>339</ele>
        <time>2015-01-16T10:31:37Z</time>
      </trkpt>
      <trkpt lat="43.42057" lon="5.54451">
        <ele>338</ele>
        <time>2015-01-16T10:31:40Z</time>
      </trkpt>
      <trkpt lat="43.42061" lon="5.54446">
        <ele>337</ele>
        <time>2015-01-16T10:31:42Z</time>
      </trkpt>
      <trkpt lat="43.42065" lon="5.5444">
        <ele>337</ele>
        <time>2015-01-16T10:31:44Z</time>
      </trkpt>
      <trkpt lat="43.4207" lon="5.5444">
        <ele>335</ele>
        <time>2015-01-16T10:31:49Z</time>
      </trkpt>
      <trkpt lat="43.42076" lon="5.54443">
        <ele>334</ele>
        <time>2015-01-16T10:31:52Z</time>
      </trkpt>
      <trkpt lat="43.4208" lon="5.5445">
        <ele>333</ele>
        <time>2015-01-16T10:31:54Z</time>
      </trkpt>
      <trkpt lat="43.42077" lon="5.54459">
        <ele>333</ele>
        <time>2015-01-16T10:31:57Z</time>
      </trkpt>
      <trkpt lat="43.42077" lon="5.54468">
        <ele>332</ele>
        <time>2015-01-16T10:31:59Z</time>
      </trkpt>
      <trkpt lat="43.42081" lon="5.54477">
        <ele>332</ele>
        <time>2015-01-16T10:32:01Z</time>
      </trkpt>
      <trkpt lat="43.42086" lon="5.54484">
        <ele>331</ele>
        <time>2015-01-16T10:32:03Z</time>
      </trkpt>
      <trkpt lat="43.42092" lon="5.54487">
        <ele>331</ele>
        <time>2015-01-16T10:32:05Z</time>
      </trkpt>
      <trkpt lat="43.421" lon="5.5449">
        <ele>330</ele>
        <time>2015-01-16T10:32:07Z</time>
      </trkpt>
      <trkpt lat="43.42106" lon="5.5449">
        <ele>330</ele>
        <time>2015-01-16T10:32:08Z</time>
      </trkpt>
      <trkpt lat="43.42111" lon="5.54489">
        <ele>329</ele>
        <time>2015-01-16T10:32:09Z</time>
      </trkpt>
      <trkpt lat="43.42116" lon="5.54487">
        <ele>328</ele>
        <time>2015-01-16T10:32:10Z</time>
      </trkpt>
      <trkpt lat="43.42122" lon="5.54486">
        <ele>326</ele>
        <time>2015-01-16T10:32:11Z</time>
      </trkpt>
      <trkpt lat="43.42127" lon="5.54484">
        <ele>325</ele>
        <time>2015-01-16T10:32:12Z</time>
      </trkpt>
      <trkpt lat="43.42132" lon="5.54481">
        <ele>324</ele>
        <time>2015-01-16T10:32:13Z</time>
      </trkpt>
      <trkpt lat="43.42137" lon="5.54479">
        <ele>323</ele>
        <time>2015-01-16T10:32:14Z</time>
      </trkpt>
      <trkpt lat="43.42142" lon="5.54476">
        <ele>323</ele>
        <time>2015-01-16T10:32:15Z</time>
      </trkpt>
      <trkpt lat="43.4215" lon="5.54474">
        <ele>324</ele>
        <time>2015-01-16T10:32:17Z</time>
      </trkpt>
      <trkpt lat="43.42155" lon="5.54473">
        <ele>324</ele>
        <time>2015-01-16T10:32:18Z</time>
      </trkpt>
      <trkpt lat="43.4216" lon="5.54472">
        <ele>324</ele>
        <time>2015-01-16T10:32:19Z</time>
      </trkpt>
      <trkpt lat="43.42165" lon="5.54473">
        <ele>324</ele>
        <time>2015-01-16T10:32:20Z</time>
      </trkpt>
      <trkpt lat="43.42173" lon="5.54475">
        <ele>324</ele>
        <time>2015-01-16T10:32:22Z</time>
      </trkpt>
      <trkpt lat="43.42178" lon="5.54475">
        <ele>324</ele>
        <time>2015-01-16T10:32:24Z</time>
      </trkpt>
      <trkpt lat="43.42182" lon="5.54479">
        <ele>324</ele>
        <time>2015-01-16T10:32:43Z</time>
      </trkpt>
      <trkpt lat="43.42184" lon="5.54481">
        <ele>324</ele>
        <time>2015-01-16T10:33:03Z</time>
      </trkpt>
      <trkpt lat="43.42185" lon="5.54479">
        <ele>326</ele>
        <time>2015-01-16T10:33:33Z</time>
      </trkpt>
      <trkpt lat="43.42183" lon="5.54478">
        <ele>325</ele>
        <time>2015-01-16T10:34:03Z</time>
      </trkpt>
      <trkpt lat="43.42183" lon="5.54476">
        <ele>323</ele>
        <time>2015-01-16T10:34:33Z</time>
      </trkpt>
      <trkpt lat="43.42186" lon="5.54475">
        <ele>322</ele>
        <time>2015-01-16T10:34:41Z</time>
      </trkpt>
      <trkpt lat="43.42192" lon="5.54477">
        <ele>321</ele>
        <time>2015-01-16T10:34:45Z</time>
      </trkpt>
      <trkpt lat="43.42197" lon="5.54479">
        <ele>321</ele>
        <time>2015-01-16T10:34:47Z</time>
      </trkpt>
      <trkpt lat="43.42203" lon="5.54482">
        <ele>321</ele>
        <time>2015-01-16T10:34:49Z</time>
      </trkpt>
      <trkpt lat="43.4221" lon="5.54485">
        <ele>320</ele>
        <time>2015-01-16T10:34:51Z</time>
      </trkpt>
      <trkpt lat="43.42219" lon="5.54488">
        <ele>320</ele>
        <time>2015-01-16T10:34:53Z</time>
      </trkpt>
      <trkpt lat="43.42226" lon="5.54491">
        <ele>319</ele>
        <time>2015-01-16T10:34:55Z</time>
      </trkpt>
      <trkpt lat="43.42234" lon="5.54494">
        <ele>319</ele>
        <time>2015-01-16T10:34:57Z</time>
      </trkpt>
      <trkpt lat="43.42241" lon="5.54497">
        <ele>319</ele>
        <time>2015-01-16T10:34:59Z</time>
      </trkpt>
      <trkpt lat="43.42246" lon="5.54499">
        <ele>319</ele>
        <time>2015-01-16T10:35:01Z</time>
      </trkpt>
      <trkpt lat="43.42252" lon="5.54501">
        <ele>319</ele>
        <time>2015-01-16T10:35:03Z</time>
      </trkpt>
      <trkpt lat="43.4226" lon="5.54503">
        <ele>318</ele>
        <time>2015-01-16T10:35:05Z</time>
      </trkpt>
      <trkpt lat="43.42265" lon="5.54504">
        <ele>318</ele>
        <time>2015-01-16T10:35:06Z</time>
      </trkpt>
      <trkpt lat="43.42273" lon="5.54503">
        <ele>318</ele>
        <time>2015-01-16T10:35:08Z</time>
      </trkpt>
      <trkpt lat="43.4228" lon="5.54502">
        <ele>318</ele>
        <time>2015-01-16T10:35:10Z</time>
      </trkpt>
      <trkpt lat="43.42286" lon="5.54501">
        <ele>318</ele>
        <time>2015-01-16T10:35:12Z</time>
      </trkpt>
      <trkpt lat="43.42292" lon="5.54499">
        <ele>318</ele>
        <time>2015-01-16T10:35:14Z</time>
      </trkpt>
      <trkpt lat="43.42299" lon="5.54495">
        <ele>318</ele>
        <time>2015-01-16T10:35:16Z</time>
      </trkpt>
      <trkpt lat="43.42303" lon="5.54491">
        <ele>318</ele>
        <time>2015-01-16T10:35:18Z</time>
      </trkpt>
      <trkpt lat="43.42309" lon="5.54487">
        <ele>318</ele>
        <time>2015-01-16T10:35:20Z</time>
      </trkpt>
      <trkpt lat="43.42315" lon="5.54484">
        <ele>318</ele>
        <time>2015-01-16T10:35:22Z</time>
      </trkpt>
      <trkpt lat="43.42322" lon="5.54483">
        <ele>318</ele>
        <time>2015-01-16T10:35:24Z</time>
      </trkpt>
      <trkpt lat="43.4233" lon="5.54483">
        <ele>318</ele>
        <time>2015-01-16T10:35:26Z</time>
      </trkpt>
      <trkpt lat="43.42338" lon="5.54485">
        <ele>318</ele>
        <time>2015-01-16T10:35:28Z</time>
      </trkpt>
      <trkpt lat="43.42345" lon="5.54489">
        <ele>318</ele>
        <time>2015-01-16T10:35:30Z</time>
      </trkpt>
      <trkpt lat="43.42353" lon="5.54493">
        <ele>319</ele>
        <time>2015-01-16T10:35:32Z</time>
      </trkpt>
      <trkpt lat="43.42359" lon="5.54496">
        <ele>319</ele>
        <time>2015-01-16T10:35:34Z</time>
      </trkpt>
      <trkpt lat="43.42366" lon="5.545">
        <ele>320</ele>
        <time>2015-01-16T10:35:36Z</time>
      </trkpt>
      <trkpt lat="43.42373" lon="5.54503">
        <ele>320</ele>
        <time>2015-01-16T10:35:38Z</time>
      </trkpt>
      <trkpt lat="43.4238" lon="5.54506">
        <ele>320</ele>
        <time>2015-01-16T10:35:40Z</time>
      </trkpt>
      <trkpt lat="43.42386" lon="5.5451">
        <ele>320</ele>
        <time>2015-01-16T10:35:42Z</time>
      </trkpt>
      <trkpt lat="43.42392" lon="5.54512">
        <ele>320</ele>
        <time>2015-01-16T10:35:44Z</time>
      </trkpt>
      <trkpt lat="43.424" lon="5.54515">
        <ele>320</ele>
        <time>2015-01-16T10:35:46Z</time>
      </trkpt>
      <trkpt lat="43.42407" lon="5.54519">
        <ele>320</ele>
        <time>2015-01-16T10:35:48Z</time>
      </trkpt>
      <trkpt lat="43.42413" lon="5.54523">
        <ele>320</ele>
        <time>2015-01-16T10:35:50Z</time>
      </trkpt>
      <trkpt lat="43.42418" lon="5.54529">
        <ele>320</ele>
        <time>2015-01-16T10:35:52Z</time>
      </trkpt>
      <trkpt lat="43.42424" lon="5.54533">
        <ele>320</ele>
        <time>2015-01-16T10:35:54Z</time>
      </trkpt>
      <trkpt lat="43.42429" lon="5.54538">
        <ele>320</ele>
        <time>2015-01-16T10:35:56Z</time>
      </trkpt>
      <trkpt lat="43.42436" lon="5.54544">
        <ele>320</ele>
        <time>2015-01-16T10:35:58Z</time>
      </trkpt>
      <trkpt lat="43.42442" lon="5.54549">
        <ele>321</ele>
        <time>2015-01-16T10:36:00Z</time>
      </trkpt>
      <trkpt lat="43.42447" lon="5.54553">
        <ele>321</ele>
        <time>2015-01-16T10:36:01Z</time>
      </trkpt>
      <trkpt lat="43.42452" lon="5.54556">
        <ele>321</ele>
        <time>2015-01-16T10:36:02Z</time>
      </trkpt>
      <trkpt lat="43.42458" lon="5.5456">
        <ele>321</ele>
        <time>2015-01-16T10:36:04Z</time>
      </trkpt>
      <trkpt lat="43.42461" lon="5.54565">
        <ele>321</ele>
        <time>2015-01-16T10:36:07Z</time>
      </trkpt>
      <trkpt lat="43.42458" lon="5.54573">
        <ele>322</ele>
        <time>2015-01-16T10:36:11Z</time>
      </trkpt>
      <trkpt lat="43.42455" lon="5.54582">
        <ele>322</ele>
        <time>2015-01-16T10:36:15Z</time>
      </trkpt>
      <trkpt lat="43.42452" lon="5.54591">
        <ele>322</ele>
        <time>2015-01-16T10:36:17Z</time>
      </trkpt>
      <trkpt lat="43.42449" lon="5.54601">
        <ele>322</ele>
        <time>2015-01-16T10:36:19Z</time>
      </trkpt>
      <trkpt lat="43.42447" lon="5.54609">
        <ele>322</ele>
        <time>2015-01-16T10:36:21Z</time>
      </trkpt>
      <trkpt lat="43.42443" lon="5.54617">
        <ele>323</ele>
        <time>2015-01-16T10:36:23Z</time>
      </trkpt>
      <trkpt lat="43.42438" lon="5.54623">
        <ele>323</ele>
        <time>2015-01-16T10:36:25Z</time>
      </trkpt>
      <trkpt lat="43.42433" lon="5.5463">
        <ele>323</ele>
        <time>2015-01-16T10:36:27Z</time>
      </trkpt>
      <trkpt lat="43.42426" lon="5.54637">
        <ele>325</ele>
        <time>2015-01-16T10:36:29Z</time>
      </trkpt>
      <trkpt lat="43.42422" lon="5.54641">
        <ele>325</ele>
        <time>2015-01-16T10:36:30Z</time>
      </trkpt>
      <trkpt lat="43.42417" lon="5.54644">
        <ele>325</ele>
        <time>2015-01-16T10:36:31Z</time>
      </trkpt>
      <trkpt lat="43.42413" lon="5.54645">
        <ele>325</ele>
        <time>2015-01-16T10:36:32Z</time>
      </trkpt>
      <trkpt lat="43.42408" lon="5.54647">
        <ele>325</ele>
        <time>2015-01-16T10:36:33Z</time>
      </trkpt>
      <trkpt lat="43.42402" lon="5.5465">
        <ele>325</ele>
        <time>2015-01-16T10:36:35Z</time>
      </trkpt>
      <trkpt lat="43.42396" lon="5.54648">
        <ele>325</ele>
        <time>2015-01-16T10:36:37Z</time>
      </trkpt>
      <trkpt lat="43.4239" lon="5.54644">
        <ele>324</ele>
        <time>2015-01-16T10:36:39Z</time>
      </trkpt>
      <trkpt lat="43.42385" lon="5.54636">
        <ele>321</ele>
        <time>2015-01-16T10:36:41Z</time>
      </trkpt>
      <trkpt lat="43.42382" lon="5.5463">
        <ele>320</ele>
        <time>2015-01-16T10:36:42Z</time>
      </trkpt>
      <trkpt lat="43.42378" lon="5.54624">
        <ele>319</ele>
        <time>2015-01-16T10:36:43Z</time>
      </trkpt>
      <trkpt lat="43.42373" lon="5.5462">
        <ele>319</ele>
        <time>2015-01-16T10:36:44Z</time>
      </trkpt>
      <trkpt lat="43.42369" lon="5.54617">
        <ele>319</ele>
        <time>2015-01-16T10:36:45Z</time>
      </trkpt>
      <trkpt lat="43.42362" lon="5.5462">
        <ele>319</ele>
        <time>2015-01-16T10:36:47Z</time>
      </trkpt>
      <trkpt lat="43.42357" lon="5.54626">
        <ele>319</ele>
        <time>2015-01-16T10:36:49Z</time>
      </trkpt>
      <trkpt lat="43.42355" lon="5.54632">
        <ele>319</ele>
        <time>2015-01-16T10:36:51Z</time>
      </trkpt>
      <trkpt lat="43.42353" lon="5.54641">
        <ele>319</ele>
        <time>2015-01-16T10:36:54Z</time>
      </trkpt>
      <trkpt lat="43.4235" lon="5.54647">
        <ele>319</ele>
        <time>2015-01-16T10:36:56Z</time>
      </trkpt>
      <trkpt lat="43.42347" lon="5.54658">
        <ele>319</ele>
        <time>2015-01-16T10:36:58Z</time>
      </trkpt>
      <trkpt lat="43.42347" lon="5.54666">
        <ele>319</ele>
        <time>2015-01-16T10:37:00Z</time>
      </trkpt>
      <trkpt lat="43.42344" lon="5.54672">
        <ele>319</ele>
        <time>2015-01-16T10:37:02Z</time>
      </trkpt>
      <trkpt lat="43.42342" lon="5.54678">
        <ele>319</ele>
        <time>2015-01-16T10:37:04Z</time>
      </trkpt>
      <trkpt lat="43.42345" lon="5.54688">
        <ele>318</ele>
        <time>2015-01-16T10:37:07Z</time>
      </trkpt>
      <trkpt lat="43.4235" lon="5.54698">
        <ele>318</ele>
        <time>2015-01-16T10:37:09Z</time>
      </trkpt>
      <trkpt lat="43.42355" lon="5.54707">
        <ele>318</ele>
        <time>2015-01-16T10:37:11Z</time>
      </trkpt>
      <trkpt lat="43.42362" lon="5.54715">
        <ele>315</ele>
        <time>2015-01-16T10:37:13Z</time>
      </trkpt>
      <trkpt lat="43.42369" lon="5.54722">
        <ele>313</ele>
        <time>2015-01-16T10:37:15Z</time>
      </trkpt>
      <trkpt lat="43.42376" lon="5.5473">
        <ele>312</ele>
        <time>2015-01-16T10:37:17Z</time>
      </trkpt>
      <trkpt lat="43.42381" lon="5.54735">
        <ele>312</ele>
        <time>2015-01-16T10:37:18Z</time>
      </trkpt>
      <trkpt lat="43.42386" lon="5.5474">
        <ele>311</ele>
        <time>2015-01-16T10:37:19Z</time>
      </trkpt>
      <trkpt lat="43.42391" lon="5.54746">
        <ele>311</ele>
        <time>2015-01-16T10:37:20Z</time>
      </trkpt>
      <trkpt lat="43.42396" lon="5.54751">
        <ele>311</ele>
        <time>2015-01-16T10:37:21Z</time>
      </trkpt>
      <trkpt lat="43.42401" lon="5.54757">
        <ele>311</ele>
        <time>2015-01-16T10:37:22Z</time>
      </trkpt>
      <trkpt lat="43.42405" lon="5.54763">
        <ele>310</ele>
        <time>2015-01-16T10:37:23Z</time>
      </trkpt>
      <trkpt lat="43.42408" lon="5.5477">
        <ele>310</ele>
        <time>2015-01-16T10:37:24Z</time>
      </trkpt>
      <trkpt lat="43.42413" lon="5.54777">
        <ele>310</ele>
        <time>2015-01-16T10:37:25Z</time>
      </trkpt>
      <trkpt lat="43.42417" lon="5.54783">
        <ele>310</ele>
        <time>2015-01-16T10:37:26Z</time>
      </trkpt>
      <trkpt lat="43.42422" lon="5.5479">
        <ele>309</ele>
        <time>2015-01-16T10:37:27Z</time>
      </trkpt>
      <trkpt lat="43.42428" lon="5.54797">
        <ele>309</ele>
        <time>2015-01-16T10:37:28Z</time>
      </trkpt>
      <trkpt lat="43.42434" lon="5.54804">
        <ele>308</ele>
        <time>2015-01-16T10:37:29Z</time>
      </trkpt>
      <trkpt lat="43.4244" lon="5.54809">
        <ele>308</ele>
        <time>2015-01-16T10:37:30Z</time>
      </trkpt>
      <trkpt lat="43.42446" lon="5.54815">
        <ele>308</ele>
        <time>2015-01-16T10:37:31Z</time>
      </trkpt>
      <trkpt lat="43.42452" lon="5.54821">
        <ele>307</ele>
        <time>2015-01-16T10:37:32Z</time>
      </trkpt>
      <trkpt lat="43.42458" lon="5.54827">
        <ele>307</ele>
        <time>2015-01-16T10:37:33Z</time>
      </trkpt>
      <trkpt lat="43.42464" lon="5.54831">
        <ele>306</ele>
        <time>2015-01-16T10:37:34Z</time>
      </trkpt>
      <trkpt lat="43.42471" lon="5.54835">
        <ele>305</ele>
        <time>2015-01-16T10:37:35Z</time>
      </trkpt>
      <trkpt lat="43.42476" lon="5.54838">
        <ele>304</ele>
        <time>2015-01-16T10:37:36Z</time>
      </trkpt>
      <trkpt lat="43.42482" lon="5.54841">
        <ele>304</ele>
        <time>2015-01-16T10:37:37Z</time>
      </trkpt>
      <trkpt lat="43.42489" lon="5.54845">
        <ele>304</ele>
        <time>2015-01-16T10:37:38Z</time>
      </trkpt>
      <trkpt lat="43.42495" lon="5.54847">
        <ele>304</ele>
        <time>2015-01-16T10:37:39Z</time>
      </trkpt>
      <trkpt lat="43.42502" lon="5.54849">
        <ele>303</ele>
        <time>2015-01-16T10:37:40Z</time>
      </trkpt>
      <trkpt lat="43.42509" lon="5.54851">
        <ele>303</ele>
        <time>2015-01-16T10:37:41Z</time>
      </trkpt>
      <trkpt lat="43.42516" lon="5.54852">
        <ele>303</ele>
        <time>2015-01-16T10:37:42Z</time>
      </trkpt>
      <trkpt lat="43.42523" lon="5.54854">
        <ele>302</ele>
        <time>2015-01-16T10:37:43Z</time>
      </trkpt>
      <trkpt lat="43.4253" lon="5.54855">
        <ele>302</ele>
        <time>2015-01-16T10:37:44Z</time>
      </trkpt>
      <trkpt lat="43.42537" lon="5.54857">
        <ele>302</ele>
        <time>2015-01-16T10:37:45Z</time>
      </trkpt>
      <trkpt lat="43.42544" lon="5.54858">
        <ele>303</ele>
        <time>2015-01-16T10:37:46Z</time>
      </trkpt>
      <trkpt lat="43.42549" lon="5.5486">
        <ele>303</ele>
        <time>2015-01-16T10:37:47Z</time>
      </trkpt>
      <trkpt lat="43.42555" lon="5.54864">
        <ele>303</ele>
        <time>2015-01-16T10:37:48Z</time>
      </trkpt>
      <trkpt lat="43.42562" lon="5.54868">
        <ele>304</ele>
        <time>2015-01-16T10:37:49Z</time>
      </trkpt>
      <trkpt lat="43.42568" lon="5.54872">
        <ele>304</ele>
        <time>2015-01-16T10:37:50Z</time>
      </trkpt>
      <trkpt lat="43.42576" lon="5.54876">
        <ele>304</ele>
        <time>2015-01-16T10:37:51Z</time>
      </trkpt>
      <trkpt lat="43.42582" lon="5.5488">
        <ele>304</ele>
        <time>2015-01-16T10:37:52Z</time>
      </trkpt>
      <trkpt lat="43.42588" lon="5.54883">
        <ele>304</ele>
        <time>2015-01-16T10:37:53Z</time>
      </trkpt>
      <trkpt lat="43.42593" lon="5.54884">
        <ele>304</ele>
        <time>2015-01-16T10:37:54Z</time>
      </trkpt>
      <trkpt lat="43.42599" lon="5.54886">
        <ele>304</ele>
        <time>2015-01-16T10:37:55Z</time>
      </trkpt>
      <trkpt lat="43.42604" lon="5.54885">
        <ele>304</ele>
        <time>2015-01-16T10:37:56Z</time>
      </trkpt>
      <trkpt lat="43.42609" lon="5.54883">
        <ele>304</ele>
        <time>2015-01-16T10:37:57Z</time>
      </trkpt>
      <trkpt lat="43.42614" lon="5.5488">
        <ele>304</ele>
        <time>2015-01-16T10:37:58Z</time>
      </trkpt>
      <trkpt lat="43.42625" lon="5.54883">
        <ele>303</ele>
        <time>2015-01-16T10:38:09Z</time>
      </trkpt>
      <trkpt lat="43.4263" lon="5.54884">
        <ele>303</ele>
        <time>2015-01-16T10:38:11Z</time>
      </trkpt>
      <trkpt lat="43.42636" lon="5.54884">
        <ele>303</ele>
        <time>2015-01-16T10:38:13Z</time>
      </trkpt>
      <trkpt lat="43.42645" lon="5.54886">
        <ele>303</ele>
        <time>2015-01-16T10:38:15Z</time>
      </trkpt>
      <trkpt lat="43.42651" lon="5.54886">
        <ele>303</ele>
        <time>2015-01-16T10:38:16Z</time>
      </trkpt>
      <trkpt lat="43.42656" lon="5.54889">
        <ele>303</ele>
        <time>2015-01-16T10:38:17Z</time>
      </trkpt>
      <trkpt lat="43.42661" lon="5.54892">
        <ele>303</ele>
        <time>2015-01-16T10:38:19Z</time>
      </trkpt>
      <trkpt lat="43.42669" lon="5.54885">
        <ele>303</ele>
        <time>2015-01-16T10:38:31Z</time>
      </trkpt>
      <trkpt lat="43.42674" lon="5.54882">
        <ele>304</ele>
        <time>2015-01-16T10:38:35Z</time>
      </trkpt>
      <trkpt lat="43.42679" lon="5.54879">
        <ele>304</ele>
        <time>2015-01-16T10:38:37Z</time>
      </trkpt>
      <trkpt lat="43.42683" lon="5.54875">
        <ele>304</ele>
        <time>2015-01-16T10:38:38Z</time>
      </trkpt>
      <trkpt lat="43.42688" lon="5.54871">
        <ele>304</ele>
        <time>2015-01-16T10:38:39Z</time>
      </trkpt>
      <trkpt lat="43.42691" lon="5.54867">
        <ele>304</ele>
        <time>2015-01-16T10:38:40Z</time>
      </trkpt>
      <trkpt lat="43.42697" lon="5.54861">
        <ele>303</ele>
        <time>2015-01-16T10:38:42Z</time>
      </trkpt>
      <trkpt lat="43.42705" lon="5.54858">
        <ele>302</ele>
        <time>2015-01-16T10:38:44Z</time>
      </trkpt>
      <trkpt lat="43.42711" lon="5.54855">
        <ele>301</ele>
        <time>2015-01-16T10:38:45Z</time>
      </trkpt>
      <trkpt lat="43.42718" lon="5.5485">
        <ele>300</ele>
        <time>2015-01-16T10:38:47Z</time>
      </trkpt>
      <trkpt lat="43.42723" lon="5.54848">
        <ele>299</ele>
        <time>2015-01-16T10:38:48Z</time>
      </trkpt>
      <trkpt lat="43.42731" lon="5.54845">
        <ele>298</ele>
        <time>2015-01-16T10:38:50Z</time>
      </trkpt>
      <trkpt lat="43.42736" lon="5.54844">
        <ele>297</ele>
        <time>2015-01-16T10:38:51Z</time>
      </trkpt>
      <trkpt lat="43.42741" lon="5.54845">
        <ele>297</ele>
        <time>2015-01-16T10:38:52Z</time>
      </trkpt>
      <trkpt lat="43.42748" lon="5.54847">
        <ele>297</ele>
        <time>2015-01-16T10:38:53Z</time>
      </trkpt>
      <trkpt lat="43.42756" lon="5.5485">
        <ele>297</ele>
        <time>2015-01-16T10:38:54Z</time>
      </trkpt>
      <trkpt lat="43.42763" lon="5.54854">
        <ele>298</ele>
        <time>2015-01-16T10:38:55Z</time>
      </trkpt>
      <trkpt lat="43.4277" lon="5.54857">
        <ele>298</ele>
        <time>2015-01-16T10:38:56Z</time>
      </trkpt>
      <trkpt lat="43.42776" lon="5.54859">
        <ele>298</ele>
        <time>2015-01-16T10:38:57Z</time>
      </trkpt>
      <trkpt lat="43.42783" lon="5.54861">
        <ele>298</ele>
        <time>2015-01-16T10:38:58Z</time>
      </trkpt>
      <trkpt lat="43.4279" lon="5.54864">
        <ele>299</ele>
        <time>2015-01-16T10:38:59Z</time>
      </trkpt>
      <trkpt lat="43.42794" lon="5.54866">
        <ele>299</ele>
        <time>2015-01-16T10:39:00Z</time>
      </trkpt>
      <trkpt lat="43.42799" lon="5.54869">
        <ele>299</ele>
        <time>2015-01-16T10:39:01Z</time>
      </trkpt>
      <trkpt lat="43.42805" lon="5.54871">
        <ele>298</ele>
        <time>2015-01-16T10:39:02Z</time>
      </trkpt>
      <trkpt lat="43.42811" lon="5.54875">
        <ele>298</ele>
        <time>2015-01-16T10:39:03Z</time>
      </trkpt>
      <trkpt lat="43.42817" lon="5.54878">
        <ele>297</ele>
        <time>2015-01-16T10:39:04Z</time>
      </trkpt>
      <trkpt lat="43.42823" lon="5.54882">
        <ele>297</ele>
        <time>2015-01-16T10:39:05Z</time>
      </trkpt>
      <trkpt lat="43.4283" lon="5.54887">
        <ele>297</ele>
        <time>2015-01-16T10:39:06Z</time>
      </trkpt>
      <trkpt lat="43.42837" lon="5.54891">
        <ele>297</ele>
        <time>2015-01-16T10:39:07Z</time>
      </trkpt>
      <trkpt lat="43.42844" lon="5.54895">
        <ele>297</ele>
        <time>2015-01-16T10:39:08Z</time>
      </trkpt>
      <trkpt lat="43.4285" lon="5.54899">
        <ele>298</ele>
        <time>2015-01-16T10:39:09Z</time>
      </trkpt>
      <trkpt lat="43.42856" lon="5.54903">
        <ele>298</ele>
        <time>2015-01-16T10:39:10Z</time>
      </trkpt>
      <trkpt lat="43.42862" lon="5.54907">
        <ele>298</ele>
        <time>2015-01-16T10:39:11Z</time>
      </trkpt>
      <trkpt lat="43.42867" lon="5.54909">
        <ele>298</ele>
        <time>2015-01-16T10:39:12Z</time>
      </trkpt>
      <trkpt lat="43.42873" lon="5.54912">
        <ele>298</ele>
        <time>2015-01-16T10:39:13Z</time>
      </trkpt>
      <trkpt lat="43.42878" lon="5.54916">
        <ele>297</ele>
        <time>2015-01-16T10:39:14Z</time>
      </trkpt>
      <trkpt lat="43.42883" lon="5.54918">
        <ele>296</ele>
        <time>2015-01-16T10:39:15Z</time>
      </trkpt>
      <trkpt lat="43.4289" lon="5.54921">
        <ele>296</ele>
        <time>2015-01-16T10:39:16Z</time>
      </trkpt>
      <trkpt lat="43.42897" lon="5.54925">
        <ele>295</ele>
        <time>2015-01-16T10:39:17Z</time>
      </trkpt>
      <trkpt lat="43.42902" lon="5.54929">
        <ele>295</ele>
        <time>2015-01-16T10:39:18Z</time>
      </trkpt>
      <trkpt lat="43.42908" lon="5.54932">
        <ele>296</ele>
        <time>2015-01-16T10:39:19Z</time>
      </trkpt>
      <trkpt lat="43.42915" lon="5.54935">
        <ele>296</ele>
        <time>2015-01-16T10:39:20Z</time>
      </trkpt>
      <trkpt lat="43.42921" lon="5.54937">
        <ele>297</ele>
        <time>2015-01-16T10:39:21Z</time>
      </trkpt>
      <trkpt lat="43.42927" lon="5.5494">
        <ele>297</ele>
        <time>2015-01-16T10:39:22Z</time>
      </trkpt>
      <trkpt lat="43.42933" lon="5.54943">
        <ele>297</ele>
        <time>2015-01-16T10:39:23Z</time>
      </trkpt>
      <trkpt lat="43.42938" lon="5.54945">
        <ele>297</ele>
        <time>2015-01-16T10:39:24Z</time>
      </trkpt>
      <trkpt lat="43.42942" lon="5.54947">
        <ele>297</ele>
        <time>2015-01-16T10:39:25Z</time>
      </trkpt>
      <trkpt lat="43.42948" lon="5.5495">
        <ele>296</ele>
        <time>2015-01-16T10:39:26Z</time>
      </trkpt>
      <trkpt lat="43.42954" lon="5.54951">
        <ele>297</ele>
        <time>2015-01-16T10:39:27Z</time>
      </trkpt>
      <trkpt lat="43.42962" lon="5.54953">
        <ele>297</ele>
        <time>2015-01-16T10:39:29Z</time>
      </trkpt>
      <trkpt lat="43.42967" lon="5.54953">
        <ele>298</ele>
        <time>2015-01-16T10:39:30Z</time>
      </trkpt>
      <trkpt lat="43.42975" lon="5.54953">
        <ele>298</ele>
        <time>2015-01-16T10:39:32Z</time>
      </trkpt>
      <trkpt lat="43.42984" lon="5.54952">
        <ele>299</ele>
        <time>2015-01-16T10:39:34Z</time>
      </trkpt>
      <trkpt lat="43.42989" lon="5.54952">
        <ele>301</ele>
        <time>2015-01-16T10:39:35Z</time>
      </trkpt>
      <trkpt lat="43.42994" lon="5.5495">
        <ele>302</ele>
        <time>2015-01-16T10:39:36Z</time>
      </trkpt>
      <trkpt lat="43.42999" lon="5.54948">
        <ele>303</ele>
        <time>2015-01-16T10:39:37Z</time>
      </trkpt>
      <trkpt lat="43.43004" lon="5.54947">
        <ele>304</ele>
        <time>2015-01-16T10:39:38Z</time>
      </trkpt>
      <trkpt lat="43.43009" lon="5.54945">
        <ele>304</ele>
        <time>2015-01-16T10:39:39Z</time>
      </trkpt>
      <trkpt lat="43.43018" lon="5.54942">
        <ele>305</ele>
        <time>2015-01-16T10:39:41Z</time>
      </trkpt>
      <trkpt lat="43.43022" lon="5.5494">
        <ele>304</ele>
        <time>2015-01-16T10:39:42Z</time>
      </trkpt>
      <trkpt lat="43.43028" lon="5.54938">
        <ele>304</ele>
        <time>2015-01-16T10:39:43Z</time>
      </trkpt>
      <trkpt lat="43.43035" lon="5.54935">
        <ele>304</ele>
        <time>2015-01-16T10:39:44Z</time>
      </trkpt>
      <trkpt lat="43.43041" lon="5.54933">
        <ele>304</ele>
        <time>2015-01-16T10:39:45Z</time>
      </trkpt>
      <trkpt lat="43.43045" lon="5.5493">
        <ele>304</ele>
        <time>2015-01-16T10:39:46Z</time>
      </trkpt>
      <trkpt lat="43.43049" lon="5.54925">
        <ele>305</ele>
        <time>2015-01-16T10:39:47Z</time>
      </trkpt>
      <trkpt lat="43.43055" lon="5.54921">
        <ele>305</ele>
        <time>2015-01-16T10:39:48Z</time>
      </trkpt>
      <trkpt lat="43.43061" lon="5.54916">
        <ele>305</ele>
        <time>2015-01-16T10:39:49Z</time>
      </trkpt>
      <trkpt lat="43.43067" lon="5.54912">
        <ele>304</ele>
        <time>2015-01-16T10:39:50Z</time>
      </trkpt>
      <trkpt lat="43.43072" lon="5.54907">
        <ele>304</ele>
        <time>2015-01-16T10:39:51Z</time>
      </trkpt>
      <trkpt lat="43.43077" lon="5.54903">
        <ele>304</ele>
        <time>2015-01-16T10:39:52Z</time>
      </trkpt>
      <trkpt lat="43.43081" lon="5.54899">
        <ele>304</ele>
        <time>2015-01-16T10:39:53Z</time>
      </trkpt>
      <trkpt lat="43.43089" lon="5.54897">
        <ele>303</ele>
        <time>2015-01-16T10:39:56Z</time>
      </trkpt>
      <trkpt lat="43.43095" lon="5.54901">
        <ele>303</ele>
        <time>2015-01-16T10:39:58Z</time>
      </trkpt>
      <trkpt lat="43.431" lon="5.54901">
        <ele>302</ele>
        <time>2015-01-16T10:39:59Z</time>
      </trkpt>
      <trkpt lat="43.43105" lon="5.54901">
        <ele>302</ele>
        <time>2015-01-16T10:40:01Z</time>
      </trkpt>
      <trkpt lat="43.43116" lon="5.54888">
        <ele>300</ele>
        <time>2015-01-16T10:40:10Z</time>
      </trkpt>
      <trkpt lat="43.43118" lon="5.54881">
        <ele>300</ele>
        <time>2015-01-16T10:40:12Z</time>
      </trkpt>
      <trkpt lat="43.43119" lon="5.54875">
        <ele>300</ele>
        <time>2015-01-16T10:40:14Z</time>
      </trkpt>
      <trkpt lat="43.43119" lon="5.54869">
        <ele>300</ele>
        <time>2015-01-16T10:40:16Z</time>
      </trkpt>
      <trkpt lat="43.43119" lon="5.54862">
        <ele>300</ele>
        <time>2015-01-16T10:40:18Z</time>
      </trkpt>
      <trkpt lat="43.43118" lon="5.54855">
        <ele>300</ele>
        <time>2015-01-16T10:40:20Z</time>
      </trkpt>
      <trkpt lat="43.43118" lon="5.54848">
        <ele>300</ele>
        <time>2015-01-16T10:40:22Z</time>
      </trkpt>
      <trkpt lat="43.43116" lon="5.54842">
        <ele>301</ele>
        <time>2015-01-16T10:40:24Z</time>
      </trkpt>
      <trkpt lat="43.43115" lon="5.54836">
        <ele>301</ele>
        <time>2015-01-16T10:40:26Z</time>
      </trkpt>
      <trkpt lat="43.43115" lon="5.54829">
        <ele>301</ele>
        <time>2015-01-16T10:40:29Z</time>
      </trkpt>
      <trkpt lat="43.43112" lon="5.54821">
        <ele>302</ele>
        <time>2015-01-16T10:40:31Z</time>
      </trkpt>
      <trkpt lat="43.43111" lon="5.54814">
        <ele>302</ele>
        <time>2015-01-16T10:40:33Z</time>
      </trkpt>
      <trkpt lat="43.43108" lon="5.54808">
        <ele>302</ele>
        <time>2015-01-16T10:40:35Z</time>
      </trkpt>
      <trkpt lat="43.43105" lon="5.54803">
        <ele>302</ele>
        <time>2015-01-16T10:40:37Z</time>
      </trkpt>
      <trkpt lat="43.43102" lon="5.54797">
        <ele>302</ele>
        <time>2015-01-16T10:40:39Z</time>
      </trkpt>
      <trkpt lat="43.43098" lon="5.54791">
        <ele>302</ele>
        <time>2015-01-16T10:40:41Z</time>
      </trkpt>
      <trkpt lat="43.43097" lon="5.54784">
        <ele>303</ele>
        <time>2015-01-16T10:40:43Z</time>
      </trkpt>
      <trkpt lat="43.43094" lon="5.54776">
        <ele>303</ele>
        <time>2015-01-16T10:40:45Z</time>
      </trkpt>
      <trkpt lat="43.43092" lon="5.54771">
        <ele>303</ele>
        <time>2015-01-16T10:40:48Z</time>
      </trkpt>
      <trkpt lat="43.43091" lon="5.54764">
        <ele>304</ele>
        <time>2015-01-16T10:40:51Z</time>
      </trkpt>
      <trkpt lat="43.43091" lon="5.54758">
        <ele>304</ele>
        <time>2015-01-16T10:40:54Z</time>
      </trkpt>
      <trkpt lat="43.43089" lon="5.54752">
        <ele>304</ele>
        <time>2015-01-16T10:40:57Z</time>
      </trkpt>
      <trkpt lat="43.43087" lon="5.54744">
        <ele>304</ele>
        <time>2015-01-16T10:41:00Z</time>
      </trkpt>
      <trkpt lat="43.43085" lon="5.54737">
        <ele>305</ele>
        <time>2015-01-16T10:41:04Z</time>
      </trkpt>
      <trkpt lat="43.43085" lon="5.54729">
        <ele>305</ele>
        <time>2015-01-16T10:41:08Z</time>
      </trkpt>
      <trkpt lat="43.43087" lon="5.54723">
        <ele>304</ele>
        <time>2015-01-16T10:41:13Z</time>
      </trkpt>
      <trkpt lat="43.43091" lon="5.54716">
        <ele>305</ele>
        <time>2015-01-16T10:41:17Z</time>
      </trkpt>
      <trkpt lat="43.43092" lon="5.5471">
        <ele>305</ele>
        <time>2015-01-16T10:41:20Z</time>
      </trkpt>
      <trkpt lat="43.43093" lon="5.54702">
        <ele>305</ele>
        <time>2015-01-16T10:41:23Z</time>
      </trkpt>
      <trkpt lat="43.43094" lon="5.54696">
        <ele>305</ele>
        <time>2015-01-16T10:41:25Z</time>
      </trkpt>
      <trkpt lat="43.43094" lon="5.54689">
        <ele>305</ele>
        <time>2015-01-16T10:41:28Z</time>
      </trkpt>
      <trkpt lat="43.43095" lon="5.54682">
        <ele>306</ele>
        <time>2015-01-16T10:41:31Z</time>
      </trkpt>
      <trkpt lat="43.43096" lon="5.54675">
        <ele>306</ele>
        <time>2015-01-16T10:41:35Z</time>
      </trkpt>
      <trkpt lat="43.43097" lon="5.54668">
        <ele>307</ele>
        <time>2015-01-16T10:41:38Z</time>
      </trkpt>
      <trkpt lat="43.43099" lon="5.54662">
        <ele>307</ele>
        <time>2015-01-16T10:41:40Z</time>
      </trkpt>
      <trkpt lat="43.43101" lon="5.54657">
        <ele>307</ele>
        <time>2015-01-16T10:41:42Z</time>
      </trkpt>
      <trkpt lat="43.43107" lon="5.54653">
        <ele>307</ele>
        <time>2015-01-16T10:41:47Z</time>
      </trkpt>
      <trkpt lat="43.43111" lon="5.54654">
        <ele>307</ele>
        <time>2015-01-16T10:41:50Z</time>
      </trkpt>
      <trkpt lat="43.43115" lon="5.5466">
        <ele>308</ele>
        <time>2015-01-16T10:41:53Z</time>
      </trkpt>
      <trkpt lat="43.43117" lon="5.54666">
        <ele>308</ele>
        <time>2015-01-16T10:41:57Z</time>
      </trkpt>
      <trkpt lat="43.43121" lon="5.54673">
        <ele>308</ele>
        <time>2015-01-16T10:42:01Z</time>
      </trkpt>
      <trkpt lat="43.43125" lon="5.54677">
        <ele>308</ele>
        <time>2015-01-16T10:42:04Z</time>
      </trkpt>
      <trkpt lat="43.4313" lon="5.5468">
        <ele>309</ele>
        <time>2015-01-16T10:42:07Z</time>
      </trkpt>
      <trkpt lat="43.43135" lon="5.54682">
        <ele>309</ele>
        <time>2015-01-16T10:42:10Z</time>
      </trkpt>
      <trkpt lat="43.4314" lon="5.54686">
        <ele>310</ele>
        <time>2015-01-16T10:42:13Z</time>
      </trkpt>
      <trkpt lat="43.43146" lon="5.54689">
        <ele>310</ele>
        <time>2015-01-16T10:42:16Z</time>
      </trkpt>
      <trkpt lat="43.43149" lon="5.54694">
        <ele>311</ele>
        <time>2015-01-16T10:42:19Z</time>
      </trkpt>
      <trkpt lat="43.43152" lon="5.54703">
        <ele>311</ele>
        <time>2015-01-16T10:42:21Z</time>
      </trkpt>
      <trkpt lat="43.43154" lon="5.54712">
        <ele>316</ele>
        <time>2015-01-16T10:42:23Z</time>
      </trkpt>
      <trkpt lat="43.43158" lon="5.54723">
        <ele>319</ele>
        <time>2015-01-16T10:42:25Z</time>
      </trkpt>
      <trkpt lat="43.43161" lon="5.54728">
        <ele>320</ele>
        <time>2015-01-16T10:42:26Z</time>
      </trkpt>
      <trkpt lat="43.43166" lon="5.54733">
        <ele>320</ele>
        <time>2015-01-16T10:42:27Z</time>
      </trkpt>
      <trkpt lat="43.43169" lon="5.54737">
        <ele>320</ele>
        <time>2015-01-16T10:42:28Z</time>
      </trkpt>
      <trkpt lat="43.43176" lon="5.54742">
        <ele>319</ele>
        <time>2015-01-16T10:42:30Z</time>
      </trkpt>
      <trkpt lat="43.43182" lon="5.54743">
        <ele>319</ele>
        <time>2015-01-16T10:42:32Z</time>
      </trkpt>
      <trkpt lat="43.43189" lon="5.54743">
        <ele>319</ele>
        <time>2015-01-16T10:42:34Z</time>
      </trkpt>
      <trkpt lat="43.43196" lon="5.54743">
        <ele>318</ele>
        <time>2015-01-16T10:42:36Z</time>
      </trkpt>
      <trkpt lat="43.43204" lon="5.54746">
        <ele>317</ele>
        <time>2015-01-16T10:42:38Z</time>
      </trkpt>
      <trkpt lat="43.4321" lon="5.54749">
        <ele>317</ele>
        <time>2015-01-16T10:42:40Z</time>
      </trkpt>
      <trkpt lat="43.43213" lon="5.54751">
        <ele>316</ele>
        <time>2015-01-16T10:43:03Z</time>
      </trkpt>
      <trkpt lat="43.4321" lon="5.5475">
        <ele>314</ele>
        <time>2015-01-16T10:44:32Z</time>
      </trkpt>
      <trkpt lat="43.43214" lon="5.54759">
        <ele>306</ele>
        <time>2015-01-16T10:44:45Z</time>
      </trkpt>
    </trkseg>
  </trk>
</gpx>